# Wetter Temperatur Luftdruck Luftfeuchtigkeit Sichtweite Windgeschwindigkeit Windrichtung Zeit
1 Clouds 1 994 83 10000 2.06 100 14:26 01.02.2023
2 Clouds 1 993 85 10000 2.57 170 13:20 01.02.2023
3 Clouds 1 993 84 10000 3.6 130 12:50 01.02.2023
4 Clouds 1 993 87 10000 1.03 0 11:56 01.02.2023
5 Fog -1 992 88 10000 1.79 122 08:51 01.02.2023
6 Clouds -1 992 91 10000 1.54 210 02:34 01.02.2023
7 Clouds 0 991 90 10000 3.6 220 21:38 31.01.2023
8 Clouds 0 991 87 10000 2.57 230 19:48 31.01.2023
9 Clouds 1 990 85 10000 3.6 250 18:50 31.01.2023
10 Clouds 1 989 84 10000 4.12 260 15:36 31.01.2023
11 Clouds 1 989 83 10000 4.02 270 15:18 31.01.2023
12 Clouds 2 989 80 10000 4.63 250 14:19 31.01.2023
13 Clouds 1 989 80 10000 6.69 280 12:19 31.01.2023
14 Clouds 0 989 80 10000 6.69 280 11:19 31.01.2023
15 Clouds 0 988 81 10000 7.2 280 09:52 31.01.2023
16 Clouds -1 987 81 10000 8.75 280 08:59 31.01.2023
17 Clouds -1 987 81 10000 8.75 280 08:35 31.01.2023
18 Clouds 0 984 83 10000 9.26 300 05:36 31.01.2023
19 Clouds 0 973 90 10000 5.66 280 23:55 30.01.2023
20 Snow 1 972 90 6000 7.72 290 22:51 30.01.2023
21 Clouds 1 971 91 6000 7.72 290 22:30 30.01.2023
22 Clouds 1 969 91 6000 6.69 260 20:48 30.01.2023
23 Clouds 1 969 89 10000 7.2 250 19:53 30.01.2023
24 Clear 2 968 88 10000 6.69 220 17:30 30.01.2023
25 Clear 2 973 88 10000 7.2 200 16:26 30.01.2023
26 Clouds 2 972 89 10000 6.69 220 14:27 30.01.2023
27 Clouds 3 972 90 10000 6.17 230 12:26 30.01.2023
28 Clouds 3 972 92 10000 5.14 220 10:55 30.01.2023
29 Clouds 2 972 94 10000 6.17 210 09:54 30.01.2023
30 Rain 2 973 94 10000 7.2 210 08:48 30.01.2023
31 Rain 2 974 95 10000 7.6 226 06:40 30.01.2023
32 Snow 1 982 96 3500 8.23 190 01:38 30.01.2023
33 Snow 2 986 95 9000 8.75 190 23:34 29.01.2023
34 Snow 2 988 94 7000 8.05 201 22:37 29.01.2023
35 Snow 2 990 95 8000 7.72 190 21:30 29.01.2023
36 Clouds 2 992 93 10000 8.23 190 20:36 29.01.2023
37 Clouds 2 994 93 10000 8.75 200 19:33 29.01.2023
38 Clouds 2 995 93 10000 8.23 210 18:41 29.01.2023
39 Clouds 2 996 93 10000 7.2 200 17:28 29.01.2023
40 Clouds 2 998 92 10000 6.69 210 16:20 29.01.2023
41 Clouds 2 998 92 10000 6.69 210 16:20 29.01.2023
42 Snow 1 1000 91 10000 4.63 180 14:21 29.01.2023
43 Snow 1 1001 88 10000 3.58 215 13:25 29.01.2023
44 Clear 1 1002 86 10000 3.58 211 12:39 29.01.2023
45 Clear 1 1002 85 10000 3.58 178 12:20 29.01.2023
46 Clear 0 1003 87 10000 3.6 200 11:38 29.01.2023
47 Clear 0 1003 86 10000 2.06 220 10:54 29.01.2023
48 Clear -1 999 91 10000 2.68 217 08:55 29.01.2023
49 Clear -1 1000 91 10000 3.13 254 06:49 29.01.2023
50 Clouds -1 1002 94 10000 4.12 230 00:19 29.01.2023
51 Clouds 0 1009 92 10000 4.63 250 21:49 28.01.2023
52 Clouds 0 1009 94 10000 5.14 250 19:59 28.01.2023
53 Clouds 0 1009 94 10000 4.63 230 19:27 28.01.2023
54 Snow 1 1009 94 5000 4.63 230 17:59 28.01.2023
55 Clouds 0 1009 89 7000 7.15 228 16:58 28.01.2023
56 Snow 0 1010 96 2500 9.83 218 16:19 28.01.2023
57 Snow 0 1010 94 1800 10.28 208 15:38 28.01.2023
58 Snow 0 1011 91 2500 9.83 234 13:57 28.01.2023
59 Clouds 0 1012 89 10000 9.83 224 12:46 28.01.2023
60 Clouds 0 1015 89 10000 9.26 210 11:25 28.01.2023
61 Clouds 0 1015 90 10000 8.23 200 10:33 28.01.2023
62 Clouds -1 1019 86 10000 7.6 206 05:57 28.01.2023
63 Clouds -3 1022 95 10000 4.12 200 01:32 28.01.2023
64 Clouds -5 1022 95 10000 1.54 200 00:22 28.01.2023
65 Clouds -5 1025 95 10000 1.54 230 20:57 27.01.2023
66 Clear -4 1025 91 10000 1.54 220 17:59 27.01.2023
67 Clear -4 1025 91 10000 1.79 283 17:39 27.01.2023
68 Clear -3 1025 90 10000 2.57 270 17:18 27.01.2023
69 Clear -3 1025 88 10000 1.03 0 16:33 27.01.2023
70 Clear -1 1025 84 10000 1.54 260 14:46 27.01.2023
71 Clear -1 1025 85 10000 1.54 260 14:23 27.01.2023
72 Clear -2 1025 84 10000 1.54 310 12:44 27.01.2023
73 Clear -5 1019 94 10000 3.58 335 08:37 27.01.2023
74 Clear -3 1017 93 10000 3.09 320 03:55 27.01.2023
75 Clouds -1 1020 92 10000 3.6 320 22:52 26.01.2023
76 Clouds 0 1019 89 10000 5.66 330 21:22 26.01.2023
77 Clouds 0 1019 89 10000 5.66 330 21:22 26.01.2023
78 Clouds 0 1018 89 10000 5.66 320 20:35 26.01.2023
79 Clouds 1 1017 87 10000 4.63 310 18:23 26.01.2023
80 Clouds 1 1017 86 10000 5.66 320 17:42 26.01.2023
81 Clouds 1 1016 88 10000 5.66 320 16:27 26.01.2023
82 Clouds 1 1016 87 10000 4.12 320 15:50 26.01.2023
83 Clouds 2 1015 86 10000 6.69 320 15:30 26.01.2023
84 Clouds 2 1014 90 10000 5.14 310 13:58 26.01.2023
85 Clouds 3 1013 92 10000 4.12 300 12:44 26.01.2023
86 Clouds 3 1013 93 10000 3.09 290 11:26 26.01.2023
87 Rain 3 1012 94 10000 3.09 290 10:28 26.01.2023
88 Rain 3 1007 95 10000 3.09 280 09:44 26.01.2023
89 Mist 2 1006 95 2000 2.57 250 08:25 26.01.2023
90 Mist 2 1006 94 1100 3.6 290 08:25 26.01.2023
91 Drizzle 3 1006 96 5000 3.09 220 23:59 25.01.2023
92 Drizzle 3 1006 96 5000 4.63 210 23:38 25.01.2023
93 Drizzle 3 1005 95 3500 4.12 220 21:57 25.01.2023
94 Drizzle 3 1006 96 4000 4.63 210 21:21 25.01.2023
95 Drizzle 3 1006 96 4000 5.14 210 18:57 25.01.2023
96 Drizzle 3 1006 95 3500 4.63 220 18:22 25.01.2023
97 Drizzle 3 1012 95 2400 4.63 230 15:44 25.01.2023
98 Mist 3 1013 94 2500 5.66 220 12:58 25.01.2023
99 Drizzle 3 1014 94 2000 6.17 230 11:20 25.01.2023
100 Drizzle 3 1015 95 2500 7.2 220 09:45 25.01.2023
101 Drizzle 2 1016 96 900 6.71 230 07:45 25.01.2023
102 Drizzle 1 1022 96 7000 5.66 220 01:36 25.01.2023
103 Drizzle 1 1024 95 5000 5.14 220 00:23 25.01.2023
104 Drizzle 1 1026 96 6000 4.12 230 21:34 24.01.2023
105 Clouds 0 1026 96 6000 5.66 240 20:19 24.01.2023
106 Clouds 0 1026 96 6000 5.66 240 20:19 24.01.2023
107 Mist 0 1027 95 4000 3.6 230 18:46 24.01.2023
108 Clouds 0 1027 95 7000 4.63 240 17:31 24.01.2023
109 Drizzle 0 1027 94 10000 4.63 240 16:53 24.01.2023
110 Drizzle 0 1027 94 10000 5.14 250 16:26 24.01.2023
111 Drizzle 0 1027 94 10000 5.14 250 16:26 24.01.2023
112 Drizzle 1 1027 93 10000 4.12 250 13:41 24.01.2023
113 Clouds 0 1027 94 5000 4.12 260 11:30 24.01.2023
114 Clouds 0 1027 93 10000 5.14 250 08:38 24.01.2023
115 Clouds 0 1027 93 10000 5.66 240 08:18 24.01.2023
116 Clouds 0 1027 94 10000 4.63 240 07:47 24.01.2023
117 Clouds -1 1029 90 10000 7.72 230 02:40 24.01.2023
118 Clouds -1 1030 92 10000 6.17 230 00:37 24.01.2023
119 Clouds 0 1031 90 10000 10.29 220 22:28 23.01.2023
120 Clouds 0 1033 91 10000 6.17 210 20:26 23.01.2023
121 Clouds -1 1033 93 6000 6.26 212 19:21 23.01.2023
122 Mist -1 1035 93 3000 4.12 210 17:19 23.01.2023
123 Clouds -2 1035 94 9000 4.12 180 15:32 23.01.2023
124 Clouds -3 1036 93 10000 4.02 205 13:56 23.01.2023
125 Clouds -3 1036 92 10000 4.12 220 12:55 23.01.2023
126 Clouds -3 1037 93 10000 3.6 230 11:46 23.01.2023
127 Clouds -4 1038 93 10000 4.12 210 10:55 23.01.2023
128 Clouds -4 1038 95 10000 2.57 210 08:24 23.01.2023
129 Clouds -4 1039 95 7000 1.54 220 23:53 22.01.2023
130 Mist -4 1040 94 2500 2.06 210 21:51 22.01.2023
131 Mist -4 1040 95 2000 1.03 0 21:19 22.01.2023
132 Mist -4 1040 95 4000 1.03 0 19:55 22.01.2023
133 Fog -4 1040 95 3000 1.54 200 19:37 22.01.2023
134 Fog -5 1040 96 700 1.54 190 18:36 22.01.2023
135 Fog -5 1040 95 700 1.54 190 17:55 22.01.2023
136 Mist -5 1040 97 1100 2.06 200 17:24 22.01.2023
137 Mist -5 1034 97 1500 1.03 0 15:25 22.01.2023
138 Mist -5 1034 96 3000 1.54 100 14:25 22.01.2023
139 Mist -5 1034 97 1300 1.03 0 13:27 22.01.2023
140 Fog -5 1034 96 900 1.03 0 12:29 22.01.2023
141 Fog -5 1035 96 900 0.51 0 11:26 22.01.2023
142 Fog -5 1034 96 900 1.03 0 09:34 22.01.2023
143 Mist -4 1033 96 4000 1.34 333 02:59 22.01.2023
144 Clouds -4 1032 96 5000 3.13 347 23:44 21.01.2023
145 Mist -4 1032 96 4500 3.09 360 22:55 21.01.2023
146 Mist -4 1032 96 2500 3.6 340 21:28 21.01.2023
147 Fog -4 1030 96 3500 2.57 10 18:52 21.01.2023
148 Clouds -4 1029 96 7062 2.24 325 15:37 21.01.2023
149 Fog -4 1034 95 1200 1.79 331 13:32 21.01.2023
150 Fog -4 1034 96 200 0.51 0 12:52 21.01.2023
151 Clouds -4 1033 96 10000 0.89 310 11:37 21.01.2023
152 Fog -4 1034 98 150 0.89 5 10:48 21.01.2023
153 Clouds -5 1026 96 3442 1.34 324 08:31 21.01.2023
154 Fog -8 1028 100 10000 1.03 290 02:18 21.01.2023
155 Fog -4 1017 96 2500 0.89 301 22:27 20.01.2023
156 Fog -5 1011 97 700 1.03 0 21:36 20.01.2023
157 Fog -5 1011 97 10000 0 0 20:42 20.01.2023
158 Fog -2 1015 94 10000 1.03 0 18:34 20.01.2023
159 Fog -1 1006 92 10000 2.06 340 15:53 20.01.2023
160 Fog 0 1013 85 10000 1.79 316 14:41 20.01.2023
161 Fog 1 1012 87 10000 1.54 350 12:45 20.01.2023
162 Clouds 0 1009 87 10000 0.51 0 09:37 20.01.2023
163 Clouds 0 1009 92 10000 1.03 0 08:22 20.01.2023
164 Clouds 0 1009 92 10000 1.03 0 08:22 20.01.2023
165 Clouds 0 1011 94 10000 1.79 197 02:34 20.01.2023
166 Fog -1 993 89 10000 1.54 120 22:54 19.01.2023
167 Fog -1 994 90 10000 1.54 120 22:31 19.01.2023
168 Clouds 0 1000 92 10000 2.57 220 20:22 19.01.2023
169 Clouds 0 1000 94 10000 2.57 220 18:57 19.01.2023
170 Clouds 0 996 94 10000 5.14 230 15:37 19.01.2023
171 Snow 0 988 95 1800 5.66 280 10:53 19.01.2023
172 Snow 0 986 95 1100 6.17 300 08:59 19.01.2023
173 Mist 1 993 95 1100 4.12 30 23:35 18.01.2023
174 Clouds 1 999 93 10000 3.58 107 20:55 18.01.2023
175 Clouds 1 994 95 6000 2.57 80 20:19 18.01.2023
176 Mist 1 1000 95 2500 5.81 106 19:37 18.01.2023
177 Clouds 1 995 92 10000 2.57 100 17:34 18.01.2023
178 Clouds 2 996 89 10000 2.57 170 15:22 18.01.2023
179 Clouds 2 1000 89 10000 3.6 170 13:27 18.01.2023
180 Clouds 2 998 90 10000 5.66 180 10:41 18.01.2023
181 Clouds 2 996 95 8000 5.66 170 08:18 18.01.2023
182 Drizzle 1 994 96 6000 5.14 110 01:26 18.01.2023
183 Snow 1 994 95 10000 5.14 100 23:32 17.01.2023
184 Snow 0 995 96 2500 8.05 93 20:32 17.01.2023
185 Snow 0 995 96 1000 7.72 100 19:27 17.01.2023
186 Snow 0 995 96 1800 8.23 100 18:18 17.01.2023
187 Snow 0 991 96 1300 8.23 100 16:24 17.01.2023
188 Snow 0 992 94 10000 9.39 83 14:55 17.01.2023
189 Clouds 1 993 91 10000 10.73 94 13:47 17.01.2023
190 Snow 1 995 91 10000 8.23 100 11:51 17.01.2023
191 Clouds 1 995 92 10000 8.05 100 11:23 17.01.2023
192 Clouds 1 995 94 10000 6.26 105 09:34 17.01.2023
193 Clouds 1 995 93 10000 4.12 90 07:53 17.01.2023
194 Clouds 2 1000 94 10000 5.14 160 03:55 17.01.2023
195 Clouds 2 998 92 10000 6.17 200 00:57 17.01.2023
196 Clouds 3 997 91 10000 6.17 210 22:59 16.01.2023
197 Clouds 3 991 93 10000 6.71 224 21:52 16.01.2023
198 Clouds 3 989 93 10000 6.69 210 20:24 16.01.2023
199 Clouds 3 993 92 10000 7.2 210 19:30 16.01.2023
200 Clouds 3 987 92 10000 8.23 210 18:52 16.01.2023
201 Clouds 3 987 93 10000 10.28 213 18:20 16.01.2023
202 Clouds 3 986 93 10000 9.26 210 17:34 16.01.2023
203 Clouds 2 983 94 10000 8.75 200 14:37 16.01.2023
204 Clouds 3 987 92 10000 9.77 190 13:38 16.01.2023
205 Clouds 3 986 92 10000 11.83 180 10:28 16.01.2023
206 Clouds 3 986 93 8000 10.29 180 09:34 16.01.2023
207 Clouds 3 989 93 10000 8.23 190 23:21 15.01.2023
208 Clouds 2 989 93 10000 8.23 180 21:35 15.01.2023
209 Clouds 2 989 93 10000 7.72 180 20:34 15.01.2023
210 Clouds 2 989 93 10000 8.75 180 19:43 15.01.2023
211 Clouds 2 989 93 10000 7.72 180 17:39 15.01.2023
212 Rain 2 989 92 10000 9.77 180 15:22 15.01.2023
213 Snow 2 985 94 7000 9.26 170 12:31 15.01.2023
214 Rain 2 985 93 5000 10.29 150 11:35 15.01.2023
215 Rain 2 987 94 7000 11.32 150 10:28 15.01.2023
216 Rain 2 988 94 7000 11.32 140 09:34 15.01.2023
217 Clouds 3 996 94 10000 7.2 190 01:47 15.01.2023
218 Clouds 3 1001 91 10000 8.23 200 22:45 14.01.2023
219 Clouds 3 1000 91 9000 8.23 200 21:55 14.01.2023
220 Clouds 3 1000 91 10000 7.72 200 21:36 14.01.2023
221 Clouds 3 1000 92 10000 8.23 210 21:18 14.01.2023
222 Clouds 3 999 94 6000 8.75 200 20:31 14.01.2023
223 Clouds 3 999 94 10000 7.2 200 18:38 14.01.2023
224 Rain 3 998 94 6000 6.17 170 15:48 14.01.2023
225 Rain 3 998 94 6000 5.66 170 15:26 14.01.2023
226 Rain 3 998 94 10000 6.17 160 14:25 14.01.2023
227 Rain 3 999 93 8000 8.23 170 13:33 14.01.2023
228 Clouds 3 1000 94 10000 6.69 170 10:51 14.01.2023
229 Clouds 3 1000 94 10000 5.66 170 09:59 14.01.2023
230 Clouds 3 1001 92 10000 6.17 180 04:56 14.01.2023
231 Drizzle 3 1000 94 7000 7.2 190 23:23 13.01.2023
232 Drizzle 3 1000 93 7000 9.77 190 22:45 13.01.2023
233 Drizzle 3 1000 94 4000 8.23 190 22:20 13.01.2023
234 Drizzle 3 999 94 1200 7.72 180 21:23 13.01.2023
235 Drizzle 3 998 93 4000 7.2 180 19:36 13.01.2023
236 Rain 3 998 94 8000 6.69 150 17:59 13.01.2023
237 Rain 2 999 93 3500 5.14 120 16:24 13.01.2023
238 Clouds 1 1000 93 10000 2.57 150 12:51 13.01.2023
239 Clouds 1 1000 93 8000 3.09 140 12:19 13.01.2023
240 Fog 1 1000 94 700 3.09 190 10:24 13.01.2023
241 Fog 1 1000 94 600 3.09 190 09:45 13.01.2023
242 Fog 0 999 94 500 3.6 190 08:52 13.01.2023
243 Fog 0 998 94 700 3.09 210 08:20 13.01.2023
244 Clouds 0 997 94 5000 3.09 280 06:52 13.01.2023
245 Snow 0 989 95 3000 1.54 120 03:56 13.01.2023
246 Rain 2 997 93 10000 8.23 170 23:47 12.01.2023
247 Rain 2 998 93 8000 7.2 170 22:40 12.01.2023
248 Clouds 2 999 92 10000 8.75 190 20:55 12.01.2023
249 Drizzle 2 999 92 10000 9.77 180 18:53 12.01.2023
250 Drizzle 2 1000 93 6000 8.23 170 17:33 12.01.2023
251 Clouds 2 1000 94 7000 7.2 180 15:54 12.01.2023
252 Clouds 2 1001 94 7000 5.66 180 14:44 12.01.2023
253 Drizzle 2 1001 94 6000 4.63 180 14:22 12.01.2023
254 Drizzle 2 1002 94 900 6.17 190 12:45 12.01.2023
255 Drizzle 1 1002 95 3000 5.14 180 10:34 12.01.2023
256 Mist 1 1002 93 4000 6.17 180 08:28 12.01.2023
257 Snow 0 1005 93 6000 7.72 180 01:50 12.01.2023
258 Snow 1 1005 93 4000 7.72 180 23:59 11.01.2023
259 Snow 1 1005 93 7000 8.23 170 23:40 11.01.2023
260 Snow 1 1006 93 4500 8.75 180 23:20 11.01.2023
261 Snow 1 1006 93 3000 11.18 185 21:44 11.01.2023
262 Snow 1 1006 92 3500 7.72 180 19:47 11.01.2023
263 Snow 1 1002 92 3000 8.75 170 18:35 11.01.2023
264 Snow 1 1007 90 6000 9.26 170 16:42 11.01.2023
265 Snow 2 1008 91 10000 7.2 160 14:44 11.01.2023
266 Clouds 2 1010 92 10000 8.75 170 12:38 11.01.2023
267 Clouds 2 1005 93 10000 7.2 170 11:54 11.01.2023
268 Clouds 2 1011 94 6000 6.69 180 09:49 11.01.2023
269 Rain 2 1011 94 6000 7.2 190 07:37 11.01.2023
270 Mist 2 1011 95 2500 5.66 190 07:19 11.01.2023
271 Clouds 2 1011 94 8000 4.92 211 23:55 10.01.2023
272 Clouds 2 1010 95 7000 5.14 180 22:36 10.01.2023
273 Fog 1 1010 95 800 5.66 180 21:30 10.01.2023
274 Mist 1 1010 95 3500 6.69 190 19:57 10.01.2023
275 Clouds 1 1010 95 6000 5.66 180 19:34 10.01.2023
276 Fog 1 1009 96 900 5.14 180 18:47 10.01.2023
277 Clouds 0 1009 96 1400 4.12 160 17:54 10.01.2023
278 Snow -2 1009 95 4000 5.14 160 15:48 10.01.2023
279 Snow -2 1010 95 2500 4.63 150 15:23 10.01.2023
280 Snow -3 1010 94 10000 3.6 150 14:21 10.01.2023
281 Snow -3 1010 96 4000 5.66 140 11:49 10.01.2023
282 Snow -4 1010 95 2500 5.66 130 08:57 10.01.2023
283 Snow -4 1010 94 2500 5.66 130 08:25 10.01.2023
284 Snow -4 1010 94 3000 6.71 100 07:25 10.01.2023
285 Snow -4 1010 93 3500 6.26 121 04:51 10.01.2023
286 Snow -4 1011 94 10000 5.66 110 22:51 09.01.2023
287 Snow -4 1011 94 7000 5.81 122 21:21 09.01.2023
288 Snow -4 1011 95 10000 5.81 117 20:34 09.01.2023
289 Snow -4 1011 93 9000 5.14 120 18:42 09.01.2023
290 Snow -4 1011 94 8000 5.66 120 17:51 09.01.2023
291 Snow -4 1011 94 4500 5.66 110 16:47 09.01.2023
292 Snow -4 1011 94 4500 6.26 121 16:29 09.01.2023
293 Snow -4 1011 95 3500 5.81 115 15:22 09.01.2023
294 Snow -4 1011 95 2700 5.81 121 14:43 09.01.2023
295 Snow -4 1011 96 1300 6.17 120 12:54 09.01.2023
296 Snow -5 1011 96 1100 6.71 119 12:22 09.01.2023
297 Snow -5 1011 96 1000 6.69 130 11:20 09.01.2023
298 Snow -5 1011 94 700 6.71 122 08:28 09.01.2023
299 Snow -5 1011 90 10000 8.23 120 06:31 09.01.2023
300 Clouds -4 1012 92 10000 7.6 103 02:53 09.01.2023
301 Snow -5 1013 93 6000 7.2 110 22:31 08.01.2023
302 Snow -6 1014 93 4000 6.17 110 21:23 08.01.2023
303 Snow -6 1014 91 4000 6.17 110 20:57 08.01.2023
304 Snow -6 1015 93 2800 6.69 120 19:19 08.01.2023
305 Snow -6 1015 96 2800 8.23 110 17:37 08.01.2023
306 Snow -6 1015 95 2700 6.69 110 17:18 08.01.2023
307 Snow -6 1016 94 3000 6.17 110 15:37 08.01.2023
308 Snow -6 1016 94 2000 6.69 110 14:18 08.01.2023
309 Snow -6 1017 94 2800 6.17 110 13:32 08.01.2023
310 Clouds -6 1017 96 5000 5.66 110 12:57 08.01.2023
311 Snow -7 1018 96 8000 5.14 130 10:52 08.01.2023
312 Mist -7 1019 94 4000 5.14 120 09:37 08.01.2023
313 Fog -7 1019 94 700 6.69 130 07:50 08.01.2023
314 Clouds -8 1021 94 10000 4.63 160 02:20 08.01.2023
315 Clouds -8 1023 85 10000 5.66 150 22:49 07.01.2023
316 Clouds -8 1023 87 10000 5.66 150 22:24 07.01.2023
317 Clouds -8 1022 86 10000 6.69 150 21:49 07.01.2023
318 Clouds -8 1023 86 10000 6.17 150 20:54 07.01.2023
319 Clouds -8 1023 85 10000 6.26 205 20:24 07.01.2023
320 Clouds -8 1023 84 10000 5.14 140 18:52 07.01.2023
321 Clouds -8 1024 85 10000 5.66 130 17:59 07.01.2023
322 Clouds -8 1024 85 10000 5.66 140 17:39 07.01.2023
323 Clouds -8 1025 85 10000 6.69 130 16:38 07.01.2023
324 Clouds -8 1025 84 10000 7.2 130 15:50 07.01.2023
325 Clouds -8 1025 83 10000 7.2 130 15:30 07.01.2023
326 Clouds -8 1025 85 10000 7.72 130 14:32 07.01.2023
327 Clouds -8 1025 84 10000 6.69 140 13:54 07.01.2023
328 Clouds -8 1025 84 10000 6.69 140 13:54 07.01.2023
329 Clouds -8 1025 85 10000 6.69 140 13:35 07.01.2023
330 Clouds -8 1026 82 10000 6.17 140 12:23 07.01.2023
331 Clouds -8 1026 80 10000 8.75 150 11:52 07.01.2023
332 Clouds -7 1027 77 10000 9.77 140 10:26 07.01.2023
333 Clouds -8 1027 76 10000 7.72 150 08:46 07.01.2023
334 Clouds -8 1027 78 10000 6.17 150 07:46 07.01.2023
335 Clouds -8 1026 76 10000 6.17 150 07:20 07.01.2023
336 Clouds -7 1027 79 10000 4.63 150 04:49 07.01.2023
337 Snow -7 1027 84 10000 4.12 60 22:38 06.01.2023
338 Snow -7 1027 84 10000 4.63 60 22:19 06.01.2023
339 Clouds -7 1027 82 10000 5.66 70 21:27 06.01.2023
340 Snow -8 1027 81 10000 4.63 60 19:58 06.01.2023
341 Snow -8 1027 86 10000 4.12 60 19:40 06.01.2023
342 Clouds -9 1018 86 10000 4.12 60 19:22 06.01.2023
343 Snow -9 1016 86 10000 4.12 50 18:43 06.01.2023
344 Clouds -9 1016 86 10000 4.63 60 17:23 06.01.2023
345 Clouds -9 1016 87 10000 3.09 40 16:36 06.01.2023
346 Snow -9 1016 86 10000 2.57 50 15:57 06.01.2023
347 Snow -10 1016 87 10000 3.09 50 15:39 06.01.2023
348 Clouds -10 1017 86 10000 2.06 40 14:52 06.01.2023
349 Clouds -10 1016 87 10000 1.54 30 12:37 06.01.2023
350 Clouds -10 1019 85 10000 2.06 70 10:58 06.01.2023
351 Clouds -12 1029 86 10000 2.78 27 08:55 06.01.2023
352 Clouds -12 1028 85 10000 1.54 10 07:44 06.01.2023
353 Clouds -8 1009 91 10000 2.57 360 01:43 06.01.2023
354 Clouds -8 1012 89 8000 2.06 350 22:55 05.01.2023
355 Clouds -9 1014 92 10000 3.13 18 21:47 05.01.2023
356 Clouds -10 1013 90 10000 4.02 358 19:29 05.01.2023
357 Clouds -12 1019 90 10000 3.6 360 17:28 05.01.2023
358 Clouds -11 1018 87 10000 3.6 350 16:20 05.01.2023
359 Clouds -11 1018 86 10000 4.02 2 15:40 05.01.2023
360 Clear -10 1018 85 10000 4.47 7 14:36 05.01.2023
361 Clear -9 1016 83 10000 5.36 13 12:43 05.01.2023
362 Clear -10 1016 84 10000 4.92 18 11:50 05.01.2023
363 Clear -11 1015 86 10000 4.63 30 09:52 05.01.2023
364 Clear -11 1013 85 10000 4.63 30 08:28 05.01.2023
365 Clear -11 1013 88 10000 5.14 40 07:18 05.01.2023
366 Clear -11 1012 90 10000 5.14 40 03:39 05.01.2023
367 Clear -10 1013 91 10000 4.63 50 22:53 04.01.2023
368 Clear -9 1014 92 10000 3.6 40 21:33 04.01.2023
369 Clouds -8 1014 92 10000 2.57 30 20:26 04.01.2023
370 Clouds -7 1015 94 10000 2.06 30 19:56 04.01.2023
371 Clouds -7 1015 93 10000 2.06 30 19:56 04.01.2023
372 Clouds -7 1015 94 10000 2.06 30 19:31 04.01.2023
373 Clouds -6 1015 93 10000 4.63 50 18:25 04.01.2023
374 Clouds -6 1015 93 10000 2.06 30 16:32 04.01.2023
375 Clouds -6 1016 93 10000 3.6 30 15:34 04.01.2023
376 Clouds -3 1016 86 10000 3.09 20 13:44 04.01.2023
377 Clouds -3 1018 88 10000 1.54 330 11:40 04.01.2023
378 Clouds -3 1018 89 10000 4.12 360 11:19 04.01.2023
379 Clouds -3 1017 86 10000 4.12 320 10:42 04.01.2023
380 Clouds -3 1016 86 10000 4.63 320 10:21 04.01.2023
381 Clouds -7 981 99 10000 3.09 340 06:18 04.01.2023
382 Clouds -2 1015 99 4500 1.79 358 01:43 04.01.2023
383 Snow -1 1015 94 3500 1.54 310 23:58 03.01.2023
384 Snow -1 1015 94 224 1.79 308 23:32 03.01.2023
385 Snow -2 1014 95 10000 1.79 332 22:26 03.01.2023
386 Clear -2 1014 92 10000 2.06 300 20:51 03.01.2023
387 Snow -1 1013 94 10000 3.09 310 18:52 03.01.2023
388 Snow -1 1012 93 10000 3.09 310 16:46 03.01.2023
389 Snow -1 1011 93 10000 2.57 320 15:43 03.01.2023
390 Clear -1 1009 92 10000 4.12 330 13:51 03.01.2023
391 Clear -1 1009 92 10000 4.12 330 13:29 03.01.2023
392 Clear -1 1008 91 10000 3.6 330 12:57 03.01.2023
393 Clouds -1 1008 93 10000 3.6 330 12:29 03.01.2023
394 Clouds -1 1006 94 10000 4.12 360 10:25 03.01.2023
395 Snow -1 1002 95 2200 6.69 40 06:20 03.01.2023
396 Snow 0 1002 94 1800 5.81 74 03:54 03.01.2023
397 Snow 0 1003 93 1800 5.81 83 03:34 03.01.2023
398 Snow 0 1007 89 10000 4.02 84 23:21 02.01.2023
399 Snow 0 1007 90 10000 4.02 95 22:41 02.01.2023
400 Snow 0 1009 88 10000 4.92 117 21:34 02.01.2023
401 Snow 0 1010 84 10000 3.58 116 20:38 02.01.2023
402 Snow 0 1011 84 10000 3.13 127 19:26 02.01.2023
403 Snow -2 1014 94 10000 2.68 117 16:54 02.01.2023
404 Clouds -2 1014 93 10000 2.06 120 14:31 02.01.2023
405 Clear -3 1016 94 10000 2.06 190 12:57 02.01.2023
406 Fog -3 1015 96 10000 1.79 192 11:40 02.01.2023
407 Clear -4 1006 95 10000 2.57 220 09:42 02.01.2023
408 Clear -3 1004 93 10000 4.12 280 07:29 02.01.2023
409 Clear -3 1002 90 10000 5.66 280 00:38 02.01.2023
410 Clear -3 1001 89 10000 5.14 280 21:55 01.01.2023
411 Clear -3 999 90 10000 3.6 270 20:56 01.01.2023
412 Clear -3 999 90 10000 3.6 270 20:37 01.01.2023
413 Clear -2 997 90 10000 4.63 290 19:34 01.01.2023
414 Clear -2 997 90 10000 4.12 270 17:39 01.01.2023
415 Clear -2 996 90 10000 3.6 270 17:19 01.01.2023
416 Clear -2 996 89 10000 3.6 270 16:20 01.01.2023
417 Clear -1 995 88 10000 3.6 290 14:36 01.01.2023
418 Clear 0 995 88 10000 3.09 280 13:20 01.01.2023
419 Clear 0 994 89 10000 3.6 260 12:24 01.01.2023
420 Clear -1 994 91 10000 3.09 270 11:35 01.01.2023
421 Clear 0 993 92 10000 3.09 250 09:39 01.01.2023
422 Clear 0 992 90 10000 3.09 260 08:45 01.01.2023
423 Clear 0 992 90 10000 2.68 259 08:18 01.01.2023
424 Clear 1 991 91 10000 4.12 270 06:51 01.01.2023
425 Clouds 4 992 91 10000 7.72 220 00:19 01.01.2023
426 Clouds 5 992 91 10000 7.2 220 23:39 31.12.2022
427 Clouds 5 992 91 10000 9.26 210 22:30 31.12.2022
428 Rain 4 993 92 10000 9.26 210 21:25 31.12.2022
429 Rain 5 993 89 10000 9.26 220 20:33 31.12.2022
430 Clouds 4 993 93 10000 9.26 200 18:57 31.12.2022
431 Clouds 4 993 93 10000 9.26 200 18:38 31.12.2022
432 Clouds 4 993 93 10000 9.26 200 17:58 31.12.2022
433 Clouds 4 994 93 10000 7.72 200 17:34 31.12.2022
434 Clouds 4 994 92 10000 8.23 180 16:32 31.12.2022
435 Clouds 4 995 92 10000 7.72 200 15:43 31.12.2022
436 Clouds 4 995 92 10000 7.2 200 14:34 31.12.2022
437 Drizzle 4 995 91 7000 6.69 190 13:27 31.12.2022
438 Mist 3 995 91 4000 8.23 190 12:24 31.12.2022
439 Mist 3 995 91 4000 8.23 190 11:56 31.12.2022
440 Clouds 3 995 91 9000 10.29 180 11:38 31.12.2022
441 Rain 3 997 90 7000 8.75 170 10:18 31.12.2022
442 Rain 3 997 89 10000 7.72 160 09:50 31.12.2022
443 Clouds 2 993 92 10000 7.72 160 08:30 31.12.2022
444 Clouds 3 1002 90 10000 6.17 170 05:39 31.12.2022
445 Clouds 3 1004 88 10000 4.12 200 00:34 31.12.2022
446 Clouds 2 1004 86 10000 3.6 210 23:24 30.12.2022
447 Clouds 3 1003 92 10000 3.6 210 22:19 30.12.2022
448 Clouds 3 1003 93 10000 3.6 210 21:38 30.12.2022
449 Clouds 3 1002 91 10000 4.63 200 21:19 30.12.2022
450 Clouds 3 1002 93 10000 4.12 210 18:29 30.12.2022
451 Clouds 3 1001 92 10000 3.6 210 17:35 30.12.2022
452 Clouds 3 1000 92 10000 4.12 210 16:48 30.12.2022
453 Clouds 3 999 92 10000 4.12 210 14:55 30.12.2022
454 Rain 3 998 93 10000 4.63 220 12:56 30.12.2022
455 Mist 3 996 93 2000 5.14 180 08:24 30.12.2022
456 Drizzle 2 996 94 1200 3.6 130 03:58 30.12.2022
457 Drizzle 1 996 93 3000 5.66 130 02:27 30.12.2022
458 Snow 0 998 86 1500 6.69 130 23:46 29.12.2022
459 Snow 1 999 93 2000 6.69 120 21:56 29.12.2022
460 Snow 0 999 94 1800 6.71 107 21:25 29.12.2022
461 Snow 1 1000 94 2500 6.71 116 20:46 29.12.2022
462 Snow 1 1001 93 3000 7.2 120 19:21 29.12.2022
463 Snow 1 1002 92 10000 6.69 120 17:53 29.12.2022
464 Clouds 1 1002 92 10000 7.6 117 17:26 29.12.2022
465 Clouds 1 1002 92 8000 7.6 111 16:54 29.12.2022
466 Drizzle 1 1003 93 5000 6.69 110 15:55 29.12.2022
467 Snow 0 1004 93 2500 6.17 110 13:41 29.12.2022
468 Clouds 0 1006 92 10000 5.66 120 11:52 29.12.2022
469 Clouds 0 1006 92 10000 5.66 110 09:53 29.12.2022
470 Clouds -1 1007 95 10000 3.6 70 03:41 29.12.2022
471 Clouds -3 1000 94 8000 2.57 50 23:29 28.12.2022
472 Fog -3 1001 95 1000 2.06 80 22:19 28.12.2022
473 Mist -4 1001 94 3000 1.79 94 21:20 28.12.2022
474 Clouds -3 1000 94 10000 1.03 0 19:57 28.12.2022
475 Clouds -3 1000 94 10000 2.06 260 18:31 28.12.2022
476 Clouds -2 1000 92 10000 2.57 240 16:21 28.12.2022
477 Clouds -1 1007 90 10000 4.63 240 13:59 28.12.2022
478 Clouds -1 1006 89 10000 4.12 240 12:48 28.12.2022
479 Clouds -1 1006 90 10000 4.12 240 11:33 28.12.2022
480 Clouds -1 1005 93 10000 3.09 240 09:34 28.12.2022
481 Clouds -1 1004 93 10000 4.63 230 07:42 28.12.2022
482 Clouds -1 1004 94 10000 3.09 230 06:45 28.12.2022
483 Clouds 0 1001 93 3500 5.14 250 00:57 28.12.2022
484 Snow 1 999 92 10000 3.6 210 21:40 27.12.2022
485 Snow 1 998 94 8000 6.26 192 19:51 27.12.2022
486 Snow 1 998 92 10000 6.17 180 18:41 27.12.2022
487 Snow 1 998 92 10000 4.63 180 16:59 27.12.2022
488 Clouds 1 997 94 10000 5.66 190 15:54 27.12.2022
489 Clouds 1 998 91 10000 5.14 190 14:23 27.12.2022
490 Snow -1 999 94 2000 5.14 130 12:23 27.12.2022
491 Snow -3 995 94 7000 6.17 120 09:48 27.12.2022
492 Snow -3 999 94 10000 8.23 120 09:24 27.12.2022
493 Snow -4 1000 94 2600 7.72 120 08:47 27.12.2022
494 Snow -5 998 94 1500 8.49 115 04:54 27.12.2022
495 Clouds -4 1009 88 10000 8.94 115 23:29 26.12.2022
496 Clouds -4 1010 87 10000 6.71 113 21:41 26.12.2022
497 Clouds -4 1011 86 10000 7.15 114 20:43 26.12.2022
498 Clouds -4 1012 89 10000 6.71 102 19:51 26.12.2022
499 Clouds -5 1014 85 10000 5.66 120 18:42 26.12.2022
500 Clouds -5 1015 83 10000 7.2 130 16:51 26.12.2022
501 Clouds -5 1017 86 10000 6.69 140 15:25 26.12.2022
502 Clouds -5 1017 90 10000 6.17 150 12:55 26.12.2022
503 Clouds -5 1020 84 10000 5.66 150 09:44 26.12.2022
504 Clouds -3 1021 85 10000 4.63 180 02:53 26.12.2022
505 Clouds -5 1020 92 10000 1.03 70 23:38 25.12.2022
506 Clouds -9 1022 92 10000 0.51 0 22:48 25.12.2022
507 Fog -10 1022 100 800 0.51 0 21:50 25.12.2022
508 Fog -9 1021 84 800 1.03 310 19:28 25.12.2022
509 Fog -7 1013 93 700 2.24 311 17:52 25.12.2022
510 Fog -7 1013 94 700 0.45 237 17:34 25.12.2022
511 Fog -6 1013 93 10000 1.54 290 16:19 25.12.2022
512 Clouds -3 1008 90 10000 0.89 237 13:23 25.12.2022
513 Clouds -4 1004 94 10000 0.89 232 11:21 25.12.2022
514 Clear -5 1007 86 10000 2.68 266 02:57 25.12.2022
515 Clouds -5 1005 87 10000 3.09 220 22:38 24.12.2022
516 Clouds -4 1003 90 10000 2.57 240 19:52 24.12.2022
517 Clouds -3 1010 86 10000 3.6 230 16:51 24.12.2022
518 Clear -3 1008 86 10000 2.57 260 14:55 24.12.2022
519 Clear -2 1008 84 10000 2.68 271 13:56 24.12.2022
520 Clear -3 1006 85 10000 3.09 250 11:44 24.12.2022
521 Clear -4 1005 86 10000 3.09 250 10:23 24.12.2022
522 Clear -4 1004 87 10000 3.09 240 09:37 24.12.2022
523 Clear -4 1003 92 10000 3.6 260 07:37 24.12.2022
524 Clear -4 1000 87 10000 4.12 280 02:51 24.12.2022
525 Clouds -3 992 86 10000 3.6 280 00:18 24.12.2022
526 Clouds -2 991 85 10000 4.63 310 22:30 23.12.2022
527 Clouds -1 994 84 10000 7.2 330 20:55 23.12.2022
528 Snow -1 992 82 10000 8.75 350 19:40 23.12.2022
529 Snow -1 992 83 3000 8.23 350 19:21 23.12.2022
530 Snow -1 992 83 2800 8.75 340 18:53 23.12.2022
531 Snow 0 991 85 10000 8.23 340 18:21 23.12.2022
532 Drizzle 2 990 85 3000 4.47 195 16:39 23.12.2022
533 Clouds 3 990 83 8000 4.63 180 15:43 23.12.2022
534 Clouds 2 992 86 6000 3.09 180 12:18 23.12.2022
535 Fog 2 993 88 300 3.6 180 09:42 23.12.2022
536 Fog 2 993 86 300 4.12 170 09:23 23.12.2022
537 Fog 2 993 86 800 3.09 180 07:19 23.12.2022
538 Fog 2 993 88 1800 3.09 180 06:48 23.12.2022
539 Clouds 3 995 83 10000 4.92 219 23:23 22.12.2022
540 Clouds 3 995 83 10000 4.63 200 22:57 22.12.2022
541 Clouds 3 995 84 10000 5.66 190 21:26 22.12.2022
542 Clouds 3 995 85 10000 5.14 200 19:26 22.12.2022
543 Clouds 3 995 85 10000 5.14 200 19:26 22.12.2022
544 Clouds 2 995 85 10000 5.66 210 18:51 22.12.2022
545 Clouds 3 995 85 10000 5.14 210 17:29 22.12.2022
546 Clouds 2 995 86 10000 5.14 210 16:39 22.12.2022
547 Clouds 2 996 86 10000 4.63 220 15:35 22.12.2022
548 Drizzle 2 996 86 10000 5.14 210 14:51 22.12.2022
549 Clouds 3 996 84 10000 4.63 210 13:34 22.12.2022
550 Clouds 3 996 84 10000 6.26 217 12:59 22.12.2022
551 Clouds 3 996 86 10000 5.14 210 10:51 22.12.2022
552 Clouds 3 996 85 10000 5.14 210 10:30 22.12.2022
553 Drizzle 3 996 83 5000 6.26 236 09:21 22.12.2022
554 Drizzle 3 997 81 9000 4.63 220 08:27 22.12.2022
555 Clouds 2 997 85 10000 4.12 220 05:28 22.12.2022
556 Clouds 2 997 85 10000 4.12 240 04:18 22.12.2022
557 Drizzle 2 996 81 10000 4.12 240 23:50 21.12.2022
558 Drizzle 2 997 82 9000 4.12 250 21:58 21.12.2022
559 Drizzle 2 997 83 10000 5.66 250 21:23 21.12.2022
560 Drizzle 2 997 82 10000 7.2 250 20:52 21.12.2022
561 Drizzle 2 997 83 10000 5.14 230 20:18 21.12.2022
562 Drizzle 2 997 82 10000 6.17 250 19:43 21.12.2022
563 Drizzle 2 997 83 6000 4.63 230 19:23 21.12.2022
564 Drizzle 3 997 85 9000 5.14 230 18:45 21.12.2022
565 Drizzle 3 997 85 7000 5.14 220 17:36 21.12.2022
566 Drizzle 3 997 85 10000 5.14 210 14:41 21.12.2022
567 Fog 3 997 86 500 4.63 210 13:26 21.12.2022
568 Fog 3 998 88 400 7.6 214 11:46 21.12.2022
569 Fog 3 998 83 500 4.63 190 11:19 21.12.2022
570 Drizzle 3 998 81 700 5.14 190 09:36 21.12.2022
571 Mist 3 999 83 4000 5.66 180 07:32 21.12.2022
572 Drizzle 2 1002 77 400 4.12 170 02:28 21.12.2022
573 Mist 1 1004 84 1200 4.63 170 22:48 20.12.2022
574 Drizzle 1 1004 85 2800 4.63 160 21:21 20.12.2022
575 Drizzle 0 1004 86 3000 5.14 170 20:23 20.12.2022
576 Drizzle 0 1005 83 2800 4.63 170 19:33 20.12.2022
577 Mist 0 1005 84 2000 4.63 170 18:29 20.12.2022
578 Mist 0 1006 83 2000 5.14 170 17:55 20.12.2022
579 Mist 0 1006 84 2000 5.14 170 17:32 20.12.2022
580 Mist 0 1006 85 2700 4.63 150 16:35 20.12.2022
581 Rain 0 1007 87 4500 5.66 150 15:29 20.12.2022
582 Snow 0 1007 88 2500 4.63 150 14:43 20.12.2022
583 Snow 0 1007 88 2500 4.12 140 14:25 20.12.2022
584 Mist -1 1008 89 2000 4.12 150 12:44 20.12.2022
585 Mist -1 1008 89 2500 3.6 150 12:25 20.12.2022
586 Mist -1 1009 88 2500 3.6 170 11:31 20.12.2022
587 Clouds -2 1010 88 7000 3.09 120 08:27 20.12.2022
588 Clouds 0 1015 83 10000 3.09 170 00:34 20.12.2022
589 Clouds 0 1016 84 10000 4.63 190 22:37 19.12.2022
590 Clouds 0 1017 84 10000 4.63 200 21:41 19.12.2022
591 Clouds 1 1018 85 10000 4.92 227 19:55 19.12.2022
592 Clouds 1 1018 85 10000 4.63 200 19:37 19.12.2022
593 Clouds 1 1019 83 10000 7.15 205 18:24 19.12.2022
594 Clouds 0 1020 83 10000 3.09 210 16:35 19.12.2022
595 Clear -1 1021 86 10000 3.09 220 13:26 19.12.2022
596 Clear -1 1022 86 10000 2.06 230 11:55 19.12.2022
597 Clear -2 1016 87 10000 2.68 255 09:19 19.12.2022
598 Clear -1 1015 86 10000 4.63 280 07:40 19.12.2022
599 Clear 0 1012 86 10000 4.47 269 02:48 19.12.2022
600 Clouds 2 1015 80 10000 6.17 250 22:20 18.12.2022
601 Clouds 1 1015 84 10000 5.14 230 21:41 18.12.2022
602 Rain 2 1015 82 10000 5.66 220 21:20 18.12.2022
603 Rain 1 1015 85 10000 5.14 220 19:49 18.12.2022
604 Clouds 1 1015 82 10000 6.69 220 19:31 18.12.2022
605 Rain 2 1016 82 8000 6.69 220 17:53 18.12.2022
606 Rain 2 1016 84 10000 6.17 210 16:27 18.12.2022
607 Snow 2 1017 84 10000 10.73 214 15:39 18.12.2022
608 Rain 2 1017 83 8000 9.39 218 15:18 18.12.2022
609 Rain 2 1018 79 10000 5.81 229 13:36 18.12.2022
610 Clouds 1 1019 80 10000 5.66 210 12:51 18.12.2022
611 Rain 1 1019 80 10000 6.17 210 11:54 18.12.2022
612 Clouds 1 1020 79 10000 4.63 190 10:19 18.12.2022
613 Clouds 1 1020 79 10000 4.63 190 10:19 18.12.2022
614 Clouds 1 1020 83 10000 5.81 217 08:47 18.12.2022
615 Clouds 0 1020 86 10000 5.14 190 07:20 18.12.2022
616 Clouds 0 1020 85 10000 5.66 190 06:20 18.12.2022
617 Clouds -1 1021 88 10000 5.66 190 02:59 18.12.2022
618 Clouds -1 1022 79 10000 5.36 229 23:40 17.12.2022
619 Clear -2 1022 77 10000 4.63 170 21:40 17.12.2022
620 Clouds -1 1022 78 10000 3.58 216 18:54 17.12.2022
621 Clouds -2 1022 83 10000 4.63 140 16:39 17.12.2022
622 Clouds -3 1014 86 10000 3.09 120 13:57 17.12.2022
623 Clouds -5 1016 86 10000 1.54 80 11:36 17.12.2022
624 Clouds -6 1014 87 10000 0 0 10:46 17.12.2022
625 Clouds -7 1017 88 10000 0.51 0 09:41 17.12.2022
626 Clouds -7 1017 88 10000 0.51 0 09:41 17.12.2022
627 Fog -8 1021 87 5000 0.51 360 07:26 17.12.2022
628 Mist -8 1021 90 5000 1.03 270 06:45 17.12.2022
629 Clouds -6 1005 93 10000 2.06 100 23:39 16.12.2022
630 Clouds -5 1011 90 10000 2.06 130 20:56 16.12.2022
631 Clouds -7 1008 93 10000 1.54 50 19:36 16.12.2022
632 Clouds -8 1009 89 10000 2.57 40 15:43 16.12.2022
633 Clouds -8 1009 89 10000 2.06 330 14:47 16.12.2022
634 Clouds -6 1015 92 10000 1.54 40 13:44 16.12.2022
635 Clouds -6 1014 87 10000 2.24 183 11:58 16.12.2022
636 Clouds -9 1012 88 10000 1.03 0 09:53 16.12.2022
637 Clouds -10 1012 84 10000 0.89 313 09:24 16.12.2022
638 Clouds -11 1004 87 10000 0.89 314 07:55 16.12.2022
639 Clouds -12 1003 87 10000 1.03 0 07:31 16.12.2022
640 Clear -11 1007 88 10000 1.03 320 23:30 15.12.2022
641 Clear -11 1007 87 10000 1.03 0 22:20 15.12.2022
642 Clouds -11 1005 86 10000 1.79 312 20:33 15.12.2022
643 Clouds -11 1004 84 6160 2.68 337 19:36 15.12.2022
644 Clear -11 1004 85 10000 0.51 0 17:59 15.12.2022
645 Clear -11 1004 87 10000 1.54 320 17:20 15.12.2022
646 Clear -9 1004 87 10000 1.34 20 14:58 15.12.2022
647 Clear -8 1003 93 10000 1.03 0 13:18 15.12.2022
648 Clouds -7 1003 87 10000 1.03 0 12:25 15.12.2022
649 Clouds -6 1003 86 10000 1.79 339 12:25 15.12.2022
650 Clouds -8 1003 87 10000 2.06 150 09:32 15.12.2022
651 Clouds -8 1002 89 10000 1.03 0 08:49 15.12.2022
652 Clouds -7 1000 87 10000 1.54 310 05:48 15.12.2022
653 Clouds -7 999 88 6000 1.34 317 04:37 15.12.2022
654 Snow -5 996 97 10000 2.57 310 21:25 14.12.2022
655 Snow -5 996 97 10000 2.57 310 20:59 14.12.2022
656 Snow -5 995 97 4000 1.54 70 20:23 14.12.2022
657 Snow -5 995 88 1400 2.57 60 17:56 14.12.2022
658 Snow -6 995 84 2500 3.6 60 16:57 14.12.2022
659 Clouds -7 997 87 3500 1.54 90 15:39 14.12.2022
660 Snow -8 998 85 10000 1.54 130 13:41 14.12.2022
661 Clouds -9 999 83 10000 1.54 230 11:20 14.12.2022
662 Clouds -9 998 87 10000 0.51 0 10:31 14.12.2022
663 Clouds -10 992 88 10000 2.06 210 08:48 14.12.2022
664 Clouds -12 995 87 10000 2.57 240 22:47 13.12.2022
665 Clouds -11 995 87 6000 2.57 230 21:48 13.12.2022
666 Clouds -10 993 88 7000 2.57 260 20:48 13.12.2022
667 Clouds -10 993 88 10000 3.09 270 19:57 13.12.2022
668 Clouds -8 985 90 8000 3.09 260 17:21 13.12.2022
669 Snow -7 984 90 4000 1.79 312 15:35 13.12.2022
670 Snow -7 981 95 1500 1.54 10 14:19 13.12.2022
671 Snow -8 986 91 5000 2.57 20 10:55 13.12.2022
672 Snow -8 987 90 1100 2.57 20 10:35 13.12.2022
673 Snow -8 992 89 3000 3.58 15 09:23 13.12.2022
674 Snow -9 996 88 7000 8.49 6 23:23 12.12.2022
675 Snow -9 997 88 2500 7.72 20 22:21 12.12.2022
676 Snow -9 998 89 900 8.94 5 20:51 12.12.2022
677 Snow -9 995 90 1000 8.49 7 18:32 12.12.2022
678 Snow -9 1001 88 1100 9.77 10 16:35 12.12.2022
679 Snow -9 1002 88 1800 10.8 20 15:21 12.12.2022
680 Snow -7 1006 82 10000 10.28 1 11:47 12.12.2022
681 Clouds -8 1009 83 10000 8.75 20 09:19 12.12.2022
682 Clouds -7 1012 87 10000 7.72 30 04:54 12.12.2022
683 Clouds -5 1014 86 10000 7.72 40 01:52 12.12.2022
684 Clouds -4 1015 87 10000 6.69 50 22:22 11.12.2022
685 Clouds -4 1015 86 10000 7.2 50 20:42 11.12.2022
686 Clouds -4 1015 86 10000 6.69 50 19:41 11.12.2022
687 Clouds -4 1016 86 10000 6.17 50 18:56 11.12.2022
688 Clouds -3 1016 85 10000 4.12 60 17:58 11.12.2022
689 Clouds -3 1016 84 10000 4.92 86 17:29 11.12.2022
690 Clouds -3 1016 84 10000 6.69 70 16:49 11.12.2022
691 Clouds -3 1016 82 10000 5.36 95 15:46 11.12.2022
692 Clouds -4 1016 85 10000 4.47 108 13:55 11.12.2022
693 Clouds -4 1016 86 10000 2.68 75 12:43 11.12.2022
694 Clouds -4 1016 87 10000 1.79 133 11:30 11.12.2022
695 Clouds -5 1014 88 10000 4.63 110 06:25 11.12.2022
696 Clouds -3 1012 89 10000 5.66 120 00:32 11.12.2022
697 Snow -3 1012 88 10000 6.69 140 22:53 10.12.2022
698 Snow -3 1012 88 10000 6.69 140 22:33 10.12.2022
699 Clouds -3 1012 88 10000 6.17 150 21:19 10.12.2022
700 Clouds -3 1006 90 10000 7.2 140 20:26 10.12.2022
701 Snow -2 1011 88 1500 6.17 140 18:37 10.12.2022
702 Snow -2 1011 85 8000 5.14 130 16:47 10.12.2022
703 Snow -2 1011 86 8000 5.14 130 15:57 10.12.2022
704 Snow -2 1011 86 8000 5.14 130 15:35 10.12.2022
705 Snow -1 1010 85 10000 5.66 140 13:59 10.12.2022
706 Snow -1 1009 88 2000 6.71 212 12:49 10.12.2022
707 Snow 0 1009 86 1500 5.14 170 11:28 10.12.2022
708 Snow 0 1009 85 1500 5.66 180 10:28 10.12.2022
709 Clouds 0 1008 87 4000 6.17 180 07:42 10.12.2022
710 Clouds 0 1008 86 2500 6.17 180 07:18 10.12.2022
711 Snow -8 1008 93 1600 3.6 60 23:54 09.12.2022
712 Snow -3 974 99 2000 2.57 50 22:43 09.12.2022
713 Snow -3 974 99 9000 1.03 0 21:47 09.12.2022
714 Snow -6 1001 91 9000 1.03 10 21:20 09.12.2022
715 Clouds -8 1008 86 6000 1.03 10 19:49 09.12.2022
716 Clouds -8 1008 88 6000 1.03 350 18:32 09.12.2022
717 Mist -7 1002 88 2000 2.57 340 17:38 09.12.2022
718 Clouds -6 1001 88 8706 0.06 21 16:29 09.12.2022
719 Fog -7 1001 88 10000 2.06 340 15:31 09.12.2022
720 Clouds -6 1001 88 10000 0.51 0 14:23 09.12.2022
721 Fog -4 997 96 10000 1.54 50 10:51 09.12.2022
722 Fog -4 993 98 10000 1.54 50 10:29 09.12.2022
723 Fog -6 1006 92 10000 1.03 60 08:22 09.12.2022
724 Snow -5 1005 84 10000 2.06 120 03:18 09.12.2022
725 Clouds -3 1004 92 10000 2.57 190 23:36 08.12.2022
726 Snow -3 1002 88 3500 2.57 210 20:56 08.12.2022
727 Snow -3 1002 86 10000 3.09 210 20:20 08.12.2022
728 Clouds -2 1000 87 10000 3.6 240 16:51 08.12.2022
729 Snow -1 998 84 2000 2.68 219 14:40 08.12.2022
730 Snow -1 998 86 2800 3.09 140 14:20 08.12.2022
731 Snow -2 997 86 6000 2.57 50 10:43 08.12.2022
732 Clouds -3 992 88 2200 2.57 60 09:32 08.12.2022
733 Clouds -3 997 86 10000 2.06 80 07:58 08.12.2022
734 Snow -3 1000 86 2400 3.58 113 22:44 07.12.2022
735 Snow -3 1000 86 2600 3.09 90 22:18 07.12.2022
736 Snow -2 1000 87 2300 3.6 80 21:47 07.12.2022
737 Snow -2 1001 87 2400 3.6 100 20:35 07.12.2022
738 Snow -2 1002 86 2500 2.68 86 18:38 07.12.2022
739 Snow -1 1003 86 2500 3.09 90 15:53 07.12.2022
740 Snow -1 1004 87 2500 3.09 80 14:29 07.12.2022
741 Snow 0 1006 88 2000 2.06 140 10:56 07.12.2022
742 Snow 0 1006 88 2000 1.54 40 10:26 07.12.2022
743 Snow 0 1006 87 2000 1.03 40 09:31 07.12.2022
744 Clouds -1 1006 88 8000 1.54 30 07:41 07.12.2022
745 Clouds 0 1006 87 10000 2.06 300 05:25 07.12.2022
746 Snow 0 1007 88 2500 1.03 0 02:57 07.12.2022
747 Snow 0 1007 88 3500 4.12 140 21:59 06.12.2022
748 Snow 0 1008 87 4000 3.6 150 19:35 06.12.2022
749 Snow 0 1009 89 2500 3.6 170 17:19 06.12.2022
750 Snow 0 1009 89 4000 4.12 170 16:29 06.12.2022
751 Clouds 0 1009 87 4000 5.14 190 15:37 06.12.2022
752 Clouds 0 1010 86 10000 4.63 180 14:39 06.12.2022
753 Clouds 0 1010 86 10000 4.63 190 14:19 06.12.2022
754 Clouds 0 1011 87 4000 4.92 168 12:41 06.12.2022
755 Snow 0 1011 87 10000 5.66 190 11:48 06.12.2022
756 Snow 0 1013 86 10000 5.66 190 07:50 06.12.2022
757 Snow -1 1016 88 4000 2.68 172 03:25 06.12.2022
758 Clouds -1 1020 85 10000 4.12 180 23:44 05.12.2022
759 Clouds -1 1022 80 10000 3.13 182 21:47 05.12.2022
760 Clouds -1 1022 82 10000 2.68 193 20:52 05.12.2022
761 Clouds -1 1023 82 10000 3.58 194 20:22 05.12.2022
762 Clouds -1 1023 82 10000 2.24 241 19:36 05.12.2022
763 Clouds -3 1026 85 10000 1.54 40 16:53 05.12.2022
764 Clouds -3 1027 87 10000 1.54 80 15:29 05.12.2022
765 Clouds -4 1019 89 10000 2.06 60 14:49 05.12.2022
766 Clouds -3 1029 83 10000 1.54 80 12:58 05.12.2022
767 Clouds -3 1023 85 10000 1.03 0 12:38 05.12.2022
768 Clouds -4 1024 85 10000 0.51 0 11:43 05.12.2022
769 Clouds -6 1023 88 10000 0.45 338 09:23 05.12.2022
770 Clouds -4 1016 94 10000 1.54 340 00:19 05.12.2022
771 Clouds -4 1017 93 10000 1.03 350 22:44 04.12.2022
772 Clouds -4 1017 94 10000 1.54 320 22:19 04.12.2022
773 Clouds -4 1022 93 10000 1.54 10 21:37 04.12.2022
774 Clouds -4 999 93 8000 1.54 360 20:20 04.12.2022
775 Clouds -4 1023 92 7000 2.06 340 19:23 04.12.2022
776 Clouds -4 1024 93 7000 1.34 346 18:36 04.12.2022
777 Clouds -4 1024 93 8000 2.24 357 17:22 04.12.2022
778 Clouds -3 1033 91 6000 1.79 327 16:37 04.12.2022
779 Clouds -4 1025 93 6000 1.79 348 16:18 04.12.2022
780 Mist -3 1033 91 4500 1.34 326 15:27 04.12.2022
781 Mist -3 1033 89 4000 1.34 335 14:32 04.12.2022
782 Clouds -3 1028 90 5000 1.34 319 12:52 04.12.2022
783 Clouds -3 1028 91 5000 1.34 324 12:33 04.12.2022
784 Clouds -3 1028 90 5000 1.34 332 11:35 04.12.2022
785 Clouds -3 1028 88 7000 1.03 10 08:50 04.12.2022
786 Clouds -3 1027 89 3500 2.06 50 02:51 04.12.2022
787 Clouds -4 1033 89 10000 2.57 40 23:44 03.12.2022
788 Clouds -4 1033 88 10000 2.57 50 22:46 03.12.2022
789 Clouds -4 1033 89 10000 2.68 10 21:52 03.12.2022
790 Clouds -4 1033 88 10000 2.24 356 20:46 03.12.2022
791 Clouds -4 1027 88 10000 2.68 11 18:41 03.12.2022
792 Clouds -4 1027 89 10000 2.06 20 17:56 03.12.2022
793 Clouds -4 1027 89 9000 2.06 40 15:52 03.12.2022
794 Snow -3 1033 87 10000 3.09 40 13:46 03.12.2022
795 Clouds -3 1033 87 10000 2.57 50 12:51 03.12.2022
796 Clouds -3 1033 88 8000 2.57 30 12:18 03.12.2022
797 Clouds -4 1034 87 4500 2.57 30 09:28 03.12.2022
798 Clouds -4 1034 88 10000 3.6 40 04:18 03.12.2022
799 Clouds -3 1035 87 10000 4.12 40 00:23 03.12.2022
800 Clouds -3 1035 86 10000 5.14 30 22:19 02.12.2022
801 Clouds -4 1031 86 10000 4.92 28 20:21 02.12.2022
802 Clear -4 1031 85 10000 4.63 30 17:39 02.12.2022
803 Clouds -4 1031 87 10000 4.63 40 15:57 02.12.2022
804 Clouds -4 1031 88 10000 4.02 19 14:37 02.12.2022
805 Clouds -4 1032 86 10000 4.02 18 14:18 02.12.2022
806 Clouds -3 1037 87 10000 6.17 40 11:59 02.12.2022
807 Clouds -2 1037 86 9000 5.14 40 10:43 02.12.2022
808 Clouds -2 1037 86 10000 5.14 40 07:54 02.12.2022
809 Clouds -2 1036 85 10000 5.14 40 07:22 02.12.2022
810 Clouds -2 1037 88 10000 4.63 60 22:53 01.12.2022
811 Clouds -2 1037 87 10000 4.63 50 21:43 01.12.2022
812 Clouds -2 1037 87 10000 4.63 50 20:50 01.12.2022
813 Clouds -1 1037 87 10000 4.12 60 19:18 01.12.2022
814 Clouds -1 1037 86 10000 4.63 60 17:30 01.12.2022
815 Snow 0 1038 86 10000 3.6 60 14:46 01.12.2022
816 Clouds 0 1038 86 10000 3.6 60 11:21 01.12.2022
817 Clouds 0 1037 85 10000 2.68 75 09:55 01.12.2022
818 Clouds 0 1037 85 10000 3.58 88 09:36 01.12.2022
819 Clouds 0 1037 84 10000 2.06 50 06:44 01.12.2022
820 Clouds 1 1037 84 10000 2.06 80 22:44 30.11.2022
821 Clouds 1 1037 85 10000 1.79 86 21:46 30.11.2022
822 Clouds 1 1036 84 10000 2.06 70 21:19 30.11.2022
823 Clouds 1 1036 84 10000 2.06 60 20:23 30.11.2022
824 Clouds 1 1036 84 10000 1.03 40 19:28 30.11.2022
825 Clouds 1 1035 84 10000 1.54 0 18:32 30.11.2022
826 Clouds 1 1035 85 10000 1.54 70 16:53 30.11.2022
827 Clouds 1 1035 85 10000 2.24 122 14:46 30.11.2022
828 Clouds 1 1035 85 10000 1.79 121 14:26 30.11.2022
829 Clouds 1 1035 85 10000 1.54 90 12:21 30.11.2022
830 Clouds 1 1035 85 2700 1.54 70 09:38 30.11.2022
831 Clouds 1 1035 86 3500 1.54 70 08:27 30.11.2022
832 Clouds 0 1034 87 2800 1.54 70 06:42 30.11.2022
833 Snow 0 1034 87 3500 2.06 80 23:27 29.11.2022
834 Snow 0 1034 86 3500 2.57 90 22:19 29.11.2022
835 Snow 1 1035 87 3400 2.57 70 20:52 29.11.2022
836 Snow 1 1035 87 3200 3.09 70 19:49 29.11.2022
837 Snow 1 1035 85 3000 3.09 70 17:55 29.11.2022
838 Clouds 1 1035 84 10000 3.09 60 16:31 29.11.2022
839 Rain 1 1035 85 10000 3.13 117 15:28 29.11.2022
840 Rain 1 1035 84 10000 2.68 110 14:25 29.11.2022
841 Clouds 1 1035 82 10000 3.09 70 12:37 29.11.2022
842 Clouds 1 1035 84 10000 3.58 117 11:31 29.11.2022
843 Clouds 1 1035 83 10000 4.47 108 10:27 29.11.2022
844 Clouds 1 1034 83 10000 3.13 115 09:26 29.11.2022
845 Clouds 0 1033 86 10000 3.58 114 06:47 29.11.2022
846 Clouds -1 1033 84 10000 4.12 50 00:28 29.11.2022
847 Clouds -1 1032 85 10000 4.12 50 23:25 28.11.2022
848 Clouds 0 1033 87 7000 4.63 50 21:57 28.11.2022
849 Clouds 0 1032 84 10000 4.12 60 21:39 28.11.2022
850 Clouds 0 1032 85 6000 4.02 124 20:24 28.11.2022
851 Clouds 0 1032 83 8000 3.13 82 19:25 28.11.2022
852 Clouds 0 1032 86 3500 3.13 127 18:28 28.11.2022
853 Clouds 0 1032 85 4000 3.6 70 17:23 28.11.2022
854 Clouds 0 1031 86 4000 4.02 98 14:57 28.11.2022
855 Clouds 0 1031 85 9000 4.12 70 13:54 28.11.2022
856 Clouds 0 1031 85 9000 4.12 70 12:59 28.11.2022
857 Clouds 0 1031 86 10000 3.6 60 11:32 28.11.2022
858 Clouds 0 1031 85 10000 3.09 50 07:55 28.11.2022
859 Clouds -1 1031 88 10000 2.06 60 04:55 28.11.2022
860 Clouds -1 1031 88 10000 2.57 70 04:37 28.11.2022
861 Clouds -1 1031 87 10000 3.09 60 03:21 28.11.2022
862 Clouds -2 1030 92 10000 3.09 50 23:44 27.11.2022
863 Clouds -2 1030 86 10000 3.09 60 21:54 27.11.2022
864 Clouds -1 1030 94 10000 2.57 50 20:43 27.11.2022
865 Clouds -4 1030 93 10000 4.12 50 18:31 27.11.2022
866 Clouds -4 1030 93 4500 4.12 50 15:40 27.11.2022
867 Clouds -5 1030 100 5000 4.12 50 13:44 27.11.2022
868 Clouds -5 1030 93 10000 4.63 50 12:20 27.11.2022
869 Snow -5 1030 93 3000 4.63 40 09:21 27.11.2022
870 Snow -5 1030 93 4000 4.63 50 06:30 27.11.2022
871 Snow -3 1030 87 2500 3.6 50 23:22 26.11.2022
872 Snow -3 1030 87 5000 4.63 40 20:59 26.11.2022
873 Clouds -3 1029 85 8000 4.12 40 19:40 26.11.2022
874 Clouds -3 1030 87 8000 4.12 50 18:38 26.11.2022
875 Snow -3 1029 88 8000 5.14 60 16:34 26.11.2022
876 Clouds -2 1029 87 7000 4.63 50 14:34 26.11.2022
877 Clouds -2 1030 86 8000 4.12 50 12:42 26.11.2022
878 Clouds -2 1029 87 8000 4.12 40 10:52 26.11.2022
879 Clouds -2 1029 87 10000 4.63 40 09:36 26.11.2022
880 Clouds -3 1028 87 10000 4.12 50 07:29 26.11.2022
881 Clouds -1 1027 87 10000 4.92 95 22:18 25.11.2022
882 Clouds -1 1027 85 10000 4.47 89 21:30 25.11.2022
883 Clouds -2 1027 87 10000 4.12 50 19:58 25.11.2022
884 Clouds -3 1025 90 8000 5.14 40 16:50 25.11.2022
885 Clouds -2 1025 88 3000 4.63 40 14:48 25.11.2022
886 Clouds 0 1024 86 10000 7.15 93 09:44 25.11.2022
887 Clouds 0 1024 84 10000 7.15 87 08:42 25.11.2022
888 Clouds 0 1023 85 10000 5.36 103 06:55 25.11.2022
889 Clouds 0 1023 83 10000 4.47 79 06:31 25.11.2022
890 Clouds -1 1021 84 10000 4.92 97 00:29 25.11.2022
891 Clouds -1 1021 84 10000 5.81 92 22:57 24.11.2022
892 Clouds -1 1021 84 10000 4.63 40 21:59 24.11.2022
893 Clouds -1 1021 85 10000 4.63 50 20:58 24.11.2022
894 Snow -1 1021 86 10000 4.63 50 19:20 24.11.2022
895 Clouds -2 1020 87 10000 5.14 50 17:43 24.11.2022
896 Clouds -2 1020 87 10000 5.14 50 17:21 24.11.2022
897 Clouds -2 1019 87 6000 4.12 40 15:29 24.11.2022
898 Clouds -2 1019 88 10000 5.14 50 14:22 24.11.2022
899 Clouds -2 1019 87 10000 4.63 40 14:22 24.11.2022
900 Snow -2 1019 88 8000 4.63 50 11:59 24.11.2022
901 Clouds -3 1019 87 10000 4.63 50 10:37 24.11.2022
902 Clouds -4 1019 87 10000 5.14 40 07:54 24.11.2022
903 Snow -5 1017 85 10000 3.09 40 03:23 24.11.2022
904 Clouds -5 1018 85 9000 4.63 40 23:46 23.11.2022
905 Clouds -4 1018 85 10000 4.12 40 22:24 23.11.2022
906 Clouds -4 1018 84 10000 5.14 70 21:30 23.11.2022
907 Clouds -3 1018 85 10000 5.66 50 20:45 23.11.2022
908 Clouds -3 1017 84 10000 5.14 40 19:27 23.11.2022
909 Clouds -3 1017 84 10000 5.14 40 19:27 23.11.2022
910 Clouds -3 1017 85 10000 5.14 40 19:27 23.11.2022
911 Clouds -3 1017 83 10000 6.17 40 18:41 23.11.2022
912 Clouds -2 1017 84 10000 5.66 40 16:42 23.11.2022
913 Clouds -2 1016 83 10000 5.66 40 13:40 23.11.2022
914 Clouds -2 1016 83 10000 6.17 40 13:20 23.11.2022
915 Clouds -2 1016 83 10000 5.14 50 12:21 23.11.2022
916 Clouds -2 1016 85 10000 6.69 40 11:41 23.11.2022
917 Clouds -2 1016 86 10000 5.66 50 10:42 23.11.2022
918 Clouds -3 1016 86 10000 5.14 40 09:44 23.11.2022
919 Clouds -3 1016 86 10000 5.14 30 09:25 23.11.2022
920 Clouds -3 1016 86 10000 5.14 30 08:37 23.11.2022
921 Clouds -3 1016 83 10000 4.92 9 05:22 23.11.2022
922 Clouds -3 1016 84 10000 4.47 56 04:32 23.11.2022
923 Clouds -3 1016 83 10000 4.47 13 23:23 22.11.2022
924 Clouds -3 1016 85 10000 4.63 30 22:33 22.11.2022
925 Clouds -3 1016 83 10000 5.66 50 21:34 22.11.2022
926 Clouds -3 1016 81 10000 4.92 5 20:49 22.11.2022
927 Clouds -3 1015 80 10000 4.63 40 19:54 22.11.2022
928 Clouds -3 1016 81 10000 5.66 60 17:56 22.11.2022
929 Clouds -3 1015 81 10000 6.69 50 17:26 22.11.2022
930 Clouds -3 1015 81 10000 6.69 50 17:26 22.11.2022
931 Clouds -2 1015 84 10000 5.14 50 15:53 22.11.2022
932 Clouds -2 1015 84 10000 4.63 40 13:44 22.11.2022
933 Clouds -2 1015 85 10000 4.12 30 11:40 22.11.2022
934 Clouds -2 1015 85 10000 4.63 40 09:20 22.11.2022
935 Clouds -3 1015 86 10000 5.66 40 07:55 22.11.2022
936 Clouds -1 1014 83 10000 6.26 96 01:49 22.11.2022
937 Clouds -1 1010 82 10000 4.12 60 23:41 21.11.2022
938 Clouds -1 1010 83 10000 6.26 87 22:42 21.11.2022
939 Clouds -2 1010 85 10000 4.02 104 21:58 21.11.2022
940 Snow -2 1010 84 10000 4.47 100 20:53 21.11.2022
941 Clouds -2 1010 85 10000 4.92 110 19:42 21.11.2022
942 Clouds -2 1010 85 10000 5.81 113 18:54 21.11.2022
943 Clouds -2 1010 85 10000 4.92 104 18:25 21.11.2022
944 Clouds -2 1010 85 7000 5.36 110 16:56 21.11.2022
945 Snow -2 1010 86 7000 7.6 122 16:37 21.11.2022
946 Clouds -2 1010 86 4000 7.15 110 15:50 21.11.2022
947 Snow -2 1010 86 2800 5.81 120 14:29 21.11.2022
948 Snow -2 1010 86 2500 5.14 60 13:43 21.11.2022
949 Snow -2 1011 89 1200 8.05 94 11:37 21.11.2022
950 Clouds -2 1016 82 10000 7.72 80 09:18 21.11.2022
951 Clouds -2 1016 79 10000 7.2 80 07:39 21.11.2022
952 Clouds -3 1011 79 10000 5.66 120 22:38 20.11.2022
953 Clouds -3 1011 84 10000 6.17 120 21:34 20.11.2022
954 Clouds -2 1016 79 10000 4.63 140 20:32 20.11.2022
955 Clouds -2 1016 79 10000 4.63 140 20:32 20.11.2022
956 Clouds -2 1015 80 10000 3.6 140 18:39 20.11.2022
957 Snow -2 1015 81 3000 5.81 117 16:32 20.11.2022
958 Snow -2 1015 83 10000 6.71 109 15:30 20.11.2022
959 Snow -2 1015 79 10000 5.36 111 14:54 20.11.2022
960 Snow -2 1015 81 10000 5.81 121 13:34 20.11.2022
961 Snow -2 1015 84 2500 5.81 117 12:42 20.11.2022
962 Clouds -2 1015 87 4500 5.66 90 11:26 20.11.2022
963 Snow -2 1015 85 10000 6.26 72 10:49 20.11.2022
964 Snow -1 1015 87 3500 7.15 91 09:28 20.11.2022
965 Snow -1 1015 89 2200 5.81 89 08:41 20.11.2022
966 Snow -2 1015 88 7000 5.14 40 07:30 20.11.2022
967 Snow -2 1015 88 7000 5.14 40 07:30 20.11.2022
968 Clouds -2 1016 87 10000 6.17 40 04:26 20.11.2022
969 Snow -1 1018 84 10000 6.26 13 01:22 20.11.2022
970 Snow -1 1019 87 10000 5.36 26 00:42 20.11.2022
971 Clouds -2 1018 87 10000 5.14 30 00:23 20.11.2022
972 Snow -2 1019 87 4500 5.66 30 23:51 19.11.2022
973 Clouds -2 1019 85 10000 5.66 30 23:25 19.11.2022
974 Clouds -1 1020 83 10000 5.14 20 22:40 19.11.2022
975 Clouds -1 1020 79 10000 5.66 40 21:32 19.11.2022
976 Clouds -1 1021 78 10000 5.66 50 20:57 19.11.2022
977 Clouds -1 1021 78 10000 5.66 50 20:37 19.11.2022
978 Clouds -1 1020 78 10000 6.17 50 19:25 19.11.2022
979 Clouds -1 1021 79 10000 5.14 50 17:41 19.11.2022
980 Clouds -1 1021 79 10000 5.14 50 17:21 19.11.2022
981 Clouds -1 1021 81 10000 4.63 50 16:28 19.11.2022
982 Snow -1 1021 83 10000 5.66 50 14:39 19.11.2022
983 Snow -2 1016 83 5000 6.69 40 12:23 19.11.2022
984 Snow -3 1016 81 10000 6.69 40 10:57 19.11.2022
985 Clouds -3 1017 82 10000 6.26 35 09:25 19.11.2022
986 Clouds -3 1016 82 10000 7.15 21 05:44 19.11.2022
987 Clouds -3 1017 82 10000 7.15 7 03:25 19.11.2022
988 Clouds -4 1016 82 10000 7.2 30 00:18 19.11.2022
989 Clouds -3 1016 81 10000 6.71 8 23:25 18.11.2022
990 Clouds -3 1021 75 10000 6.69 30 21:54 18.11.2022
991 Clouds -2 1021 75 10000 6.69 30 21:33 18.11.2022
992 Clouds -2 1021 75 10000 5.66 40 20:38 18.11.2022
993 Clouds -2 1021 74 10000 6.69 50 19:47 18.11.2022
994 Clouds -2 1021 74 10000 6.17 40 18:49 18.11.2022
995 Clouds -2 1020 74 10000 5.66 30 17:44 18.11.2022
996 Clouds -1 1020 70 10000 5.81 59 14:33 18.11.2022
997 Clouds 0 1020 70 10000 5.66 50 11:41 18.11.2022
998 Clouds 0 1020 72 10000 3.58 74 09:19 18.11.2022
999 Clouds 0 1020 75 10000 3.6 50 07:51 18.11.2022
1000 Clouds 0 1020 72 10000 4.63 50 05:24 18.11.2022
1001 Clouds 0 1019 76 10000 5.66 40 00:51 18.11.2022
1002 Clouds 1 1019 74 10000 4.63 30 22:20 17.11.2022
1003 Clouds 1 1019 74 10000 6.17 40 20:46 17.11.2022
1004 Clouds 1 1019 74 10000 5.14 40 19:51 17.11.2022
1005 Clouds 0 1018 77 10000 4.63 50 18:47 17.11.2022
1006 Clouds 0 1018 87 10000 4.63 30 17:34 17.11.2022
1007 Clouds 0 1018 88 10000 4.12 30 16:53 17.11.2022
1008 Clouds 1 1018 83 6000 3.6 40 14:57 17.11.2022
1009 Clouds 0 1011 86 10000 4.02 8 11:22 17.11.2022
1010 Clouds 0 1012 85 10000 3.13 11 08:39 17.11.2022
1011 Clouds -1 1011 87 10000 2.68 350 05:47 17.11.2022
1012 Clouds -2 1013 88 10000 2.68 330 00:22 17.11.2022
1013 Clouds -1 1014 88 10000 2.68 334 22:30 16.11.2022
1014 Clouds -1 1014 88 10000 3.6 340 20:54 16.11.2022
1015 Clouds -1 1014 88 10000 3.09 350 19:54 16.11.2022
1016 Clouds -1 1014 88 10000 2.68 331 18:45 16.11.2022
1017 Clouds -1 1014 88 10000 2.68 24 17:26 16.11.2022
1018 Clouds -1 1014 87 10000 2.57 10 13:59 16.11.2022
1019 Clouds -1 1015 85 10000 3.6 30 09:48 16.11.2022
1020 Clouds -1 1020 86 10000 3.58 14 06:38 16.11.2022
1021 Clouds 0 1022 83 10000 2.57 340 01:26 16.11.2022
1022 Clouds 0 1021 87 10000 3.6 20 22:33 15.11.2022
1023 Clouds 1 1020 86 5000 4.02 32 20:45 15.11.2022
1024 Drizzle 2 1020 83 10000 5.14 20 19:34 15.11.2022
1025 Clouds 2 1020 82 10000 5.14 360 18:42 15.11.2022
1026 Clouds 2 1019 84 10000 4.92 14 17:21 15.11.2022
1027 Clouds 3 1019 84 10000 5.14 20 16:19 15.11.2022
1028 Drizzle 3 1018 84 10000 6.71 4 14:45 15.11.2022
1029 Drizzle 3 1017 84 8000 5.14 10 12:59 15.11.2022
1030 Clouds 3 1016 83 10000 8.23 20 11:43 15.11.2022
1031 Clouds 4 1015 85 10000 7.72 360 10:55 15.11.2022
1032 Drizzle 4 1013 84 10000 7.72 360 08:35 15.11.2022
1033 Drizzle 6 1015 87 6000 4.63 200 00:36 15.11.2022
1034 Drizzle 6 1016 85 3500 2.68 209 23:34 14.11.2022
1035 Clouds 6 1018 84 10000 4.63 190 21:30 14.11.2022
1036 Clouds 6 1019 83 10000 3.6 200 20:39 14.11.2022
1037 Drizzle 6 1021 83 7000 2.68 188 18:37 14.11.2022
1038 Clouds 6 1023 84 10000 3.6 180 15:51 14.11.2022
1039 Clouds 7 1026 81 10000 2.06 170 12:54 14.11.2022
1040 Clouds 6 1026 79 10000 1.79 198 11:42 14.11.2022
1041 Clouds 4 1027 84 10000 1.03 0 09:28 14.11.2022
1042 Clouds 3 1027 95 10000 1.54 60 07:54 14.11.2022
1043 Clear 2 1027 94 10000 1.03 220 06:37 14.11.2022
1044 Fog 2 1029 87 10000 1.03 0 00:18 14.11.2022
1045 Fog 2 1030 90 10000 1.03 0 21:53 13.11.2022
1046 Fog 2 1030 91 10000 1.03 0 21:21 13.11.2022
1047 Clear 3 1029 91 10000 2.06 300 19:44 13.11.2022
1048 Clear 4 1028 85 10000 3.09 300 18:19 13.11.2022
1049 Clear 4 1029 84 10000 3.09 310 17:21 13.11.2022
1050 Clear 6 1028 79 10000 3.6 290 14:58 13.11.2022
1051 Clear 7 1028 75 10000 3.6 280 13:58 13.11.2022
1052 Clear 7 1027 75 10000 4.63 280 12:37 13.11.2022
1053 Clear 7 1027 77 10000 4.63 300 10:58 13.11.2022
1054 Clear 5 1018 84 10000 4.63 280 07:58 13.11.2022
1055 Clear 8 1021 74 10000 6.17 290 01:34 13.11.2022
1056 Clear 9 1018 71 10000 8.23 290 22:29 12.11.2022
1057 Clear 9 1018 72 10000 8.23 280 21:24 12.11.2022
1058 Clear 10 1017 68 10000 8.23 290 19:55 12.11.2022
1059 Clear 11 1016 66 10000 10.29 290 17:57 12.11.2022
1060 Clouds 11 1015 65 10000 8.75 280 16:25 12.11.2022
1061 Clouds 12 1014 63 10000 8.75 290 15:22 12.11.2022
1062 Clouds 13 1012 66 10000 10.8 290 12:27 12.11.2022
1063 Clouds 13 1006 82 10000 8.75 280 09:20 12.11.2022
1064 Clouds 12 1004 82 10000 7.2 250 05:31 12.11.2022
1065 Clouds 11 1007 81 10000 4.12 210 22:30 11.11.2022
1066 Clouds 11 1007 83 10000 3.09 230 20:45 11.11.2022
1067 Clouds 11 1007 83 10000 3.6 250 19:42 11.11.2022
1068 Clouds 11 1007 83 10000 4.12 230 19:20 11.11.2022
1069 Clouds 11 1007 83 10000 4.63 240 17:54 11.11.2022
1070 Clouds 11 1007 84 10000 4.12 240 16:20 11.11.2022
1071 Clouds 11 1006 84 7000 5.14 240 14:20 11.11.2022
1072 Clouds 11 1005 84 8000 6.69 230 13:28 11.11.2022
1073 Clouds 10 1005 83 3000 8.75 210 09:48 11.11.2022
1074 Drizzle 10 1006 84 4500 8.94 214 08:27 11.11.2022
1075 Rain 9 1008 86 7000 7.2 190 05:28 11.11.2022
1076 Clouds 9 1011 82 10000 4.63 220 23:21 10.11.2022
1077 Clouds 9 1011 81 10000 4.63 210 22:27 10.11.2022
1078 Clouds 9 1011 83 10000 4.12 230 21:32 10.11.2022
1079 Clouds 9 1011 84 10000 3.6 220 20:50 10.11.2022
1080 Clouds 9 1011 83 10000 3.6 220 20:21 10.11.2022
1081 Clouds 9 1011 84 10000 4.63 230 19:42 10.11.2022
1082 Clouds 9 1005 84 10000 4.63 200 18:32 10.11.2022
1083 Clouds 10 1010 83 10000 3.09 210 16:26 10.11.2022
1084 Clouds 10 1008 85 10000 4.92 213 13:56 10.11.2022
1085 Clouds 10 1008 84 10000 6.26 218 11:40 10.11.2022
1086 Clouds 10 1006 83 10000 5.14 210 08:44 10.11.2022
1087 Clouds 10 1004 85 10000 4.02 220 01:34 10.11.2022
1088 Clouds 10 1004 83 10000 4.12 220 23:39 09.11.2022
1089 Clouds 10 1003 86 10000 5.14 220 22:36 09.11.2022
1090 Clouds 10 1003 83 10000 5.66 200 20:48 09.11.2022
1091 Rain 10 1004 83 10000 5.66 190 20:29 09.11.2022
1092 Clouds 10 1004 83 8000 5.66 200 19:42 09.11.2022
1093 Drizzle 10 1004 83 6000 5.66 210 18:51 09.11.2022
1094 Clouds 10 1003 83 7000 5.14 220 16:19 09.11.2022
1095 Clouds 10 1003 83 7000 5.14 200 14:48 09.11.2022
1096 Clouds 10 1003 83 8000 4.63 200 14:25 09.11.2022
1097 Mist 10 1003 83 5000 5.66 210 13:19 09.11.2022
1098 Mist 10 1003 85 5000 6.69 200 11:46 09.11.2022
1099 Drizzle 7 1003 85 2500 2.06 100 08:42 09.11.2022
1100 Mist 7 1003 86 1800 3.09 100 07:46 09.11.2022
1101 Mist 7 1003 86 1800 3.09 100 07:46 09.11.2022
1102 Mist 7 1003 86 1800 3.09 100 07:46 09.11.2022
1103 Rain 4 1006 86 10000 1.03 0 00:54 09.11.2022
1104 Clouds 6 1006 84 10000 3.09 250 21:45 08.11.2022
1105 Clouds 6 1006 84 10000 3.09 250 21:26 08.11.2022
1106 Clouds 6 1006 83 10000 2.06 270 20:41 08.11.2022
1107 Clouds 6 1005 85 10000 3.6 290 19:37 08.11.2022
1108 Clouds 7 1005 88 10000 5.14 300 18:31 08.11.2022
1109 Clouds 7 1004 85 10000 4.12 270 16:47 08.11.2022
1110 Clouds 8 1002 84 10000 5.14 260 14:56 08.11.2022
1111 Clouds 8 1001 83 10000 5.66 270 13:41 08.11.2022
1112 Clouds 8 1001 83 10000 5.66 260 13:22 08.11.2022
1113 Clouds 9 998 83 10000 4.12 250 09:20 08.11.2022
1114 Clouds 8 996 85 10000 4.63 220 07:25 08.11.2022
1115 Clouds 8 1000 84 6000 7.72 180 00:33 08.11.2022
1116 Rain 7 996 87 8000 7.2 170 22:25 07.11.2022
1117 Rain 7 997 92 10000 7.2 180 21:22 07.11.2022
1118 Rain 7 995 87 10000 7.2 180 20:40 07.11.2022
1119 Clouds 8 997 83 10000 6.69 190 18:48 07.11.2022
1120 Clouds 8 997 86 10000 6.69 190 17:19 07.11.2022
1121 Clouds 8 1006 81 10000 7.2 200 15:35 07.11.2022
1122 Clouds 9 1006 81 10000 7.15 183 14:48 07.11.2022
1123 Clouds 9 1007 82 10000 7.72 210 12:38 07.11.2022
1124 Drizzle 9 1007 83 5000 7.2 210 11:30 07.11.2022
1125 Clouds 9 1007 85 3000 5.36 246 09:36 07.11.2022
1126 Clouds 9 1007 85 10000 5.14 210 07:50 07.11.2022
1127 Clouds 9 1007 86 9000 6.17 210 04:20 07.11.2022
1128 Clouds 9 1008 84 7000 8.75 190 01:29 07.11.2022
1129 Clouds 8 1008 86 6000 8.75 190 22:26 06.11.2022
1130 Clouds 9 1009 83 10000 8.23 190 21:20 06.11.2022
1131 Clouds 9 1009 82 10000 7.2 190 20:32 06.11.2022
1132 Clouds 9 1009 82 10000 7.2 190 19:53 06.11.2022
1133 Clouds 9 1009 83 10000 8.23 190 18:41 06.11.2022
1134 Clouds 9 1009 83 10000 8.23 190 18:41 06.11.2022
1135 Clouds 9 1009 84 10000 6.69 190 18:19 06.11.2022
1136 Clouds 9 1009 85 10000 5.36 183 17:21 06.11.2022
1137 Clouds 9 1010 82 10000 5.14 200 16:40 06.11.2022
1138 Clouds 9 1010 81 10000 6.26 208 15:43 06.11.2022
1139 Clouds 9 1010 83 10000 4.92 215 12:49 06.11.2022
1140 Clouds 9 1010 83 10000 4.92 231 12:28 06.11.2022
1141 Clouds 8 1010 85 10000 5.81 202 10:46 06.11.2022
1142 Clouds 7 1009 89 7000 5.66 180 08:30 06.11.2022
1143 Rain 4 1012 85 10000 5.66 150 02:19 06.11.2022
1144 Snow 3 1013 86 9000 5.14 120 23:18 05.11.2022
1145 Clouds 2 1015 83 10000 5.14 150 19:37 05.11.2022
1146 Clouds 1 1015 82 10000 6.69 160 17:45 05.11.2022
1147 Clouds 2 1016 83 10000 6.17 120 16:21 05.11.2022
1148 Clouds 2 1017 80 10000 7.6 123 14:33 05.11.2022
1149 Clouds 2 1018 80 10000 6.17 110 12:51 05.11.2022
1150 Clouds 2 1018 80 10000 6.17 110 12:51 05.11.2022
1151 Clouds 2 1019 83 10000 5.81 100 10:31 05.11.2022
1152 Clouds 2 1019 85 10000 3.6 120 08:47 05.11.2022
1153 Clouds 3 1019 84 10000 5.66 120 06:57 05.11.2022
1154 Clouds 4 1019 84 10000 2.24 133 03:49 05.11.2022
1155 Clouds 3 1019 80 10000 3.13 82 23:35 04.11.2022
1156 Clouds 4 1019 82 10000 3.13 78 22:28 04.11.2022
1157 -273 0 0 0 0 0 19:56 04.11.2022
1158 Drizzle 5 1019 83 10000 4.47 99 19:53 04.11.2022
1159 Clouds 5 1019 82 10000 5.36 97 17:45 04.11.2022
1160 Clouds 6 1018 81 10000 3.13 95 16:33 04.11.2022
1161 Clouds 6 1018 81 10000 4.63 140 13:24 04.11.2022
1162 Clouds 6 1018 82 10000 4.12 140 12:21 04.11.2022
1163 Clouds 7 1018 84 10000 4.12 130 09:40 04.11.2022
1164 Clouds 6 1018 83 10000 3.6 120 08:21 04.11.2022
1165 Clouds 6 1018 83 10000 3.6 120 08:21 04.11.2022
1166 Clouds 6 1018 82 10000 4.92 123 07:26 04.11.2022
1167 Clouds 6 1017 82 10000 3.6 150 00:58 04.11.2022
1168 Clouds 6 1016 80 10000 4.02 119 22:30 03.11.2022
1169 Clouds 6 1017 80 10000 2.68 113 20:48 03.11.2022
1170 Clouds 6 1017 82 10000 3.6 120 19:43 03.11.2022
1171 Clouds 6 1017 83 10000 4.12 140 18:46 03.11.2022
1172 Clouds 6 1016 83 10000 4.47 130 17:38 03.11.2022
1173 Drizzle 6 1017 85 8000 2.68 129 15:49 03.11.2022
1174 Clouds 6 1017 84 10000 4.12 130 13:51 03.11.2022
1175 Drizzle 7 1016 82 10000 4.92 115 12:35 03.11.2022
1176 Drizzle 7 1016 82 10000 3.6 120 11:43 03.11.2022
1177 Clouds 6 1016 85 10000 3.13 125 07:51 03.11.2022
1178 Drizzle 7 1015 82 4500 3.13 96 23:56 02.11.2022
1179 Drizzle 7 1015 85 6000 3.13 108 20:56 02.11.2022
1180 Drizzle 7 1015 85 2600 3.09 90 20:32 02.11.2022
1181 Drizzle 6 1015 84 10000 2.57 90 18:58 02.11.2022
1182 Clouds 7 1015 85 10000 3.6 90 16:31 02.11.2022
1183 Clouds 6 1015 84 10000 3.6 90 15:35 02.11.2022
1184 Clouds 7 1015 85 10000 2.06 70 13:26 02.11.2022
1185 Clouds 7 1015 83 10000 2.24 105 12:34 02.11.2022
1186 Clouds 6 1015 84 9000 2.68 112 10:25 02.11.2022
1187 Drizzle 5 1015 85 4000 1.03 0 08:41 02.11.2022
1188 Drizzle 5 1015 86 6000 1.54 60 02:56 02.11.2022
1189 Fog 6 1015 86 800 1.54 330 22:41 01.11.2022
1190 Mist 6 1015 85 1500 2.06 340 22:18 01.11.2022
1191 Mist 6 1015 88 3000 2.06 320 21:20 01.11.2022
1192 Mist 6 1015 88 2000 2.57 280 20:23 01.11.2022
1193 Mist 6 1015 87 2500 2.06 280 19:41 01.11.2022
1194 Mist 6 1015 89 2800 1.54 340 18:26 01.11.2022
1195 Fog 7 1014 87 10000 1.54 260 16:48 01.11.2022
1196 Clouds 8 1014 87 10000 3.09 280 14:45 01.11.2022
1197 Clouds 9 1015 86 10000 3.6 270 13:20 01.11.2022
1198 Clouds 9 1015 88 10000 3.09 280 12:26 01.11.2022
1199 Clouds 9 1015 86 10000 4.12 270 11:20 01.11.2022
1200 Clouds 9 1015 82 10000 4.12 270 09:24 01.11.2022
1201 Clouds 9 1014 83 10000 3.09 270 07:53 01.11.2022
1202 Clouds 9 1014 84 10000 3.6 270 07:28 01.11.2022
1203 Clouds 8 1014 85 10000 4.12 260 06:46 01.11.2022
1204 Clouds 9 1014 84 10000 2.57 250 05:23 01.11.2022
1205 Fog 9 1014 87 600 3.6 210 22:44 31.10.2022
1206 Drizzle 9 1014 87 1400 3.6 210 21:33 31.10.2022
1207 Drizzle 8 1015 84 2500 3.6 190 19:57 31.10.2022
1208 Clouds 8 1015 85 10000 4.12 200 18:36 31.10.2022
1209 Rain 7 1016 86 10000 3.13 193 16:44 31.10.2022
1210 Clouds 7 1016 84 10000 3.13 197 15:34 31.10.2022
1211 Clear 6 1018 72 10000 2.06 200 12:22 31.10.2022
1212 Clear 4 1017 77 10000 1.54 260 09:35 31.10.2022
1213 Clear 0 1016 86 10000 2.06 290 05:52 31.10.2022
1214 Clear 1 1016 86 10000 2.57 290 02:42 31.10.2022
1215 Clear 1 1015 85 10000 2.06 290 01:46 31.10.2022
1216 Clear 2 1013 84 10000 3.09 270 22:19 30.10.2022
1217 Clear 3 1013 81 10000 4.63 300 20:38 30.10.2022
1218 Clear 3 1013 76 10000 5.14 290 19:34 30.10.2022
1219 Clear 4 1012 66 10000 4.92 272 16:29 30.10.2022
1220 Clear 5 1011 60 10000 6.17 290 14:33 30.10.2022
1221 Clouds 5 1011 59 10000 7.72 300 13:50 30.10.2022
1222 Clouds 5 1010 66 10000 6.69 320 12:20 30.10.2022
1223 Clouds 5 1008 73 10000 7.15 265 09:58 30.10.2022
1224 Clouds 5 1007 74 10000 5.66 290 08:57 30.10.2022
1225 Clouds 5 1007 76 10000 5.66 290 07:45 30.10.2022
1226 Clear 6 1002 74 10000 7.72 290 00:29 30.10.2022
1227 Clear 6 1002 74 10000 7.72 290 00:29 30.10.2022
1228 Clear 7 1002 71 10000 7.2 290 23:46 29.10.2022
1229 Clear 7 992 72 10000 8.23 300 21:57 29.10.2022
1230 Rain 10 997 81 10000 6.17 270 19:22 29.10.2022
1231 Clouds 11 989 89 10000 6.69 260 17:22 29.10.2022
1232 Clouds 12 995 88 10000 7.72 260 15:38 29.10.2022
1233 Clouds 12 995 88 10000 6.17 240 14:52 29.10.2022
1234 Drizzle 12 995 91 2800 5.66 220 13:29 29.10.2022
1235 Drizzle 11 990 93 2800 7.2 210 12:32 29.10.2022
1236 Drizzle 11 1001 93 4500 6.17 200 08:56 29.10.2022
1237 Mist 10 1003 90 1200 4.12 190 06:48 29.10.2022
1238 Drizzle 10 1004 91 4500 3.09 210 05:53 29.10.2022
1239 Mist 11 1008 92 4500 4.12 210 23:43 28.10.2022
1240 Clouds 11 1009 92 10000 4.12 220 21:32 28.10.2022
1241 Clouds 11 1010 91 10000 5.66 210 19:57 28.10.2022
1242 Drizzle 11 1010 92 10000 4.63 220 18:33 28.10.2022
1243 Drizzle 11 1011 91 6000 4.63 210 17:39 28.10.2022
1244 Clouds 12 1011 88 10000 3.6 210 14:51 28.10.2022
1245 Clouds 12 1012 89 10000 4.63 220 13:43 28.10.2022
1246 Clouds 12 1013 87 10000 4.12 230 11:54 28.10.2022
1247 Clouds 12 1013 86 10000 4.12 230 11:32 28.10.2022
1248 Clouds 11 1013 87 10000 4.12 230 10:45 28.10.2022
1249 Clouds 10 1013 92 10000 3.09 230 08:40 28.10.2022
1250 Clouds 10 1013 91 10000 3.09 230 06:51 28.10.2022
1251 Clouds 10 1014 92 10000 4.12 220 00:52 28.10.2022
1252 Clouds 10 1014 92 10000 4.12 210 23:45 27.10.2022
1253 Clouds 10 1014 92 10000 4.12 210 22:32 27.10.2022
1254 Clouds 10 1014 92 10000 4.12 230 20:57 27.10.2022
1255 Mist 10 1014 88 4000 5.14 210 18:30 27.10.2022
1256 Drizzle 9 1015 88 10000 5.14 180 17:22 27.10.2022
1257 Clouds 8 1017 87 10000 3.09 180 12:33 27.10.2022
1258 Clouds 7 1015 92 10000 4.12 290 07:41 27.10.2022
1259 Clouds 7 1014 88 10000 5.14 280 02:51 27.10.2022
1260 Clouds 10 1011 97 10000 3.6 290 23:53 26.10.2022
1261 Clouds 10 1012 92 10000 3.09 280 22:41 26.10.2022
1262 Clouds 10 1011 92 10000 3.09 270 21:33 26.10.2022
1263 Drizzle 11 1009 89 6000 2.06 230 18:21 26.10.2022
1264 Drizzle 11 1008 89 10000 3.6 190 14:54 26.10.2022
1265 Drizzle 11 1007 90 7000 3.6 180 13:34 26.10.2022
1266 Drizzle 11 1007 90 4000 4.63 190 12:32 26.10.2022
1267 Drizzle 10 1006 91 900 4.12 180 09:20 26.10.2022
1268 Drizzle 10 1006 92 900 3.09 170 08:53 26.10.2022
1269 Rain 10 1006 91 3500 2.57 150 07:30 26.10.2022
1270 Mist 8 1007 87 2000 2.57 120 00:38 26.10.2022
1271 Clouds 8 1007 88 6000 3.58 123 22:43 25.10.2022
1272 Clouds 7 1008 87 10000 3.6 100 21:46 25.10.2022
1273 Clouds 7 1008 86 10000 4.02 111 20:45 25.10.2022
1274 Drizzle 7 1008 87 5000 5.14 110 18:57 25.10.2022
1275 Drizzle 7 1009 87 4500 5.81 100 17:38 25.10.2022
1276 Drizzle 7 1009 92 7000 6.26 106 13:26 25.10.2022
1277 Rain 6 1010 89 10000 4.92 106 11:38 25.10.2022
1278 Rain 6 1010 89 10000 4.92 106 11:38 25.10.2022
1279 Rain 5 1010 92 10000 4.47 109 10:36 25.10.2022
1280 Rain 5 1011 87 10000 5.36 104 08:43 25.10.2022
1281 Rain 5 1011 86 10000 4.92 89 08:18 25.10.2022
1282 Clouds 5 1010 86 10000 4.47 89 07:53 25.10.2022
1283 Clouds 4 1011 83 10000 4.47 86 06:52 25.10.2022
1284 Clear 2 1013 84 10000 4.12 60 03:32 25.10.2022
1285 Clouds 1 1014 86 10000 3.6 70 00:32 25.10.2022
1286 Clear 1 1014 84 10000 2.57 60 22:28 24.10.2022
1287 Clear 1 1014 84 10000 2.57 50 21:50 24.10.2022
1288 Clear 0 1015 83 10000 2.57 50 21:31 24.10.2022
1289 Clear 1 1015 81 10000 1.54 60 20:40 24.10.2022
1290 Clear 2 1015 75 10000 1.34 91 18:46 24.10.2022
1291 Clear 4 1016 69 10000 1.03 40 16:59 24.10.2022
1292 Clouds 5 1016 62 10000 1.79 136 15:43 24.10.2022
1293 Clouds 6 1016 60 10000 1.03 0 14:20 24.10.2022
1294 Clouds 5 1016 66 10000 1.34 94 12:41 24.10.2022
1295 Clear 0 1015 89 10000 1.54 290 09:42 24.10.2022
1296 Clouds -1 1014 90 10000 1.79 305 07:56 24.10.2022
1297 Clouds 3 1011 85 10000 1.79 320 22:50 23.10.2022
1298 Clear 4 1010 82 10000 3.09 300 20:40 23.10.2022
1299 Clouds 5 1009 78 10000 4.63 300 19:27 23.10.2022
1300 Clouds 7 1008 74 10000 4.12 300 17:30 23.10.2022
1301 Clouds 7 1008 75 10000 4.12 300 17:30 23.10.2022
1302 Clouds 8 1008 70 10000 4.63 290 16:19 23.10.2022
1303 Clouds 9 1007 72 10000 5.14 300 14:58 23.10.2022
1304 Clouds 8 1001 76 10000 5.14 290 11:56 23.10.2022
1305 Clouds 7 1007 79 10000 5.14 310 10:52 23.10.2022
1306 Clouds 6 999 93 9000 2.57 240 06:36 23.10.2022
1307 Clouds 6 1001 85 10000 2.24 234 23:26 22.10.2022
1308 Clouds 6 999 84 10000 2.24 224 22:30 22.10.2022
1309 Clouds 6 1000 85 10000 4.92 174 21:40 22.10.2022
1310 Clouds 6 1002 83 10000 3.58 184 20:25 22.10.2022
1311 Clouds 6 1001 86 10000 2.24 191 19:31 22.10.2022
1312 Clouds 7 1005 79 10000 2.57 150 17:41 22.10.2022
1313 Clouds 7 1005 78 10000 4.12 160 16:49 22.10.2022
1314 Clouds 8 1012 73 10000 5.66 190 14:57 22.10.2022
1315 Clouds 9 1012 72 10000 5.14 170 14:31 22.10.2022
1316 Clouds 8 1014 80 10000 4.63 200 11:35 22.10.2022
1317 Clouds 7 1015 87 10000 3.6 180 09:46 22.10.2022
1318 Clouds 7 1014 89 10000 3.09 180 08:37 22.10.2022
1319 Clouds 6 1015 89 10000 1.03 0 05:50 22.10.2022
1320 Clouds 5 1015 91 10000 0.45 74 00:31 22.10.2022
1321 Clouds 5 1016 93 10000 1.03 180 22:50 21.10.2022
1322 Clouds 7 1016 88 10000 2.06 180 21:32 21.10.2022
1323 Clouds 7 1017 88 10000 1.34 102 20:26 21.10.2022
1324 Clouds 8 1017 86 10000 1.54 130 18:27 21.10.2022
1325 Clouds 9 1017 74 10000 1.54 320 14:40 21.10.2022
1326 Clouds 9 1017 80 10000 1.03 0 13:39 21.10.2022
1327 Rain 8 1017 87 10000 1.03 0 11:46 21.10.2022
1328 Clouds 7 1017 84 10000 0.45 219 10:23 21.10.2022
1329 Clouds 6 1017 85 10000 1.54 230 08:45 21.10.2022
1330 Clouds 6 1017 85 10000 2.06 230 08:20 21.10.2022
1331 Clouds 6 1017 87 10000 1.34 277 03:52 21.10.2022
1332 Clouds 7 1018 86 10000 1.54 250 23:18 20.10.2022
1333 Clouds 7 1019 83 10000 2.06 230 20:56 20.10.2022
1334 Clouds 7 1019 85 10000 2.06 230 19:42 20.10.2022
1335 Clouds 8 1019 82 10000 1.54 270 18:19 20.10.2022
1336 Clouds 8 1019 81 10000 2.06 260 17:38 20.10.2022
1337 Clouds 9 1018 78 10000 4.12 300 13:47 20.10.2022
1338 Clouds 9 1018 79 10000 4.12 310 12:32 20.10.2022
1339 Clouds 8 1018 84 10000 4.63 300 11:29 20.10.2022
1340 Clouds 7 1018 81 10000 3.6 280 10:51 20.10.2022
1341 Clear 4 1006 94 10000 3.6 270 08:55 20.10.2022
1342 Clouds 3 1009 94 10000 3.6 270 05:54 20.10.2022
1343 Clear 3 1009 92 10000 4.12 260 01:58 20.10.2022
1344 Clear 3 1017 86 10000 3.13 264 22:53 19.10.2022
1345 Clear 3 1017 85 10000 3.09 240 22:23 19.10.2022
1346 Clouds 3 1017 82 10000 2.68 267 21:20 19.10.2022
1347 Clear 3 1017 83 10000 3.09 270 19:53 19.10.2022
1348 Clear 5 1017 79 10000 4.12 290 17:44 19.10.2022
1349 Clouds 6 1017 73 10000 4.63 310 16:22 19.10.2022
1350 Clouds 6 1017 76 10000 6.69 320 13:59 19.10.2022
1351 Clouds 4 1016 83 10000 5.14 330 10:23 19.10.2022
1352 Clouds 2 1014 89 10000 5.66 330 08:37 19.10.2022
1353 Clouds 1 1008 91 10000 5.14 330 07:22 19.10.2022
1354 Clouds 3 1006 89 10000 5.14 330 01:32 19.10.2022
1355 Clouds 5 1011 88 10000 4.63 340 23:22 18.10.2022
1356 Clouds 6 1011 92 10000 4.63 300 21:49 18.10.2022
1357 Clear 6 1011 91 10000 4.12 290 21:18 18.10.2022
1358 Clouds 6 1005 91 10000 3.6 280 20:24 18.10.2022
1359 Rain 7 1004 89 10000 3.6 260 18:32 18.10.2022
1360 Clouds 9 1011 87 10000 4.12 270 16:55 18.10.2022
1361 Clouds 10 1011 84 10000 4.12 250 14:58 18.10.2022
1362 Clouds 9 1011 87 10000 5.14 260 13:22 18.10.2022
1363 Clouds 9 1011 88 10000 4.63 240 11:39 18.10.2022
1364 Clouds 8 1011 88 10000 4.12 260 10:24 18.10.2022
1365 Rain 8 1011 89 10000 4.12 260 08:40 18.10.2022
1366 Rain 8 1011 89 10000 2.57 230 05:45 18.10.2022
1367 Clear 8 1016 88 10000 1.54 220 22:56 17.10.2022
1368 Clear 8 1017 85 10000 3.09 240 21:21 17.10.2022
1369 Clear 8 1017 86 10000 3.6 230 20:43 17.10.2022
1370 Clear 8 1017 85 10000 3.6 240 20:20 17.10.2022
1371 Clear 8 1017 86 10000 3.6 230 19:34 17.10.2022
1372 Clouds 9 1017 82 10000 4.63 230 17:28 17.10.2022
1373 Clouds 11 1016 80 10000 6.17 250 15:54 17.10.2022
1374 Clouds 11 1015 82 10000 6.17 250 14:35 17.10.2022
1375 Clouds 10 1014 87 10000 7.2 250 12:25 17.10.2022
1376 Rain 9 1005 87 10000 8.23 230 06:42 17.10.2022
1377 Clouds 10 998 87 10000 8.94 218 00:27 17.10.2022
1378 Clouds 12 1004 89 10000 8.23 190 22:25 16.10.2022
1379 Clouds 12 1006 90 10000 7.2 190 20:59 16.10.2022
1380 Clouds 12 1007 90 10000 6.69 200 19:50 16.10.2022
1381 Clouds 12 1007 89 10000 7.2 210 18:35 16.10.2022
1382 Clouds 12 1007 90 3500 7.2 200 17:41 16.10.2022
1383 Rain 12 1007 88 9000 5.66 170 15:59 16.10.2022
1384 Rain 12 1007 88 9000 5.66 170 15:41 16.10.2022
1385 Mist 12 1009 90 5000 6.17 190 12:25 16.10.2022
1386 Drizzle 11 1009 91 2000 7.2 190 10:28 16.10.2022
1387 Drizzle 11 1002 96 2400 6.17 180 09:39 16.10.2022
1388 Clouds 11 1011 89 10000 5.14 170 03:22 16.10.2022
1389 Clouds 11 1012 88 9000 5.14 190 23:41 15.10.2022
1390 Clouds 11 1011 87 10000 4.12 160 21:29 15.10.2022
1391 Clouds 10 1006 89 10000 4.63 150 20:57 15.10.2022
1392 Clouds 10 1006 88 10000 3.6 130 19:30 15.10.2022
1393 Clouds 10 1007 90 7000 3.6 170 16:18 15.10.2022
1394 Clouds 10 1007 90 6000 4.63 170 15:43 15.10.2022
1395 Clouds 10 1006 90 7000 4.12 160 13:18 15.10.2022
1396 Mist 10 1007 90 5000 3.6 170 11:37 15.10.2022
1397 Clouds 10 1007 92 6000 5.14 170 09:22 15.10.2022
1398 Rain 10 1011 91 6000 4.12 180 06:35 15.10.2022
1399 Clouds 10 1012 90 5000 3.6 170 00:40 15.10.2022
1400 Clouds 10 1007 92 10000 4.12 190 22:36 14.10.2022
1401 Clouds 10 1007 91 10000 5.14 200 22:18 14.10.2022
1402 Clouds 10 1012 90 8000 4.63 180 20:28 14.10.2022
1403 Drizzle 10 1013 91 4500 4.63 170 17:35 14.10.2022
1404 Rain 10 1008 91 10000 3.6 180 15:32 14.10.2022
1405 Rain 10 1009 91 10000 5.14 180 12:46 14.10.2022
1406 Drizzle 10 1009 91 9000 5.66 180 10:53 14.10.2022
1407 Clouds 10 1009 90 10000 5.14 180 08:25 14.10.2022
1408 Clouds 10 1010 90 10000 4.63 180 06:19 14.10.2022
1409 Clouds 10 1010 90 10000 4.63 180 05:59 14.10.2022
1410 Clouds 9 1010 91 10000 4.12 180 05:41 14.10.2022
1411 Clouds 10 1012 92 10000 4.63 190 01:46 14.10.2022
1412 Clouds 10 1018 91 10000 3.6 200 23:20 13.10.2022
1413 Clouds 10 1018 91 10000 4.63 190 21:31 13.10.2022
1414 Clouds 10 1018 92 10000 3.6 190 20:20 13.10.2022
1415 Clouds 10 1018 91 10000 3.6 190 19:41 13.10.2022
1416 Clouds 10 1018 92 10000 4.12 190 18:45 13.10.2022
1417 Clouds 10 1018 91 10000 5.36 191 17:53 13.10.2022
1418 Clouds 11 1018 91 10000 4.63 170 15:49 13.10.2022
1419 Clouds 11 1019 91 10000 4.02 212 14:30 13.10.2022
1420 Clouds 11 1013 88 10000 3.6 170 13:49 13.10.2022
1421 Clouds 10 1019 85 10000 4.63 180 11:45 13.10.2022
1422 Clouds 9 1018 89 10000 4.12 190 09:57 13.10.2022
1423 Clouds 5 1018 95 10000 2.06 150 08:33 13.10.2022
1424 Fog 3 1019 94 10000 0 0 07:36 13.10.2022
1425 Clear 2 1020 96 10000 0.51 0 03:23 13.10.2022
1426 Clear 3 1020 89 10000 1.03 130 01:38 13.10.2022
1427 Clear 3 1019 81 10000 0.89 235 23:32 12.10.2022
1428 Clear 3 1019 82 10000 1.34 241 22:44 12.10.2022
1429 Clear 4 1019 78 10000 2.24 272 21:25 12.10.2022
1430 Clear 5 1012 79 10000 2.68 267 20:55 12.10.2022
1431 Clear 5 1018 74 10000 2.68 263 20:26 12.10.2022
1432 Clouds 7 1011 70 10000 2.57 270 18:51 12.10.2022
1433 Clouds 8 1012 67 10000 3.09 250 17:54 12.10.2022
1434 Clouds 9 1018 63 10000 3.6 270 16:29 12.10.2022
1435 Clouds 10 1018 63 10000 6.17 260 13:58 12.10.2022
1436 Clouds 10 1017 66 10000 6.17 270 13:36 12.10.2022
1437 Clouds 8 1009 82 10000 5.14 270 10:51 12.10.2022
1438 Clear 6 1006 89 10000 2.06 270 08:54 12.10.2022
1439 Clear 5 1007 88 10000 3.09 260 07:41 12.10.2022
1440 Clear 5 1006 90 10000 2.57 250 06:43 12.10.2022
1441 Fog 5 1005 91 10000 3.13 260 02:55 12.10.2022
1442 Clear 6 1003 91 10000 2.57 240 23:33 11.10.2022
1443 Clouds 8 1004 85 10000 3.6 250 20:58 11.10.2022
1444 Clouds 8 1003 85 10000 3.6 230 19:59 11.10.2022
1445 Clouds 10 1008 83 10000 5.66 220 17:38 11.10.2022
1446 Clouds 11 1006 83 10000 6.17 230 15:34 11.10.2022
1447 Clouds 10 1000 89 10000 8.75 180 13:29 11.10.2022
1448 Rain 8 1001 90 7000 6.69 160 10:32 11.10.2022
1449 Clouds 8 1002 90 10000 6.69 160 09:58 11.10.2022
1450 Clouds 9 1002 90 10000 7.72 160 08:28 11.10.2022
1451 Clouds 9 1007 89 10000 6.17 160 02:49 11.10.2022
1452 Clouds 9 1009 88 10000 5.66 170 00:34 11.10.2022
1453 Clouds 10 1016 88 10000 5.14 180 22:51 10.10.2022
1454 Clouds 10 1010 86 10000 6.26 199 20:43 10.10.2022
1455 Clouds 10 1011 87 10000 5.66 190 19:22 10.10.2022
1456 Clouds 11 1012 85 10000 6.17 210 17:25 10.10.2022
1457 Clouds 12 1012 82 10000 7.2 210 16:28 10.10.2022
1458 Clouds 13 1018 80 10000 8.75 210 13:53 10.10.2022
1459 Clouds 13 1019 82 10000 6.69 210 12:22 10.10.2022
1460 Clear 11 1018 86 10000 4.12 220 09:32 10.10.2022
1461 Clear 10 1017 90 10000 4.12 200 06:22 10.10.2022
1462 Clear 9 1017 90 10000 4.12 200 05:33 10.10.2022
1463 Clear 8 1016 86 10000 4.12 200 01:30 10.10.2022
1464 Clear 7 1017 83 10000 3.6 210 23:37 09.10.2022
1465 Clear 7 1017 81 10000 3.09 220 22:26 09.10.2022
1466 Clear 7 1016 80 10000 3.09 220 21:30 09.10.2022
1467 Clear 7 1016 78 10000 3.09 230 20:43 09.10.2022
1468 Clear 8 1016 73 10000 3.09 230 19:48 09.10.2022
1469 Clear 8 1016 71 10000 3.09 240 18:49 09.10.2022
1470 Clear 10 1015 66 10000 3.6 250 17:44 09.10.2022
1471 Clouds 11 1015 61 10000 4.63 260 16:48 09.10.2022
1472 Clouds 12 1015 58 10000 6.69 270 16:19 09.10.2022
1473 Clouds 12 1014 63 10000 6.69 260 14:56 09.10.2022
1474 Clouds 12 1014 64 10000 6.69 270 14:26 09.10.2022
1475 Clouds 11 1013 71 10000 6.17 280 12:49 09.10.2022
1476 Clouds 10 1006 79 10000 5.66 280 11:27 09.10.2022
1477 Clear 6 998 90 10000 3.6 260 08:32 09.10.2022
1478 Fog 6 1000 95 10000 3.09 270 05:59 09.10.2022
1479 Fog 6 997 95 10000 3.58 261 03:25 09.10.2022
1480 Clouds 7 999 91 10000 2.68 258 00:47 09.10.2022
1481 Clouds 8 999 91 10000 2.68 265 23:33 08.10.2022
1482 Clouds 8 999 91 10000 2.24 241 23:33 08.10.2022
1483 Clouds 8 999 92 10000 2.57 220 22:38 08.10.2022
1484 Clear 9 998 87 10000 2.57 220 20:37 08.10.2022
1485 Clear 9 998 86 10000 4.12 220 19:38 08.10.2022
1486 Clouds 11 1003 85 10000 5.14 230 17:44 08.10.2022
1487 Clouds 12 1002 88 10000 6.17 220 15:36 08.10.2022
1488 Rain 12 995 90 10000 7.2 220 13:53 08.10.2022
1489 Clouds 12 996 87 10000 9.77 210 12:20 08.10.2022
1490 Clouds 12 996 87 10000 9.39 202 10:35 08.10.2022
1491 Clouds 12 997 88 10000 9.77 210 09:35 08.10.2022
1492 Clouds 12 998 87 10000 9.26 210 07:25 08.10.2022
1493 Clouds 12 999 87 10000 9.26 210 02:34 08.10.2022
1494 Clouds 12 1002 88 10000 11.32 210 23:49 07.10.2022
1495 Clouds 12 1002 87 10000 10.29 210 23:20 07.10.2022
1496 Clouds 13 1009 86 10000 9.77 210 22:19 07.10.2022
1497 Clouds 13 1009 86 10000 9.26 210 20:23 07.10.2022
1498 Clouds 13 1010 87 10000 8.75 210 18:22 07.10.2022
1499 Clouds 13 1010 85 10000 6.17 220 16:53 07.10.2022
1500 Clouds 14 1011 77 10000 8.75 230 15:44 07.10.2022
1501 Clouds 15 1011 75 10000 7.2 230 14:22 07.10.2022
1502 Clouds 14 1011 71 10000 7.72 250 11:42 07.10.2022
1503 Clouds 12 1010 80 10000 6.69 240 09:25 07.10.2022
1504 Clouds 12 1010 81 10000 6.17 250 08:29 07.10.2022
1505 Clouds 11 1008 82 10000 5.14 230 05:27 07.10.2022
1506 Clear 11 1001 83 10000 5.14 230 00:23 07.10.2022
1507 Clear 11 1000 86 10000 4.63 220 22:50 06.10.2022
1508 Clouds 11 1006 84 10000 5.66 230 21:41 06.10.2022
1509 Clear 11 1005 82 10000 6.17 220 20:45 06.10.2022
1510 Clouds 11 1005 84 10000 5.14 230 19:33 06.10.2022
1511 Clouds 12 1004 84 10000 5.14 230 18:32 06.10.2022
1512 Clouds 13 1001 81 10000 6.17 250 15:47 06.10.2022
1513 Clouds 14 999 89 10000 7.72 220 13:49 06.10.2022
1514 Drizzle 12 992 91 2900 8.05 214 10:43 06.10.2022
1515 Clouds 13 1001 88 10000 8.23 190 05:43 06.10.2022
1516 Clouds 12 1004 91 5000 6.69 200 02:38 06.10.2022
1517 Drizzle 12 1006 92 4000 5.14 180 22:29 05.10.2022
1518 Mist 12 1006 92 3500 5.14 190 19:54 05.10.2022
1519 Clouds 12 1006 89 3000 5.14 180 17:48 05.10.2022
1520 Clouds 12 1006 89 3000 5.14 180 17:27 05.10.2022
1521 Clouds 12 1007 90 10000 3.6 180 15:37 05.10.2022
1522 Clouds 12 1007 90 10000 4.12 180 14:38 05.10.2022
1523 Mist 11 1007 91 5000 3.6 170 13:39 05.10.2022
1524 Drizzle 10 1007 91 10000 4.63 150 12:19 05.10.2022
1525 Rain 6 1001 90 10000 2.57 100 08:31 05.10.2022
1526 Rain 5 1001 92 10000 1.03 0 07:23 05.10.2022
1527 Clear 4 1008 93 10000 0.45 323 05:35 05.10.2022
1528 Clouds 4 1009 90 10000 1.34 306 02:40 05.10.2022
1529 Clouds 5 1002 90 10000 2.57 280 00:41 05.10.2022
1530 Clouds 5 1004 89 10000 2.68 279 00:23 05.10.2022
1531 Clouds 7 1003 82 10000 2.57 10 21:38 04.10.2022
1532 Clouds 9 1009 77 10000 5.14 340 20:20 04.10.2022
1533 Clouds 9 1009 76 10000 5.14 350 18:56 04.10.2022
1534 Clouds 9 1009 76 10000 5.14 350 18:34 04.10.2022
1535 Clouds 9 1008 76 10000 4.63 340 16:58 04.10.2022
1536 Clouds 9 1008 77 10000 5.14 340 16:20 04.10.2022
1537 Clouds 8 1000 82 10000 5.14 350 11:25 04.10.2022
1538 Clouds 7 1004 84 10000 5.14 340 08:28 04.10.2022
1539 Clouds 6 1004 83 10000 6.17 340 06:22 04.10.2022
1540 Clear 7 1005 82 10000 7.72 340 00:29 04.10.2022
1541 Clouds 8 1000 85 10000 6.17 340 22:58 03.10.2022
1542 Clouds 8 1007 84 10000 5.14 350 21:41 03.10.2022
1543 Clouds 8 1002 84 10000 5.14 360 20:43 03.10.2022
1544 Clouds 8 1008 83 10000 5.66 350 18:53 03.10.2022
1545 Clouds 8 1009 84 10000 5.66 340 17:38 03.10.2022
1546 Clouds 8 1011 86 10000 6.17 350 16:23 03.10.2022
1547 Clouds 7 1010 87 10000 5.14 340 15:26 03.10.2022
1548 Clouds 9 1012 85 10000 4.63 360 13:39 03.10.2022
1549 Clouds 8 1011 87 10000 5.14 20 11:45 03.10.2022
1550 Clouds 7 1011 89 10000 3.13 7 10:19 03.10.2022
1551 Fog 6 1006 92 10000 3.09 30 08:56 03.10.2022
1552 Clear 6 1011 90 10000 2.57 20 04:49 03.10.2022
1553 Clear 7 1010 89 10000 2.24 339 01:30 03.10.2022
1554 Clear 8 1005 89 10000 2.06 50 22:19 02.10.2022
1555 Clear 8 1005 89 10000 2.06 50 22:19 02.10.2022
1556 Clear 8 1003 89 10000 3.09 80 20:18 02.10.2022
1557 Clear 10 1009 79 10000 2.24 106 17:58 02.10.2022
1558 Clear 11 1009 79 10000 3.13 127 17:20 02.10.2022
1559 Clear 11 1009 75 10000 3.09 110 16:33 02.10.2022
1560 Clouds 12 1008 75 10000 3.6 110 15:39 02.10.2022
1561 Clouds 12 1008 76 10000 4.63 130 13:46 02.10.2022
1562 Clouds 12 1008 76 10000 4.63 120 12:43 02.10.2022
1563 Clouds 12 1008 78 10000 4.63 120 12:23 02.10.2022
1564 Clouds 12 1008 81 10000 5.36 128 11:34 02.10.2022
1565 Clouds 11 1008 82 10000 3.58 111 10:29 02.10.2022
1566 Clouds 9 1009 90 10000 2.06 60 08:31 02.10.2022
1567 Clouds 8 1008 89 10000 2.06 50 05:23 02.10.2022
1568 Fog 8 1008 89 10000 1.79 140 01:29 02.10.2022
1569 Clouds 8 1008 91 10000 2.57 140 00:39 02.10.2022
1570 Clouds 8 1008 91 10000 2.57 140 00:39 02.10.2022
1571 Clouds 8 1008 91 10000 2.57 140 00:38 02.10.2022
1572 Clouds 8 1009 90 10000 3.09 140 23:29 01.10.2022
1573 Clouds 8 1009 88 10000 1.54 80 22:24 01.10.2022
1574 Clouds 10 1008 85 10000 2.24 154 19:31 01.10.2022
1575 Clouds 12 1009 79 10000 2.57 100 17:46 01.10.2022
1576 Clouds 12 1010 77 10000 5.14 160 16:24 01.10.2022
1577 Clouds 13 1010 77 10000 5.14 170 14:18 01.10.2022
1578 Clouds 12 1011 77 10000 5.66 160 12:35 01.10.2022
1579 Clouds 11 1011 85 10000 5.66 180 11:23 01.10.2022
1580 Clouds 11 1011 82 10000 5.14 180 10:53 01.10.2022
1581 Clouds 10 1006 85 10000 4.12 180 10:30 01.10.2022
1582 Clouds 10 1006 85 10000 5.14 180 10:30 01.10.2022
1583 Clouds 9 1006 86 10000 2.57 150 09:26 01.10.2022
1584 Clouds 8 1005 86 10000 2.68 178 08:39 01.10.2022
1585 Clouds 5 1005 93 10000 1.79 259 03:50 01.10.2022
1586 Clear 5 1005 94 10000 0.89 226 03:22 01.10.2022
1587 Clear 6 1011 90 10000 2.06 240 23:22 30.09.2022
1588 Clear 6 1004 92 10000 1.54 230 22:19 30.09.2022
1589 Clear 7 1005 89 10000 2.24 267 21:22 30.09.2022
1590 Clouds 7 1005 89 10000 2.06 230 20:30 30.09.2022
1591 Clouds 9 1009 86 10000 2.06 240 18:45 30.09.2022
1592 Clouds 10 1009 81 10000 3.09 240 16:55 30.09.2022
1593 Clouds 10 1009 81 10000 2.24 251 14:49 30.09.2022
1594 Clouds 10 1008 86 10000 2.24 210 12:51 30.09.2022
1595 Clouds 10 1008 87 10000 2.68 243 11:56 30.09.2022
1596 Rain 8 1006 92 10000 1.54 70 09:25 30.09.2022
1597 Clouds 7 1006 94 10000 1.54 40 08:19 30.09.2022
1598 Clouds 7 1005 94 10000 1.54 20 04:21 30.09.2022
1599 Clouds 7 1005 94 10000 1.54 350 02:21 30.09.2022
1600 Clouds 8 1004 92 10000 2.68 209 21:53 29.09.2022
1601 Clouds 8 1004 91 10000 2.68 194 21:24 29.09.2022
1602 Clouds 8 1003 94 10000 3.6 50 19:58 29.09.2022
1603 Clouds 8 1003 92 10000 4.92 164 18:30 29.09.2022
1604 Rain 8 1002 94 10000 4.12 50 16:29 29.09.2022
1605 Rain 8 1003 93 8000 4.63 40 15:37 29.09.2022
1606 Rain 8 1003 94 10000 3.09 30 14:59 29.09.2022
1607 Rain 7 1003 93 10000 4.12 30 12:45 29.09.2022
1608 Rain 7 1004 92 10000 4.12 50 08:47 29.09.2022
1609 Rain 7 998 93 10000 3.6 20 04:46 29.09.2022
1610 Clouds 7 1001 91 10000 4.12 20 02:36 29.09.2022
1611 Clouds 8 1002 92 10000 4.63 30 23:26 28.09.2022
1612 Rain 8 1003 91 10000 4.63 30 21:40 28.09.2022
1613 Rain 8 1003 91 10000 3.58 56 21:22 28.09.2022
1614 Rain 8 1004 91 10000 4.12 30 19:56 28.09.2022
1615 Clouds 10 1008 82 10000 4.63 60 16:46 28.09.2022
1616 Clouds 12 1009 78 10000 4.12 80 14:19 28.09.2022
1617 Clouds 11 1010 84 10000 6.71 68 11:45 28.09.2022
1618 Clouds 9 1005 92 10000 5.66 60 09:37 28.09.2022
1619 Clouds 8 1004 93 10000 4.63 50 07:52 28.09.2022
1620 Clouds 8 1005 91 10000 4.12 40 05:48 28.09.2022
1621 Clouds 8 1005 88 10000 4.12 50 01:44 28.09.2022
1622 Clouds 7 1004 88 10000 4.12 40 00:36 28.09.2022
1623 Clouds 8 1007 83 10000 3.6 50 22:49 27.09.2022
1624 Clouds 9 1007 83 10000 3.6 60 21:20 27.09.2022
1625 Clouds 9 1007 82 10000 3.09 60 20:34 27.09.2022
1626 Clouds 9 1006 81 10000 3.09 60 19:40 27.09.2022
1627 Clouds 12 1011 73 10000 8.05 95 17:47 27.09.2022
1628 Clouds 12 1010 70 10000 6.17 90 16:56 27.09.2022
1629 Clouds 13 1010 68 10000 6.26 70 15:18 27.09.2022
1630 Clouds 13 1010 71 10000 5.36 90 13:53 27.09.2022
1631 Clouds 13 1010 73 10000 6.26 67 12:37 27.09.2022
1632 Clouds 12 1010 82 10000 7.6 104 10:35 27.09.2022
1633 Clouds 10 1009 88 10000 4.92 114 07:55 27.09.2022
1634 Clouds 9 1008 89 10000 3.13 103 04:52 27.09.2022
1635 Clear 10 1009 85 10000 3.58 138 01:40 27.09.2022
1636 Clouds 10 1009 84 10000 4.92 135 00:23 27.09.2022
1637 Clouds 10 1004 86 10000 4.92 149 23:24 26.09.2022
1638 Clouds 11 1008 83 10000 3.6 100 21:35 26.09.2022
1639 Clouds 10 1004 85 10000 4.92 108 19:49 26.09.2022
1640 Clear 11 1004 82 10000 4.12 80 18:55 26.09.2022
1641 Clear 12 1008 74 10000 4.47 99 17:25 26.09.2022
1642 Clear 12 1008 70 10000 5.36 114 15:25 26.09.2022
1643 Clouds 11 1003 76 10000 5.36 166 12:31 26.09.2022
1644 Clouds 11 1003 83 10000 4.92 180 10:44 26.09.2022
1645 Clouds 11 1003 83 10000 4.92 176 10:23 26.09.2022
1646 Clouds 10 1002 85 10000 5.81 207 09:59 26.09.2022
1647 Clouds 10 1002 85 10000 5.81 207 09:40 26.09.2022
1648 Clouds 10 1002 87 10000 4.92 203 09:20 26.09.2022
1649 Clouds 7 1001 90 10000 2.57 50 05:30 26.09.2022
1650 Clouds 7 1002 90 10000 2.68 79 02:29 26.09.2022
1651 Clouds 7 1003 86 10000 1.54 50 23:24 25.09.2022
1652 Clouds 7 1002 85 10000 1.34 350 21:44 25.09.2022
1653 Clear 7 1003 82 10000 0.51 10 20:59 25.09.2022
1654 Clear 7 1004 83 10000 0.51 0 20:34 25.09.2022
1655 Clouds 10 1010 71 10000 2.06 10 18:49 25.09.2022
1656 Clouds 10 1010 68 10000 2.57 20 18:24 25.09.2022
1657 Clouds 11 1010 65 10000 3.6 330 17:22 25.09.2022
1658 Clouds 12 1010 62 10000 4.63 10 15:50 25.09.2022
1659 Clouds 12 1011 61 10000 5.66 330 14:35 25.09.2022
1660 Clouds 12 1011 63 10000 6.17 350 13:58 25.09.2022
1661 Clouds 10 1012 77 10000 3.6 360 10:38 25.09.2022
1662 Clouds 9 1013 82 10000 3.09 330 09:37 25.09.2022
1663 Clouds 6 1007 91 10000 3.09 330 06:53 25.09.2022
1664 Clear 7 1009 92 10000 2.06 320 04:28 25.09.2022
1665 Clear 9 1015 87 10000 2.57 340 23:36 24.09.2022
1666 Clear 10 1015 90 10000 2.06 330 21:19 24.09.2022
1667 Clouds 11 1016 85 10000 0.89 78 19:33 24.09.2022
1668 Clouds 11 1016 86 10000 0.45 79 18:44 24.09.2022
1669 Clouds 12 1016 77 10000 0.51 0 16:43 24.09.2022
1670 Clouds 12 1016 74 10000 1.03 0 15:23 24.09.2022
1671 Clouds 13 1016 74 10000 2.68 108 14:27 24.09.2022
1672 Clouds 13 1012 71 10000 2.24 160 12:59 24.09.2022
1673 Clouds 12 1012 70 10000 2.06 70 12:22 24.09.2022
1674 Clear 11 1012 80 10000 2.06 60 09:58 24.09.2022
1675 Clear 10 1009 88 10000 2.24 86 08:51 24.09.2022
1676 Clouds 9 1016 90 10000 1.54 40 07:40 24.09.2022
1677 Clouds 9 1017 90 10000 2.57 50 04:50 24.09.2022
1678 Clouds 9 1017 91 10000 2.06 70 03:48 24.09.2022
1679 Clear 9 1017 84 10000 1.79 139 22:54 23.09.2022
1680 Clouds 10 1018 84 10000 1.34 129 21:33 23.09.2022
1681 Clouds 10 1018 81 10000 2.06 120 20:57 23.09.2022
1682 Clouds 11 1018 81 10000 2.06 120 20:26 23.09.2022
1683 Clouds 11 1018 79 10000 3.09 160 19:19 23.09.2022
1684 Clouds 13 1018 70 10000 2.68 217 15:29 23.09.2022
1685 Clouds 13 1019 70 10000 3.13 179 11:47 23.09.2022
1686 Clouds 11 1019 75 10000 1.03 0 09:36 23.09.2022
1687 Clouds 7 1018 92 10000 1.79 331 06:39 23.09.2022
1688 Clouds 7 1015 91 10000 1.03 30 00:42 23.09.2022
1689 Clouds 7 1016 90 10000 1.03 50 23:23 22.09.2022
1690 Clear 7 1016 90 10000 1.03 210 22:27 22.09.2022
1691 Clouds 7 1016 88 10000 1.03 0 21:19 22.09.2022
1692 Clouds 8 1016 84 10000 2.06 190 19:58 22.09.2022
1693 Clouds 11 1021 72 10000 4.63 210 17:38 22.09.2022
1694 Clouds 12 1024 66 10000 1.79 154 13:20 22.09.2022
1695 Clouds 10 1019 66 10000 2.57 20 10:37 22.09.2022
1696 Clouds 8 1019 78 10000 2.06 30 08:58 22.09.2022
1697 Clouds 5 1019 90 10000 2.24 339 07:27 22.09.2022
1698 Clouds 5 1019 90 10000 2.06 40 04:36 22.09.2022
1699 Clouds 7 1024 82 10000 2.06 30 23:32 21.09.2022
1700 Clouds 9 1025 81 10000 2.57 40 21:51 21.09.2022
1701 Clouds 10 1025 77 10000 2.57 20 20:40 21.09.2022
1702 Clouds 12 1023 68 10000 3.09 350 17:51 21.09.2022
1703 Clouds 12 1023 65 10000 2.57 10 16:55 21.09.2022
1704 Clouds 12 1023 64 10000 2.06 60 14:52 21.09.2022
1705 Clouds 12 1023 67 10000 2.57 60 13:24 21.09.2022
1706 Clouds 11 1023 78 10000 4.12 350 11:30 21.09.2022
1707 Clouds 10 1023 80 10000 3.6 350 10:34 21.09.2022
1708 Clouds 9 1017 85 10000 3.58 56 09:36 21.09.2022
1709 Clouds 6 1015 89 10000 2.68 327 07:58 21.09.2022
1710 Clouds 6 1015 91 10000 3.58 342 02:51 21.09.2022
1711 Clouds 7 1012 92 10000 3.58 330 02:29 21.09.2022
1712 Clouds 8 1013 89 10000 4.02 332 00:57 21.09.2022
1713 Clouds 9 1012 87 10000 4.47 33 23:19 20.09.2022
1714 Clouds 9 1017 85 10000 4.12 340 21:21 20.09.2022
1715 Clouds 10 1011 87 10000 2.57 340 19:57 20.09.2022
1716 Clouds 10 1008 86 10000 3.09 340 17:38 20.09.2022
1717 Clouds 12 1012 72 10000 4.12 330 14:53 20.09.2022
1718 Clouds 12 1006 72 10000 4.63 340 13:52 20.09.2022
1719 Clouds 11 1002 78 10000 6.17 340 10:41 20.09.2022
1720 Clouds 10 1001 85 10000 5.14 320 08:29 20.09.2022
1721 Clouds 10 999 85 10000 4.63 320 07:27 20.09.2022
1722 Clouds 10 1004 86 10000 5.66 320 04:29 20.09.2022
1723 Clear 10 995 88 10000 5.14 330 23:49 19.09.2022
1724 Clear 10 995 90 10000 4.12 330 22:28 19.09.2022
1725 Clear 10 994 88 10000 4.12 320 20:58 19.09.2022
1726 Clear 10 994 88 10000 4.12 310 20:39 19.09.2022
1727 Clouds 12 994 76 10000 4.63 330 17:55 19.09.2022
1728 Clouds 13 994 75 10000 5.66 350 15:56 19.09.2022
1729 Clouds 13 994 80 10000 5.66 340 13:39 19.09.2022
1730 Clouds 13 993 81 10000 5.81 35 11:30 19.09.2022
1731 Clouds 11 993 88 10000 4.12 360 09:20 19.09.2022
1732 Clouds 10 993 91 10000 3.6 350 08:19 19.09.2022
1733 Clouds 10 999 92 10000 1.79 289 02:18 19.09.2022
1734 Clouds 11 1000 90 10000 1.54 290 23:24 18.09.2022
1735 Clouds 11 999 89 10000 1.03 0 21:45 18.09.2022
1736 Clouds 11 1000 87 10000 2.68 283 20:34 18.09.2022
1737 Clouds 13 999 80 10000 1.34 258 18:41 18.09.2022
1738 Clouds 14 999 76 10000 2.68 216 17:43 18.09.2022
1739 Clouds 14 994 76 10000 3.6 260 15:56 18.09.2022
1740 Clouds 15 998 70 10000 4.12 230 14:30 18.09.2022
1741 Clouds 14 993 78 10000 2.68 228 12:36 18.09.2022
1742 Clouds 13 992 82 10000 3.58 268 11:39 18.09.2022
1743 Clouds 9 988 91 10000 4.12 270 06:30 18.09.2022
1744 Fog 9 987 93 10000 2.06 280 01:30 18.09.2022
1745 Fog 9 987 92 10000 3.09 300 00:42 18.09.2022
1746 Fog 9 987 93 10000 2.06 270 21:54 17.09.2022
1747 Fog 10 986 91 10000 2.68 277 20:29 17.09.2022
1748 Clouds 11 986 91 10000 2.06 290 19:19 17.09.2022
1749 Clouds 13 990 83 10000 2.57 210 16:57 17.09.2022
1750 Clouds 13 983 78 10000 2.06 10 13:59 17.09.2022
1751 Clouds 13 984 86 10000 1.03 0 11:55 17.09.2022
1752 Clouds 12 983 90 10000 1.34 341 10:28 17.09.2022
1753 Clouds 9 981 92 10000 1.54 300 06:28 17.09.2022
1754 Clear 9 982 93 10000 0.45 317 02:43 17.09.2022
1755 Clouds 9 982 93 10000 2.24 288 22:58 16.09.2022
1756 Clouds 10 982 92 10000 0.45 201 21:32 16.09.2022
1757 Clouds 10 982 92 10000 1.54 220 20:31 16.09.2022
1758 Clouds 13 987 87 10000 2.06 250 17:52 16.09.2022
1759 Clouds 13 987 87 10000 2.06 250 17:52 16.09.2022
1760 Clouds 13 982 89 10000 2.24 269 15:57 16.09.2022
1761 Clouds 13 981 90 10000 1.54 70 14:32 16.09.2022
1762 Rain 12 981 92 10000 3.13 211 11:56 16.09.2022
1763 Clouds 11 981 89 10000 3.58 197 09:21 16.09.2022
1764 Clouds 10 981 91 10000 2.24 221 07:20 16.09.2022
1765 Clouds 10 980 92 10000 1.79 97 06:47 16.09.2022
1766 Clouds 10 982 92 10000 1.03 0 02:59 16.09.2022
1767 Clouds 11 983 92 10000 2.24 280 23:48 15.09.2022
1768 Rain 12 984 89 10000 3.13 191 21:24 15.09.2022
1769 Rain 12 984 88 10000 4.47 234 20:23 15.09.2022
1770 Clouds 13 989 84 10000 3.09 150 18:30 15.09.2022
1771 Clouds 14 989 83 10000 4.12 160 17:33 15.09.2022
1772 Clouds 14 989 83 10000 4.12 130 16:52 15.09.2022
1773 Clouds 14 990 82 10000 4.12 170 14:41 15.09.2022
1774 Clouds 14 990 85 10000 3.6 160 12:30 15.09.2022
1775 Rain 11 985 91 10000 2.68 181 10:21 15.09.2022
1776 Rain 11 984 90 10000 7.6 186 07:51 15.09.2022
1777 Rain 12 987 91 10000 5.81 221 03:58 15.09.2022
1778 Fog 12 988 91 10000 4.47 200 01:27 15.09.2022
1779 Clouds 12 990 92 10000 5.66 160 21:54 14.09.2022
1780 Rain 12 994 92 10000 8.49 154 19:55 14.09.2022
1781 Rain 13 995 90 10000 8.05 177 19:20 14.09.2022
1782 Clouds 13 996 89 10000 7.6 167 16:57 14.09.2022
1783 Clouds 13 992 88 10000 9.83 167 15:49 14.09.2022
1784 Clouds 12 992 89 10000 10.73 162 14:33 14.09.2022
1785 Clouds 12 997 92 9000 9.83 169 11:39 14.09.2022
1786 Clouds 12 992 89 10000 7.6 130 09:48 14.09.2022
1787 Rain 12 992 88 10000 6.69 130 07:38 14.09.2022
1788 Rain 12 993 85 10000 6.69 130 06:46 14.09.2022
1789 Clouds 12 996 85 10000 9.83 164 04:33 14.09.2022
1790 Clouds 12 998 83 10000 8.94 188 01:47 14.09.2022
1791 Clouds 12 998 83 10000 8.94 188 01:27 14.09.2022
1792 Clouds 12 998 81 10000 8.94 169 00:48 14.09.2022
1793 Clouds 12 999 81 10000 8.05 209 23:54 13.09.2022
1794 Clouds 12 999 81 10000 7.6 185 23:36 13.09.2022
1795 Clouds 12 999 81 10000 7.6 185 23:18 13.09.2022
1796 Clouds 12 1000 81 10000 9.83 181 21:45 13.09.2022
1797 Clouds 12 1001 80 10000 8.05 196 19:38 13.09.2022
1798 Clouds 12 1002 79 10000 7.15 197 17:41 13.09.2022
1799 Clouds 13 1003 73 10000 6.71 181 15:55 13.09.2022
1800 Clouds 13 1009 72 10000 5.66 160 14:35 13.09.2022
1801 Clouds 13 1005 74 10000 5.66 160 12:32 13.09.2022
1802 Clouds 12 1011 80 10000 6.26 221 08:43 13.09.2022
1803 Clouds 11 1012 80 10000 3.6 160 05:22 13.09.2022
1804 Clouds 10 1005 86 10000 2.06 120 23:37 12.09.2022
1805 Clouds 10 1007 84 10000 1.79 190 22:49 12.09.2022
1806 Clouds 10 1007 83 10000 2.24 180 21:37 12.09.2022
1807 Clear 10 1009 85 10000 1.34 124 20:25 12.09.2022
1808 Clouds 12 1015 77 10000 2.57 120 18:44 12.09.2022
1809 Clouds 15 1009 64 10000 5.14 140 16:32 12.09.2022
1810 Clouds 15 1009 65 10000 5.14 140 16:32 12.09.2022
1811 Clouds 15 1009 65 10000 5.14 140 16:32 12.09.2022
1812 Clouds 16 1009 65 10000 3.6 150 13:57 12.09.2022
1813 Clouds 16 1010 61 10000 3.09 80 11:29 12.09.2022
1814 Clear 14 1010 72 10000 2.06 50 09:45 12.09.2022
1815 Clear 6 1015 85 10000 3.13 337 04:50 12.09.2022
1816 Clear 6 1015 85 10000 3.13 333 04:20 12.09.2022
1817 Clear 8 1009 84 10000 2.24 352 23:23 11.09.2022
1818 Clear 9 1016 78 10000 2.06 40 21:59 11.09.2022
1819 Clear 10 1016 75 10000 1.54 80 20:47 11.09.2022
1820 Clear 12 1016 68 10000 2.06 100 19:53 11.09.2022
1821 Clear 13 1016 65 10000 2.06 100 19:22 11.09.2022
1822 Clear 15 1016 60 10000 4.63 130 18:20 11.09.2022
1823 Clouds 16 1017 56 10000 4.02 134 16:36 11.09.2022
1824 Clouds 17 1016 54 10000 3.58 114 14:33 11.09.2022
1825 Clouds 16 1017 54 10000 4.47 105 12:40 11.09.2022
1826 Clear 12 1013 80 10000 1.54 50 08:48 11.09.2022
1827 Clear 7 1009 94 10000 1.79 321 06:56 11.09.2022
1828 Clear 8 1013 91 10000 2.68 336 00:50 11.09.2022
1829 Clear 9 1014 85 10000 2.57 50 22:55 10.09.2022
1830 Clear 10 1012 80 10000 2.06 60 20:59 10.09.2022
1831 Clear 11 1015 73 10000 2.06 100 19:46 10.09.2022
1832 Clear 12 1015 70 10000 2.06 100 19:28 10.09.2022
1833 Clear 13 1019 57 10000 3.09 130 18:51 10.09.2022
1834 Clear 16 1020 50 10000 3.09 180 15:49 10.09.2022
1835 Clouds 16 1021 50 10000 3.09 0 14:42 10.09.2022
1836 Clouds 15 1016 54 10000 4.63 140 12:52 10.09.2022
1837 Clouds 15 1018 59 10000 5.14 130 10:46 10.09.2022
1838 Clouds 13 1016 68 10000 3.6 140 09:28 10.09.2022
1839 Clouds 10 1008 78 10000 2.06 50 08:27 10.09.2022
1840 Clear 6 1009 93 10000 2.57 50 06:41 10.09.2022
1841 Clear 9 1016 79 10000 2.24 177 00:19 10.09.2022
1842 Clear 8 1014 85 10000 2.06 80 23:31 09.09.2022
1843 Clear 8 1023 78 10000 2.57 60 21:38 09.09.2022
1844 Clear 9 1024 76 10000 1.79 60 20:41 09.09.2022
1845 Clouds 11 1024 66 10000 3.09 120 19:24 09.09.2022
1846 Clouds 13 1023 56 10000 3.6 140 18:38 09.09.2022
1847 Clouds 14 1025 51 10000 2.06 140 16:21 09.09.2022
1848 Clouds 14 1026 53 10000 3.09 170 13:48 09.09.2022
1849 Clouds 14 1020 59 10000 4.63 190 11:58 09.09.2022
1850 Clouds 13 1026 65 10000 3.6 140 09:22 09.09.2022
1851 Clouds 5 1025 84 10000 1.03 0 04:29 09.09.2022
1852 Clear 6 1025 84 10000 0.51 0 00:46 09.09.2022
1853 Clear 8 1025 75 10000 1.03 0 21:52 08.09.2022
1854 Clear 9 1025 73 10000 2.06 160 20:51 08.09.2022
1855 Clear 9 1025 72 10000 2.06 160 20:31 08.09.2022
1856 Clear 11 1024 65 10000 3.09 160 19:44 08.09.2022
1857 Clear 13 1025 58 10000 3.6 160 17:44 08.09.2022
1858 Clear 13 1025 53 10000 2.24 142 16:19 08.09.2022
1859 Clear 14 1026 51 10000 2.68 121 14:37 08.09.2022
1860 Clouds 13 1026 52 10000 1.79 73 12:51 08.09.2022
1861 Clouds 12 1026 50 10000 2.06 0 11:37 08.09.2022
1862 Clear 11 1020 60 10000 3.6 40 10:23 08.09.2022
1863 Clear 6 1025 85 10000 2.57 30 07:49 08.09.2022
1864 Clear 3 1024 90 10000 2.06 360 05:51 08.09.2022
1865 Clear 4 1024 87 10000 2.68 340 02:36 08.09.2022
1866 Clear 4 1024 87 10000 2.68 340 02:36 08.09.2022
1867 Clear 4 1024 86 10000 2.68 329 02:18 08.09.2022
1868 Clear 6 1023 82 10000 2.57 20 00:22 08.09.2022
1869 Clear 7 1022 76 10000 2.24 6 22:19 07.09.2022
1870 Clear 8 1022 72 10000 2.57 360 21:39 07.09.2022
1871 Clear 9 1022 69 10000 3.09 350 20:31 07.09.2022
1872 Clouds 11 1021 59 10000 4.12 360 19:26 07.09.2022
1873 Clouds 13 1020 51 10000 4.12 10 17:22 07.09.2022
1874 Clouds 13 1019 53 10000 5.66 360 12:41 07.09.2022
1875 Clouds 12 1019 65 10000 4.63 350 10:45 07.09.2022
1876 Clouds 9 1011 83 10000 5.66 360 08:33 07.09.2022
1877 Clear 8 1017 87 10000 3.13 339 06:50 07.09.2022
1878 Clouds 10 1016 78 10000 2.57 340 00:53 07.09.2022
1879 Clouds 12 1016 65 10000 3.09 340 22:35 06.09.2022
1880 Clouds 13 1015 64 10000 4.12 350 21:38 06.09.2022
1881 Clouds 15 1017 61 10000 3.6 290 19:57 06.09.2022
1882 Clouds 16 1017 57 10000 3.09 290 18:42 06.09.2022
1883 Clouds 16 1016 58 10000 3.6 300 17:51 06.09.2022
1884 Clouds 17 1018 64 10000 5.66 270 16:53 06.09.2022
1885 Clouds 16 1018 67 10000 6.17 270 16:25 06.09.2022
1886 Clouds 16 1020 58 10000 5.14 250 14:49 06.09.2022
1887 Clouds 16 1021 56 10000 6.17 250 13:44 06.09.2022
1888 Clouds 16 1021 56 10000 5.66 240 13:19 06.09.2022
1889 Clouds 13 1023 62 10000 4.12 250 10:56 06.09.2022
1890 Clear 11 1017 69 10000 5.14 250 09:56 06.09.2022
1891 Clouds 8 1015 78 10000 3.09 260 08:27 06.09.2022
1892 Clear 5 1017 84 10000 2.68 261 06:22 06.09.2022
1893 Clouds 6 1019 82 10000 1.03 260 01:22 06.09.2022
1894 Clear 7 1019 78 10000 1.34 307 22:57 05.09.2022
1895 Clouds 7 1020 76 10000 1.54 340 21:39 05.09.2022
1896 Clouds 9 1019 72 10000 2.06 340 20:30 05.09.2022
1897 Clouds 11 1019 62 10000 1.54 350 18:53 05.09.2022
1898 Clouds 11 1019 62 10000 1.54 350 18:26 05.09.2022
1899 Clouds 11 1019 59 10000 2.57 340 17:53 05.09.2022
1900 Clouds 11 1020 57 10000 2.57 0 15:54 05.09.2022
1901 Clouds 11 1020 58 10000 4.63 330 14:48 05.09.2022
1902 Clouds 11 1021 57 10000 3.6 340 12:53 05.09.2022
1903 Clouds 10 1023 60 10000 3.09 20 11:21 05.09.2022
1904 Clouds 9 1024 71 10000 3.6 340 08:52 05.09.2022
1905 Clouds 7 1022 79 10000 2.06 350 05:20 05.09.2022
1906 Clouds 7 1022 76 10000 2.57 310 01:19 05.09.2022
1907 Clouds 8 1020 73 10000 1.79 4 22:29 04.09.2022
1908 Clouds 8 1020 73 10000 1.79 339 21:57 04.09.2022
1909 Clouds 9 1019 68 10000 0.89 316 20:35 04.09.2022
1910 Clear 12 1026 53 10000 3.6 360 18:39 04.09.2022
1911 Clouds 12 1027 53 10000 5.14 10 17:43 04.09.2022
1912 Clouds 12 1027 53 10000 6.69 350 16:24 04.09.2022
1913 Clouds 13 1027 51 10000 5.14 330 14:25 04.09.2022
1914 Clouds 13 1026 58 10000 4.63 350 12:40 04.09.2022
1915 Clouds 12 1026 63 10000 6.17 340 11:28 04.09.2022
1916 Clouds 10 1018 77 10000 4.63 330 09:38 04.09.2022
1917 Clouds 6 1017 89 10000 3.6 310 06:35 04.09.2022
1918 Clear 6 1017 88 10000 2.24 290 03:18 04.09.2022
1919 Clouds 8 1015 79 10000 2.24 283 22:53 03.09.2022
1920 Clouds 8 1014 78 10000 2.24 267 21:42 03.09.2022
1921 Clear 8 1015 78 10000 2.24 265 21:22 03.09.2022
1922 Clouds 12 1022 58 10000 4.12 320 18:49 03.09.2022
1923 Clouds 12 1022 57 10000 5.66 330 17:22 03.09.2022
1924 Clouds 13 1022 56 10000 5.66 340 15:54 03.09.2022
1925 Clouds 12 1022 59 10000 4.63 300 14:42 03.09.2022
1926 Clouds 12 1022 59 10000 6.17 310 13:50 03.09.2022
1927 Clouds 11 1014 65 10000 4.63 310 11:33 03.09.2022
1928 Clouds 9 1014 78 10000 4.12 280 09:36 03.09.2022
1929 Clouds 6 1012 87 10000 2.24 275 07:54 03.09.2022
1930 Clouds 6 1012 86 10000 1.79 291 04:55 03.09.2022
1931 Clouds 6 1012 85 10000 1.79 284 02:49 03.09.2022
1932 Clear 6 1014 82 10000 2.57 310 23:46 02.09.2022
1933 Clear 7 1012 82 10000 3.09 300 22:27 02.09.2022
1934 Clear 9 1012 72 10000 3.09 310 20:42 02.09.2022
1935 Clear 9 1013 69 10000 2.57 320 20:22 02.09.2022
1936 Clear 12 1020 55 10000 3.6 340 18:51 02.09.2022
1937 Clear 12 1020 55 10000 3.6 340 18:26 02.09.2022
1938 Clouds 13 1020 52 10000 4.02 328 17:28 02.09.2022
1939 Clouds 13 1013 55 10000 4.63 360 16:32 02.09.2022
1940 Clouds 13 1021 49 10000 5.14 330 13:50 02.09.2022
1941 Clouds 12 1021 59 10000 6.17 340 11:36 02.09.2022
1942 Clouds 10 1014 71 10000 4.47 53 09:46 02.09.2022
1943 Clear 9 1014 79 10000 5.14 340 08:49 02.09.2022
1944 Clear 6 1014 87 10000 4.02 317 06:49 02.09.2022
1945 Clear 5 1014 88 10000 3.6 320 06:24 02.09.2022
1946 Clear 7 1013 82 10000 3.6 330 01:41 02.09.2022
1947 Clear 9 1013 72 10000 3.6 340 22:24 01.09.2022
1948 Clear 9 1012 74 10000 3.09 330 21:39 01.09.2022
1949 Clouds 10 1013 70 10000 2.57 330 21:20 01.09.2022
1950 Clouds 11 1020 61 10000 4.12 10 20:26 01.09.2022
1951 Clear 13 1019 50 10000 5.14 350 18:37 01.09.2022
1952 Clear 14 1018 47 10000 7.2 340 16:55 01.09.2022
1953 Clear 14 1019 47 10000 5.81 348 15:26 01.09.2022
1954 Clear 14 1017 48 10000 6.17 360 13:33 01.09.2022
1955 Clouds 14 1018 51 10000 6.69 350 12:55 01.09.2022
1956 Clouds 13 1018 54 10000 7.72 340 11:51 01.09.2022
1957 Clouds 13 1018 55 10000 7.72 350 11:22 01.09.2022
1958 Clouds 11 1011 68 10000 7.72 340 09:32 01.09.2022
1959 Clear 7 1012 85 10000 5.66 330 07:31 01.09.2022
1960 Clear 7 1012 82 10000 4.63 330 03:59 01.09.2022
1961 Clear 8 1011 79 10000 4.63 330 01:30 01.09.2022
1962 Clear 8 1011 79 10000 4.63 330 01:30 01.09.2022
1963 Clear 8 1011 79 10000 4.63 330 01:30 01.09.2022
1964 Clear 8 1011 79 10000 4.63 330 01:30 01.09.2022
1965 Clear 8 1011 79 10000 4.63 330 01:30 01.09.2022
1966 Clear 8 1011 79 10000 4.63 330 01:30 01.09.2022
1967 Clear 8 1011 79 10000 4.63 330 01:30 01.09.2022
1968 Clear 8 1012 75 10000 3.13 331 22:50 31.08.2022
1969 Clouds 9 1012 72 10000 3.6 340 20:44 31.08.2022
1970 Clouds 11 1018 62 10000 4.63 340 18:46 31.08.2022
1971 Clouds 12 1012 62 10000 6.17 340 16:47 31.08.2022
1972 Clouds 13 1018 55 10000 6.69 340 15:25 31.08.2022
1973 Clouds 13 1018 56 10000 6.17 330 13:28 31.08.2022
1974 Clouds 12 1018 58 10000 7.2 340 11:54 31.08.2022
1975 Clouds 11 1013 72 10000 7.72 340 09:36 31.08.2022
1976 Clouds 10 1013 73 10000 7.72 340 09:36 31.08.2022
1977 Clouds 9 1012 80 10000 5.66 330 07:39 31.08.2022
1978 Clouds 11 1019 72 10000 4.63 340 02:58 31.08.2022
1979 Clouds 13 1019 65 10000 2.24 341 22:24 30.08.2022
1980 Clouds 14 1019 62 10000 3.58 7 21:28 30.08.2022
1981 Clear 14 1019 62 10000 3.13 15 20:35 30.08.2022
1982 Clear 18 1017 49 10000 6.26 356 16:58 30.08.2022
1983 Clouds 18 1018 52 10000 7.72 10 13:51 30.08.2022
1984 Clouds 18 1017 54 10000 8.75 40 11:58 30.08.2022
1985 Clouds 18 1017 56 10000 7.72 30 11:20 30.08.2022
1986 Clear 16 1017 68 10000 5.81 10 09:39 30.08.2022
1987 Clear 11 1010 87 10000 4.63 360 06:48 30.08.2022
1988 Clear 12 1017 82 10000 3.09 360 01:18 30.08.2022
1989 Clear 14 1017 79 10000 3.6 340 22:38 29.08.2022
1990 Clear 14 1016 83 10000 3.58 356 21:53 29.08.2022
1991 Clear 15 1016 78 10000 1.54 20 20:47 29.08.2022
1992 Clouds 16 1015 68 10000 5.66 20 18:59 29.08.2022
1993 Clouds 15 1009 73 10000 5.36 7 17:33 29.08.2022
1994 Clouds 15 1008 74 10000 5.36 7 16:58 29.08.2022
1995 Clouds 15 1008 77 10000 8.05 359 15:20 29.08.2022
1996 Clouds 15 1009 80 10000 6.17 20 13:54 29.08.2022
1997 Clouds 15 1014 82 10000 7.2 10 12:24 29.08.2022
1998 Clouds 16 1014 80 10000 5.66 10 10:43 29.08.2022
1999 Clouds 16 1014 84 10000 5.14 10 09:18 29.08.2022
2000 Clouds 15 1012 86 10000 6.17 30 07:20 29.08.2022
2001 Clouds 17 1012 91 10000 4.12 360 02:31 29.08.2022
2002 Rain 18 1012 90 10000 4.12 350 23:35 28.08.2022
2003 Clouds 19 1012 90 10000 4.12 20 21:48 28.08.2022
2004 Clouds 20 1013 91 10000 4.12 20 21:25 28.08.2022
2005 Clouds 19 999 92 10000 3.6 30 20:18 28.08.2022
2006 Clouds 19 1001 88 10000 5.14 30 18:22 28.08.2022
2007 Clouds 17 980 99 10000 5.14 20 17:51 28.08.2022
2008 Clouds 27 1012 60 10000 3.6 340 16:44 28.08.2022
2009 Thunderstorm 27 1012 62 10000 2.57 250 15:33 28.08.2022
2010 Clouds 26 1012 68 10000 2.06 330 13:19 28.08.2022
2011 Clear 25 1005 68 10000 0.89 187 11:25 28.08.2022
2012 Clear 24 1005 73 10000 1.03 0 10:20 28.08.2022
2013 Clear 21 1005 87 10000 2.06 40 08:52 28.08.2022
2014 Clear 19 1005 90 10000 2.57 50 07:56 28.08.2022
2015 Clouds 18 1006 91 10000 2.06 50 07:26 28.08.2022
2016 Fog 16 1009 94 800 1.03 50 00:37 28.08.2022
2017 Fog 17 1009 93 1500 1.03 70 23:20 27.08.2022
2018 Fog 17 1009 94 10000 1.03 140 22:27 27.08.2022
2019 Clear 19 1015 91 10000 2.06 120 20:35 27.08.2022
2020 Clear 21 1015 82 10000 4.12 140 19:26 27.08.2022
2021 Clouds 23 1015 72 10000 3.58 121 16:29 27.08.2022
2022 Clouds 23 1009 71 10000 4.12 170 15:31 27.08.2022
2023 Clouds 23 1016 73 10000 4.12 140 13:22 27.08.2022
2024 Clouds 23 1016 74 10000 5.36 135 11:59 27.08.2022
2025 Clouds 22 1016 74 10000 4.02 121 10:30 27.08.2022
2026 Clouds 20 1017 81 10000 3.13 83 09:33 27.08.2022
2027 Clouds 16 1009 95 10000 2.57 40 06:52 27.08.2022
2028 Clouds 15 1011 92 10000 2.06 50 00:53 27.08.2022
2029 Clouds 15 1013 91 10000 2.57 50 23:46 26.08.2022
2030 Clouds 16 1019 86 10000 2.24 78 21:46 26.08.2022
2031 Clouds 17 1019 84 10000 3.09 40 20:20 26.08.2022
2032 Clouds 18 1013 81 10000 3.6 80 17:59 26.08.2022
2033 Clouds 18 1011 81 10000 3.58 115 16:32 26.08.2022
2034 Clouds 19 1011 78 10000 3.58 78 15:24 26.08.2022
2035 Clouds 18 1014 79 10000 3.6 40 13:18 26.08.2022
2036 Clouds 18 1014 78 10000 3.6 30 11:48 26.08.2022
2037 Clouds 17 1022 81 10000 3.09 40 11:21 26.08.2022
2038 Clouds 16 1014 85 10000 3.13 16 08:55 26.08.2022
2039 Clouds 14 1009 86 10000 1.54 20 03:59 26.08.2022
2040 Clouds 16 1023 79 10000 3.09 70 00:39 26.08.2022
2041 Clouds 17 1023 76 10000 2.57 30 22:39 25.08.2022
2042 Clouds 18 1023 72 10000 3.09 40 20:54 25.08.2022
2043 Clouds 18 1023 71 10000 3.13 12 19:35 25.08.2022
2044 Clouds 18 1023 70 10000 3.09 30 18:29 25.08.2022
2045 Clouds 19 1024 68 10000 2.68 12 17:32 25.08.2022
2046 Clouds 19 1024 66 10000 3.09 360 16:45 25.08.2022
2047 Clouds 17 1025 72 10000 3.6 340 15:30 25.08.2022
2048 Clouds 16 1025 77 10000 4.12 340 13:58 25.08.2022
2049 Clouds 17 1023 74 10000 3.09 350 11:21 25.08.2022
2050 Clouds 17 1023 73 10000 3.6 350 10:42 25.08.2022
2051 Clouds 16 1022 82 10000 4.47 304 07:35 25.08.2022
2052 Clouds 16 1022 83 10000 4.63 320 02:51 25.08.2022
2053 Clouds 17 1013 89 10000 5.14 310 23:36 24.08.2022
2054 Clouds 18 1012 90 10000 4.63 310 22:55 24.08.2022
2055 Clouds 18 1013 89 10000 4.12 300 21:53 24.08.2022
2056 Clouds 18 1013 89 10000 4.12 300 21:28 24.08.2022
2057 Clouds 20 1012 84 10000 4.12 290 19:52 24.08.2022
2058 Rain 23 1012 79 10000 3.09 270 16:51 24.08.2022
2059 Clouds 23 1019 74 10000 2.57 280 15:53 24.08.2022
2060 Clouds 23 1013 75 10000 2.68 284 15:18 24.08.2022
2061 Rain 24 1013 76 10000 4.63 240 12:48 24.08.2022
2062 Clouds 24 1019 74 10000 1.54 0 11:18 24.08.2022
2063 Clouds 20 1001 92 10000 2.06 80 08:45 24.08.2022
2064 Clouds 18 1018 90 10000 2.57 80 05:26 24.08.2022
2065 Clear 19 1020 84 10000 3.09 60 00:41 24.08.2022
2066 Clear 18 1007 87 10000 2.06 40 22:35 23.08.2022
2067 Clear 17 1002 91 10000 1.54 20 21:49 23.08.2022
2068 Clear 20 1020 71 10000 2.06 90 20:43 23.08.2022
2069 Clear 22 1020 72 10000 3.58 114 18:58 23.08.2022
2070 Clear 23 1020 62 10000 3.09 120 17:56 23.08.2022
2071 Clear 24 1021 56 10000 3.13 134 17:21 23.08.2022
2072 Clear 24 1021 53 10000 3.09 110 15:54 23.08.2022
2073 Clouds 23 1022 56 10000 4.12 110 13:54 23.08.2022
2074 Clouds 23 1022 59 10000 6.17 130 12:46 23.08.2022
2075 Clear 23 1022 57 10000 4.02 117 10:57 23.08.2022
2076 Clear 21 1023 72 10000 3.6 130 10:33 23.08.2022
2077 Clear 19 1021 77 10000 1.54 100 08:58 23.08.2022
2078 Clear 18 1021 82 10000 1.03 40 08:38 23.08.2022
2079 Clear 17 1022 85 10000 1.03 0 08:18 23.08.2022
2080 Clear 15 1021 89 10000 1.79 327 07:25 23.08.2022
2081 Clouds 14 1021 91 10000 0.89 330 06:22 23.08.2022
2082 Fog 15 1020 87 10000 1.34 289 01:44 23.08.2022
2083 Clear 16 1019 86 10000 1.34 281 00:26 23.08.2022
2084 Clear 16 1019 85 10000 1.03 240 23:32 22.08.2022
2085 Clear 17 1018 82 10000 2.06 220 22:19 22.08.2022
2086 Clouds 20 1018 72 10000 3.09 190 20:29 22.08.2022
2087 Clouds 21 1017 69 10000 3.6 180 19:41 22.08.2022
2088 Clouds 22 1017 68 10000 4.12 180 18:36 22.08.2022
2089 Clouds 22 1015 71 10000 3.09 230 15:46 22.08.2022
2090 Clouds 22 1016 74 10000 3.13 214 15:18 22.08.2022
2091 Clouds 18 1014 84 10000 2.06 280 11:39 22.08.2022
2092 Clouds 15 1013 86 10000 4.12 330 09:24 22.08.2022
2093 Clouds 20 1010 85 10000 3.6 160 05:44 22.08.2022
2094 Clear 21 1011 78 10000 4.63 150 00:56 22.08.2022
2095 Clear 21 1011 78 10000 5.14 160 00:36 22.08.2022
2096 Clear 21 1012 75 10000 5.14 150 23:21 21.08.2022
2097 Clear 21 1012 73 10000 5.66 140 21:55 21.08.2022
2098 Clear 21 1012 73 10000 6.69 140 21:18 21.08.2022
2099 Clouds 22 1012 75 10000 5.66 120 19:42 21.08.2022
2100 Clear 22 1012 73 10000 5.14 110 18:35 21.08.2022
2101 Clouds 22 1013 72 10000 7.2 110 16:34 21.08.2022
2102 Clouds 23 1013 70 10000 7.2 110 15:51 21.08.2022
2103 Clouds 23 1013 69 10000 6.26 104 14:41 21.08.2022
2104 Clouds 23 1013 68 10000 6.69 120 13:44 21.08.2022
2105 Clouds 23 1013 68 10000 6.26 126 12:53 21.08.2022
2106 Clouds 22 1014 75 10000 5.14 130 09:57 21.08.2022
2107 Clear 21 1014 79 10000 4.63 140 08:56 21.08.2022
2108 Clear 20 1014 80 10000 4.63 140 08:38 21.08.2022
2109 Clear 20 1014 82 10000 4.12 140 07:50 21.08.2022
2110 Clear 19 1014 87 10000 4.63 120 05:39 21.08.2022
2111 Clear 21 1015 78 10000 4.63 130 00:54 21.08.2022
2112 Clear 22 1016 73 10000 5.14 120 23:20 20.08.2022
2113 Clear 23 1016 67 10000 5.14 130 21:46 20.08.2022
2114 Clear 23 1016 69 10000 4.12 120 20:48 20.08.2022
2115 Clear 24 1016 66 10000 4.63 130 19:42 20.08.2022
2116 Clear 24 1016 68 10000 4.63 130 18:45 20.08.2022
2117 Clear 24 1016 66 10000 4.63 130 18:25 20.08.2022
2118 Clouds 24 1016 68 10000 7.2 120 17:20 20.08.2022
2119 Clouds 24 1016 64 10000 9.77 120 15:52 20.08.2022
2120 Clouds 25 1017 58 10000 9.26 100 13:48 20.08.2022
2121 Clouds 24 1018 62 10000 6.71 105 11:53 20.08.2022
2122 Clouds 24 1018 63 10000 8.23 130 11:24 20.08.2022
2123 Clear 23 1018 67 10000 6.69 140 09:20 20.08.2022
2124 Clear 21 1019 76 10000 5.14 130 06:40 20.08.2022
2125 Clear 21 1018 77 10000 4.12 130 04:40 20.08.2022
2126 Clear 23 1018 67 10000 4.12 140 00:55 20.08.2022
2127 Clear 23 1019 74 10000 6.17 150 23:25 19.08.2022
2128 Clear 23 1019 75 10000 5.66 140 22:36 19.08.2022
2129 Clear 22 1018 78 10000 2.06 110 20:41 19.08.2022
2130 Clear 28 1018 54 10000 3.6 110 18:53 19.08.2022
2131 Clear 28 1017 56 10000 5.66 130 15:55 19.08.2022
2132 Clear 28 1017 56 10000 5.66 130 15:55 19.08.2022
2133 Clouds 28 1017 57 10000 6.69 120 13:41 19.08.2022
2134 Clear 26 1017 65 10000 6.69 130 11:40 19.08.2022
2135 Clear 26 1017 65 10000 5.66 120 10:30 19.08.2022
2136 Clear 22 1018 78 10000 3.09 110 07:25 19.08.2022
2137 Clear 22 1015 82 10000 2.57 120 02:23 19.08.2022
2138 Clear 21 1017 85 10000 1.54 80 00:32 19.08.2022
2139 Clear 21 1017 82 10000 2.06 90 23:48 18.08.2022
2140 Clear 21 1017 82 10000 2.06 90 23:48 18.08.2022
2141 Clear 21 1017 79 10000 1.54 80 22:53 18.08.2022
2142 Clear 22 1017 76 10000 2.57 80 22:18 18.08.2022
2143 Clear 23 1017 73 10000 2.57 80 21:40 18.08.2022
2144 Clear 24 1017 67 10000 2.06 90 20:32 18.08.2022
2145 Clear 25 1016 65 10000 3.6 110 19:32 18.08.2022
2146 Clear 26 1016 58 10000 4.12 130 18:19 18.08.2022
2147 Clear 27 1016 54 10000 3.13 134 17:29 18.08.2022
2148 Clear 28 1016 53 10000 4.12 120 15:27 18.08.2022
2149 Clouds 27 1016 56 10000 3.6 140 14:20 18.08.2022
2150 Clouds 27 1016 57 10000 3.09 160 13:36 18.08.2022
2151 Clouds 26 1016 61 10000 3.09 150 12:27 18.08.2022
2152 Clouds 24 1016 74 10000 1.03 0 10:25 18.08.2022
2153 Clouds 23 1016 81 10000 1.54 80 09:42 18.08.2022
2154 Clouds 21 1015 86 10000 1.34 120 07:24 18.08.2022
2155 Clear 20 1015 91 10000 1.34 83 04:47 18.08.2022
2156 Clear 20 1015 90 10000 1.03 0 23:49 17.08.2022
2157 Clear 20 1015 87 10000 2.06 160 22:20 17.08.2022
2158 Clear 22 1014 81 10000 3.09 190 20:20 17.08.2022
2159 Clear 23 1014 74 10000 4.12 200 19:32 17.08.2022
2160 Clouds 23 1015 76 10000 6.17 210 17:39 17.08.2022
2161 Clouds 24 1013 73 10000 6.69 170 16:50 17.08.2022
2162 Rain 24 1015 79 10000 4.63 200 15:30 17.08.2022
2163 Clouds 27 1014 61 10000 7.2 170 13:52 17.08.2022
2164 Clouds 26 1013 64 10000 5.66 140 11:42 17.08.2022
2165 Clear 25 1006 72 10000 3.6 140 10:22 17.08.2022
2166 Clear 23 1006 76 10000 3.58 123 08:24 17.08.2022
2167 Clear 20 1014 84 10000 2.06 60 04:20 17.08.2022
2168 Clear 20 1006 82 10000 2.06 90 00:40 17.08.2022
2169 Clear 23 1015 72 10000 3.09 100 22:50 16.08.2022
2170 Clear 23 1004 71 10000 4.92 93 20:59 16.08.2022
2171 Clear 23 1000 68 10000 6.26 95 19:54 16.08.2022
2172 Clear 25 1007 61 10000 5.36 108 19:19 16.08.2022
2173 Clear 26 1009 58 10000 5.66 100 17:54 16.08.2022
2174 Clear 27 1008 54 10000 7.2 130 16:18 16.08.2022
2175 Clear 28 1009 53 10000 6.17 110 14:55 16.08.2022
2176 Clear 28 1016 53 10000 6.17 110 14:37 16.08.2022
2177 Clear 28 1016 54 10000 6.69 140 13:54 16.08.2022
2178 Clouds 27 1016 60 10000 5.14 120 11:39 16.08.2022
2179 Clear 25 1007 67 10000 3.09 100 09:52 16.08.2022
2180 Clear 23 1007 74 10000 3.09 110 08:48 16.08.2022
2181 Clear 22 1007 77 10000 3.6 100 08:19 16.08.2022
2182 Clear 19 1016 88 10000 1.54 50 05:18 16.08.2022
2183 Clear 22 1016 76 10000 2.06 110 22:56 15.08.2022
2184 Clear 22 1015 71 10000 3.09 80 21:56 15.08.2022
2185 Clear 22 1015 72 10000 4.47 102 21:36 15.08.2022
2186 Clear 23 1015 68 10000 5.36 103 20:30 15.08.2022
2187 Clear 24 1016 60 10000 5.36 116 18:56 15.08.2022
2188 Clear 25 1010 58 10000 7.15 95 17:56 15.08.2022
2189 Rain 25 1011 57 10000 5.81 84 16:23 15.08.2022
2190 Clouds 25 1010 57 10000 6.17 130 14:40 15.08.2022
2191 Clouds 25 1011 57 10000 6.26 106 13:18 15.08.2022
2192 Clear 25 1012 64 10000 3.6 110 10:36 15.08.2022
2193 Clear 22 1011 76 10000 4.02 121 08:53 15.08.2022
2194 Clear 17 1017 85 10000 2.06 40 06:39 15.08.2022
2195 Clear 15 1018 82 10000 3.09 60 03:34 15.08.2022
2196 Clear 16 1012 77 10000 2.24 68 23:27 14.08.2022
2197 Clouds 18 1011 69 10000 0.89 93 21:43 14.08.2022
2198 Clear 19 1010 68 10000 1.79 120 20:41 14.08.2022
2199 Clouds 20 1006 65 10000 0.45 91 19:45 14.08.2022
2200 Clear 22 1018 55 10000 4.12 150 18:21 14.08.2022
2201 Clear 23 1019 50 10000 5.36 114 17:37 14.08.2022
2202 Clear 24 1013 49 10000 4.02 101 16:23 14.08.2022
2203 Clear 23 1019 54 10000 4.92 108 15:34 14.08.2022
2204 Clouds 23 1020 63 10000 4.63 130 13:51 14.08.2022
2205 Clouds 23 1020 64 10000 4.63 130 13:31 14.08.2022
2206 Clouds 23 1014 66 10000 4.92 108 12:42 14.08.2022
2207 Clouds 22 1020 71 10000 3.09 90 11:23 14.08.2022
2208 Clouds 19 1011 85 10000 3.6 140 08:57 14.08.2022
2209 Clouds 17 1014 89 10000 2.68 127 06:53 14.08.2022
2210 Fog 16 1020 92 6000 1.54 70 05:37 14.08.2022
2211 Clear 16 1021 90 10000 1.57 101 01:36 14.08.2022
2212 Clear 17 1020 88 10000 0.51 0 22:56 13.08.2022
2213 Clear 18 1020 86 10000 2.24 128 22:27 13.08.2022
2214 Clear 19 1020 82 10000 3.6 150 20:50 13.08.2022
2215 Clear 20 1020 75 10000 3.09 170 19:49 13.08.2022
2216 Clear 21 1020 70 10000 3.6 190 19:18 13.08.2022
2217 Clouds 22 1015 65 10000 4.63 170 17:21 13.08.2022
2218 Clouds 23 1015 62 10000 5.66 160 14:50 13.08.2022
2219 Clear 23 1015 57 10000 2.57 0 13:50 13.08.2022
2220 Clear 23 1015 57 10000 2.57 0 13:50 13.08.2022
2221 Clear 24 1022 57 10000 2.57 0 13:28 13.08.2022
2222 Clouds 23 1022 60 10000 1.79 171 11:29 13.08.2022
2223 Clouds 22 1022 68 10000 2.06 40 09:23 13.08.2022
2224 Clouds 18 1022 83 10000 2.24 4 06:54 13.08.2022
2225 Clouds 17 1020 87 10000 3.13 330 01:51 13.08.2022
2226 Clear 18 1020 83 10000 3.13 258 23:32 12.08.2022
2227 Clear 20 1020 79 10000 3.6 220 21:39 12.08.2022
2228 Clear 22 1019 69 10000 4.12 230 19:48 12.08.2022
2229 Clear 23 1019 65 10000 5.66 230 19:23 12.08.2022
2230 Clear 24 1011 61 10000 6.17 230 18:26 12.08.2022
2231 Clear 25 1019 58 10000 7.72 210 16:27 12.08.2022
2232 Clouds 25 1019 59 10000 6.17 210 15:21 12.08.2022
2233 Clouds 25 1019 60 10000 5.66 190 13:47 12.08.2022
2234 Clouds 24 1020 65 10000 5.66 170 12:38 12.08.2022
2235 Clouds 20 1021 86 10000 4.63 190 08:57 12.08.2022
2236 Mist 19 1021 88 3000 3.09 190 07:46 12.08.2022
2237 Fog 16 1012 92 200 1.54 180 06:23 12.08.2022
2238 Clouds 17 1010 89 10000 2.57 220 00:49 12.08.2022
2239 Clear 17 1009 87 10000 3.09 250 23:59 11.08.2022
2240 Clear 17 1019 89 10000 3.58 257 23:25 11.08.2022
2241 Clear 18 1019 88 10000 3.6 230 21:53 11.08.2022
2242 Clear 19 1019 87 10000 3.6 230 21:28 11.08.2022
2243 Clouds 20 1010 81 10000 5.81 214 20:31 11.08.2022
2244 Clouds 21 1009 79 10000 5.66 210 19:34 11.08.2022
2245 Clouds 21 1019 76 10000 5.66 210 18:57 11.08.2022
2246 Clouds 23 1011 69 10000 7.72 210 17:23 11.08.2022
2247 Clouds 24 1009 65 10000 8.23 210 15:51 11.08.2022
2248 Clouds 24 1010 64 10000 8.75 210 14:46 11.08.2022
2249 Clouds 22 1010 71 10000 9.26 210 11:59 11.08.2022
2250 Clouds 20 1012 80 10000 9.26 200 09:24 11.08.2022
2251 Clouds 18 1013 87 10000 6.69 210 06:58 11.08.2022
2252 Clouds 17 1014 87 10000 5.14 200 03:23 11.08.2022
2253 Clear 17 1014 85 10000 4.12 210 00:19 11.08.2022
2254 Clear 18 1014 82 10000 4.12 200 22:18 10.08.2022
2255 Clear 19 1022 76 10000 4.12 210 21:20 10.08.2022
2256 Clear 19 1022 71 10000 5.36 231 20:42 10.08.2022
2257 Clear 21 1016 54 10000 7.2 210 18:53 10.08.2022
2258 Clear 22 1015 50 10000 6.69 220 17:28 10.08.2022
2259 Clouds 22 1015 55 10000 6.69 210 15:26 10.08.2022
2260 Clouds 22 1015 56 10000 5.14 190 13:34 10.08.2022
2261 Clouds 22 1017 53 10000 4.63 200 11:47 10.08.2022
2262 Clear 19 1018 62 10000 2.57 220 08:44 10.08.2022
2263 Clear 17 1019 68 10000 1.03 0 07:44 10.08.2022
2264 Clear 12 1018 83 10000 1.54 290 05:53 10.08.2022
2265 Clouds 13 1025 80 10000 1.34 308 02:44 10.08.2022
2266 Clear 14 1025 76 10000 2.06 240 23:33 09.08.2022
2267 Clear 15 1025 77 10000 1.03 220 22:48 09.08.2022
2268 Clear 17 1025 67 10000 1.54 220 21:34 09.08.2022
2269 Clear 20 1025 56 10000 4.12 210 19:33 09.08.2022
2270 Clear 21 1018 52 10000 6.17 190 17:59 09.08.2022
2271 Clear 21 1019 51 10000 6.17 190 17:26 09.08.2022
2272 Clear 21 1017 49 10000 5.14 180 16:33 09.08.2022
2273 Clear 22 1017 50 10000 5.66 190 15:31 09.08.2022
2274 Clear 21 1020 52 10000 4.02 212 12:20 09.08.2022
2275 Clear 18 1018 67 10000 0.51 0 08:55 09.08.2022
2276 Clear 17 1015 73 10000 1.54 70 08:26 09.08.2022
2277 Clear 14 1019 84 10000 0.89 342 07:18 09.08.2022
2278 Fog 12 1017 93 10000 1.34 313 02:27 09.08.2022
2279 Clear 14 1023 87 10000 2.06 290 23:26 08.08.2022
2280 Clear 14 1023 87 10000 1.54 270 22:52 08.08.2022
2281 Clear 15 1023 83 10000 2.57 230 21:48 08.08.2022
2282 Clouds 17 1022 77 10000 1.54 250 20:51 08.08.2022
2283 Clouds 17 1022 76 10000 2.06 230 19:50 08.08.2022
2284 Clouds 18 1016 69 10000 3.6 230 18:19 08.08.2022
2285 Clouds 19 1014 63 10000 2.68 223 15:57 08.08.2022
2286 Clouds 19 1015 63 10000 2.06 230 15:38 08.08.2022
2287 Clouds 18 1014 78 10000 4.12 190 12:39 08.08.2022
2288 Clouds 17 1012 75 10000 2.06 130 11:32 08.08.2022
2289 Clouds 15 1012 85 10000 2.06 340 08:26 08.08.2022
2290 Clear 12 1019 91 10000 1.03 0 05:33 08.08.2022
2291 Clear 13 1019 90 10000 2.06 250 01:47 08.08.2022
2292 Clouds 15 1017 78 10000 3.58 225 21:49 07.08.2022
2293 Clouds 16 1017 76 10000 3.13 258 21:30 07.08.2022
2294 Clouds 17 1017 70 10000 1.79 233 20:25 07.08.2022
2295 Clouds 17 1017 67 10000 4.63 330 19:53 07.08.2022
2296 Clouds 18 1010 64 10000 3.6 340 19:24 07.08.2022
2297 Clouds 20 1017 53 10000 6.26 214 17:58 07.08.2022
2298 Clouds 20 1017 52 10000 4.92 228 16:53 07.08.2022
2299 Clouds 20 1017 51 10000 3.6 290 15:45 07.08.2022
2300 Clouds 20 1009 52 10000 5.14 310 14:32 07.08.2022
2301 Clouds 20 1010 52 10000 6.69 250 12:50 07.08.2022
2302 Clouds 19 1017 53 10000 5.14 270 10:54 07.08.2022
2303 Clouds 18 1007 58 10000 5.14 280 10:21 07.08.2022
2304 Clear 12 1008 81 10000 2.57 230 04:41 07.08.2022
2305 Clear 12 1007 77 10000 3.6 230 02:35 07.08.2022
2306 Clear 14 1014 67 10000 3.6 250 22:57 06.08.2022
2307 Clouds 14 1013 67 10000 4.12 250 22:19 06.08.2022
2308 Clouds 17 996 65 10000 8.23 270 20:19 06.08.2022
2309 Clouds 18 1004 62 10000 6.69 250 19:37 06.08.2022
2310 Clouds 19 1003 64 10000 9.26 230 17:52 06.08.2022
2311 Clouds 20 1003 66 10000 7.2 220 16:30 06.08.2022
2312 Clouds 20 1009 61 10000 8.75 230 13:52 06.08.2022
2313 Clouds 19 1009 67 10000 8.23 230 12:46 06.08.2022
2314 Rain 17 1009 90 10000 6.17 230 11:21 06.08.2022
2315 Rain 19 1008 88 10000 5.66 210 09:49 06.08.2022
2316 Clouds 21 1001 83 10000 5.14 200 07:35 06.08.2022
2317 Clear 20 1004 77 10000 5.14 160 01:59 06.08.2022
2318 Clear 21 1005 67 10000 2.24 147 22:37 05.08.2022
2319 Clear 22 1004 65 10000 3.6 150 21:36 05.08.2022
2320 Clear 25 1006 57 10000 4.12 170 19:22 05.08.2022
2321 Clear 25 1012 57 10000 4.63 160 18:44 05.08.2022
2322 Clear 27 1007 49 10000 6.17 170 16:55 05.08.2022
2323 Clear 27 1007 49 10000 6.17 170 16:37 05.08.2022
2324 Clear 28 1014 44 10000 7.2 170 15:19 05.08.2022
2325 Clear 27 1015 46 10000 8.75 160 13:39 05.08.2022
2326 Clear 27 1015 48 10000 8.23 170 13:20 05.08.2022
2327 Clear 26 1015 52 10000 6.69 160 12:23 05.08.2022
2328 Clear 24 1015 68 10000 5.66 170 10:25 05.08.2022
2329 Clear 22 1007 76 10000 4.12 140 07:58 05.08.2022
2330 Clear 18 1009 88 10000 1.54 90 05:25 05.08.2022
2331 Clear 19 1009 82 10000 2.57 200 23:50 04.08.2022
2332 Clear 19 1009 82 10000 2.57 200 23:50 04.08.2022
2333 Clear 20 1017 76 10000 4.12 210 21:39 04.08.2022
2334 Clear 21 1017 73 10000 4.12 220 21:21 04.08.2022
2335 Clear 23 1008 67 10000 4.63 210 20:40 04.08.2022
2336 Clear 24 1008 60 10000 8.23 210 19:21 04.08.2022
2337 Clear 25 1009 56 10000 7.72 210 18:34 04.08.2022
2338 Clear 25 1007 53 10000 8.23 210 17:28 04.08.2022
2339 Clear 25 1009 59 10000 6.69 170 13:35 04.08.2022
2340 Clear 24 1007 63 10000 7.2 180 11:46 04.08.2022
2341 Clear 22 1009 67 10000 6.69 170 10:27 04.08.2022
2342 Clear 20 1009 77 10000 5.66 180 07:50 04.08.2022
2343 Clear 17 1009 81 10000 4.63 180 04:28 04.08.2022
2344 Clear 18 1016 80 10000 5.14 190 01:58 04.08.2022
2345 Clouds 18 1009 84 10000 3.6 180 23:42 03.08.2022
2346 Clouds 18 1015 82 10000 3.6 180 21:39 03.08.2022
2347 Clouds 20 1015 71 10000 5.14 200 20:22 03.08.2022
2348 Clouds 20 1009 66 10000 6.17 190 19:28 03.08.2022
2349 Clouds 21 1009 62 10000 6.69 190 17:41 03.08.2022
2350 Clouds 21 1009 63 10000 6.17 190 16:24 03.08.2022
2351 Clouds 22 1008 60 10000 5.66 180 14:25 03.08.2022
2352 Clouds 21 1008 69 10000 6.17 180 11:47 03.08.2022
2353 Clouds 17 1008 75 10000 3.09 150 07:55 03.08.2022
2354 Clear 12 1014 85 10000 0.45 191 04:46 03.08.2022
2355 Fog 11 1007 86 10000 0.45 219 03:27 03.08.2022
2356 Clear 12 1007 82 10000 1.34 271 01:18 03.08.2022
2357 Clear 15 998 78 10000 2.57 270 22:53 02.08.2022
2358 Clouds 16 998 78 10000 2.57 250 21:53 02.08.2022
2359 Clouds 19 1012 71 10000 2.68 210 20:37 02.08.2022
2360 Clouds 21 1011 64 10000 5.66 250 18:42 02.08.2022
2361 Clouds 22 1004 61 10000 7.2 220 15:36 02.08.2022
2362 Clouds 21 1003 58 10000 5.66 230 11:45 02.08.2022
2363 Clear 19 1000 68 10000 4.63 270 09:18 02.08.2022
2364 Clouds 17 1002 79 10000 3.09 280 07:53 02.08.2022
2365 Clouds 15 1003 83 10000 2.57 270 06:43 02.08.2022
2366 Clouds 14 1003 86 10000 2.57 310 04:54 02.08.2022
2367 Clouds 15 1003 84 10000 2.57 350 23:38 01.08.2022
2368 Clouds 16 1003 81 10000 3.13 12 22:24 01.08.2022
2369 Clouds 17 1004 74 10000 3.6 60 20:52 01.08.2022
2370 Clouds 18 1004 72 10000 5.36 105 19:25 01.08.2022
2371 Clouds 19 1004 69 10000 6.17 130 18:31 01.08.2022
2372 Clouds 20 1011 61 10000 6.17 130 16:53 01.08.2022
2373 Clouds 21 1011 57 10000 6.71 113 15:52 01.08.2022
2374 Clouds 21 1005 63 10000 6.26 110 15:30 01.08.2022
2375 Clouds 21 1005 63 10000 6.17 130 14:43 01.08.2022
2376 Clouds 23 1006 58 10000 4.92 124 11:59 01.08.2022
2377 Clear 21 1007 62 10000 3.13 129 09:43 01.08.2022
2378 Clear 20 1006 63 10000 3.09 70 08:30 01.08.2022
2379 Clouds 12 1006 93 10000 0.45 34 04:54 01.08.2022
2380 Fog 12 1008 92 10000 1.54 40 03:49 01.08.2022
2381 Fog 14 1007 88 10000 1.03 0 00:23 01.08.2022
2382 Clear 15 1007 86 10000 1.03 260 22:39 31.07.2022
2383 Clear 16 1006 84 10000 0.89 216 21:27 31.07.2022
2384 Clouds 18 1007 76 10000 3.09 140 19:41 31.07.2022
2385 Clouds 20 1008 72 10000 2.06 160 17:57 31.07.2022
2386 Clouds 20 1005 69 10000 3.58 222 15:39 31.07.2022
2387 Clouds 21 1015 67 10000 3.6 180 13:43 31.07.2022
2388 Clouds 20 1015 74 10000 5.14 180 11:58 31.07.2022
2389 Clouds 18 1015 73 10000 4.12 190 09:43 31.07.2022
2390 Clouds 15 1016 81 10000 1.79 126 07:38 31.07.2022
2391 Clouds 11 1006 90 10000 2.06 260 02:58 31.07.2022
2392 Clouds 13 1005 87 10000 2.06 260 23:40 30.07.2022
2393 Clouds 15 1015 78 10000 2.06 240 22:19 30.07.2022
2394 Clouds 16 1015 77 10000 2.06 250 21:48 30.07.2022
2395 Clouds 15 1015 78 10000 3.09 290 20:57 30.07.2022
2396 Clouds 18 1015 68 10000 4.12 280 19:58 30.07.2022
2397 Clouds 18 1015 66 10000 6.17 300 18:53 30.07.2022
2398 Rain 19 1016 63 10000 4.12 260 17:44 30.07.2022
2399 Clouds 19 1016 64 10000 5.14 310 15:50 30.07.2022
2400 Clouds 19 1016 65 10000 4.63 300 15:22 30.07.2022
2401 Clouds 19 1016 59 10000 4.12 290 12:59 30.07.2022
2402 Clouds 18 1016 62 10000 5.14 300 11:55 30.07.2022
2403 Clouds 17 1016 71 10000 5.66 320 10:31 30.07.2022
2404 Clouds 17 1016 71 10000 5.66 320 10:31 30.07.2022
2405 Clouds 16 1016 75 10000 6.17 320 09:54 30.07.2022
2406 Clouds 14 1016 84 10000 5.14 280 07:55 30.07.2022
2407 Clear 12 1001 92 10000 4.12 290 02:57 30.07.2022
2408 Clear 13 1006 88 10000 4.63 290 02:24 30.07.2022
2409 Clear 15 1008 81 10000 4.63 290 22:41 29.07.2022
2410 Clouds 16 1010 76 10000 4.63 290 21:24 29.07.2022
2411 Clear 16 1010 75 10000 4.12 290 20:35 29.07.2022
2412 Clouds 19 1017 57 10000 6.69 300 17:59 29.07.2022
2413 Clouds 20 1010 58 10000 5.66 290 15:27 29.07.2022
2414 Clouds 18 1008 61 10000 5.66 330 13:18 29.07.2022
2415 Clouds 17 1008 74 10000 6.17 310 10:42 29.07.2022
2416 Clouds 15 1010 86 10000 5.14 300 08:50 29.07.2022
2417 Clouds 14 1008 90 10000 4.63 310 07:54 29.07.2022
2418 Clear 12 1015 85 10000 3.6 300 01:52 29.07.2022
2419 Clear 14 1006 79 10000 3.09 280 22:49 28.07.2022
2420 Clear 15 999 74 10000 4.12 300 21:20 28.07.2022
2421 Clear 17 1004 67 10000 3.6 310 20:31 28.07.2022
2422 Clear 17 1003 65 10000 5.66 310 19:43 28.07.2022
2423 Clear 18 1013 57 10000 5.66 310 19:23 28.07.2022
2424 Clouds 19 1012 54 10000 4.63 320 17:43 28.07.2022
2425 Clouds 19 1012 58 10000 5.14 310 16:55 28.07.2022
2426 Rain 18 1004 77 10000 4.63 310 15:32 28.07.2022
2427 Rain 16 1012 86 10000 3.09 260 13:29 28.07.2022
2428 Clouds 18 1002 76 10000 2.57 290 10:37 28.07.2022
2429 Clouds 15 1003 88 10000 2.24 295 06:42 28.07.2022
2430 Clouds 13 1008 91 10000 1.54 230 05:29 28.07.2022
2431 Clouds 15 993 85 10000 3.09 230 00:49 28.07.2022
2432 Clouds 15 1007 90 10000 3.6 210 22:40 27.07.2022
2433 Clouds 16 997 86 10000 3.6 210 21:28 27.07.2022
2434 Clouds 17 1006 79 10000 5.14 220 19:42 27.07.2022
2435 Clouds 19 998 70 10000 7.72 200 17:49 27.07.2022
2436 Clouds 20 998 64 10000 8.75 200 15:52 27.07.2022
2437 Clouds 20 997 67 10000 8.75 200 14:57 27.07.2022
2438 Clouds 20 997 69 10000 8.75 200 14:34 27.07.2022
2439 Clouds 21 997 62 10000 8.75 190 12:49 27.07.2022
2440 Clouds 18 993 85 10000 5.66 220 07:54 27.07.2022
2441 Clouds 17 995 94 10000 4.63 190 06:21 27.07.2022
2442 Clouds 17 995 92 10000 4.12 180 01:35 27.07.2022
2443 Clouds 17 1002 93 10000 4.63 200 22:29 26.07.2022
2444 Clouds 18 1003 91 10000 4.63 200 21:20 26.07.2022
2445 Clouds 18 995 88 10000 5.66 210 20:28 26.07.2022
2446 Clouds 19 1003 88 10000 6.69 190 18:43 26.07.2022
2447 Clouds 19 1002 85 10000 5.66 190 17:59 26.07.2022
2448 Rain 19 1002 85 10000 4.12 180 16:31 26.07.2022
2449 Rain 20 1003 85 10000 5.66 180 15:30 26.07.2022
2450 Rain 23 996 67 10000 7.72 170 13:38 26.07.2022
2451 Clouds 23 997 64 10000 8.23 140 11:38 26.07.2022
2452 Clouds 21 998 76 10000 6.17 160 08:57 26.07.2022
2453 Clear 19 1007 85 10000 4.12 160 05:53 26.07.2022
2454 Clear 19 1008 83 10000 4.12 160 00:44 26.07.2022
2455 Clear 18 1002 81 10000 4.63 150 23:32 25.07.2022
2456 Clear 19 1009 75 10000 3.6 200 22:25 25.07.2022
2457 Clear 20 1009 72 10000 4.12 210 21:41 25.07.2022
2458 Clear 20 1000 71 10000 3.6 210 20:41 25.07.2022
2459 Clear 21 1001 64 10000 6.17 220 19:33 25.07.2022
2460 Clear 22 1002 58 10000 6.17 230 18:19 25.07.2022
2461 Clear 23 1000 55 10000 6.17 220 17:27 25.07.2022
2462 Clear 24 1001 53 10000 5.14 220 14:59 25.07.2022
2463 Clear 24 1002 46 10000 4.63 190 12:22 25.07.2022
2464 Clouds 22 1000 65 10000 1.79 208 09:50 25.07.2022
2465 Clear 14 1000 92 10000 2.57 290 04:25 25.07.2022
2466 Clear 15 990 97 10000 2.57 320 23:54 24.07.2022
2467 Clear 16 995 92 10000 2.57 290 23:18 24.07.2022
2468 Clear 18 1009 89 10000 2.06 290 22:29 24.07.2022
2469 Clouds 18 1009 86 10000 2.57 270 21:23 24.07.2022
2470 Clouds 18 1009 85 10000 2.57 290 20:50 24.07.2022
2471 Clouds 18 1009 84 10000 2.57 300 20:26 24.07.2022
2472 Clouds 19 1001 83 10000 3.09 330 18:46 24.07.2022
2473 Clouds 18 1002 86 10000 2.57 10 16:29 24.07.2022
2474 Clouds 19 1000 82 10000 5.14 350 15:50 24.07.2022
2475 Clouds 18 1001 84 10000 2.06 10 14:29 24.07.2022
2476 Clouds 19 1000 79 10000 3.09 350 12:54 24.07.2022
2477 Clouds 18 997 82 10000 2.24 137 11:40 24.07.2022
2478 Clouds 18 1000 82 10000 1.34 154 11:18 24.07.2022
2479 Clouds 17 1001 86 10000 1.34 335 08:33 24.07.2022
2480 Clouds 17 1000 88 10000 1.54 250 07:52 24.07.2022
2481 Clouds 16 1000 90 10000 1.03 0 05:49 24.07.2022
2482 Clear 16 1000 90 10000 2.57 210 00:29 24.07.2022
2483 Clear 18 1000 86 10000 3.09 230 21:37 23.07.2022
2484 Clouds 19 999 81 10000 5.14 230 20:19 23.07.2022
2485 Clouds 21 999 77 10000 6.17 210 18:50 23.07.2022
2486 Clouds 22 1001 73 10000 6.17 210 17:28 23.07.2022
2487 Clouds 22 1001 72 10000 6.17 210 16:35 23.07.2022
2488 Clouds 22 1001 72 10000 6.17 220 15:22 23.07.2022
2489 Clouds 22 1001 72 10000 6.17 220 14:59 23.07.2022
2490 Clouds 23 997 69 10000 6.17 210 14:28 23.07.2022
2491 Clouds 23 1000 70 10000 7.2 210 13:26 23.07.2022
2492 Clouds 22 1000 80 10000 5.66 230 10:45 23.07.2022
2493 Clouds 21 1001 85 10000 5.14 210 10:21 23.07.2022
2494 Clouds 19 1003 89 10000 5.14 190 08:31 23.07.2022
2495 Rain 19 1009 87 10000 2.06 300 03:39 23.07.2022
2496 Clear 20 1011 82 10000 2.06 250 01:27 23.07.2022
2497 Clear 20 994 79 10000 3.6 230 22:42 22.07.2022
2498 Clear 23 1011 74 10000 3.6 210 20:52 22.07.2022
2499 Clear 25 1012 67 10000 4.12 190 19:35 22.07.2022
2500 Clear 26 1012 63 10000 1.79 226 18:28 22.07.2022
2501 Clear 27 1011 61 10000 4.12 220 16:49 22.07.2022
2502 Clear 26 1012 60 10000 6.17 180 14:51 22.07.2022
2503 Clear 25 1012 60 10000 5.14 180 11:22 22.07.2022
2504 Clear 23 1003 68 10000 4.12 180 09:25 22.07.2022
2505 Clear 22 999 72 10000 4.12 180 08:29 22.07.2022
2506 Clear 17 1007 87 10000 2.06 130 05:19 22.07.2022
2507 Clear 17 1006 87 10000 2.06 180 00:48 22.07.2022
2508 Clear 19 1014 79 10000 2.57 170 22:25 21.07.2022
2509 Clear 20 1014 75 10000 3.6 180 21:29 21.07.2022
2510 Clear 23 1015 64 10000 4.63 190 19:26 21.07.2022
2511 Clear 24 1014 57 10000 4.12 180 17:39 21.07.2022
2512 Clear 25 1014 56 10000 4.12 180 17:19 21.07.2022
2513 Clear 25 1015 52 10000 3.6 180 14:55 21.07.2022
2514 Clear 25 1015 53 10000 3.09 180 14:31 21.07.2022
2515 Clear 25 1008 50 10000 3.09 180 12:28 21.07.2022
2516 Clear 25 1006 49 10000 2.06 170 10:56 21.07.2022
2517 Clear 24 1015 50 10000 2.06 130 09:27 21.07.2022
2518 Clear 24 1015 53 10000 1.79 133 08:49 21.07.2022
2519 Clear 21 1008 67 10000 0.89 55 07:32 21.07.2022
2520 Clouds 15 1006 81 10000 1.34 297 04:46 21.07.2022
2521 Clear 16 1006 72 10000 2.57 320 00:35 21.07.2022
2522 Clear 19 990 68 10000 3.09 320 22:21 20.07.2022
2523 Clear 21 989 62 10000 3.09 310 20:54 20.07.2022
2524 Clear 22 1001 48 10000 4.12 300 19:52 20.07.2022
2525 Clear 23 1009 45 10000 4.12 310 19:24 20.07.2022
2526 Clear 24 1005 42 10000 5.14 310 18:33 20.07.2022
2527 Clear 24 1007 41 10000 6.69 290 17:55 20.07.2022
2528 Clear 24 1008 42 10000 7.2 290 16:45 20.07.2022
2529 Clear 24 1007 42 10000 6.17 310 15:31 20.07.2022
2530 Clear 23 1006 44 10000 8.23 330 14:18 20.07.2022
2531 Clear 21 1008 49 10000 7.72 310 11:34 20.07.2022
2532 Clear 18 1001 65 10000 6.17 300 08:50 20.07.2022
2533 Clear 12 1005 86 10000 4.12 300 03:47 20.07.2022
2534 Clear 13 1006 75 10000 4.02 321 00:49 20.07.2022
2535 Clear 14 1003 76 10000 4.63 300 23:41 19.07.2022
2536 Clear 15 1013 66 10000 5.66 300 22:31 19.07.2022
2537 Clear 17 1013 63 10000 5.14 310 21:31 19.07.2022
2538 Clear 19 1012 52 10000 5.66 300 20:28 19.07.2022
2539 Clear 21 1012 47 10000 7.2 300 18:44 19.07.2022
2540 Clear 22 1012 53 10000 6.17 290 17:58 19.07.2022
2541 Clouds 21 1012 61 10000 6.17 260 16:37 19.07.2022
2542 Clouds 20 1005 68 10000 6.17 270 14:52 19.07.2022
2543 Clouds 20 998 64 10000 4.12 300 11:39 19.07.2022
2544 Clouds 21 1012 67 10000 3.6 280 10:47 19.07.2022
2545 Clouds 18 998 76 10000 2.06 280 09:22 19.07.2022
2546 Clouds 18 993 82 10000 2.06 280 08:32 19.07.2022
2547 Clouds 16 1003 87 10000 1.34 336 07:19 19.07.2022
2548 Clouds 15 1003 90 10000 1.54 270 05:27 19.07.2022
2549 Clouds 15 1013 89 10000 1.03 130 04:48 19.07.2022
2550 Clear 13 999 90 10000 2.57 190 00:38 19.07.2022
2551 Clear 14 996 86 10000 3.09 210 23:36 18.07.2022
2552 Clear 15 1000 84 10000 2.06 220 23:18 18.07.2022
2553 Clear 16 1012 78 10000 2.57 220 21:58 18.07.2022
2554 Clouds 17 1013 65 10000 2.57 220 20:51 18.07.2022
2555 Clouds 18 1005 67 10000 4.12 230 19:26 18.07.2022
2556 Clouds 18 1003 64 10000 6.17 230 17:31 18.07.2022
2557 Clear 17 1005 59 10000 4.47 199 15:52 18.07.2022
2558 Clear 19 1003 58 10000 3.09 190 14:34 18.07.2022
2559 Clear 18 1006 54 10000 2.57 0 12:58 18.07.2022
2560 Clouds 17 1003 59 10000 3.09 290 11:30 18.07.2022
2561 Clear 15 1007 72 10000 3.09 290 08:57 18.07.2022
2562 Clear 14 1007 78 10000 3.09 270 07:38 18.07.2022
2563 Clouds 13 1005 83 10000 3.6 260 01:24 18.07.2022
2564 Clear 13 1005 80 10000 3.09 260 22:43 17.07.2022
2565 Clear 13 1004 80 10000 3.09 260 21:57 17.07.2022
2566 Clouds 14 1004 77 10000 4.12 290 21:21 17.07.2022
2567 Clouds 13 1002 79 10000 5.14 290 20:44 17.07.2022
2568 Clouds 14 1003 76 10000 5.14 290 19:32 17.07.2022
2569 Clouds 15 1005 71 10000 6.69 290 18:30 17.07.2022
2570 Clouds 15 1005 70 10000 6.69 290 17:38 17.07.2022
2571 Clouds 16 1004 69 10000 7.72 300 16:51 17.07.2022
2572 Clouds 16 1004 69 10000 7.72 300 16:51 17.07.2022
2573 Clouds 16 1004 71 10000 7.72 300 16:26 17.07.2022
2574 Clouds 16 1004 76 10000 6.69 270 14:58 17.07.2022
2575 Clouds 16 1003 77 10000 4.63 270 13:31 17.07.2022
2576 Clouds 16 999 70 10000 6.69 300 11:41 17.07.2022
2577 Clouds 15 1001 84 10000 3.6 330 09:24 17.07.2022
2578 Drizzle 13 1001 92 10000 2.57 230 05:25 17.07.2022
2579 Clouds 13 999 91 10000 3.09 190 02:32 17.07.2022
2580 Clouds 12 999 85 10000 3.6 210 23:20 16.07.2022
2581 Clouds 13 997 84 10000 3.6 230 21:32 16.07.2022
2582 Clouds 15 1005 76 10000 5.14 230 19:40 16.07.2022
2583 Clouds 16 997 73 10000 6.17 240 18:32 16.07.2022
2584 Clouds 15 1005 79 10000 7.72 230 16:53 16.07.2022
2585 Clouds 16 1004 70 10000 7.2 220 13:56 16.07.2022
2586 Clouds 15 993 75 10000 3.13 244 10:55 16.07.2022
2587 Clouds 14 995 80 10000 5.14 250 09:33 16.07.2022
2588 Clouds 14 994 77 10000 5.66 230 08:47 16.07.2022
2589 Clouds 14 994 78 10000 5.66 230 08:29 16.07.2022
2590 Clear 12 995 83 10000 3.6 210 04:24 16.07.2022
2591 Clear 11 994 85 10000 2.57 210 03:22 16.07.2022
2592 Clouds 12 992 83 10000 3.6 230 23:34 15.07.2022
2593 Clouds 12 991 83 10000 3.09 230 22:41 15.07.2022
2594 Clouds 14 994 76 10000 3.6 240 21:29 15.07.2022
2595 Clouds 16 995 70 10000 4.63 250 20:30 15.07.2022
2596 Clouds 17 1000 67 10000 4.63 260 18:42 15.07.2022
2597 Clouds 18 994 63 10000 5.14 260 17:38 15.07.2022
2598 Clouds 17 994 72 10000 5.66 240 14:54 15.07.2022
2599 Clouds 16 1000 83 10000 1.34 300 12:58 15.07.2022
2600 Clouds 15 1000 78 10000 4.12 280 11:27 15.07.2022
2601 Clouds 16 992 80 10000 3.09 180 09:44 15.07.2022
2602 Rain 13 994 87 10000 3.6 170 06:24 15.07.2022
2603 Clear 13 1000 79 10000 2.57 210 00:53 15.07.2022
2604 Clouds 12 1000 81 10000 2.57 210 00:21 15.07.2022
2605 Clear 14 990 81 10000 3.09 230 22:50 14.07.2022
2606 Clear 15 990 76 10000 1.54 240 21:47 14.07.2022
2607 Clouds 16 993 74 10000 2.57 260 21:29 14.07.2022
2608 Clouds 16 992 73 10000 3.6 250 20:45 14.07.2022
2609 Clouds 16 992 72 10000 5.14 260 20:21 14.07.2022
2610 Clouds 17 993 71 10000 5.14 290 19:18 14.07.2022
2611 Clouds 19 994 64 10000 8.23 250 16:23 14.07.2022
2612 Clouds 19 993 64 10000 7.72 250 15:32 14.07.2022
2613 Clouds 21 991 55 10000 7.72 220 13:59 14.07.2022
2614 Clouds 21 999 57 10000 7.2 230 12:58 14.07.2022
2615 Clouds 20 991 65 10000 4.63 250 11:54 14.07.2022
2616 Clouds 19 991 71 10000 5.14 270 11:23 14.07.2022
2617 Thunderstorm 19 1000 81 10000 4.12 170 10:24 14.07.2022
2618 Clouds 17 1000 89 10000 4.63 170 07:50 14.07.2022
2619 Clouds 16 994 86 10000 3.6 190 01:26 14.07.2022
2620 Rain 16 995 86 10000 2.57 200 00:53 14.07.2022
2621 Clouds 17 994 80 10000 4.12 210 22:33 13.07.2022
2622 Clouds 18 993 80 10000 3.6 220 21:59 13.07.2022
2623 Clouds 18 994 77 10000 5.14 210 21:19 13.07.2022
2624 Clouds 19 1004 81 10000 3.6 190 19:58 13.07.2022
2625 Clouds 20 1005 78 10000 6.17 210 17:52 13.07.2022
2626 Clouds 20 1005 81 10000 5.14 190 16:46 13.07.2022
2627 Clouds 21 1005 77 10000 7.2 160 15:26 13.07.2022
2628 Clouds 21 1006 80 10000 5.14 170 13:24 13.07.2022
2629 Clouds 20 1006 88 10000 4.12 160 10:46 13.07.2022
2630 Clouds 20 1000 87 10000 4.12 160 10:25 13.07.2022
2631 Clouds 20 1006 85 10000 3.09 140 09:26 13.07.2022
2632 Clouds 20 1000 87 10000 1.79 153 07:52 13.07.2022
2633 Rain 18 982 92 10000 2.06 30 03:26 13.07.2022
2634 Rain 19 988 87 10000 3.09 10 00:18 13.07.2022
2635 Clouds 21 983 86 10000 5.66 360 22:18 12.07.2022
2636 Clouds 21 1010 79 10000 5.66 360 21:35 12.07.2022
2637 Clear 22 1009 75 10000 4.63 360 20:42 12.07.2022
2638 Clear 22 1009 73 10000 5.66 360 19:37 12.07.2022
2639 Clear 23 1008 71 10000 5.14 350 18:21 12.07.2022
2640 Clouds 24 1000 69 10000 6.17 350 16:20 12.07.2022
2641 Clouds 23 1010 71 10000 8.23 360 14:31 12.07.2022
2642 Clouds 22 1010 74 10000 6.17 350 13:21 12.07.2022
2643 Clouds 21 1011 77 10000 7.2 360 11:42 12.07.2022
2644 Clouds 20 1004 82 10000 5.36 355 10:18 12.07.2022
2645 Clouds 19 1004 86 10000 5.14 350 08:38 12.07.2022
2646 Clouds 18 1004 88 10000 4.12 350 07:38 12.07.2022
2647 Clear 17 1006 89 10000 4.12 350 05:44 12.07.2022
2648 Clear 16 1005 91 10000 4.12 340 03:50 12.07.2022
2649 Clear 16 1003 90 10000 3.13 342 23:43 11.07.2022
2650 Clear 17 1003 87 10000 3.09 330 22:37 11.07.2022
2651 Clouds 19 1003 78 10000 3.13 333 20:54 11.07.2022
2652 Clouds 19 1005 74 10000 3.09 330 20:29 11.07.2022
2653 Clouds 21 1007 67 10000 4.12 360 18:39 11.07.2022
2654 Clouds 21 1007 65 10000 4.02 17 17:57 11.07.2022
2655 Clouds 21 1006 65 10000 2.06 80 16:22 11.07.2022
2656 Clouds 21 1006 65 10000 6.69 60 14:52 11.07.2022
2657 Clouds 21 1001 64 10000 2.06 350 12:28 11.07.2022
2658 Clouds 21 1013 65 10000 1.54 10 10:54 11.07.2022
2659 Clouds 21 998 69 10000 2.06 50 09:54 11.07.2022
2660 Clouds 17 998 81 10000 1.03 0 08:36 11.07.2022
2661 Clear 18 1001 76 10000 1.54 20 07:32 11.07.2022
2662 Clear 14 1002 82 10000 2.24 313 00:54 11.07.2022
2663 Clear 15 1000 84 10000 2.24 307 23:53 10.07.2022
2664 Clear 15 997 85 10000 0.89 306 22:34 10.07.2022
2665 Clear 17 990 74 10000 1.03 0 20:55 10.07.2022
2666 Clear 19 1000 68 10000 1.03 0 20:00 10.07.2022
2667 Clouds 20 1003 59 10000 3.09 270 19:21 10.07.2022
2668 Clouds 20 1003 55 10000 1.54 20 17:51 10.07.2022
2669 Clouds 21 1003 56 10000 1.79 186 16:59 10.07.2022
2670 Clouds 21 1001 52 10000 4.12 310 16:20 10.07.2022
2671 Clouds 22 999 49 10000 3.09 160 14:43 10.07.2022
2672 Clouds 21 1001 52 10000 3.09 90 13:18 10.07.2022
2673 Clouds 20 1001 58 10000 3.13 156 11:36 10.07.2022
2674 Clouds 18 998 68 10000 2.06 220 09:44 10.07.2022
2675 Clouds 17 998 71 10000 1.03 0 08:43 10.07.2022
2676 Clouds 15 1000 86 10000 2.06 300 06:36 10.07.2022
2677 Thunderstorm 14 1000 86 10000 2.06 300 23:44 09.07.2022
2678 Clouds 16 1001 74 10000 7.72 300 22:26 09.07.2022
2679 Clouds 16 999 79 10000 2.57 290 21:41 09.07.2022
2680 Clouds 18 1007 74 10000 4.63 180 19:44 09.07.2022
2681 Clouds 19 1007 70 10000 5.66 200 18:26 09.07.2022
2682 Clouds 19 1001 69 10000 4.63 180 17:21 09.07.2022
2683 Clouds 20 1007 63 10000 5.14 170 16:25 09.07.2022
2684 Clouds 20 1008 60 10000 5.66 170 15:38 09.07.2022
2685 Clouds 20 1007 68 10000 4.63 160 14:22 09.07.2022
2686 Clouds 19 998 76 10000 5.14 160 13:47 09.07.2022
2687 Clouds 18 1003 76 10000 3.09 150 11:45 09.07.2022
2688 Clouds 18 1003 81 10000 2.57 110 10:26 09.07.2022
2689 Clouds 18 1004 82 10000 2.57 110 09:38 09.07.2022
2690 Clouds 16 1004 84 10000 1.03 0 07:44 09.07.2022
2691 Clouds 15 1004 85 10000 1.54 270 04:41 09.07.2022
2692 Clear 17 1013 75 10000 3.09 170 23:41 08.07.2022
2693 Clear 17 1013 72 10000 2.06 220 22:33 08.07.2022
2694 Clear 18 1013 69 10000 3.6 200 21:26 08.07.2022
2695 Clear 18 1006 67 10000 2.57 210 20:35 08.07.2022
2696 Clear 20 1004 58 10000 2.57 220 19:38 08.07.2022
2697 Clear 20 1003 54 10000 4.63 190 17:50 08.07.2022
2698 Clear 20 1003 52 10000 5.14 180 16:29 08.07.2022
2699 Clear 20 1003 55 10000 4.63 170 14:50 08.07.2022
2700 Clear 16 1015 60 10000 3.6 180 12:42 08.07.2022
2701 Clouds 13 1015 79 10000 2.57 0 10:47 08.07.2022
2702 Clouds 14 1015 78 10000 2.06 0 09:58 08.07.2022
2703 Clear 15 1003 78 10000 2.06 240 06:59 08.07.2022
2704 Clear 12 1003 84 10000 1.03 0 05:33 08.07.2022
2705 Clouds 13 1012 83 10000 2.06 250 00:40 08.07.2022
2706 Clouds 15 1012 77 10000 2.24 258 22:50 07.07.2022
2707 Clouds 16 1010 72 10000 4.63 260 21:46 07.07.2022
2708 Clouds 18 1009 65 10000 5.14 250 19:34 07.07.2022
2709 Clouds 19 1008 63 10000 6.17 250 17:43 07.07.2022
2710 Clear 21 1008 53 10000 7.2 260 16:21 07.07.2022
2711 Clear 22 1007 46 10000 7.72 240 13:40 07.07.2022
2712 Clouds 21 1007 53 10000 6.17 240 12:41 07.07.2022
2713 Clouds 21 1006 61 10000 4.02 190 12:22 07.07.2022
2714 Clouds 20 1006 74 10000 3.58 192 11:32 07.07.2022
2715 Clouds 19 1006 75 10000 5.14 190 10:45 07.07.2022
2716 Clouds 19 1006 75 10000 5.66 170 10:27 07.07.2022
2717 Clouds 19 1006 74 10000 5.66 180 09:22 07.07.2022
2718 Clouds 15 1007 76 10000 1.54 110 05:57 07.07.2022
2719 Clear 13 1006 79 10000 0.89 213 00:18 07.07.2022
2720 Clear 14 1006 77 10000 0.45 234 23:36 06.07.2022
2721 Clouds 14 1007 76 10000 3.6 220 23:18 06.07.2022
2722 Clouds 15 1007 74 10000 3.6 220 22:47 06.07.2022
2723 Clouds 15 1007 74 10000 3.6 220 22:47 06.07.2022
2724 Clouds 15 1007 73 10000 3.6 220 22:28 06.07.2022
2725 Clouds 19 1008 62 10000 6.17 220 19:46 06.07.2022
2726 Clouds 19 1008 60 10000 8.75 190 18:45 06.07.2022
2727 Clear 20 1009 55 10000 8.23 190 16:58 06.07.2022
2728 Clouds 20 1009 54 10000 7.2 220 15:44 06.07.2022
2729 Clouds 21 1009 57 10000 6.69 210 12:44 06.07.2022
2730 Clouds 21 1009 50 10000 8.75 210 11:50 06.07.2022
2731 Clouds 20 1009 59 10000 7.2 200 10:48 06.07.2022
2732 Clouds 18 1010 73 10000 6.17 200 08:46 06.07.2022
2733 Clouds 18 1010 77 10000 5.66 200 07:41 06.07.2022
2734 Clouds 17 1010 78 10000 5.14 200 06:40 06.07.2022
2735 Clear 15 1012 76 10000 4.12 220 22:50 05.07.2022
2736 Clear 16 1010 72 10000 4.12 220 22:28 05.07.2022
2737 Clouds 18 1009 62 10000 6.69 240 20:42 05.07.2022
2738 Clouds 19 1009 58 10000 6.17 240 19:54 05.07.2022
2739 Clouds 19 1010 58 10000 6.69 230 19:35 05.07.2022
2740 Clouds 20 1009 60 10000 6.17 230 17:49 05.07.2022
2741 Clouds 20 1001 63 10000 7.72 230 17:18 05.07.2022
2742 Clouds 20 1009 61 10000 10.8 210 15:39 05.07.2022
2743 Clouds 22 1009 53 10000 9.77 210 14:39 05.07.2022
2744 Clouds 23 1008 54 10000 6.69 240 12:52 05.07.2022
2745 Clouds 23 1009 58 10000 7.72 180 12:19 05.07.2022
2746 Clouds 21 1008 69 10000 8.23 200 10:44 05.07.2022
2747 Clouds 21 1008 69 10000 7.72 190 09:32 05.07.2022
2748 Clouds 21 1001 75 10000 4.12 190 08:19 05.07.2022
2749 Clouds 20 1000 75 10000 4.12 190 06:22 05.07.2022
2750 Clear 15 990 86 10000 3.09 180 04:26 05.07.2022
2751 Clear 15 986 87 10000 2.57 200 00:38 05.07.2022
2752 Clear 18 998 79 10000 3.6 190 23:34 04.07.2022
2753 Clear 18 998 78 10000 4.12 180 22:50 04.07.2022
2754 Clear 19 978 80 10000 4.63 170 21:48 04.07.2022
2755 Clear 22 1012 49 10000 4.63 180 20:54 04.07.2022
2756 Clear 21 1012 60 10000 4.63 180 20:34 04.07.2022
2757 Clear 20 1015 63 10000 4.63 220 19:55 04.07.2022
2758 Clear 22 1012 56 10000 4.63 220 19:36 04.07.2022
2759 Clear 24 1011 43 10000 5.14 230 18:18 04.07.2022
2760 Clear 24 1012 38 10000 4.12 170 15:58 04.07.2022
2761 Clear 24 1013 43 10000 5.14 210 15:34 04.07.2022
2762 Clear 24 1014 47 10000 4.12 190 13:29 04.07.2022
2763 Clear 24 1014 48 10000 4.12 170 12:33 04.07.2022
2764 Clouds 23 1014 56 10000 3.09 160 10:34 04.07.2022
2765 Clouds 23 1015 56 10000 2.06 180 09:53 04.07.2022
2766 Clear 21 1015 62 10000 1.54 0 08:24 04.07.2022
2767 Clear 15 1006 83 10000 1.03 280 04:57 04.07.2022
2768 Clear 16 1018 73 10000 3.09 270 00:39 04.07.2022
2769 Clear 19 1017 59 10000 3.09 260 22:59 03.07.2022
2770 Clear 24 1017 35 10000 3.6 260 20:58 03.07.2022
2771 Clear 22 995 68 10000 3.6 260 20:31 03.07.2022
2772 Clear 23 1003 61 10000 4.63 260 19:28 03.07.2022
2773 Clear 24 1006 61 10000 4.63 280 18:43 03.07.2022
2774 Clear 25 1016 48 10000 3.6 300 17:44 03.07.2022
2775 Clear 26 1008 50 10000 4.12 260 15:54 03.07.2022
2776 Clear 25 1007 52 10000 4.92 190 14:59 03.07.2022
2777 Clear 26 1008 50 10000 3.09 0 14:18 03.07.2022
2778 Clear 25 1008 50 10000 3.6 280 13:48 03.07.2022
2779 Clear 25 1017 48 10000 3.6 0 12:33 03.07.2022
2780 Clouds 24 1016 48 10000 3.6 280 11:29 03.07.2022
2781 Clouds 24 1016 52 10000 4.63 280 10:39 03.07.2022
2782 Clouds 23 1016 55 10000 4.47 335 09:42 03.07.2022
2783 Clouds 21 1016 74 10000 4.12 280 07:35 03.07.2022
2784 Clouds 19 1015 84 10000 3.6 230 03:46 03.07.2022
2785 Clear 18 983 85 10000 1.54 250 00:21 03.07.2022
2786 Clear 20 995 78 10000 4.63 250 22:33 02.07.2022
2787 Clear 22 1013 76 10000 2.57 190 20:58 02.07.2022
2788 Clear 25 1016 57 10000 3.6 140 19:52 02.07.2022
2789 Clear 26 1016 53 10000 4.12 140 19:20 02.07.2022
2790 Clear 27 1017 47 10000 5.14 120 17:41 02.07.2022
2791 Clear 27 1016 51 10000 5.66 120 16:53 02.07.2022
2792 Clear 28 1016 50 10000 5.14 140 14:31 02.07.2022
2793 Clear 24 1019 56 10000 5.66 160 12:21 02.07.2022
2794 Clear 24 1019 58 10000 5.66 160 11:26 02.07.2022
2795 Clear 24 1019 61 10000 5.66 180 10:39 02.07.2022
2796 Clear 24 1019 65 10000 4.63 150 09:18 02.07.2022
2797 Clear 23 1019 65 10000 3.6 120 08:20 02.07.2022
2798 Clear 24 1019 60 10000 3.6 120 07:27 02.07.2022
2799 Clear 18 1000 84 10000 2.06 110 01:53 02.07.2022
2800 Clear 19 999 81 10000 2.57 120 23:56 01.07.2022
2801 Clear 20 994 78 10000 3.6 110 22:41 01.07.2022
2802 Clear 23 1019 56 10000 2.57 100 21:48 01.07.2022
2803 Clear 23 1019 65 10000 2.57 100 21:28 01.07.2022
2804 Clouds 23 1019 56 10000 3.6 120 20:40 01.07.2022
2805 Clouds 23 1017 60 10000 4.63 120 19:46 01.07.2022
2806 Clouds 24 1018 52 10000 4.63 110 17:53 01.07.2022
2807 Clear 26 1019 46 10000 6.17 120 15:54 01.07.2022
2808 Clear 26 1020 39 10000 5.66 120 13:55 01.07.2022
2809 Clear 26 1019 50 10000 5.66 120 12:41 01.07.2022
2810 Clear 25 1019 54 10000 4.63 130 10:20 01.07.2022
2811 Clear 25 1019 54 10000 4.63 130 10:20 01.07.2022
2812 Clear 24 1020 63 10000 4.12 150 09:43 01.07.2022
2813 Clouds 17 1010 81 10000 2.24 97 04:49 01.07.2022
2814 Clear 17 1007 77 10000 2.06 60 00:26 01.07.2022
2815 Clear 17 995 82 10000 1.54 70 22:59 30.06.2022
2816 Clear 17 995 81 10000 1.54 70 22:41 30.06.2022
2817 Clear 18 995 76 10000 1.54 60 22:23 30.06.2022
2818 Clear 19 995 70 10000 1.54 90 21:41 30.06.2022
2819 Clear 24 1020 46 10000 2.06 100 20:30 30.06.2022
2820 Clear 24 1020 50 10000 3.6 100 19:54 30.06.2022
2821 Clear 24 1018 48 10000 3.6 110 19:25 30.06.2022
2822 Clear 24 1019 48 10000 4.63 110 18:42 30.06.2022
2823 Clear 25 1019 44 10000 5.81 109 17:44 30.06.2022
2824 Clear 26 1019 43 10000 5.36 110 16:55 30.06.2022
2825 Clear 26 1019 39 10000 6.17 140 15:39 30.06.2022
2826 Clear 27 1019 44 10000 5.36 124 13:36 30.06.2022
2827 Clear 26 1019 42 10000 6.26 95 12:35 30.06.2022
2828 Clouds 26 1019 50 10000 4.92 115 11:43 30.06.2022
2829 Clear 25 1020 59 10000 4.63 50 09:55 30.06.2022
2830 Clear 24 1020 59 10000 5.14 70 09:35 30.06.2022
2831 Clear 22 1019 62 10000 3.09 70 08:18 30.06.2022
2832 Clear 21 1019 65 10000 3.09 60 07:23 30.06.2022
2833 Clear 17 1020 71 10000 1.03 0 01:47 30.06.2022
2834 Clear 19 1020 64 10000 1.54 60 23:34 29.06.2022
2835 Clear 20 1019 57 10000 3.6 80 22:40 29.06.2022
2836 Clear 17 995 64 10000 2.06 100 21:39 29.06.2022
2837 Clear 21 999 53 10000 3.6 80 20:34 29.06.2022
2838 Clear 24 1018 46 10000 4.12 100 19:39 29.06.2022
2839 Clear 25 1010 42 10000 6.17 110 17:54 29.06.2022
2840 Clear 25 1011 52 10000 5.81 94 16:47 29.06.2022
2841 Clear 25 1010 53 10000 6.71 102 15:32 29.06.2022
2842 Clear 24 1013 62 10000 5.66 80 12:49 29.06.2022
2843 Clouds 24 1012 61 10000 6.69 90 11:47 29.06.2022
2844 Clear 21 1008 66 10000 5.14 80 09:34 29.06.2022
2845 Clouds 21 1010 69 10000 5.14 80 08:42 29.06.2022
2846 Clear 16 991 68 10000 4.12 90 05:19 29.06.2022
2847 Clouds 15 991 73 10000 3.09 60 02:21 29.06.2022
2848 Clouds 13 991 94 10000 6.17 90 00:38 29.06.2022
2849 Clear 14 991 91 10000 6.17 90 23:26 28.06.2022
2850 Clouds 15 991 87 10000 4.12 90 22:48 28.06.2022
2851 Thunderstorm 17 990 72 10000 4.12 80 21:55 28.06.2022
2852 Thunderstorm 19 990 71 10000 4.12 80 21:33 28.06.2022
2853 Clear 21 990 61 10000 4.63 80 20:51 28.06.2022
2854 Clear 25 1019 57 10000 4.12 90 19:43 28.06.2022
2855 Clear 23 1002 54 10000 6.17 80 19:23 28.06.2022
2856 Clear 24 1002 52 10000 6.17 100 17:44 28.06.2022
2857 Clear 27 1019 54 10000 5.81 119 16:24 28.06.2022
2858 Clear 27 1019 53 10000 7.15 95 15:53 28.06.2022
2859 Clear 25 1014 58 10000 5.36 91 14:21 28.06.2022
2860 Clear 26 1014 56 10000 6.71 101 13:54 28.06.2022
2861 Clear 23 991 56 10000 4.63 100 13:20 28.06.2022
2862 Clear 22 1009 64 10000 5.66 140 11:21 28.06.2022
2863 Clear 23 1009 68 10000 5.14 120 09:36 28.06.2022
2864 Clear 23 1008 69 10000 4.63 110 08:44 28.06.2022
2865 Clear 24 1020 73 10000 4.63 110 07:58 28.06.2022
2866 Clear 25 1020 63 10000 2.06 90 07:19 28.06.2022
2867 Clear 21 1012 81 10000 1.34 323 01:33 28.06.2022
2868 Clear 21 1000 79 10000 0.51 0 23:44 27.06.2022
2869 Clear 22 996 78 10000 1.03 0 22:54 27.06.2022
2870 Clear 26 1021 53 10000 2.57 180 21:38 27.06.2022
2871 Clear 26 1020 53 10000 3.09 190 20:54 27.06.2022
2872 Clear 26 1017 55 10000 3.6 190 19:40 27.06.2022
2873 Clear 28 1020 50 10000 4.12 190 18:33 27.06.2022
2874 Clear 30 1012 45 10000 1.79 214 16:36 27.06.2022
2875 Clear 30 1012 46 10000 1.54 0 15:24 27.06.2022
2876 Clear 29 1013 49 10000 4.63 210 13:39 27.06.2022
2877 Clear 29 1021 48 10000 4.12 180 12:57 27.06.2022
2878 Clear 28 1021 53 10000 2.24 153 10:41 27.06.2022
2879 Clear 28 1020 53 10000 1.03 0 09:23 27.06.2022
2880 Clear 27 1022 59 10000 0.51 0 08:31 27.06.2022
2881 Clear 26 1010 61 10000 1.03 0 07:38 27.06.2022
2882 Clear 18 1012 82 10000 1.34 314 03:58 27.06.2022
2883 Clear 18 1010 82 10000 0.89 317 01:18 27.06.2022
2884 Clear 21 1002 75 10000 2.06 190 22:27 26.06.2022
2885 Clear 23 998 65 10000 3.09 170 20:53 26.06.2022
2886 Clear 25 1018 58 10000 3.6 190 19:44 26.06.2022
2887 Clear 27 1019 50 10000 4.63 200 18:32 26.06.2022
2888 Clear 28 1019 45 10000 2.57 220 17:22 26.06.2022
2889 Clear 29 1019 41 10000 4.12 220 15:27 26.06.2022
2890 Clear 29 1020 41 10000 1.79 168 13:53 26.06.2022
2891 Clear 29 1021 43 10000 2.24 140 13:20 26.06.2022
2892 Clear 28 1021 42 10000 2.06 230 11:26 26.06.2022
2893 Clear 27 1022 50 10000 1.54 0 10:28 26.06.2022
2894 Clear 27 1020 48 10000 1.54 280 09:39 26.06.2022
2895 Clear 24 1019 57 10000 1.03 0 07:45 26.06.2022
2896 Clear 16 1009 89 10000 0.45 309 02:28 26.06.2022
2897 Clear 18 1009 84 10000 1.03 110 00:21 26.06.2022
2898 Clear 18 1008 84 10000 1.03 0 23:50 25.06.2022
2899 Clear 19 1007 80 10000 2.06 200 23:23 25.06.2022
2900 Clear 20 1005 77 10000 2.57 210 22:27 25.06.2022
2901 Clear 21 1017 68 10000 2.57 200 21:41 25.06.2022
2902 Clear 21 1017 65 10000 3.09 220 21:18 25.06.2022
2903 Clear 22 1018 58 10000 2.57 220 20:28 25.06.2022
2904 Clear 22 1018 58 10000 3.6 200 19:42 25.06.2022
2905 Clear 25 1018 51 10000 3.09 200 18:19 25.06.2022
2906 Clear 25 1018 50 10000 3.6 180 17:24 25.06.2022
2907 Clear 25 1018 51 10000 4.12 200 15:36 25.06.2022
2908 Clear 25 1018 51 10000 4.63 170 13:41 25.06.2022
2909 Clear 25 1018 52 10000 3.09 170 12:38 25.06.2022
2910 Clear 24 1018 57 10000 2.06 0 10:45 25.06.2022
2911 Clear 23 1018 60 10000 1.54 0 09:20 25.06.2022
2912 Clear 23 1018 64 10000 1.54 0 08:41 25.06.2022
2913 Clear 22 1017 65 10000 2.57 230 08:19 25.06.2022
2914 Clear 15 1007 90 10000 0 0 04:18 25.06.2022
2915 Clear 16 999 85 10000 1.54 230 00:38 25.06.2022
2916 Clear 17 999 81 10000 2.57 210 22:56 24.06.2022
2917 Clear 19 1013 69 10000 3.09 220 21:44 24.06.2022
2918 Clear 22 1016 60 10000 3.09 230 20:57 24.06.2022
2919 Clear 21 1017 67 10000 3.09 210 20:19 24.06.2022
2920 Clear 24 1016 55 10000 4.12 210 19:22 24.06.2022
2921 Clear 24 1015 59 10000 4.12 220 18:49 24.06.2022
2922 Clear 24 1015 54 10000 4.12 220 18:30 24.06.2022
2923 Clear 25 1015 54 10000 4.63 230 17:21 24.06.2022
2924 Clear 24 1015 57 10000 4.12 210 15:47 24.06.2022
2925 Clouds 24 1016 59 10000 5.14 210 14:28 24.06.2022
2926 Clouds 24 1016 61 10000 5.66 210 13:55 24.06.2022
2927 Clouds 22 1016 69 10000 3.6 190 11:44 24.06.2022
2928 Clouds 21 1015 70 10000 4.12 200 11:18 24.06.2022
2929 Clouds 21 1016 72 10000 3.09 200 09:55 24.06.2022
2930 Clouds 19 1015 77 10000 3.13 181 09:29 24.06.2022
2931 Clouds 20 1015 75 10000 3.09 220 08:52 24.06.2022
2932 Clouds 16 1015 85 10000 3.09 210 06:48 24.06.2022
2933 Clouds 16 1015 86 10000 3.09 210 06:30 24.06.2022
2934 Clouds 16 1008 86 10000 3.6 210 05:52 24.06.2022
2935 Clear 14 999 89 10000 3.09 220 01:28 24.06.2022
2936 Clear 16 1012 77 10000 3.6 210 22:45 23.06.2022
2937 Clear 17 1012 77 10000 3.6 220 22:18 23.06.2022
2938 Clear 18 1011 71 10000 4.63 230 20:54 23.06.2022
2939 Clear 19 1004 72 10000 4.63 230 20:32 23.06.2022
2940 Clouds 21 1011 58 10000 7.72 220 18:49 23.06.2022
2941 Clouds 22 1003 56 10000 6.69 220 17:50 23.06.2022
2942 Clouds 22 1003 56 10000 6.69 220 17:50 23.06.2022
2943 Clouds 22 1003 56 10000 6.17 220 16:42 23.06.2022
2944 Clouds 22 1003 58 10000 7.2 200 15:43 23.06.2022
2945 Clouds 22 1003 57 10000 7.2 200 15:23 23.06.2022
2946 Clouds 21 1002 65 10000 6.17 220 13:21 23.06.2022
2947 Clouds 19 1001 71 10000 6.17 170 11:23 23.06.2022
2948 Clouds 19 1000 68 10000 4.63 210 09:46 23.06.2022
2949 Clouds 17 1000 69 10000 4.12 200 08:18 23.06.2022
2950 Clear 14 985 82 10000 3.6 190 02:19 23.06.2022
2951 Clear 15 983 77 10000 3.09 200 00:25 23.06.2022
2952 Clear 14 983 84 10000 2.06 190 23:27 22.06.2022
2953 Clear 15 984 78 10000 2.06 230 22:24 22.06.2022
2954 Clear 18 1010 48 10000 3.6 280 20:57 22.06.2022
2955 Clear 19 996 54 10000 4.63 270 20:21 22.06.2022
2956 Clear 19 1010 53 10000 4.12 270 19:48 22.06.2022
2957 Clear 21 1000 45 10000 4.63 250 18:21 22.06.2022
2958 Clear 21 1000 47 10000 5.66 230 17:24 22.06.2022
2959 Clear 22 1001 47 10000 5.66 230 15:53 22.06.2022
2960 Clear 22 1008 46 10000 5.14 230 15:24 22.06.2022
2961 Clear 22 1008 48 10000 5.14 170 13:50 22.06.2022
2962 Clear 22 1008 46 10000 4.63 210 13:25 22.06.2022
2963 Clear 22 1000 47 10000 3.6 220 12:44 22.06.2022
2964 Clear 21 998 50 10000 3.6 270 11:47 22.06.2022
2965 Clear 21 994 49 10000 3.09 290 10:53 22.06.2022
2966 Clear 20 994 47 10000 3.6 280 09:44 22.06.2022
2967 Clear 17 993 62 10000 2.57 280 07:51 22.06.2022
2968 Fog 11 1006 89 10000 2.06 250 03:25 22.06.2022
2969 Clear 13 1006 91 10000 2.06 190 01:21 22.06.2022
2970 Clear 14 1006 83 10000 2.06 160 23:19 21.06.2022
2971 Clear 16 1006 75 10000 3.6 190 21:31 21.06.2022
2972 Clear 17 999 66 10000 4.12 170 19:43 21.06.2022
2973 Clear 18 999 60 10000 3.6 180 17:57 21.06.2022
2974 Clear 18 999 60 10000 4.12 180 16:52 21.06.2022
2975 Clouds 18 997 62 10000 4.63 160 12:40 21.06.2022
2976 Clouds 18 997 59 10000 1.79 204 10:55 21.06.2022
2977 Clouds 18 1005 67 10000 1.79 201 09:40 21.06.2022
2978 Clouds 16 992 72 10000 1.54 290 08:22 21.06.2022
2979 Fog 11 997 94 10000 0.89 204 05:37 21.06.2022
2980 Fog 11 1005 93 10000 0.51 0 00:37 21.06.2022
2981 Clear 13 1005 91 10000 0.89 273 22:23 20.06.2022
2982 Clear 14 1005 87 10000 1.03 210 21:49 20.06.2022
2983 Clear 15 1006 80 10000 1.54 220 20:32 20.06.2022
2984 Clouds 15 1006 82 10000 3.09 190 19:38 20.06.2022
2985 Clouds 15 1000 79 10000 3.09 170 18:44 20.06.2022
2986 Clouds 15 999 80 10000 1.54 220 17:50 20.06.2022
2987 Rain 15 1000 82 10000 2.57 190 16:55 20.06.2022
2988 Clouds 15 1006 79 10000 2.57 330 15:52 20.06.2022
2989 Clouds 15 1005 78 10000 3.6 320 12:41 20.06.2022
2990 Clouds 15 1006 75 10000 2.57 350 10:32 20.06.2022
2991 Clouds 14 1005 79 10000 3.13 9 08:57 20.06.2022
2992 Clouds 14 1005 79 10000 3.13 9 08:57 20.06.2022
2993 Clouds 14 1005 80 10000 3.6 350 08:21 20.06.2022
2994 Clouds 12 997 84 10000 3.09 270 05:35 20.06.2022
2995 Clouds 13 1003 82 10000 3.6 320 01:44 20.06.2022
2996 Clouds 13 1002 85 10000 3.6 270 00:26 20.06.2022
2997 Clouds 13 1002 78 10000 3.13 238 22:50 19.06.2022
2998 Clouds 12 992 79 10000 1.79 230 21:57 19.06.2022
2999 Rain 13 994 77 10000 1.54 240 21:39 19.06.2022
3000 Clouds 15 1002 63 10000 4.12 290 20:38 19.06.2022
3001 Clouds 16 1002 49 10000 7.2 280 19:47 19.06.2022
3002 Clouds 17 1002 40 10000 7.72 270 18:45 19.06.2022
3003 Clouds 18 1002 41 10000 7.2 260 18:26 19.06.2022
3004 Clear 18 1002 42 10000 8.75 270 17:22 19.06.2022
3005 Clear 18 1002 42 10000 6.69 270 16:35 19.06.2022
3006 Clear 19 1001 40 10000 8.23 280 15:41 19.06.2022
3007 Clear 19 1001 40 10000 9.77 270 14:57 19.06.2022
3008 Clear 18 1001 41 10000 9.77 280 14:20 19.06.2022
3009 Clear 18 1001 43 10000 9.77 260 13:23 19.06.2022
3010 Clouds 17 1000 51 10000 7.72 280 11:21 19.06.2022
3011 Clouds 15 999 69 10000 8.75 270 09:58 19.06.2022
3012 Clouds 14 988 80 10000 7.72 280 08:47 19.06.2022
3013 Clouds 13 987 83 10000 8.23 280 08:19 19.06.2022
3014 Clouds 14 988 95 10000 4.63 260 05:37 19.06.2022
3015 Clouds 14 999 93 9000 3.6 220 02:26 19.06.2022
3016 Clouds 14 1000 94 7000 3.6 220 00:25 19.06.2022
3017 Clouds 14 1001 94 6000 3.6 220 23:36 18.06.2022
3018 Clouds 14 1001 94 6000 3.6 220 23:36 18.06.2022
3019 Clouds 14 1001 96 6000 5.14 210 22:44 18.06.2022
3020 Clouds 14 1001 95 6000 3.6 210 21:38 18.06.2022
3021 Clouds 15 1002 93 8000 4.12 210 20:42 18.06.2022
3022 Drizzle 15 1002 93 8000 5.14 210 19:40 18.06.2022
3023 Clouds 14 997 94 4000 5.66 210 18:53 18.06.2022
3024 Clouds 14 993 93 6000 7.2 210 17:35 18.06.2022
3025 Clouds 15 998 89 10000 4.63 210 16:59 18.06.2022
3026 Drizzle 14 1005 93 4000 5.66 180 15:37 18.06.2022
3027 Rain 14 1006 91 3500 7.72 170 14:46 18.06.2022
3028 Rain 14 1006 95 4500 6.17 170 13:30 18.06.2022
3029 Rain 14 1008 91 10000 4.63 170 11:56 18.06.2022
3030 Rain 15 1007 91 10000 5.14 180 10:55 18.06.2022
3031 Rain 16 1001 78 10000 6.17 180 09:27 18.06.2022
3032 Clouds 15 999 82 10000 4.12 140 08:30 18.06.2022
3033 Clouds 14 1002 87 10000 3.09 160 07:20 18.06.2022
3034 Clear 13 1012 87 10000 3.09 130 03:46 18.06.2022
3035 Clear 12 1012 86 10000 2.06 130 01:26 18.06.2022
3036 Clear 12 1012 87 10000 1.54 130 00:48 18.06.2022
3037 Clear 13 1012 82 10000 2.06 90 23:58 17.06.2022
3038 Clear 12 1000 89 10000 1.54 120 23:24 17.06.2022
3039 Clear 15 1013 73 10000 3.09 120 21:27 17.06.2022
3040 Clear 17 1013 61 10000 4.12 140 20:24 17.06.2022
3041 Clear 20 1012 45 10000 5.14 350 18:49 17.06.2022
3042 Clear 21 1012 45 10000 5.66 340 17:46 17.06.2022
3043 Clear 21 1012 42 10000 4.63 350 16:43 17.06.2022
3044 Clear 21 1012 40 10000 7.2 330 16:18 17.06.2022
3045 Clear 21 1012 38 10000 6.69 340 15:34 17.06.2022
3046 Clear 21 1012 38 10000 7.2 300 14:20 17.06.2022
3047 Clear 21 1012 37 10000 7.2 300 14:20 17.06.2022
3048 Clear 21 1011 39 10000 7.72 320 13:46 17.06.2022
3049 Clear 21 1011 40 10000 6.69 310 13:24 17.06.2022
3050 Clouds 21 1011 43 10000 6.69 300 11:58 17.06.2022
3051 Clouds 20 1011 45 10000 5.66 310 11:36 17.06.2022
3052 Clouds 19 1011 50 10000 7.72 320 10:52 17.06.2022
3053 Clouds 15 1011 62 10000 3.6 320 08:30 17.06.2022
3054 Clouds 15 1011 66 10000 5.66 320 07:48 17.06.2022
3055 Clear 13 1010 76 10000 4.63 290 06:22 17.06.2022
3056 Clear 12 1010 71 10000 4.12 290 03:19 17.06.2022
3057 Clear 14 1010 66 10000 4.12 280 00:42 17.06.2022
3058 Clear 9 972 98 10000 3.13 308 22:45 16.06.2022
3059 Clear 14 1011 62 10000 2.57 300 22:26 16.06.2022
3060 Clear 17 1011 51 10000 2.06 320 21:19 16.06.2022
3061 Clear 18 1007 45 10000 2.57 340 20:50 16.06.2022
3062 Clear 18 1010 52 10000 4.12 300 19:58 16.06.2022
3063 Clear 19 1009 49 10000 6.17 300 18:44 16.06.2022
3064 Clouds 19 1009 48 10000 5.14 300 17:44 16.06.2022
3065 Clouds 19 1009 48 10000 9.26 310 17:20 16.06.2022
3066 Clouds 20 1008 42 10000 8.23 310 15:44 16.06.2022
3067 Clouds 21 1008 40 10000 7.2 280 15:20 16.06.2022
3068 Clouds 20 1007 42 10000 7.2 280 13:49 16.06.2022
3069 Clear 19 1007 45 10000 7.2 280 12:38 16.06.2022
3070 Clear 19 1007 49 10000 7.2 290 11:55 16.06.2022
3071 Clear 19 1008 50 10000 7.2 290 11:21 16.06.2022
3072 Clouds 18 1008 51 10000 7.72 300 10:35 16.06.2022
3073 Clouds 17 1007 56 10000 6.69 270 09:37 16.06.2022
3074 Clouds 17 1008 60 10000 5.66 280 08:50 16.06.2022
3075 Clouds 14 1009 67 10000 5.14 290 07:38 16.06.2022
3076 Clear 12 1009 76 10000 4.63 280 05:43 16.06.2022
3077 Clear 11 1008 77 10000 4.12 270 03:23 16.06.2022
3078 Clear 12 1008 72 10000 4.12 270 01:51 16.06.2022
3079 Clear 13 1008 69 10000 5.14 270 01:22 16.06.2022
3080 Clear 13 1008 69 10000 5.14 270 01:22 16.06.2022
3081 Clear 14 1007 66 10000 5.14 270 23:58 15.06.2022
3082 Clear 15 1008 61 10000 5.66 280 22:47 15.06.2022
3083 Clear 17 1008 54 10000 5.66 280 21:29 15.06.2022
3084 Clear 17 1007 55 10000 7.2 280 20:57 15.06.2022
3085 Clear 17 1007 52 10000 7.72 290 20:35 15.06.2022
3086 Clear 19 1007 46 10000 8.75 290 19:49 15.06.2022
3087 Clear 20 1007 44 10000 7.72 290 18:30 15.06.2022
3088 Clear 21 1006 44 10000 9.77 290 17:42 15.06.2022
3089 Clear 21 1006 42 10000 7.72 300 16:21 15.06.2022
3090 Clear 21 1006 42 10000 8.23 300 14:37 15.06.2022
3091 Clear 21 1005 44 10000 7.72 310 13:20 15.06.2022
3092 Clear 21 1005 45 10000 8.75 310 12:39 15.06.2022
3093 Clear 20 1005 46 10000 9.77 320 11:22 15.06.2022
3094 Clouds 19 1005 47 10000 9.77 320 10:21 15.06.2022
3095 Clouds 19 1005 47 10000 9.77 320 10:21 15.06.2022
3096 Clear 17 1005 62 10000 7.72 310 08:58 15.06.2022
3097 Clear 15 994 75 10000 5.66 320 07:32 15.06.2022
3098 Clear 14 996 77 10000 5.66 310 05:36 15.06.2022
3099 Clear 14 997 79 10000 5.66 310 02:40 15.06.2022
3100 Clear 14 997 79 10000 4.63 310 01:36 15.06.2022
3101 Clear 15 997 76 10000 4.12 310 00:18 15.06.2022
3102 Clear 15 994 77 10000 3.6 310 23:38 14.06.2022
3103 Clear 15 985 81 10000 3.6 330 22:45 14.06.2022
3104 Clouds 16 993 73 10000 3.09 330 21:43 14.06.2022
3105 Rain 16 1007 71 10000 2.57 310 20:58 14.06.2022
3106 Rain 17 1007 75 10000 2.57 310 20:36 14.06.2022
3107 Rain 17 1006 75 10000 4.63 20 19:32 14.06.2022
3108 Clouds 17 1006 72 10000 4.63 270 18:33 14.06.2022
3109 Clouds 19 1006 60 10000 4.63 200 16:50 14.06.2022
3110 Clouds 18 1006 63 10000 3.09 220 15:52 14.06.2022
3111 Clouds 18 1006 63 10000 3.09 220 15:34 14.06.2022
3112 Clouds 18 1006 63 10000 3.09 220 15:34 14.06.2022
3113 Clouds 18 1006 57 10000 3.09 140 14:53 14.06.2022
3114 Clouds 19 1006 59 10000 2.68 204 13:53 14.06.2022
3115 Clouds 18 1006 61 10000 1.79 211 12:56 14.06.2022
3116 Clouds 18 1007 63 10000 1.54 0 11:52 14.06.2022
3117 Clouds 17 1007 69 10000 2.06 290 10:50 14.06.2022
3118 Clouds 17 1007 68 10000 1.54 0 10:25 14.06.2022
3119 Clouds 16 994 77 10000 2.06 210 08:52 14.06.2022
3120 Clouds 16 997 79 10000 2.06 290 08:23 14.06.2022
3121 Clouds 13 999 91 10000 1.54 230 06:19 14.06.2022
3122 Fog 10 993 93 10000 1.54 210 03:39 14.06.2022
3123 Clouds 11 993 93 10000 2.06 220 01:36 14.06.2022
3124 Clear 12 992 88 10000 3.6 210 23:53 13.06.2022
3125 Clouds 13 1006 80 10000 5.14 230 22:27 13.06.2022
3126 Clouds 13 1006 78 10000 5.14 210 21:59 13.06.2022
3127 Clouds 14 993 83 10000 5.14 210 21:24 13.06.2022
3128 Clouds 16 1006 71 10000 6.17 220 19:42 13.06.2022
3129 Clouds 16 1006 69 10000 5.66 220 18:52 13.06.2022
3130 Clouds 17 998 69 10000 7.72 230 17:52 13.06.2022
3131 Clouds 17 995 65 10000 7.2 220 17:21 13.06.2022
3132 Clouds 18 1006 64 10000 7.72 210 16:22 13.06.2022
3133 Clouds 18 996 68 10000 7.2 210 14:48 13.06.2022
3134 Clouds 17 1006 67 10000 6.69 220 14:18 13.06.2022
3135 Clouds 18 1006 64 10000 5.66 230 13:23 13.06.2022
3136 Clouds 18 1006 65 10000 8.23 200 11:45 13.06.2022
3137 Clouds 17 995 70 10000 7.72 210 10:36 13.06.2022
3138 Clouds 18 1006 70 10000 5.14 210 09:42 13.06.2022
3139 Clouds 17 992 74 10000 5.66 220 08:30 13.06.2022
3140 Clouds 14 999 84 10000 5.14 210 06:34 13.06.2022
3141 Clear 13 1001 89 10000 3.09 200 04:23 13.06.2022
3142 Clouds 13 997 90 10000 4.63 210 01:44 13.06.2022
3143 Clouds 13 997 89 10000 5.14 200 01:18 13.06.2022
3144 Clear 13 1008 87 10000 4.63 210 23:37 12.06.2022
3145 Clear 13 993 84 10000 4.12 220 22:29 12.06.2022
3146 Clear 14 981 84 10000 5.14 230 21:45 12.06.2022
3147 Clear 16 987 74 10000 7.2 240 20:49 12.06.2022
3148 Clear 16 987 74 10000 5.66 230 19:43 12.06.2022
3149 Clear 19 1009 42 10000 6.69 230 18:53 12.06.2022
3150 Clear 20 1008 44 10000 7.72 230 17:20 12.06.2022
3151 Clear 21 1009 44 10000 9.26 220 15:34 12.06.2022
3152 Clear 21 1010 45 10000 9.77 220 14:48 12.06.2022
3153 Clear 20 999 51 10000 10.8 210 14:18 12.06.2022
3154 Clouds 21 1010 46 10000 9.77 210 13:43 12.06.2022
3155 Clouds 20 1011 59 10000 6.17 190 11:58 12.06.2022
3156 Clouds 19 1001 65 10000 5.14 210 10:46 12.06.2022
3157 Clouds 18 1011 73 10000 3.09 210 09:36 12.06.2022
3158 Clear 18 1011 78 10000 2.06 180 08:50 12.06.2022
3159 Clouds 16 1001 81 10000 3.09 210 07:51 12.06.2022
3160 Clouds 14 1013 86 10000 3.6 200 06:21 12.06.2022
3161 Clear 12 1012 91 10000 2.06 220 03:38 12.06.2022
3162 Clear 13 1014 87 10000 3.09 190 01:49 12.06.2022
3163 Clear 13 1014 87 10000 3.09 190 01:29 12.06.2022
3164 Clear 13 1015 86 10000 3.09 210 00:43 12.06.2022
3165 Clear 14 1015 83 10000 2.06 230 00:18 12.06.2022
3166 Clear 16 1015 67 10000 4.63 240 22:58 11.06.2022
3167 Clear 16 1015 67 10000 4.63 240 22:31 11.06.2022
3168 Clear 19 1014 63 10000 5.14 210 21:18 11.06.2022
3169 Clouds 19 1014 63 10000 6.17 210 20:26 11.06.2022
3170 Clouds 19 1015 65 10000 5.14 220 19:33 11.06.2022
3171 Clouds 20 1014 65 10000 6.69 200 18:42 11.06.2022
3172 Clouds 21 1014 62 10000 6.69 200 18:24 11.06.2022
3173 Clouds 21 1013 57 10000 6.69 210 17:38 11.06.2022
3174 Clouds 22 1014 54 10000 6.17 210 17:19 11.06.2022
3175 Clouds 23 1014 51 10000 6.69 210 16:42 11.06.2022
3176 Clouds 22 1014 50 10000 5.66 200 15:57 11.06.2022
3177 Clouds 22 1015 51 10000 5.14 230 14:43 11.06.2022
3178 Clouds 22 1015 53 10000 5.14 190 13:50 11.06.2022
3179 Clouds 21 1015 57 10000 4.12 170 11:46 11.06.2022
3180 Clouds 21 1015 59 10000 2.24 178 10:30 11.06.2022
3181 Clear 20 1015 65 10000 3.13 191 09:40 11.06.2022
3182 Clear 19 1002 64 10000 1.54 0 08:37 11.06.2022
3183 Clear 16 1005 80 10000 2.57 120 06:32 11.06.2022
3184 Clear 15 1015 81 10000 2.06 110 05:26 11.06.2022
3185 Clear 14 1015 87 10000 1.79 65 02:42 11.06.2022
3186 Clear 15 1014 84 10000 1.03 20 01:41 11.06.2022
3187 Clear 15 1014 82 10000 2.06 50 00:54 11.06.2022
3188 Clear 17 1016 77 10000 2.06 40 22:55 10.06.2022
3189 Clouds 13 981 90 10000 2.57 60 22:20 10.06.2022
3190 Clouds 14 981 83 10000 2.06 70 21:22 10.06.2022
3191 Clouds 17 981 68 10000 1.54 70 20:36 10.06.2022
3192 Clouds 18 1000 64 10000 2.06 40 20:18 10.06.2022
3193 Clear 17 1016 69 10000 1.54 330 19:19 10.06.2022
3194 Clear 17 1016 73 10000 2.57 290 18:20 10.06.2022
3195 Clear 17 1015 71 10000 2.06 310 17:41 10.06.2022
3196 Clear 19 1015 62 10000 2.57 290 16:59 10.06.2022
3197 Clear 18 1016 65 10000 2.06 320 16:23 10.06.2022
3198 Clear 18 1016 65 10000 2.57 260 15:37 10.06.2022
3199 Clouds 20 1001 59 10000 3.09 210 13:55 10.06.2022
3200 Clouds 21 1014 58 10000 2.68 183 12:48 10.06.2022
3201 Clouds 20 1004 64 10000 3.09 270 11:41 10.06.2022
3202 Clouds 19 1004 67 10000 1.79 134 10:44 10.06.2022
3203 Clouds 18 1004 71 10000 2.24 157 09:48 10.06.2022
3204 Clear 17 1003 74 10000 1.54 260 08:33 10.06.2022
3205 Clear 16 1003 80 10000 2.06 250 07:24 10.06.2022
3206 Clear 15 1003 83 10000 1.54 270 06:43 10.06.2022
3207 Clear 15 1003 85 10000 1.54 280 06:24 10.06.2022
3208 Clear 11 999 95 10000 1.03 0 03:52 10.06.2022
3209 Clear 11 991 92 10000 2.06 240 01:41 10.06.2022
3210 Clear 12 985 92 10000 3.09 270 00:28 10.06.2022
3211 Clouds 12 976 97 10000 3.6 260 23:29 09.06.2022
3212 Clouds 12 975 97 10000 3.6 240 22:18 09.06.2022
3213 Clouds 17 1011 72 10000 3.6 240 21:33 09.06.2022
3214 Clouds 14 974 90 10000 5.14 230 20:54 09.06.2022
3215 Clear 17 1001 71 10000 6.17 230 19:59 09.06.2022
3216 Clear 19 1009 63 10000 5.66 220 19:19 09.06.2022
3217 Clear 19 1009 60 10000 6.17 240 18:21 09.06.2022
3218 Clouds 18 1000 67 10000 6.69 240 16:50 09.06.2022
3219 Clouds 20 1009 56 10000 6.69 230 15:48 09.06.2022
3220 Clouds 20 1008 59 10000 6.69 220 14:35 09.06.2022
3221 Clouds 20 1008 61 10000 6.69 220 13:51 09.06.2022
3222 Clouds 19 997 62 10000 6.69 220 13:27 09.06.2022
3223 Clouds 19 1009 72 10000 5.66 180 11:54 09.06.2022
3224 Clouds 18 998 74 10000 4.63 190 11:18 09.06.2022
3225 Clouds 17 997 78 10000 3.6 180 09:43 09.06.2022
3226 Clear 17 997 80 10000 3.6 200 09:23 09.06.2022
3227 Clear 15 999 85 10000 4.12 200 07:44 09.06.2022
3228 Clear 14 997 89 10000 4.12 200 06:28 09.06.2022
3229 Clear 13 997 90 10000 2.57 190 02:38 09.06.2022
3230 Clear 14 997 84 10000 3.09 190 23:36 08.06.2022
3231 Clear 14 994 82 10000 2.57 190 22:58 08.06.2022
3232 Clear 15 995 83 10000 2.57 170 22:26 08.06.2022
3233 Clear 15 991 80 10000 4.63 160 21:52 08.06.2022
3234 Clear 15 995 78 10000 4.12 160 20:59 08.06.2022
3235 Clear 16 1000 75 10000 3.6 210 19:56 08.06.2022
3236 Clear 17 1000 72 10000 3.09 210 19:27 08.06.2022
3237 Clouds 17 996 71 10000 4.63 220 18:42 08.06.2022
3238 Clouds 19 1000 66 10000 6.17 220 16:39 08.06.2022
3239 Clouds 20 1007 65 10000 6.69 210 15:44 08.06.2022
3240 Clouds 19 1008 66 10000 6.69 180 13:44 08.06.2022
3241 Clouds 17 1008 79 10000 3.6 170 11:51 08.06.2022
3242 Clouds 16 1007 82 10000 3.6 170 11:26 08.06.2022
3243 Clouds 15 1008 78 10000 4.12 110 09:48 08.06.2022
3244 Clouds 14 1008 79 10000 3.6 100 09:20 08.06.2022
3245 Clouds 14 1008 79 10000 4.47 116 09:20 08.06.2022
3246 Clouds 14 1008 81 10000 4.47 87 08:22 08.06.2022
3247 Rain 12 1004 77 10000 3.6 70 05:47 08.06.2022
3248 Clear 11 998 70 10000 2.06 50 03:20 08.06.2022
3249 Clear 11 1004 67 10000 2.68 111 00:28 08.06.2022
3250 Clear 12 999 63 10000 1.03 0 23:25 07.06.2022
3251 Clear 13 996 61 10000 1.03 0 22:42 07.06.2022
3252 Clouds 13 998 60 10000 1.79 125 22:22 07.06.2022
3253 Clear 14 1011 51 10000 3.13 114 21:28 07.06.2022
3254 Clear 16 1014 39 10000 2.57 120 20:53 07.06.2022
3255 Clear 16 1011 47 10000 3.58 126 20:31 07.06.2022
3256 Clear 18 1012 39 10000 3.13 140 19:27 07.06.2022
3257 Clear 18 1013 35 10000 4.63 130 18:19 07.06.2022
3258 Clear 18 1014 33 10000 5.36 123 17:21 07.06.2022
3259 Clear 19 1015 35 10000 4.47 120 16:41 07.06.2022
3260 Clear 19 1015 35 10000 4.12 120 15:43 07.06.2022
3261 Clear 19 1015 36 10000 4.12 140 15:23 07.06.2022
3262 Clear 19 1015 36 10000 4.92 116 14:46 07.06.2022
3263 Clear 20 1015 33 10000 4.47 111 13:58 07.06.2022
3264 Clear 19 1015 35 10000 4.92 116 13:29 07.06.2022
3265 Clear 19 1015 35 10000 3.6 150 12:44 07.06.2022
3266 Clear 18 1016 38 10000 3.09 180 11:31 07.06.2022
3267 Clear 19 1016 39 10000 4.63 140 10:26 07.06.2022
3268 Clear 17 1005 41 10000 3.09 180 08:49 07.06.2022
3269 Clear 17 1005 41 10000 3.09 180 08:49 07.06.2022
3270 Clear 15 1007 60 10000 2.06 220 07:23 07.06.2022
3271 Clear 11 1009 77 10000 1.54 230 05:56 07.06.2022
3272 Clear 8 1018 85 10000 1.03 0 03:18 07.06.2022
3273 Clear 9 1019 77 10000 1.03 100 00:42 07.06.2022
3274 Clear 11 1019 69 10000 0.51 0 23:35 06.06.2022
3275 Clear 12 1016 64 10000 2.57 200 22:45 06.06.2022
3276 Clear 9 983 73 10000 3.09 210 21:43 06.06.2022
3277 Clear 15 1016 50 10000 4.63 210 20:19 06.06.2022
3278 Clear 16 1013 47 10000 4.63 190 19:23 06.06.2022
3279 Clear 16 1020 46 10000 5.14 180 18:46 06.06.2022
3280 Clear 17 1012 43 10000 5.66 190 17:51 06.06.2022
3281 Clear 17 1012 39 10000 5.66 190 16:39 06.06.2022
3282 Clear 17 1013 38 10000 2.57 330 15:40 06.06.2022
3283 Clear 17 1013 38 10000 4.12 260 14:56 06.06.2022
3284 Clear 17 1013 41 10000 4.02 222 13:37 06.06.2022
3285 Clear 17 1011 40 10000 3.09 330 12:44 06.06.2022
3286 Clear 17 1011 40 10000 1.79 332 12:26 06.06.2022
3287 Clear 16 1012 42 10000 4.63 340 11:45 06.06.2022
3288 Clear 15 1011 44 10000 4.63 330 09:43 06.06.2022
3289 Clear 14 1012 49 10000 5.14 330 08:35 06.06.2022
3290 Clear 13 1010 54 10000 2.57 320 07:41 06.06.2022
3291 Clear 11 1014 68 10000 3.6 320 05:48 06.06.2022
3292 Clear 8 1009 80 10000 2.57 310 04:28 06.06.2022
3293 Clear 9 1022 82 10000 3.6 310 01:30 06.06.2022
3294 Clear 9 1002 85 10000 3.6 300 00:43 06.06.2022
3295 Clear 10 1006 83 10000 4.12 310 00:19 06.06.2022
3296 Clear 10 990 89 10000 2.57 290 22:58 05.06.2022
3297 Clear 12 1021 75 10000 1.54 330 21:56 05.06.2022
3298 Clouds 14 1017 69 10000 5.66 330 20:23 05.06.2022
3299 Clouds 15 1016 73 10000 7.2 330 18:51 05.06.2022
3300 Clouds 16 1007 66 10000 7.2 240 17:58 05.06.2022
3301 Clouds 19 1016 56 10000 8.23 220 17:38 05.06.2022
3302 Clouds 18 1010 58 10000 8.23 220 17:19 05.06.2022
3303 Clouds 16 1007 63 10000 8.23 220 16:46 05.06.2022
3304 Clouds 18 1008 58 10000 6.69 200 14:59 05.06.2022
3305 Clouds 17 1009 64 10000 5.14 180 13:55 05.06.2022
3306 Clear 18 1007 59 10000 4.02 183 11:58 05.06.2022
3307 Clear 17 1005 58 10000 2.57 290 10:45 05.06.2022
3308 Clear 17 1002 61 10000 2.57 290 10:24 05.06.2022
3309 Clear 16 1010 61 10000 3.09 290 09:21 05.06.2022
3310 Clear 15 1007 66 10000 3.6 300 08:22 05.06.2022
3311 Clear 11 1010 82 10000 4.12 280 05:24 05.06.2022
3312 Clear 11 1010 83 10000 3.6 280 04:36 05.06.2022
3313 Clear 11 1009 79 10000 4.63 290 02:19 05.06.2022
3314 Clear 12 1017 78 10000 5.66 290 01:23 05.06.2022
3315 Clear 11 1009 81 10000 5.66 290 01:23 05.06.2022
3316 Clear 12 1001 82 10000 3.09 270 22:48 04.06.2022
3317 Clear 13 1000 82 10000 5.14 300 21:24 04.06.2022
3318 Clouds 16 1007 71 10000 6.69 260 18:58 04.06.2022
3319 Clouds 17 1014 76 10000 6.69 250 16:48 04.06.2022
3320 Rain 16 1007 80 10000 7.2 230 16:20 04.06.2022
3321 Rain 15 1007 82 10000 4.63 230 15:35 04.06.2022
3322 Clouds 17 1005 70 10000 6.17 230 13:57 04.06.2022
3323 Clouds 15 1007 80 10000 2.68 206 11:28 04.06.2022
3324 Clouds 14 1007 84 10000 3.09 240 10:52 04.06.2022
3325 Clouds 13 1004 88 10000 4.12 230 09:47 04.06.2022
3326 Clouds 12 1005 90 10000 3.09 210 08:59 04.06.2022
3327 Clouds 12 1006 90 10000 3.6 200 08:37 04.06.2022
3328 Clouds 11 1007 93 10000 3.13 243 06:25 04.06.2022
3329 Clouds 10 1006 93 10000 3.58 260 03:37 04.06.2022
3330 Clouds 11 1015 91 10000 4.63 220 00:22 04.06.2022
3331 Clouds 11 1014 92 10000 4.63 210 22:56 03.06.2022
3332 Clear 11 1005 90 10000 5.14 210 21:52 03.06.2022
3333 Clouds 12 1002 84 10000 5.66 200 20:40 03.06.2022
3334 Clouds 14 1006 78 10000 6.26 250 19:33 03.06.2022
3335 Clouds 15 1007 73 10000 8.23 220 16:56 03.06.2022
3336 Clouds 17 1007 67 10000 9.26 210 15:52 03.06.2022
3337 Clouds 17 1004 67 10000 8.75 220 13:58 03.06.2022
3338 Clouds 15 1005 76 10000 9.26 210 12:21 03.06.2022
3339 Clouds 13 1004 85 10000 7.15 243 09:56 03.06.2022
3340 Clouds 12 1005 89 10000 6.17 210 09:29 03.06.2022
3341 Clouds 11 1005 93 10000 5.36 290 07:45 03.06.2022
3342 Clouds 10 1005 94 10000 6.69 200 06:49 03.06.2022
3343 Clouds 10 1010 96 10000 5.66 200 06:27 03.06.2022
3344 Rain 10 1001 93 10000 7.2 200 03:39 03.06.2022
3345 Drizzle 9 1007 95 1900 7.72 180 23:52 02.06.2022
3346 Drizzle 10 1006 93 6000 8.75 170 21:58 02.06.2022
3347 Clouds 10 1007 94 10000 9.39 210 20:38 02.06.2022
3348 Drizzle 10 1007 92 10000 9.39 210 19:56 02.06.2022
3349 Clouds 10 1007 92 10000 9.39 210 19:38 02.06.2022
3350 Drizzle 10 1006 94 10000 8.23 180 18:41 02.06.2022
3351 Clouds 11 1006 90 10000 6.69 170 16:28 02.06.2022
3352 Rain 11 1007 93 8000 9.39 219 15:47 02.06.2022
3353 Clouds 10 1005 95 10000 8.94 199 13:31 02.06.2022
3354 Rain 10 1005 95 7000 8.94 199 12:49 02.06.2022
3355 Clouds 12 998 89 10000 7.2 150 10:36 02.06.2022
3356 Clouds 12 999 92 10000 7.2 140 09:29 02.06.2022
3357 Clouds 12 999 92 10000 5.14 120 08:44 02.06.2022
3358 Clouds 12 1000 91 10000 5.66 110 08:23 02.06.2022
3359 Rain 11 1005 94 9000 5.81 80 06:21 02.06.2022
3360 Rain 12 1008 86 10000 5.36 86 03:50 02.06.2022
3361 Clear 14 1014 68 10000 5.14 60 00:47 02.06.2022
3362 Clear 12 997 79 10000 3.6 60 22:57 01.06.2022
3363 Clear 13 997 76 10000 3.6 60 21:59 01.06.2022
3364 Clear 15 1014 70 10000 4.47 91 21:24 01.06.2022
3365 Clear 15 1006 68 10000 5.81 98 20:38 01.06.2022
3366 Clouds 15 1016 67 10000 6.71 101 19:51 01.06.2022
3367 Clouds 16 1016 67 10000 4.63 80 18:28 01.06.2022
3368 Clouds 17 1009 58 10000 6.71 89 16:58 01.06.2022
3369 Clouds 17 1018 59 10000 4.63 120 15:43 01.06.2022
3370 Clouds 17 1019 62 10000 5.66 110 14:49 01.06.2022
3371 Clouds 17 1017 59 10000 6.69 150 13:23 01.06.2022
3372 Clouds 15 1017 68 10000 6.17 160 10:48 01.06.2022
3373 Clouds 12 1017 80 10000 6.69 160 09:29 01.06.2022
3374 Clouds 11 1016 87 10000 6.17 160 08:18 01.06.2022
3375 Clouds 10 1016 90 10000 6.17 160 07:20 01.06.2022
3376 Clouds 10 1008 91 10000 6.69 160 04:41 01.06.2022
3377 Clouds 10 1006 93 9000 8.75 160 23:50 31.05.2022
3378 Rain 10 1011 92 10000 8.23 160 22:41 31.05.2022
3379 Rain 10 1010 92 10000 8.75 160 22:22 31.05.2022
3380 Rain 10 1009 92 9000 8.75 150 21:39 31.05.2022
3381 Rain 10 1009 91 7000 9.26 130 20:44 31.05.2022
3382 Rain 11 1008 88 10000 7.2 130 19:31 31.05.2022
3383 Clouds 11 1008 88 10000 6.69 120 18:26 31.05.2022
3384 Clouds 11 1008 89 8000 8.23 130 17:37 31.05.2022
3385 Clouds 11 1008 93 10000 7.72 100 15:45 31.05.2022
3386 Clouds 12 1002 88 10000 9.39 113 15:22 31.05.2022
3387 Clouds 12 1007 87 10000 7.2 100 12:41 31.05.2022
3388 Clouds 12 1007 88 10000 7.72 100 12:18 31.05.2022
3389 Clouds 11 1007 92 10000 8.94 87 10:25 31.05.2022
3390 Rain 11 1009 89 10000 4.12 70 07:46 31.05.2022
3391 Rain 13 1005 76 10000 5.14 50 06:19 31.05.2022
3392 Rain 13 1010 62 10000 5.14 40 03:49 31.05.2022
3393 Clear 12 995 77 10000 2.57 50 23:45 30.05.2022
3394 Clear 11 991 89 10000 2.57 50 23:23 30.05.2022
3395 Clear 12 990 86 10000 3.09 90 22:33 30.05.2022
3396 Clear 13 983 95 10000 2.06 100 21:40 30.05.2022
3397 Clear 15 1015 47 10000 3.09 110 20:43 30.05.2022
3398 Clear 15 1014 59 10000 3.6 130 19:43 30.05.2022
3399 Clear 16 1006 61 10000 4.63 140 17:53 30.05.2022
3400 Clear 17 1008 58 10000 3.09 0 17:21 30.05.2022
3401 Clear 17 1007 58 10000 2.68 160 15:54 30.05.2022
3402 Clouds 18 1015 55 10000 3.6 170 13:26 30.05.2022
3403 Clouds 16 1002 70 10000 2.57 240 11:39 30.05.2022
3404 Clouds 15 1014 69 10000 2.57 220 09:45 30.05.2022
3405 Clear 9 1015 83 10000 2.06 290 07:34 30.05.2022
3406 Clear 9 1007 89 10000 1.54 280 05:54 30.05.2022
3407 Fog 7 1007 93 10000 0.51 270 04:46 30.05.2022
3408 Clear 9 1013 83 10000 2.57 260 00:18 30.05.2022
3409 Clear 10 1011 79 10000 2.57 220 22:40 29.05.2022
3410 Clear 11 1011 73 10000 3.6 220 21:44 29.05.2022
3411 Clear 13 1002 68 10000 3.6 210 20:21 29.05.2022
3412 Clear 14 1002 66 10000 4.63 220 19:28 29.05.2022
3413 Clouds 15 1001 62 10000 6.17 200 17:56 29.05.2022
3414 Clouds 15 1001 65 10000 4.12 210 16:20 29.05.2022
3415 Clouds 15 1006 66 10000 2.24 173 15:41 29.05.2022
3416 Clouds 15 1000 73 10000 3.13 240 14:49 29.05.2022
3417 Clouds 12 999 86 10000 4.02 200 12:33 29.05.2022
3418 Clouds 12 1005 89 10000 3.13 223 11:19 29.05.2022
3419 Mist 10 1004 93 4500 1.34 228 09:54 29.05.2022
3420 Mist 10 1002 95 2500 1.34 179 07:55 29.05.2022
3421 Fog 9 994 95 100 1.03 40 04:58 29.05.2022
3422 Fog 9 992 95 100 1.34 308 04:33 29.05.2022
3423 Fog 9 994 95 700 2.06 60 01:23 29.05.2022
3424 Clouds 10 992 94 10000 0.89 124 23:47 28.05.2022
3425 Fog 10 993 94 10000 1.03 0 23:19 28.05.2022
3426 Clouds 11 993 94 10000 2.06 80 21:52 28.05.2022
3427 Clouds 11 999 92 10000 1.79 118 20:46 28.05.2022
3428 Clouds 12 999 89 10000 0.51 0 19:20 28.05.2022
3429 Clouds 12 997 86 10000 2.06 190 18:23 28.05.2022
3430 Clouds 11 998 90 10000 2.06 190 17:32 28.05.2022
3431 Clouds 12 996 85 10000 3.09 200 15:49 28.05.2022
3432 Clouds 12 997 87 10000 2.57 210 15:19 28.05.2022
3433 Rain 11 995 88 10000 3.09 160 13:29 28.05.2022
3434 Rain 10 994 93 10000 4.63 140 12:42 28.05.2022
3435 Clouds 11 996 87 10000 2.24 219 11:28 28.05.2022
3436 Clouds 11 996 87 10000 2.06 310 10:34 28.05.2022
3437 Clouds 11 996 89 10000 1.54 250 09:46 28.05.2022
3438 Clouds 10 994 92 10000 2.06 250 08:21 28.05.2022
3439 Rain 9 993 94 10000 2.06 280 06:33 28.05.2022
3440 Rain 9 987 96 9000 1.03 230 04:43 28.05.2022
3441 Rain 9 988 95 10000 1.54 220 01:46 28.05.2022
3442 Rain 9 986 94 10000 1.54 230 23:55 27.05.2022
3443 Rain 9 986 94 10000 1.54 250 22:38 27.05.2022
3444 Rain 9 986 93 10000 1.54 250 22:38 27.05.2022
3445 Rain 10 994 93 10000 1.34 276 21:22 27.05.2022
3446 Rain 10 994 92 10000 1.54 230 20:43 27.05.2022
3447 Rain 10 994 91 10000 2.57 230 20:18 27.05.2022
3448 Rain 10 994 91 10000 3.09 230 19:36 27.05.2022
3449 Rain 10 994 91 10000 2.57 230 19:18 27.05.2022
3450 Rain 10 993 94 10000 2.57 200 16:43 27.05.2022
3451 Rain 10 993 94 10000 2.57 160 15:55 27.05.2022
3452 Clouds 11 993 88 10000 2.57 130 14:47 27.05.2022
3453 Clouds 11 993 89 10000 1.54 110 13:40 27.05.2022
3454 Rain 10 994 92 10000 2.57 70 11:53 27.05.2022
3455 Rain 10 994 89 10000 2.06 50 11:27 27.05.2022
3456 Rain 10 994 89 10000 2.57 70 10:37 27.05.2022
3457 Rain 10 995 92 10000 3.13 131 09:52 27.05.2022
3458 Rain 10 995 91 10000 3.09 70 09:28 27.05.2022
3459 Clouds 9 996 95 10000 1.54 340 06:58 27.05.2022
3460 Clouds 9 996 95 7000 0.45 158 02:59 27.05.2022
3461 Clouds 9 997 94 8000 1.03 0 00:57 27.05.2022
3462 Drizzle 9 998 92 6000 2.57 110 23:23 26.05.2022
3463 Drizzle 10 992 90 6000 2.57 150 21:48 26.05.2022
3464 Drizzle 10 992 90 6000 3.09 140 20:59 26.05.2022
3465 Rain 10 999 93 10000 3.13 138 19:30 26.05.2022
3466 Rain 11 999 94 10000 3.09 120 18:24 26.05.2022
3467 Rain 12 999 91 10000 2.57 80 17:34 26.05.2022
3468 Clouds 12 1000 90 10000 2.68 94 15:58 26.05.2022
3469 Clouds 12 1000 92 10000 2.68 80 15:18 26.05.2022
3470 Clouds 12 1000 89 9000 2.24 107 13:46 26.05.2022
3471 Rain 13 989 82 10000 1.79 183 11:49 26.05.2022
3472 Rain 12 992 88 10000 1.54 280 10:39 26.05.2022
3473 Rain 11 995 90 10000 3.09 270 09:37 26.05.2022
3474 Rain 11 997 92 10000 1.03 0 08:38 26.05.2022
3475 Rain 11 1004 90 7000 2.24 264 05:26 26.05.2022
3476 Rain 12 1007 85 10000 1.54 210 02:19 26.05.2022
3477 Clouds 13 1006 67 10000 2.06 120 23:41 25.05.2022
3478 Clouds 13 1006 60 10000 3.6 150 22:51 25.05.2022
3479 Clear 12 988 63 10000 2.06 110 21:39 25.05.2022
3480 Clear 13 992 61 10000 2.57 100 20:47 25.05.2022
3481 Clear 16 1006 52 10000 2.57 120 19:32 25.05.2022
3482 Clear 16 1008 50 10000 3.09 120 18:36 25.05.2022
3483 Clear 15 1010 57 10000 7.2 170 16:53 25.05.2022
3484 Clear 16 1010 50 10000 6.69 130 16:25 25.05.2022
3485 Clear 18 1009 41 10000 8.23 120 15:36 25.05.2022
3486 Clear 18 1012 46 10000 7.2 120 14:42 25.05.2022
3487 Clear 18 1005 39 10000 7.2 120 14:24 25.05.2022
3488 Clear 17 1006 43 10000 6.69 130 12:52 25.05.2022
3489 Clear 18 999 42 10000 7.2 150 11:32 25.05.2022
3490 Clear 16 1003 49 10000 5.14 140 10:23 25.05.2022
3491 Clouds 15 1004 53 10000 4.47 136 08:53 25.05.2022
3492 Clouds 11 1002 68 10000 0.45 176 07:23 25.05.2022
3493 Clear 10 1013 67 10000 2.57 100 05:27 25.05.2022
3494 Clear 8 1013 71 10000 1.54 70 00:38 25.05.2022
3495 Clear 10 1013 66 10000 0 0 23:47 24.05.2022
3496 Clear 11 1013 59 10000 2.06 130 22:53 24.05.2022
3497 Clear 9 1001 65 10000 4.12 140 21:46 24.05.2022
3498 Clear 11 1003 58 10000 3.6 150 21:22 24.05.2022
3499 Clear 11 997 47 10000 3.6 160 20:44 24.05.2022
3500 Clear 17 1006 32 10000 3.09 200 18:59 24.05.2022
3501 Clear 19 1006 31 10000 5.14 170 17:50 24.05.2022
3502 Clear 18 1007 30 10000 5.14 170 16:29 24.05.2022
3503 Clear 19 1007 30 10000 5.14 170 15:27 24.05.2022
3504 Clear 19 1006 30 10000 5.66 160 14:36 24.05.2022
3505 Clear 19 1008 31 10000 5.14 170 13:35 24.05.2022
3506 Clear 18 1006 30 10000 2.68 211 12:18 24.05.2022
3507 Clear 16 1004 35 10000 3.58 208 09:50 24.05.2022
3508 Clear 17 1013 31 10000 2.06 280 08:51 24.05.2022
3509 Clear 13 1003 40 10000 1.54 340 07:32 24.05.2022
3510 Clear 11 1007 45 10000 1.54 290 06:27 24.05.2022
3511 Clear 8 1013 48 10000 2.68 321 03:32 24.05.2022
3512 Clear 7 1012 52 10000 3.6 300 01:46 24.05.2022
3513 Clear 9 1012 50 10000 3.6 300 00:21 24.05.2022
3514 Clear 9 986 68 10000 4.12 260 22:24 23.05.2022
3515 Clear 9 977 80 10000 4.63 260 21:45 23.05.2022
3516 Clear 12 976 68 10000 4.12 260 20:46 23.05.2022
3517 Clear 15 983 51 10000 4.63 240 19:47 23.05.2022
3518 Clear 17 1010 33 10000 6.17 230 19:22 23.05.2022
3519 Clear 17 1004 39 10000 6.69 230 18:40 23.05.2022
3520 Clear 18 1005 36 10000 7.2 230 17:56 23.05.2022
3521 Clear 18 1005 37 10000 3.58 220 16:28 23.05.2022
3522 Clear 19 1005 37 10000 5.36 263 14:18 23.05.2022
3523 Clear 18 1004 37 10000 2.57 240 11:52 23.05.2022
3524 Clear 17 1013 38 10000 3.58 212 10:47 23.05.2022
3525 Clear 17 1013 35 10000 3.09 320 09:47 23.05.2022
3526 Clear 16 1014 41 10000 2.24 323 08:46 23.05.2022
3527 Clear 11 1003 60 10000 2.24 314 07:24 23.05.2022
3528 Clear 9 1005 62 10000 1.54 310 06:39 23.05.2022
3529 Clear 7 1007 67 10000 3.13 278 03:27 23.05.2022
3530 Clear 6 1006 68 10000 3.13 281 01:52 23.05.2022
3531 Clear 7 1007 66 10000 1.79 276 01:29 23.05.2022
3532 Clear 7 1004 63 10000 2.06 260 23:18 22.05.2022
3533 Clear 8 1005 58 10000 2.57 230 22:27 22.05.2022
3534 Clear 8 1003 56 10000 2.57 230 21:51 22.05.2022
3535 Clear 10 1016 49 10000 2.57 210 20:43 22.05.2022
3536 Clear 10 1005 44 10000 2.57 210 20:22 22.05.2022
3537 Clear 12 1006 41 10000 3.09 220 19:34 22.05.2022
3538 Clear 11 1007 40 10000 4.12 190 18:50 22.05.2022
3539 Clear 12 1007 40 10000 4.12 190 18:21 22.05.2022
3540 Clear 13 1006 40 10000 4.12 160 16:57 22.05.2022
3541 Clear 13 1006 40 10000 3.6 130 15:34 22.05.2022
3542 Clear 13 1006 40 10000 4.47 108 14:47 22.05.2022
3543 Clear 13 1006 39 10000 4.12 170 12:55 22.05.2022
3544 Clear 12 1008 43 10000 4.12 160 12:33 22.05.2022
3545 Clear 12 1006 39 10000 6.17 80 10:53 22.05.2022
3546 Clear 11 1006 45 10000 4.63 70 09:38 22.05.2022
3547 Clear 10 1006 49 10000 6.26 82 07:52 22.05.2022
3548 Clear 9 1006 49 10000 5.81 91 07:20 22.05.2022
3549 Clear 6 1013 57 10000 2.57 40 04:30 22.05.2022
3550 Clear 6 1012 57 10000 3.13 67 01:20 22.05.2022
3551 Clear 7 1004 58 10000 2.68 28 23:57 21.05.2022
3552 Clear 7 1005 57 10000 2.57 30 23:32 21.05.2022
3553 Clear 9 1005 52 10000 2.68 49 22:22 21.05.2022
3554 Clear 10 1011 47 10000 4.92 77 21:39 21.05.2022
3555 Clear 11 1003 47 10000 4.47 99 20:48 21.05.2022
3556 Clear 12 1004 43 10000 4.63 80 19:59 21.05.2022
3557 Clear 12 1005 40 10000 6.17 80 19:21 21.05.2022
3558 Clear 13 1005 38 10000 7.72 80 17:35 21.05.2022
3559 Clear 13 1005 38 10000 7.15 71 15:37 21.05.2022
3560 Clear 14 1011 38 10000 9.83 98 14:36 21.05.2022
3561 Clear 13 1006 39 10000 7.72 100 13:36 21.05.2022
3562 Clear 13 1006 40 10000 7.2 90 12:39 21.05.2022
3563 Clear 13 1005 42 10000 7.15 73 11:52 21.05.2022
3564 Clear 12 1007 44 10000 8.94 94 10:22 21.05.2022
3565 Clear 11 1007 51 10000 6.71 83 09:18 21.05.2022
3566 Clear 11 1005 55 10000 5.66 70 08:39 21.05.2022
3567 Clear 7 1007 66 10000 3.58 34 06:22 21.05.2022
3568 Clear 6 1014 67 10000 3.6 40 02:23 21.05.2022
3569 Clear 8 1015 62 10000 4.02 98 23:42 20.05.2022
3570 Clear 8 1015 61 10000 3.58 101 22:41 20.05.2022
3571 Clear 8 1015 59 10000 2.68 72 22:18 20.05.2022
3572 Clear 9 1015 56 10000 2.06 70 21:19 20.05.2022
3573 Clear 10 1015 56 10000 3.09 80 20:51 20.05.2022
3574 Clear 11 1015 47 10000 4.63 90 19:54 20.05.2022
3575 Clear 11 1010 45 10000 4.63 90 18:58 20.05.2022
3576 Clear 11 1010 44 10000 6.26 84 18:23 20.05.2022
3577 Clouds 11 1011 45 10000 6.17 90 16:28 20.05.2022
3578 Clear 12 1010 44 10000 8.05 95 15:54 20.05.2022
3579 Clear 11 1017 44 10000 7.6 92 15:32 20.05.2022
3580 Clear 11 1010 45 10000 7.6 91 14:27 20.05.2022
3581 Clear 11 1012 49 10000 10.28 99 12:45 20.05.2022
3582 Clear 11 1012 52 10000 6.71 90 10:48 20.05.2022
3583 Clear 10 1011 57 10000 6.71 89 09:31 20.05.2022
3584 Clear 9 1013 61 10000 5.36 114 08:27 20.05.2022
3585 Clear 9 1018 66 10000 4.92 96 06:43 20.05.2022
3586 Clear 8 1018 66 10000 3.6 70 05:40 20.05.2022
3587 Clear 7 1018 74 10000 2.06 60 02:41 20.05.2022
3588 Clear 8 1019 70 10000 1.54 70 23:47 19.05.2022
3589 Clear 8 1019 68 10000 1.34 77 22:37 19.05.2022
3590 Clear 9 1018 66 10000 2.06 80 21:51 19.05.2022
3591 Clear 9 1018 65 10000 2.24 130 21:24 19.05.2022
3592 Clear 10 1018 63 10000 2.24 116 20:52 19.05.2022
3593 Clear 11 1011 58 10000 3.6 140 19:54 19.05.2022
3594 Clear 11 1012 55 10000 5.14 130 19:18 19.05.2022
3595 Clear 13 1018 50 10000 3.6 150 17:46 19.05.2022
3596 Clear 14 1010 45 10000 4.47 127 15:58 19.05.2022
3597 Clear 13 1010 46 10000 4.02 124 14:49 19.05.2022
3598 Clear 13 1010 47 10000 5.36 105 14:20 19.05.2022
3599 Clear 12 1011 53 10000 6.71 114 11:55 19.05.2022
3600 Clear 12 1009 57 10000 5.81 50 10:31 19.05.2022
3601 Rain 12 1016 62 10000 4.12 70 08:46 19.05.2022
3602 Rain 9 1015 73 10000 3.6 60 07:24 19.05.2022
3603 Clear 8 1015 80 10000 2.06 250 03:52 19.05.2022
3604 Clear 9 1016 71 10000 1.54 240 01:28 19.05.2022
3605 Clear 10 1007 63 10000 4.12 250 23:43 18.05.2022
3606 Clear 10 1000 57 10000 4.63 260 22:44 18.05.2022
3607 Clear 12 1017 50 10000 5.66 260 21:45 18.05.2022
3608 Clear 13 1016 49 10000 6.17 260 21:23 18.05.2022
3609 Clear 15 1016 47 10000 7.72 250 20:21 18.05.2022
3610 Clear 17 1017 42 10000 8.23 260 18:56 18.05.2022
3611 Clear 18 1017 35 10000 8.23 260 17:57 18.05.2022
3612 Clear 19 1015 30 10000 8.23 270 17:37 18.05.2022
3613 Clear 19 1016 29 10000 8.75 270 17:18 18.05.2022
3614 Clear 19 1019 33 10000 8.75 270 15:58 18.05.2022
3615 Clear 19 1018 34 10000 8.75 270 15:35 18.05.2022
3616 Clear 17 1018 40 10000 7.72 270 14:21 18.05.2022
3617 Clear 17 1018 33 10000 7.72 270 12:55 18.05.2022
3618 Clear 16 1020 38 10000 7.72 260 12:24 18.05.2022
3619 Clear 15 1020 38 10000 7.72 270 11:33 18.05.2022
3620 Clear 14 1021 41 10000 7.2 270 10:43 18.05.2022
3621 Clear 8 1010 61 10000 5.66 270 08:19 18.05.2022
3622 Clear 7 1010 67 10000 5.14 280 07:27 18.05.2022
3623 Clouds 5 1011 81 10000 2.57 270 03:59 18.05.2022
3624 Clouds 7 1013 74 10000 2.57 310 00:51 18.05.2022
3625 Clouds 8 1023 67 10000 2.57 340 23:33 17.05.2022
3626 Clouds 9 1022 61 10000 4.63 320 21:21 17.05.2022
3627 Clouds 8 999 66 10000 4.12 320 20:43 17.05.2022
3628 Clouds 11 1021 57 10000 5.66 320 19:31 17.05.2022
3629 Clouds 11 1021 55 10000 6.17 320 18:46 17.05.2022
3630 Clouds 11 1021 54 10000 5.14 340 17:34 17.05.2022
3631 Clouds 11 1021 53 10000 5.66 340 16:57 17.05.2022
3632 Clouds 11 1020 55 10000 6.17 360 15:58 17.05.2022
3633 Clouds 10 1020 57 10000 7.2 330 14:55 17.05.2022
3634 Clouds 10 1020 58 10000 7.2 330 14:28 17.05.2022
3635 Clouds 10 1019 60 10000 6.69 340 12:39 17.05.2022
3636 Clouds 7 1010 69 10000 6.17 340 10:39 17.05.2022
3637 Clouds 6 1009 76 10000 7.72 330 08:51 17.05.2022
3638 Clouds 5 1008 76 10000 7.2 340 07:55 17.05.2022
3639 Clouds 5 1009 73 10000 6.69 320 06:23 17.05.2022
3640 Clear 6 1007 68 10000 5.14 330 01:23 17.05.2022
3641 Clear 7 1007 76 10000 3.6 320 23:44 16.05.2022
3642 Rain 8 1007 81 10000 4.63 310 22:33 16.05.2022
3643 Rain 8 1007 80 10000 6.69 300 21:24 16.05.2022
3644 Clouds 10 1007 62 10000 4.63 360 20:42 16.05.2022
3645 Clouds 13 1013 48 10000 7.2 340 18:51 16.05.2022
3646 Clouds 14 1013 40 10000 4.47 321 17:18 16.05.2022
3647 Clouds 14 1013 40 10000 4.47 321 17:18 16.05.2022
3648 Clouds 14 1005 44 10000 6.17 290 15:35 16.05.2022
3649 Clouds 13 1004 45 10000 6.17 310 13:48 16.05.2022
3650 Clear 13 1004 50 10000 6.69 320 12:41 16.05.2022
3651 Clear 12 1013 47 10000 6.69 300 10:37 16.05.2022
3652 Clouds 10 1013 56 10000 6.17 300 08:32 16.05.2022
3653 Clear 8 1012 64 10000 5.66 300 06:30 16.05.2022
3654 Clear 7 1003 67 10000 5.14 280 01:43 16.05.2022
3655 Clear 9 1011 55 10000 5.66 280 22:45 15.05.2022
3656 Clear 10 1011 53 10000 5.14 280 22:20 15.05.2022
3657 Clear 10 1011 51 10000 4.63 280 21:37 15.05.2022
3658 Clear 11 1011 52 10000 6.17 290 20:47 15.05.2022
3659 Clear 13 1010 44 10000 7.2 310 18:46 15.05.2022
3660 Clear 14 1009 43 10000 9.77 300 16:54 15.05.2022
3661 Clouds 14 1009 48 10000 6.26 314 14:34 15.05.2022
3662 Clouds 14 1009 49 10000 6.69 310 13:46 15.05.2022
3663 Clouds 13 1008 50 10000 7.2 290 12:19 15.05.2022
3664 Clouds 12 1008 54 10000 7.2 290 10:49 15.05.2022
3665 Clouds 11 1007 58 10000 7.2 290 09:57 15.05.2022
3666 Clear 8 997 74 10000 6.17 290 07:24 15.05.2022
3667 Clear 8 994 77 10000 6.17 290 06:56 15.05.2022
3668 Clear 6 1006 81 10000 5.14 290 03:38 15.05.2022
3669 Clear 8 1005 80 10000 5.66 300 00:26 15.05.2022
3670 Clouds 9 1004 83 10000 5.66 290 23:37 14.05.2022
3671 Clouds 10 1004 81 10000 4.12 270 21:51 14.05.2022
3672 Rain 11 1003 79 10000 3.6 270 21:26 14.05.2022
3673 Clouds 11 996 76 10000 3.6 250 20:27 14.05.2022
3674 Clouds 12 1002 69 10000 5.66 280 19:20 14.05.2022
3675 Clouds 13 1001 73 10000 5.66 280 18:58 14.05.2022
3676 Clouds 13 1003 69 10000 3.6 270 17:47 14.05.2022
3677 Clouds 15 1001 58 10000 4.63 270 15:58 14.05.2022
3678 Clouds 14 1003 64 10000 5.36 255 14:39 14.05.2022
3679 Clouds 14 1003 65 10000 7.72 240 14:18 14.05.2022
3680 Clouds 13 1001 68 10000 2.57 190 11:46 14.05.2022
3681 Clouds 12 992 69 10000 3.09 180 10:44 14.05.2022
3682 Clouds 11 1001 75 10000 3.6 190 10:18 14.05.2022
3683 Clouds 9 1001 82 10000 2.57 140 09:23 14.05.2022
3684 Clear 8 1001 85 10000 2.57 140 07:34 14.05.2022
3685 Clouds 5 994 90 10000 0.89 187 04:43 14.05.2022
3686 Clear 7 1004 78 10000 3.09 250 00:43 14.05.2022
3687 Clear 7 994 80 10000 3.13 266 23:28 13.05.2022
3688 Clear 7 989 78 10000 2.57 250 22:55 13.05.2022
3689 Clear 9 1003 73 10000 3.13 265 22:21 13.05.2022
3690 Clear 10 992 79 10000 3.6 190 20:59 13.05.2022
3691 Clear 10 992 78 10000 5.14 180 20:38 13.05.2022
3692 Clouds 11 995 73 10000 4.12 180 20:20 13.05.2022
3693 Clouds 12 993 70 10000 6.69 200 19:18 13.05.2022
3694 Clouds 14 992 60 10000 5.66 250 17:47 13.05.2022
3695 Clouds 14 992 56 10000 3.09 290 17:23 13.05.2022
3696 Clouds 14 994 56 10000 7.72 220 15:47 13.05.2022
3697 Rain 14 994 59 10000 6.69 260 14:39 13.05.2022
3698 Clouds 16 991 46 10000 6.69 280 12:53 13.05.2022
3699 Clear 15 992 48 10000 6.69 280 11:56 13.05.2022
3700 Clouds 13 989 58 10000 8.23 280 09:55 13.05.2022
3701 Clouds 13 989 60 10000 6.17 280 09:29 13.05.2022
3702 Clear 10 988 75 10000 5.14 280 07:52 13.05.2022
3703 Clear 9 988 80 10000 4.63 280 07:18 13.05.2022
3704 Clouds 7 991 87 10000 6.17 290 05:23 13.05.2022
3705 Clouds 9 998 84 10000 5.14 260 00:59 13.05.2022
3706 Clouds 9 997 82 10000 6.17 260 22:59 12.05.2022
3707 Clouds 9 997 82 10000 6.69 260 22:34 12.05.2022
3708 Clouds 9 997 81 10000 6.69 260 21:24 12.05.2022
3709 Clouds 10 988 79 10000 8.23 240 19:51 12.05.2022
3710 Clouds 11 987 76 10000 3.6 240 18:27 12.05.2022
3711 Clouds 12 984 73 10000 7.2 230 16:44 12.05.2022
3712 Clouds 13 986 68 10000 6.69 220 14:57 12.05.2022
3713 Clouds 12 987 72 10000 5.66 220 13:50 12.05.2022
3714 Clouds 11 983 77 10000 5.14 200 11:55 12.05.2022
3715 Clouds 11 983 77 10000 4.63 180 10:32 12.05.2022
3716 Clouds 10 986 83 10000 5.66 220 08:53 12.05.2022
3717 Clouds 9 987 85 10000 5.66 220 08:35 12.05.2022
3718 Clouds 8 987 90 10000 4.12 220 07:25 12.05.2022
3719 Clouds 8 997 87 10000 5.14 180 04:32 12.05.2022
3720 Clear 7 992 89 10000 4.12 170 01:30 12.05.2022
3721 Clear 8 994 85 10000 5.14 220 23:36 11.05.2022
3722 Clear 8 994 85 10000 4.63 210 22:21 11.05.2022
3723 Clear 8 994 87 10000 5.14 210 21:26 11.05.2022
3724 Clear 8 994 87 10000 5.14 210 21:26 11.05.2022
3725 Clear 9 990 83 10000 5.14 200 20:20 11.05.2022
3726 Clouds 11 995 74 10000 6.69 200 17:37 11.05.2022
3727 Clouds 12 993 74 10000 7.72 220 16:27 11.05.2022
3728 Clouds 12 994 76 10000 7.2 220 14:48 11.05.2022
3729 Clouds 12 992 76 10000 6.69 210 14:25 11.05.2022
3730 Clouds 11 1002 80 10000 7.2 200 13:25 11.05.2022
3731 Clouds 10 1003 88 10000 6.69 200 11:48 11.05.2022
3732 Clouds 8 1003 91 10000 7.2 190 09:30 11.05.2022
3733 Rain 8 1005 83 10000 6.69 190 06:36 11.05.2022
3734 Clear 9 999 54 10000 4.63 160 02:27 11.05.2022
3735 Clear 10 1004 53 10000 6.69 180 22:58 10.05.2022
3736 Clouds 10 1002 53 10000 5.81 231 22:58 10.05.2022
3737 Clear 10 1004 54 10000 6.69 190 22:30 10.05.2022
3738 Clear 11 1003 52 10000 6.17 190 21:41 10.05.2022
3739 Clear 11 1014 54 10000 5.14 190 20:47 10.05.2022
3740 Clear 12 1015 48 10000 7.2 210 18:57 10.05.2022
3741 Clear 14 1014 32 10000 9.26 200 17:38 10.05.2022
3742 Clear 14 1017 40 10000 8.75 210 16:35 10.05.2022
3743 Clear 14 1018 33 10000 8.75 210 13:31 10.05.2022
3744 Clear 13 1020 43 10000 9.26 210 11:54 10.05.2022
3745 Clear 13 1019 47 10000 9.77 200 11:32 10.05.2022
3746 Clear 12 1020 51 10000 8.23 200 10:56 10.05.2022
3747 Clear 11 1012 58 10000 8.05 261 09:47 10.05.2022
3748 Clear 9 1009 63 10000 7.72 220 08:18 10.05.2022
3749 Clear 7 1012 71 10000 6.17 200 06:20 10.05.2022
3750 Clear 4 1014 78 10000 4.12 200 02:23 10.05.2022
3751 Clear 6 1024 75 10000 4.12 210 23:53 09.05.2022
3752 Clear 6 1024 78 10000 4.63 210 22:36 09.05.2022
3753 Clear 7 1024 74 10000 4.12 210 21:39 09.05.2022
3754 Clear 9 1025 54 10000 5.66 200 20:20 09.05.2022
3755 Clear 11 1016 47 10000 5.66 220 18:25 09.05.2022
3756 Clear 11 1016 47 10000 5.66 230 17:25 09.05.2022
3757 Clear 11 1014 45 10000 4.02 221 16:19 09.05.2022
3758 Rain 12 1017 42 10000 3.6 250 15:47 09.05.2022
3759 Rain 11 1015 44 10000 4.12 250 14:36 09.05.2022
3760 Clear 12 1017 38 10000 6.69 270 13:57 09.05.2022
3761 Clear 11 1019 42 10000 5.14 280 12:55 09.05.2022
3762 Clear 11 1028 42 10000 6.69 280 11:52 09.05.2022
3763 Clear 10 1019 43 10000 4.63 280 10:47 09.05.2022
3764 Clear 9 1017 45 10000 4.12 280 10:20 09.05.2022
3765 Clear 6 1020 57 10000 4.12 270 07:56 09.05.2022
3766 Clear 2 1026 70 10000 3.6 280 04:52 09.05.2022
3767 Clear 4 1025 63 10000 4.63 290 00:30 09.05.2022
3768 Clear 3 1016 64 10000 3.6 280 23:28 08.05.2022
3769 Clear 4 1015 62 10000 3.6 280 22:29 08.05.2022
3770 Clouds 7 1024 59 10000 2.57 330 20:54 08.05.2022
3771 Clouds 8 1024 54 10000 5.66 350 20:22 08.05.2022
3772 Clouds 8 1024 50 10000 5.66 310 19:32 08.05.2022
3773 Clouds 9 1023 49 10000 6.69 310 18:35 08.05.2022
3774 Clouds 9 1014 48 10000 7.2 300 17:36 08.05.2022
3775 Rain 9 1014 50 10000 9.77 310 15:46 08.05.2022
3776 Rain 8 1012 49 10000 7.72 270 15:21 08.05.2022
3777 Clear 10 1020 40 10000 8.23 290 12:46 08.05.2022
3778 Clouds 8 1010 49 10000 8.75 290 10:56 08.05.2022
3779 Clouds 8 1007 53 10000 7.72 280 10:22 08.05.2022
3780 Clouds 7 1007 58 10000 7.2 290 09:51 08.05.2022
3781 Clear 5 1006 70 10000 5.14 300 07:43 08.05.2022
3782 Clear 2 1006 86 10000 4.63 290 05:22 08.05.2022
3783 Clear 3 1005 84 10000 4.12 290 03:20 08.05.2022
3784 Clear 4 1005 88 10000 3.6 280 00:42 08.05.2022
3785 Clear 4 1004 89 10000 4.12 270 23:55 07.05.2022
3786 Clear 4 1004 91 10000 3.6 260 22:59 07.05.2022
3787 Clear 4 1004 90 10000 2.57 260 22:35 07.05.2022
3788 Clouds 6 1014 89 10000 4.12 290 21:55 07.05.2022
3789 Clouds 6 1013 91 10000 3.6 300 21:20 07.05.2022
3790 Clouds 6 1003 91 10000 6.69 320 19:59 07.05.2022
3791 Rain 7 1002 93 10000 7.2 320 18:41 07.05.2022
3792 Rain 10 1010 94 10000 6.17 200 16:19 07.05.2022
3793 Rain 10 1010 88 10000 6.17 200 14:46 07.05.2022
3794 Clouds 11 1012 74 10000 7.72 200 11:19 07.05.2022
3795 Clear 11 1010 74 10000 6.69 180 09:39 07.05.2022
3796 Clear 9 1012 79 10000 5.66 180 08:28 07.05.2022
3797 Clouds 8 1004 84 10000 4.63 180 06:44 07.05.2022
3798 Clear 7 1004 87 10000 4.63 180 05:41 07.05.2022
3799 Clear 6 1004 86 10000 3.6 190 03:54 07.05.2022
3800 Clouds 7 1014 83 10000 3.6 210 23:39 06.05.2022
3801 Clouds 8 1015 81 10000 4.63 200 22:33 06.05.2022
3802 Clouds 8 1015 83 10000 3.6 220 21:47 06.05.2022
3803 Clouds 9 1002 77 10000 5.66 210 20:37 06.05.2022
3804 Clouds 14 1016 63 10000 5.66 220 19:42 06.05.2022
3805 Clouds 15 1016 56 10000 7.2 210 19:19 06.05.2022
3806 Clouds 15 1017 50 10000 5.66 230 18:24 06.05.2022
3807 Clear 16 1016 49 10000 6.17 220 16:57 06.05.2022
3808 Clouds 16 1016 49 10000 6.17 230 15:47 06.05.2022
3809 Clouds 16 1017 50 10000 5.66 250 14:54 06.05.2022
3810 Clouds 16 1017 54 10000 6.17 250 13:31 06.05.2022
3811 Clouds 16 1017 56 10000 7.72 210 12:41 06.05.2022
3812 Clouds 14 1006 57 10000 5.14 160 11:49 06.05.2022
3813 Clouds 13 1006 60 10000 3.09 180 10:34 06.05.2022
3814 Clear 13 1006 61 10000 3.6 180 09:46 06.05.2022
3815 Clear 10 1004 67 10000 3.09 180 08:43 06.05.2022
3816 Clear 7 1008 78 10000 3.09 190 06:50 06.05.2022
3817 Clear 6 1008 80 10000 3.09 190 05:48 06.05.2022
3818 Rain 5 1008 76 10000 3.09 200 02:51 06.05.2022
3819 Clear 6 1005 68 10000 3.6 190 01:31 06.05.2022
3820 Clear 6 1006 69 10000 2.24 143 22:32 05.05.2022
3821 Clouds 7 1003 71 10000 0.45 166 21:22 05.05.2022
3822 Clear 8 1006 61 10000 4.12 210 20:26 05.05.2022
3823 Clear 12 1017 40 10000 6.17 210 18:35 05.05.2022
3824 Clear 12 1017 40 10000 6.17 230 16:35 05.05.2022
3825 Clouds 12 1017 45 10000 4.63 200 14:51 05.05.2022
3826 Rain 9 1009 54 10000 6.69 220 13:24 05.05.2022
3827 Rain 10 1017 48 10000 6.69 220 12:49 05.05.2022
3828 Clouds 9 1009 50 10000 7.72 210 10:48 05.05.2022
3829 Clouds 8 1009 54 10000 5.14 190 09:40 05.05.2022
3830 Rain 7 1018 61 10000 6.17 200 07:35 05.05.2022
3831 Clear 5 1018 74 10000 3.6 170 05:19 05.05.2022
3832 Clear 5 1018 74 10000 3.6 170 05:19 05.05.2022
3833 Clear 4 1018 58 10000 2.68 256 01:56 05.05.2022
3834 Clear 4 1018 60 10000 2.24 258 01:29 05.05.2022
3835 Clear 4 1017 55 10000 3.6 250 23:52 04.05.2022
3836 Clear 4 1017 54 10000 2.57 250 22:42 04.05.2022
3837 Clear 4 1018 44 10000 4.63 250 21:50 04.05.2022
3838 Clear 5 1016 42 10000 4.63 250 21:29 04.05.2022
3839 Clear 8 1017 41 10000 3.6 260 20:25 04.05.2022
3840 Clear 6 996 42 10000 5.14 260 19:53 04.05.2022
3841 Clear 8 1017 41 10000 3.6 260 19:18 04.05.2022
3842 Clear 9 1017 39 10000 2.68 216 18:22 04.05.2022
3843 Clear 9 1017 37 10000 4.63 270 17:42 04.05.2022
3844 Clear 9 1017 33 10000 4.12 330 15:41 04.05.2022
3845 Clear 9 1017 33 10000 4.12 290 15:23 04.05.2022
3846 Clouds 10 1017 34 10000 5.66 270 14:21 04.05.2022
3847 Clear 9 1017 34 10000 4.63 270 13:35 04.05.2022
3848 Clouds 8 1017 37 10000 4.92 267 12:33 04.05.2022
3849 Clouds 7 1017 41 10000 3.6 280 10:41 04.05.2022
3850 Clouds 7 1017 49 10000 3.13 314 09:43 04.05.2022
3851 Clear 5 1005 57 10000 2.68 337 08:47 04.05.2022
3852 Clear 5 1005 57 10000 2.68 337 08:47 04.05.2022
3853 Clear 2 1007 72 10000 3.09 290 06:47 04.05.2022
3854 Clear -1 1004 70 10000 3.09 280 02:59 04.05.2022
3855 Clear 1 1003 64 10000 3.6 280 00:38 04.05.2022
3856 Clear 3 1011 53 10000 3.6 300 22:40 03.05.2022
3857 Clear 4 1011 52 10000 3.6 300 21:46 03.05.2022
3858 Clear 4 1010 51 10000 4.12 310 20:54 03.05.2022
3859 Clouds 5 1009 51 10000 6.17 310 19:59 03.05.2022
3860 Clouds 5 1009 53 10000 5.66 310 18:54 03.05.2022
3861 Clouds 6 1008 54 10000 6.17 300 18:21 03.05.2022
3862 Clouds 6 1007 54 10000 7.2 300 16:44 03.05.2022
3863 Clouds 7 1007 56 10000 7.72 290 15:38 03.05.2022
3864 Clouds 7 1005 48 10000 6.69 290 12:47 03.05.2022
3865 Clouds 7 1005 47 10000 7.2 300 12:27 03.05.2022
3866 Clouds 8 1004 46 10000 7.72 290 10:57 03.05.2022
3867 Clouds 7 1003 50 10000 8.75 290 09:35 03.05.2022
3868 Clouds 4 985 66 10000 6.69 290 07:33 03.05.2022
3869 Clear 4 989 67 10000 5.66 280 06:45 03.05.2022
3870 Clear 5 1001 69 10000 3.09 280 01:47 03.05.2022
3871 Clear 7 1000 79 10000 3.6 250 22:39 02.05.2022
3872 Clear 7 1001 78 10000 3.6 240 21:54 02.05.2022
3873 Clear 7 1001 74 10000 4.63 240 20:51 02.05.2022
3874 Clouds 8 990 69 10000 7.2 210 18:46 02.05.2022
3875 Clouds 9 990 66 10000 7.72 210 18:25 02.05.2022
3876 Clouds 9 991 61 10000 8.75 220 17:37 02.05.2022
3877 Clear 10 992 56 10000 11.32 220 16:23 02.05.2022
3878 Clear 11 989 49 10000 14.4 220 15:31 02.05.2022
3879 Clear 11 995 47 10000 11.32 210 13:52 02.05.2022
3880 Clear 11 997 51 10000 10.8 210 12:20 02.05.2022
3881 Clear 10 998 62 10000 7.2 220 10:51 02.05.2022
3882 Clear 9 1010 63 10000 5.14 220 09:29 02.05.2022
3883 Clear 6 1012 71 10000 5.14 210 07:52 02.05.2022
3884 Clear 2 1005 76 10000 1.54 220 04:36 02.05.2022
3885 Clear 2 1007 71 10000 3.09 270 00:25 02.05.2022
3886 Clear 3 1004 72 10000 3.09 270 23:52 01.05.2022
3887 Clear 4 1007 64 10000 3.09 270 22:39 01.05.2022
3888 Clear 6 1016 52 10000 2.57 290 21:26 01.05.2022
3889 Clear 8 1016 46 10000 5.14 290 20:19 01.05.2022
3890 Clear 10 1015 48 10000 5.14 270 18:59 01.05.2022
3891 Clear 10 1015 49 10000 5.14 270 18:39 01.05.2022
3892 Clouds 10 1016 54 10000 4.12 270 17:38 01.05.2022
3893 Clouds 10 1016 59 10000 4.12 200 16:23 01.05.2022
3894 Clouds 10 1016 62 10000 4.12 190 15:36 01.05.2022
3895 Clouds 9 1007 61 10000 6.17 220 13:52 01.05.2022
3896 Clouds 10 1018 53 10000 5.14 210 11:28 01.05.2022
3897 Clouds 9 1019 65 10000 5.14 220 09:32 01.05.2022
3898 Clouds 7 1019 71 10000 3.6 200 08:42 01.05.2022
3899 Rain 3 1019 91 10000 2.06 230 03:44 01.05.2022
3900 Clear 3 1018 85 10000 3.09 230 00:29 01.05.2022
3901 Clouds 6 1019 66 10000 3.09 230 21:51 30.04.2022
3902 Clouds 6 1019 63 10000 3.09 230 21:18 30.04.2022
3903 Clouds 7 1020 62 10000 5.66 240 19:45 30.04.2022
3904 Clouds 8 1020 57 10000 5.66 250 18:28 30.04.2022
3905 Clouds 7 1009 59 10000 6.17 240 16:50 30.04.2022
3906 Clouds 8 1009 57 10000 7.2 220 15:48 30.04.2022
3907 Clouds 8 1009 58 10000 6.69 220 14:53 30.04.2022
3908 Clouds 8 1009 51 10000 7.2 220 13:20 30.04.2022
3909 Clear 8 1010 47 10000 6.17 250 11:34 30.04.2022
3910 Clear 7 1011 47 10000 5.14 240 10:49 30.04.2022
3911 Clear 5 1007 47 10000 5.66 230 09:48 30.04.2022
3912 Clear 1 1015 67 10000 2.06 260 06:48 30.04.2022
3913 Clear -1 1024 70 10000 3.09 290 02:55 30.04.2022
3914 Clear 0 1012 69 10000 2.57 310 23:53 29.04.2022
3915 Clear 2 1022 58 10000 2.57 320 22:34 29.04.2022
3916 Clear 1 1001 60 10000 2.06 330 21:53 29.04.2022
3917 Clear 3 1011 52 10000 2.57 330 20:49 29.04.2022
3918 Clear 6 1022 42 10000 4.63 310 19:47 29.04.2022
3919 Clouds 7 1022 40 10000 6.69 300 18:36 29.04.2022
3920 Rain 7 1022 45 10000 4.12 310 17:25 29.04.2022
3921 Clouds 6 1022 47 10000 6.17 270 15:50 29.04.2022
3922 Clouds 6 1014 54 10000 6.69 310 14:23 29.04.2022
3923 Clouds 6 1014 49 10000 4.92 284 13:22 29.04.2022
3924 Clouds 5 1012 46 10000 5.66 270 11:50 29.04.2022
3925 Clouds 3 1011 60 10000 3.6 320 08:53 29.04.2022
3926 Clouds 1 1011 77 10000 4.12 310 07:28 29.04.2022
3927 Clouds 1 1011 77 10000 4.12 310 07:28 29.04.2022
3928 Clouds 1 1013 80 10000 4.12 310 06:45 29.04.2022
3929 Clouds -1 1012 90 10000 4.12 310 04:53 29.04.2022
3930 Clouds 2 1019 85 10000 5.66 320 00:46 29.04.2022
3931 Clouds 2 1019 87 10000 5.66 300 23:34 28.04.2022
3932 Clouds 3 1018 89 10000 3.6 290 22:44 28.04.2022
3933 Clouds 2 1010 88 10000 2.06 270 21:47 28.04.2022
3934 Clouds 2 1007 88 10000 2.57 260 21:21 28.04.2022
3935 Clouds 3 1009 82 10000 2.57 250 20:35 28.04.2022
3936 Rain 3 1010 79 10000 4.47 293 19:45 28.04.2022
3937 Rain 3 1010 79 10000 3.09 280 19:45 28.04.2022
3938 Clouds 4 1010 76 10000 5.66 220 19:22 28.04.2022
3939 Clouds 5 1008 77 10000 7.2 220 18:36 28.04.2022
3940 Rain 5 1008 76 10000 7.72 220 17:24 28.04.2022
3941 Rain 5 1009 71 10000 8.23 220 16:40 28.04.2022
3942 Snow 4 1008 77 10000 5.66 230 16:18 28.04.2022
3943 Snow 5 1009 71 10000 6.69 220 15:28 28.04.2022
3944 Clouds 5 1008 55 10000 8.23 180 14:19 28.04.2022
3945 Clouds 6 1008 44 10000 6.17 190 12:44 28.04.2022
3946 Clear 6 1011 42 10000 5.66 180 11:58 28.04.2022
3947 Clear 5 1011 41 10000 3.13 184 10:46 28.04.2022
3948 Clear 4 1011 41 10000 2.68 214 09:56 28.04.2022
3949 Clear 3 1012 47 10000 2.06 270 08:31 28.04.2022
3950 Clear 1 1012 61 10000 3.09 290 07:19 28.04.2022
3951 Clear -2 1014 70 10000 3.09 300 05:56 28.04.2022
3952 Clear -2 1023 69 10000 3.09 300 05:38 28.04.2022
3953 Clear -2 1022 68 10000 3.6 300 04:39 28.04.2022
3954 Clear 0 1022 55 10000 4.12 290 00:30 28.04.2022
3955 Clear 2 1021 54 10000 3.09 280 22:39 27.04.2022
3956 Clear 3 1021 48 10000 3.09 270 21:54 27.04.2022
3957 Clear 4 1022 52 10000 1.79 263 21:18 27.04.2022
3958 Clear 4 1022 52 10000 3.09 270 20:37 27.04.2022
3959 Clear 5 1021 51 10000 3.13 203 19:37 27.04.2022
3960 Clouds 5 1022 48 10000 3.6 260 19:18 27.04.2022
3961 Clouds 6 1021 41 10000 2.68 211 18:22 27.04.2022
3962 Clouds 6 1022 41 10000 4.12 320 16:58 27.04.2022
3963 Clouds 6 1022 34 10000 3.6 260 14:33 27.04.2022
3964 Clouds 5 1022 33 10000 4.02 322 12:23 27.04.2022
3965 Clear 4 1014 35 10000 4.63 280 11:20 27.04.2022
3966 Clear 4 1021 35 10000 3.6 10 09:20 27.04.2022
3967 Clear 1 1010 56 10000 3.09 340 07:18 27.04.2022
3968 Clear -1 1010 62 10000 3.09 330 04:30 27.04.2022
3969 Clear 0 1008 58 10000 3.09 340 01:32 27.04.2022
3970 Clear 1 1008 55 10000 3.09 340 00:37 27.04.2022
3971 Clear 2 1007 55 10000 3.13 4 23:25 26.04.2022
3972 Clear 3 1006 54 10000 3.09 350 22:58 26.04.2022
3973 Clear 3 1006 53 10000 3.58 357 22:39 26.04.2022
3974 Clear 5 1014 46 10000 2.68 337 21:26 26.04.2022
3975 Clear 6 1013 42 10000 3.6 350 20:41 26.04.2022
3976 Clear 7 1012 41 10000 4.12 360 19:53 26.04.2022
3977 Clear 7 1012 39 10000 4.63 350 19:32 26.04.2022
3978 Clear 8 1012 38 10000 4.12 340 18:44 26.04.2022
3979 Clear 9 1011 35 10000 6.17 320 17:59 26.04.2022
3980 Clear 9 1011 34 10000 6.17 330 16:48 26.04.2022
3981 Clear 10 1009 38 10000 7.72 310 13:59 26.04.2022
3982 Clear 9 1009 38 10000 8.23 330 13:32 26.04.2022
3983 Clouds 9 1008 47 10000 8.23 340 11:55 26.04.2022
3984 Clouds 8 1007 56 10000 8.23 330 10:37 26.04.2022
3985 Clouds 7 1007 67 10000 6.69 310 09:25 26.04.2022
3986 Clear 5 994 77 10000 4.92 322 07:22 26.04.2022
3987 Clear 3 1004 78 10000 3.6 290 04:23 26.04.2022
3988 Clear 4 1005 71 10000 3.6 290 01:25 26.04.2022
3989 Clear 4 1005 71 10000 3.6 300 00:26 26.04.2022
3990 Clear 4 996 79 10000 1.34 307 22:33 25.04.2022
3991 Clear 4 996 75 10000 2.06 240 21:40 25.04.2022
3992 Clear 6 996 70 10000 1.03 0 20:39 25.04.2022
3993 Clear 8 990 61 10000 4.63 200 18:55 25.04.2022
3994 Clear 10 994 49 10000 5.14 170 17:54 25.04.2022
3995 Clear 11 997 48 10000 3.6 260 16:55 25.04.2022
3996 Clear 12 991 49 10000 3.13 218 15:29 25.04.2022
3997 Clear 12 995 45 10000 4.47 98 14:38 25.04.2022
3998 Clear 12 1006 44 10000 3.09 30 13:32 25.04.2022
3999 Clear 9 998 51 10000 4.02 356 11:38 25.04.2022
4000 Clear 7 998 57 10000 5.14 350 10:23 25.04.2022
4001 Clouds 5 999 67 10000 4.12 350 08:35 25.04.2022
4002 Clouds 3 1008 73 10000 3.09 360 06:39 25.04.2022
4003 Clouds 5 1008 65 10000 4.12 10 03:47 25.04.2022
4004 Clouds 5 1010 66 10000 4.12 20 00:43 25.04.2022
4005 Clear 5 1011 65 10000 4.63 20 23:51 24.04.2022
4006 Clear 6 1011 65 10000 4.47 12 22:41 24.04.2022
4007 Clear 6 1011 67 10000 3.6 20 22:20 24.04.2022
4008 Clear 7 1011 61 10000 4.02 16 21:24 24.04.2022
4009 Clear 8 1011 61 10000 4.63 30 20:48 24.04.2022
4010 Clear 9 1011 59 10000 5.14 30 20:29 24.04.2022
4011 Clear 9 1012 61 10000 5.14 30 19:45 24.04.2022
4012 Clouds 11 1012 53 10000 6.17 40 18:20 24.04.2022
4013 Clouds 11 1011 52 10000 6.69 30 17:27 24.04.2022
4014 Clouds 11 1013 53 10000 6.69 30 16:58 24.04.2022
4015 Clouds 11 1012 52 10000 6.69 40 16:32 24.04.2022
4016 Clouds 11 1012 51 10000 6.69 30 15:54 24.04.2022
4017 Clear 11 1013 52 10000 7.2 20 14:58 24.04.2022
4018 Clear 10 1014 54 10000 6.69 30 13:51 24.04.2022
4019 Clear 10 1014 55 10000 6.69 30 13:24 24.04.2022
4020 Clear 9 1014 55 10000 7.2 20 11:56 24.04.2022
4021 Clear 8 1013 55 10000 7.2 20 11:27 24.04.2022
4022 Clear 6 1008 61 10000 6.69 20 09:55 24.04.2022
4023 Clear 5 1015 61 10000 7.2 30 08:51 24.04.2022
4024 Clear 2 1016 71 10000 6.17 30 06:18 24.04.2022
4025 Clear 3 1016 67 10000 5.36 11 03:37 24.04.2022
4026 Clear 4 1017 63 10000 5.14 40 01:18 24.04.2022
4027 Clear 4 1017 65 10000 5.14 30 23:55 23.04.2022
4028 Clear 5 1017 63 10000 4.92 23 23:25 23.04.2022
4029 Clear 5 1010 61 10000 4.63 30 22:42 23.04.2022
4030 Clear 6 1017 56 10000 4.63 30 21:49 23.04.2022
4031 Clear 6 1017 55 10000 4.63 30 21:30 23.04.2022
4032 Clear 8 1017 49 10000 6.17 40 20:27 23.04.2022
4033 Clear 9 1016 48 10000 6.69 50 19:21 23.04.2022
4034 Clear 7 1004 50 10000 6.69 50 18:55 23.04.2022
4035 Clear 9 1017 46 10000 7.2 40 18:32 23.04.2022
4036 Clouds 8 1004 56 10000 7.72 30 17:47 23.04.2022
4037 Clouds 11 1017 44 10000 6.17 30 16:46 23.04.2022
4038 Clouds 9 998 55 10000 7.2 30 15:54 23.04.2022
4039 Clouds 10 1017 58 10000 6.71 44 13:33 23.04.2022
4040 Clouds 10 1017 63 10000 8.49 62 11:57 23.04.2022
4041 Clouds 8 999 67 10000 4.63 40 10:37 23.04.2022
4042 Clouds 7 1009 70 10000 4.63 40 08:27 23.04.2022
4043 Clear 4 1015 72 10000 3.09 20 04:18 23.04.2022
4044 Clear 5 1016 70 10000 2.68 336 03:32 23.04.2022
4045 Clouds 6 1006 68 10000 1.79 314 23:38 22.04.2022
4046 Clouds 6 1006 69 10000 2.24 322 23:20 22.04.2022
4047 Clear 7 1009 65 10000 1.03 0 21:58 22.04.2022
4048 Clear 7 1007 64 10000 1.03 0 21:39 22.04.2022
4049 Clear 8 1002 60 10000 2.06 220 20:34 22.04.2022
4050 Clear 10 1005 51 10000 2.06 190 19:27 22.04.2022
4051 Clear 10 999 55 10000 2.06 170 18:57 22.04.2022
4052 Clear 12 1010 47 10000 3.09 160 18:26 22.04.2022
4053 Clear 13 1018 44 10000 3.09 200 16:57 22.04.2022
4054 Clear 14 1019 42 10000 2.57 0 15:59 22.04.2022
4055 Clear 13 1011 46 10000 2.57 210 15:24 22.04.2022
4056 Clear 14 1019 45 10000 2.24 203 14:38 22.04.2022
4057 Clear 14 1020 44 10000 1.79 160 13:41 22.04.2022
4058 Clear 14 1021 47 10000 2.24 217 12:47 22.04.2022
4059 Clear 13 1021 40 10000 3.09 30 11:23 22.04.2022
4060 Clear 13 1021 42 10000 3.09 30 10:56 22.04.2022
4061 Clear 12 1021 41 10000 4.12 30 10:34 22.04.2022
4062 Clear 12 1022 46 10000 4.63 50 09:57 22.04.2022
4063 Clear 10 1010 49 10000 3.13 12 09:21 22.04.2022
4064 Clear 9 1011 54 10000 3.09 50 08:42 22.04.2022
4065 Clear 4 1020 71 10000 1.54 40 06:38 22.04.2022
4066 Clear 4 1021 71 10000 2.57 40 00:56 22.04.2022
4067 Clear 4 1019 75 10000 2.06 30 23:33 21.04.2022
4068 Clear 5 1023 77 10000 2.06 50 22:43 21.04.2022
4069 Clear 8 1021 60 10000 3.6 110 21:36 21.04.2022
4070 Clear 4 999 73 10000 4.12 50 20:30 21.04.2022
4071 Clear 9 1002 56 10000 5.14 30 18:49 21.04.2022
4072 Clear 11 1021 55 10000 5.14 30 18:26 21.04.2022
4073 Clear 11 1003 47 10000 5.66 40 17:19 21.04.2022
4074 Clear 14 1022 44 10000 5.66 60 15:25 21.04.2022
4075 Clear 13 1023 44 10000 5.66 60 14:52 21.04.2022
4076 Clear 13 1023 43 10000 6.26 87 14:18 21.04.2022
4077 Clear 13 1023 41 10000 6.69 40 13:21 21.04.2022
4078 Clear 13 1025 47 10000 6.17 70 12:22 21.04.2022
4079 Clear 7 1006 69 10000 4.63 50 09:33 21.04.2022
4080 Clear 6 1006 70 10000 4.63 60 08:38 21.04.2022
4081 Clear 4 1015 75 10000 4.12 50 06:36 21.04.2022
4082 Clear 6 1023 70 10000 4.12 40 03:41 21.04.2022
4083 Clear 6 1024 71 10000 3.09 40 03:20 21.04.2022
4084 Clear 7 1024 68 10000 3.6 40 02:44 21.04.2022
4085 Clear 7 1025 71 10000 3.6 50 00:34 21.04.2022
4086 Clear 5 1025 79 10000 2.57 20 23:25 20.04.2022
4087 Clear 8 1024 69 10000 2.57 20 22:59 20.04.2022
4088 Clear 9 1024 65 10000 2.57 20 22:59 20.04.2022
4089 Clear 7 1024 71 10000 2.57 40 22:33 20.04.2022
4090 Clear 5 1001 77 10000 2.57 70 21:36 20.04.2022
4091 Clear 5 1001 74 10000 2.57 40 20:44 20.04.2022
4092 Clear 6 1001 72 10000 3.6 30 20:21 20.04.2022
4093 Clear 8 993 71 10000 5.66 40 19:39 20.04.2022
4094 Clear 10 993 62 10000 6.17 40 18:45 20.04.2022
4095 Clear 13 1005 50 10000 6.69 60 17:18 20.04.2022
4096 Clear 16 1024 39 10000 7.72 80 16:39 20.04.2022
4097 Clear 13 1023 50 10000 7.2 50 14:58 20.04.2022
4098 Clouds 13 1025 47 10000 8.75 70 12:22 20.04.2022
4099 Clouds 12 1026 58 10000 6.69 70 11:40 20.04.2022
4100 Clear 10 1026 67 10000 5.14 60 10:39 20.04.2022
4101 Clear 10 1026 53 10000 5.14 50 09:28 20.04.2022
4102 Clear 8 1005 68 10000 4.12 50 08:27 20.04.2022
4103 Clear 8 1024 66 10000 4.63 50 07:44 20.04.2022
4104 Clear 3 1024 82 10000 3.09 30 05:29 20.04.2022
4105 Clear 5 1023 72 10000 2.57 40 01:35 20.04.2022
4106 Clear 5 1023 69 10000 2.57 40 00:21 20.04.2022
4107 Clear 5 1023 71 10000 1.54 40 22:44 19.04.2022
4108 Clear 6 1022 71 10000 2.24 78 22:23 19.04.2022
4109 Clear 5 1022 68 10000 1.54 130 21:46 19.04.2022
4110 Clear 5 1011 72 10000 2.06 210 20:57 19.04.2022
4111 Clear 7 1022 66 10000 2.24 139 20:37 19.04.2022
4112 Clear 7 1006 68 10000 2.06 170 19:32 19.04.2022
4113 Clear 11 1023 49 10000 2.06 150 18:27 19.04.2022
4114 Clear 12 1023 53 10000 3.13 113 16:50 19.04.2022
4115 Clear 12 1023 52 10000 2.57 160 16:25 19.04.2022
4116 Clear 12 1023 52 10000 3.58 127 15:57 19.04.2022
4117 Clouds 12 1024 50 10000 4.02 125 14:40 19.04.2022
4118 Clouds 12 1024 51 10000 3.6 130 12:52 19.04.2022
4119 Clear 12 1024 53 10000 2.57 70 12:31 19.04.2022
4120 Clear 10 1024 58 10000 3.09 90 11:27 19.04.2022
4121 Clear 11 1024 50 10000 4.12 120 09:31 19.04.2022
4122 Clear 7 1022 70 10000 1.54 80 07:43 19.04.2022
4123 Clear 2 1021 88 10000 2.06 40 04:24 19.04.2022
4124 Clear 4 1021 84 10000 1.34 12 01:24 19.04.2022
4125 Clouds 5 1020 79 10000 2.68 329 23:49 18.04.2022
4126 Clear 5 1020 82 10000 2.24 325 22:46 18.04.2022
4127 Clear 6 1020 82 10000 1.54 0 21:25 18.04.2022
4128 Clear 8 1020 70 10000 1.03 0 20:39 18.04.2022
4129 Clear 8 1021 67 10000 0 0 19:59 18.04.2022
4130 Clear 8 1018 70 10000 1.54 100 19:32 18.04.2022
4131 Clear 5 987 80 10000 1.54 350 18:43 18.04.2022
4132 Clear 10 1009 61 10000 2.06 350 17:40 18.04.2022
4133 Clouds 11 1012 59 10000 3.09 350 17:19 18.04.2022
4134 Clouds 11 1009 59 10000 2.06 330 16:38 18.04.2022
4135 Clouds 13 1021 55 10000 2.06 360 15:32 18.04.2022
4136 Clouds 12 1020 55 10000 3.09 350 14:27 18.04.2022
4137 Clouds 11 1013 59 10000 3.09 350 12:56 18.04.2022
4138 Clouds 11 1013 60 10000 3.6 350 12:24 18.04.2022
4139 Clear 10 1012 65 10000 4.12 320 10:46 18.04.2022
4140 Clear 8 1008 70 10000 3.6 310 09:32 18.04.2022
4141 Clear 7 1012 70 10000 2.57 320 08:46 18.04.2022
4142 Clear 3 1014 84 10000 1.79 320 06:52 18.04.2022
4143 Clear 3 1023 80 10000 2.24 308 02:45 18.04.2022
4144 Clear 3 1015 77 10000 2.57 270 23:23 17.04.2022
4145 Clear 4 1013 73 10000 2.57 260 22:37 17.04.2022
4146 Clear 5 1016 70 10000 2.68 263 21:34 17.04.2022
4147 Clear 6 1016 67 10000 2.68 260 20:52 17.04.2022
4148 Clear 7 1024 62 10000 2.24 250 20:19 17.04.2022
4149 Clear 8 1013 55 10000 2.57 230 18:58 17.04.2022
4150 Clouds 10 1025 47 10000 3.09 280 17:31 17.04.2022
4151 Clouds 10 1017 46 10000 2.68 191 15:37 17.04.2022
4152 Clouds 10 1012 45 10000 3.6 310 14:46 17.04.2022
4153 Clouds 9 1019 46 10000 3.6 290 13:37 17.04.2022
4154 Clouds 9 1019 47 10000 3.6 300 12:49 17.04.2022
4155 Clear 8 1018 45 10000 3.09 290 10:58 17.04.2022
4156 Clear 8 1018 47 10000 2.06 280 10:29 17.04.2022
4157 Clear 7 1014 44 10000 2.06 280 09:55 17.04.2022
4158 Clear 7 1017 47 10000 2.06 280 09:21 17.04.2022
4159 Clear 6 1020 55 10000 2.06 280 08:41 17.04.2022
4160 Clear -1 1018 78 10000 1.03 270 06:29 17.04.2022
4161 Clear 1 1028 78 10000 1.54 230 02:26 17.04.2022
4162 Clear 1 1029 77 10000 0.51 0 00:41 17.04.2022
4163 Clear 1 1029 74 10000 1.03 250 23:38 16.04.2022
4164 Clear 2 1029 66 10000 3.09 210 21:49 16.04.2022
4165 Clear 4 1029 59 10000 2.06 180 20:54 16.04.2022
4166 Clear 5 1028 52 10000 1.54 0 19:28 16.04.2022
4167 Clear 6 1018 49 10000 1.34 261 18:43 16.04.2022
4168 Clear 7 1019 43 10000 3.6 320 17:20 16.04.2022
4169 Clear 7 1021 43 10000 2.06 0 16:19 16.04.2022
4170 Clear 8 1030 40 10000 3.09 340 14:58 16.04.2022
4171 Clear 7 1030 40 10000 3.58 14 14:40 16.04.2022
4172 Clear 7 1030 40 10000 3.6 340 13:50 16.04.2022
4173 Clear 7 1021 42 10000 4.63 360 13:18 16.04.2022
4174 Clear 6 1022 43 10000 5.14 50 11:43 16.04.2022
4175 Clear 6 1022 49 10000 4.92 7 10:33 16.04.2022
4176 Clear 5 1022 53 10000 4.63 20 09:37 16.04.2022
4177 Clear 4 1021 60 10000 3.6 360 08:52 16.04.2022
4178 Clear 1 1021 74 10000 4.12 350 07:22 16.04.2022
4179 Clear -1 1029 77 10000 3.6 340 05:38 16.04.2022
4180 Clear 1 1027 68 10000 3.6 340 01:47 16.04.2022
4181 Clear 1 1019 75 10000 3.09 330 23:52 15.04.2022
4182 Clear 2 1027 70 10000 3.09 320 22:48 15.04.2022
4183 Clear 2 1026 69 10000 3.09 330 22:28 15.04.2022
4184 Clear 4 1026 61 10000 2.57 340 21:25 15.04.2022
4185 Clear 4 1026 59 10000 2.57 350 20:38 15.04.2022
4186 Clouds 5 1025 57 10000 5.14 350 19:45 15.04.2022
4187 Clouds 6 1025 56 10000 4.02 16 18:59 15.04.2022
4188 Clouds 6 1025 54 10000 6.69 10 18:41 15.04.2022
4189 Clouds 6 1024 53 10000 7.72 360 18:21 15.04.2022
4190 Clouds 7 1023 52 10000 7.2 20 17:26 15.04.2022
4191 Clouds 7 1023 50 10000 7.72 350 16:25 15.04.2022
4192 Clouds 7 1023 53 10000 8.23 10 15:46 15.04.2022
4193 Clouds 6 1023 57 10000 7.2 360 14:18 15.04.2022
4194 Clouds 5 1014 65 10000 7.2 360 12:52 15.04.2022
4195 Clouds 5 1022 65 10000 7.2 360 12:26 15.04.2022
4196 Clouds 5 1022 64 10000 7.2 10 11:51 15.04.2022
4197 Clouds 4 1013 73 10000 6.17 360 10:46 15.04.2022
4198 Clouds 4 1013 74 10000 6.26 351 10:20 15.04.2022
4199 Clouds 3 1013 79 10000 6.17 360 09:22 15.04.2022
4200 Clouds 2 1010 82 10000 5.66 350 08:40 15.04.2022
4201 Clouds 1 1011 91 10000 4.63 350 06:50 15.04.2022
4202 Clouds 2 1011 92 10000 3.13 333 04:49 15.04.2022
4203 Clouds 2 1010 95 10000 2.57 340 00:47 15.04.2022
4204 Clouds 1 1010 93 10000 1.79 343 23:26 14.04.2022
4205 Clouds 2 1010 94 10000 2.06 350 22:46 14.04.2022
4206 Clouds 2 1010 94 10000 2.24 9 22:27 14.04.2022
4207 Rain 2 1018 91 10000 1.79 15 21:50 14.04.2022
4208 Clouds 3 1010 91 10000 1.03 0 19:51 14.04.2022
4209 Clouds 3 1010 90 10000 1.79 131 19:22 14.04.2022
4210 Clouds 2 1018 95 10000 2.06 110 17:46 14.04.2022
4211 Clouds 2 1018 93 10000 2.68 110 17:18 14.04.2022
4212 Rain 2 1018 93 10000 2.24 134 16:21 14.04.2022
4213 Rain 3 1018 91 10000 2.68 144 13:54 14.04.2022
4214 Rain 3 1018 93 10000 2.24 143 13:25 14.04.2022
4215 Rain 3 1019 91 10000 2.06 150 12:33 14.04.2022
4216 Rain 4 1019 85 10000 3.6 200 11:47 14.04.2022
4217 Rain 4 1019 84 10000 4.63 200 11:18 14.04.2022
4218 Rain 4 1019 80 10000 3.6 200 10:31 14.04.2022
4219 Rain 4 1011 74 10000 2.24 209 09:30 14.04.2022
4220 Rain 3 1011 74 10000 0.51 0 08:35 14.04.2022
4221 Clouds 3 1020 75 10000 2.06 240 05:58 14.04.2022
4222 Clear 2 1021 72 10000 1.03 0 01:23 14.04.2022
4223 Clear 4 1022 67 10000 1.03 0 22:38 13.04.2022
4224 Clear 4 1022 68 10000 2.06 250 22:38 13.04.2022
4225 Clear 4 1022 67 10000 1.54 240 21:43 13.04.2022
4226 Clear 4 1014 66 10000 2.06 230 20:45 13.04.2022
4227 Clear 5 1022 61 10000 3.09 220 19:54 13.04.2022
4228 Clear 7 1023 53 10000 4.12 200 18:39 13.04.2022
4229 Clear 8 1023 53 10000 4.63 190 17:41 13.04.2022
4230 Clear 8 1014 50 10000 4.12 210 17:23 13.04.2022
4231 Clear 9 1015 45 10000 3.13 230 16:18 13.04.2022
4232 Clear 9 1015 44 10000 3.13 189 15:31 13.04.2022
4233 Clear 9 1015 44 10000 3.13 189 14:43 13.04.2022
4234 Clear 9 1013 43 10000 3.13 197 13:55 13.04.2022
4235 Clear 9 1013 44 10000 2.57 350 12:57 13.04.2022
4236 Clear 8 1013 46 10000 3.6 310 12:19 13.04.2022
4237 Clear 7 1023 51 10000 3.6 330 10:41 13.04.2022
4238 Clear 5 1015 64 10000 3.6 330 08:49 13.04.2022
4239 Clear 4 1014 69 10000 3.13 324 08:24 13.04.2022
4240 Clear 0 1022 82 10000 3.09 310 06:50 13.04.2022
4241 Clear -1 1022 85 10000 2.57 300 06:24 13.04.2022
4242 Clear 1 1021 81 10000 2.57 300 02:27 13.04.2022
4243 Clear 2 1020 79 10000 3.09 290 00:20 13.04.2022
4244 Clear 1 1009 82 10000 2.06 270 22:36 12.04.2022
4245 Clear 2 1006 79 10000 2.57 250 21:56 12.04.2022
4246 Clear 3 1007 80 10000 2.57 240 20:49 12.04.2022
4247 Clear 3 1007 80 10000 2.57 240 20:49 12.04.2022
4248 Clear 4 1009 76 10000 3.09 240 20:22 12.04.2022
4249 Clear 3 993 77 10000 3.09 230 19:40 12.04.2022
4250 Clear 7 1018 67 10000 3.09 250 19:18 12.04.2022
4251 Clear 7 1010 66 10000 3.6 230 17:49 12.04.2022
4252 Clear 8 1007 59 10000 2.57 240 16:48 12.04.2022
4253 Clear 8 1006 57 10000 3.09 280 15:39 12.04.2022
4254 Clouds 8 1009 61 10000 3.6 260 15:20 12.04.2022
4255 Clear 8 1007 60 10000 2.68 136 13:53 12.04.2022
4256 Clear 8 1009 62 10000 3.6 290 13:27 12.04.2022
4257 Clear 8 1009 62 10000 3.6 290 13:27 12.04.2022
4258 Clear 8 1009 61 10000 3.6 210 12:26 12.04.2022
4259 Clear 7 1008 63 10000 3.6 220 11:39 12.04.2022
4260 Clear 6 1008 65 10000 2.06 210 09:59 12.04.2022
4261 Clear 5 1008 72 10000 1.54 230 08:53 12.04.2022
4262 Snow 1 1004 78 10000 1.54 210 07:21 12.04.2022
4263 Snow -1 1006 87 10000 1.03 0 05:42 12.04.2022
4264 Clear -1 1005 84 10000 1.54 230 02:53 12.04.2022
4265 Clear 1 1001 72 10000 2.57 250 23:25 11.04.2022
4266 Clear 3 999 69 10000 2.06 240 22:43 11.04.2022
4267 Clear 3 985 73 10000 2.57 270 21:35 11.04.2022
4268 Clear 4 984 71 10000 3.09 260 20:37 11.04.2022
4269 Clear 4 984 72 10000 3.09 260 20:19 11.04.2022
4270 Clear 5 996 61 10000 4.12 270 19:27 11.04.2022
4271 Clear 5 974 68 10000 4.12 270 18:56 11.04.2022
4272 Clear 6 995 55 10000 6.69 260 17:58 11.04.2022
4273 Clear 7 1010 51 10000 6.69 260 17:39 11.04.2022
4274 Clear 8 1009 51 10000 6.17 280 16:36 11.04.2022
4275 Clear 9 1008 49 10000 6.17 240 15:21 11.04.2022
4276 Clouds 8 996 56 10000 6.69 230 13:37 11.04.2022
4277 Clouds 8 1006 56 10000 6.69 220 12:40 11.04.2022
4278 Clouds 8 1007 56 10000 6.69 230 12:21 11.04.2022
4279 Clouds 6 990 67 10000 5.66 220 10:41 11.04.2022
4280 Clear 6 989 69 10000 4.63 220 09:57 11.04.2022
4281 Clear 4 992 79 10000 4.12 230 07:59 11.04.2022
4282 Clear 2 993 88 10000 5.66 200 04:56 11.04.2022
4283 Clear 2 1000 88 10000 7.72 200 23:55 10.04.2022
4284 Clouds 2 989 87 10000 6.17 200 22:27 10.04.2022
4285 Clouds 2 1000 87 10000 6.17 200 21:52 10.04.2022
4286 Clouds 2 999 87 10000 6.17 190 20:52 10.04.2022
4287 Clouds 2 999 86 10000 6.17 190 19:57 10.04.2022
4288 Clouds 3 998 83 10000 5.66 200 19:34 10.04.2022
4289 Clouds 3 998 79 10000 6.17 200 18:48 10.04.2022
4290 Clouds 3 997 78 10000 6.17 200 18:25 10.04.2022
4291 Clouds 4 996 75 10000 5.14 220 17:43 10.04.2022
4292 Clouds 5 996 72 10000 8.23 220 16:52 10.04.2022
4293 Clouds 5 995 77 10000 5.66 220 15:38 10.04.2022
4294 Clouds 4 986 81 7000 6.69 250 14:41 10.04.2022
4295 Clouds 4 983 81 10000 7.2 220 13:22 10.04.2022
4296 Clouds 3 984 85 10000 6.17 230 12:26 10.04.2022
4297 Clouds 3 984 86 10000 7.2 230 11:36 10.04.2022
4298 Clouds 3 983 86 10000 8.75 230 10:58 10.04.2022
4299 Clouds 2 977 88 10000 8.23 210 10:23 10.04.2022
4300 Clouds 3 983 89 10000 7.2 210 09:41 10.04.2022
4301 Snow 2 982 92 10000 3.6 170 08:26 10.04.2022
4302 Clouds 1 982 92 6000 5.14 180 07:53 10.04.2022
4303 Clouds 1 989 92 10000 5.14 180 06:48 10.04.2022
4304 Clouds 1 989 94 3000 8.05 321 03:36 10.04.2022
4305 Clouds 1 989 94 3000 8.05 321 03:36 10.04.2022
4306 Clouds 1 981 88 10000 8.23 160 01:30 10.04.2022
4307 Clouds 1 982 91 10000 6.17 150 23:53 09.04.2022
4308 Clouds 1 982 92 5000 7.2 180 22:52 09.04.2022
4309 Clouds 2 981 82 10000 7.2 180 21:51 09.04.2022
4310 Clouds 2 981 82 10000 5.66 160 20:58 09.04.2022
4311 Clouds 1 989 85 10000 4.12 150 20:26 09.04.2022
4312 Clouds 1 982 81 10000 4.12 150 19:43 09.04.2022
4313 Clouds 1 989 83 10000 6.17 160 19:21 09.04.2022
4314 Clouds 2 989 78 10000 5.66 180 18:22 09.04.2022
4315 Clouds 3 988 78 10000 5.66 190 17:42 09.04.2022
4316 Clouds 2 988 86 10000 5.66 200 16:55 09.04.2022
4317 Clouds 2 988 90 800 10.29 210 16:24 09.04.2022
4318 Clouds 3 980 78 10000 6.69 160 15:43 09.04.2022
4319 Clouds 4 979 74 10000 7.2 160 14:45 09.04.2022
4320 Clouds 4 979 75 10000 7.72 160 14:24 09.04.2022
4321 Clouds 4 979 72 10000 8.75 160 13:21 09.04.2022
4322 Clouds 4 977 70 10000 9.77 170 12:52 09.04.2022
4323 Clouds 4 985 77 10000 9.77 180 11:41 09.04.2022
4324 Clouds 2 977 87 10000 8.75 180 10:21 09.04.2022
4325 Clouds 2 977 90 700 8.75 230 09:52 09.04.2022
4326 Clouds 1 976 89 700 6.69 220 08:57 09.04.2022
4327 Clouds 0 975 92 10000 8.75 190 07:32 09.04.2022
4328 Clouds 1 972 92 10000 6.17 170 02:58 09.04.2022
4329 Clouds 1 981 90 10000 6.69 160 00:30 09.04.2022
4330 Clouds 2 973 80 10000 7.72 160 22:58 08.04.2022
4331 Clouds 2 973 85 10000 4.12 180 21:34 08.04.2022
4332 Clouds 2 971 86 10000 7.2 200 20:41 08.04.2022
4333 Clouds 2 972 86 10000 7.72 200 19:39 08.04.2022
4334 Clouds 2 978 87 10000 7.2 220 18:31 08.04.2022
4335 Clouds 3 978 90 10000 6.69 180 17:53 08.04.2022
4336 Clouds 4 970 91 8000 6.69 140 17:26 08.04.2022
4337 Clouds 4 969 92 10000 4.47 196 16:51 08.04.2022
4338 Clouds 5 969 91 10000 4.63 130 16:20 08.04.2022
4339 Clouds 5 969 92 10000 6.17 130 15:27 08.04.2022
4340 Clouds 6 976 88 10000 7.72 130 14:40 08.04.2022
4341 Clouds 6 976 86 10000 7.2 140 13:55 08.04.2022
4342 Clouds 6 975 89 10000 6.69 160 13:29 08.04.2022
4343 Clouds 5 975 91 10000 6.69 170 12:42 08.04.2022
4344 Clouds 3 968 95 10000 4.63 180 10:55 08.04.2022
4345 Clouds 3 968 95 10000 4.12 170 09:41 08.04.2022
4346 Clouds 3 967 95 10000 4.12 180 08:58 08.04.2022
4347 Rain 3 967 96 7000 8.23 120 07:38 08.04.2022
4348 Rain 4 972 94 7000 8.94 127 06:44 08.04.2022
4349 Rain 4 976 96 10000 7.72 90 02:27 08.04.2022
4350 Fog 3 980 95 700 5.36 105 00:28 08.04.2022
4351 Rain 2 981 94 4000 5.66 80 23:38 07.04.2022
4352 Mist 1 982 96 1500 5.66 80 22:40 07.04.2022
4353 Drizzle 1 982 93 5000 5.14 70 22:22 07.04.2022
4354 Clouds 1 983 92 5000 5.14 70 21:56 07.04.2022
4355 Rain 1 983 92 4000 5.14 70 21:19 07.04.2022
4356 Rain 1 984 92 7000 4.12 70 20:41 07.04.2022
4357 Clouds 2 984 87 10000 4.63 80 18:54 07.04.2022
4358 Clouds 2 985 86 10000 4.12 70 17:27 07.04.2022
4359 Clouds 1 977 86 10000 4.12 70 16:45 07.04.2022
4360 Clouds 2 985 85 10000 4.02 114 16:23 07.04.2022
4361 Clouds 2 985 85 10000 4.12 60 15:37 07.04.2022
4362 Clouds 2 978 83 5000 5.36 103 13:51 07.04.2022
4363 Snow 2 978 82 5000 4.63 70 13:22 07.04.2022
4364 Snow 1 978 81 10000 5.14 80 11:40 07.04.2022
4365 Snow 1 978 81 8000 6.17 70 10:27 07.04.2022
4366 Snow 0 979 84 7000 4.63 110 08:39 07.04.2022
4367 Clouds -1 980 83 10000 2.68 122 06:58 07.04.2022
4368 Clear -1 988 83 10000 3.6 140 03:59 07.04.2022
4369 Clear -1 988 83 10000 3.09 160 02:28 07.04.2022
4370 Clear 0 989 85 10000 3.6 180 00:42 07.04.2022
4371 Clear 0 989 85 10000 4.12 180 22:54 06.04.2022
4372 Clear 0 989 84 10000 5.14 190 22:54 06.04.2022
4373 Clear 0 989 83 10000 5.14 190 22:30 06.04.2022
4374 Clear 0 990 82 10000 6.17 190 21:45 06.04.2022
4375 Clear 0 989 76 10000 5.66 200 20:41 06.04.2022
4376 Clear 0 989 71 10000 6.17 200 19:59 06.04.2022
4377 Clear 1 989 63 10000 5.14 230 18:53 06.04.2022
4378 Clear 1 989 62 10000 5.14 230 18:34 06.04.2022
4379 Clouds 1 981 63 10000 5.14 230 17:35 06.04.2022
4380 Clouds 1 980 65 10000 7.2 230 16:39 06.04.2022
4381 Snow 1 980 64 10000 7.2 230 15:49 06.04.2022
4382 Clouds 1 978 65 10000 7.2 230 15:30 06.04.2022
4383 Clouds 0 978 70 10000 6.69 230 13:30 06.04.2022
4384 Clouds 0 976 73 10000 7.2 230 12:28 06.04.2022
4385 Clouds -1 975 71 10000 6.17 230 10:54 06.04.2022
4386 Clouds -1 975 71 10000 6.17 230 10:32 06.04.2022
4387 Clear -1 977 74 10000 5.66 230 09:42 06.04.2022
4388 Clear -2 976 78 10000 5.14 220 08:36 06.04.2022
4389 Clear -4 973 84 10000 4.63 220 07:56 06.04.2022
4390 Clear -5 972 90 10000 4.12 230 04:42 06.04.2022
4391 Clear -4 972 83 10000 6.69 240 23:57 05.04.2022
4392 Clear -4 981 83 10000 6.69 250 23:22 05.04.2022
4393 Clear -3 980 84 10000 8.75 260 21:31 05.04.2022
4394 Clouds -3 979 85 10000 9.77 260 20:44 05.04.2022
4395 Clouds -3 979 85 10000 10.29 270 20:19 05.04.2022
4396 Snow -3 975 89 1500 9.77 280 18:24 05.04.2022
4397 Snow -3 973 90 1700 9.77 280 17:20 05.04.2022
4398 Snow -2 972 89 1600 10.8 280 16:41 05.04.2022
4399 Snow -2 963 92 1000 10.29 280 15:49 05.04.2022
4400 Snow -1 962 92 1000 10.29 280 15:29 05.04.2022
4401 Snow 0 956 97 1000 5.81 262 13:42 05.04.2022
4402 Clouds 1 958 95 2000 5.66 130 11:51 05.04.2022
4403 Clouds 1 964 94 2000 5.66 130 11:33 05.04.2022
4404 Snow 1 959 95 1500 5.66 130 10:57 05.04.2022
4405 Snow 0 960 95 1000 7.72 120 09:29 05.04.2022
4406 Snow 0 961 96 1400 9.83 110 07:32 05.04.2022
4407 Snow 1 976 93 3000 8.23 150 02:43 05.04.2022
4408 Snow 1 980 94 4000 6.69 160 23:22 04.04.2022
4409 Snow 1 981 93 2500 7.2 180 22:32 04.04.2022
4410 Snow 1 982 93 4000 7.2 180 21:43 04.04.2022
4411 Snow 1 982 93 4000 6.69 170 21:18 04.04.2022
4412 Snow 1 983 93 4000 6.17 180 20:46 04.04.2022
4413 Snow 0 976 94 3000 6.17 170 19:27 04.04.2022
4414 Snow 1 977 93 4000 6.69 170 18:39 04.04.2022
4415 Snow 1 978 93 3500 7.2 170 17:19 04.04.2022
4416 Snow 1 979 93 5000 7.2 160 16:26 04.04.2022
4417 Snow 1 980 93 6000 8.23 160 15:33 04.04.2022
4418 Snow 1 980 91 4500 7.2 170 14:46 04.04.2022
4419 Snow 1 981 90 3500 5.66 170 13:58 04.04.2022
4420 Snow 2 980 86 8000 9.26 180 12:41 04.04.2022
4421 Snow 2 983 83 10000 8.75 180 11:29 04.04.2022
4422 Rain 2 991 86 10000 7.2 180 09:53 04.04.2022
4423 Clear 1 994 87 10000 4.63 180 05:34 04.04.2022
4424 Clouds 1 996 87 10000 3.09 180 02:51 04.04.2022
4425 Clouds 0 999 71 10000 2.57 220 22:54 03.04.2022
4426 Clouds 0 1000 69 10000 2.06 230 21:59 03.04.2022
4427 Clouds 1 1000 68 10000 2.06 230 21:25 03.04.2022
4428 Clouds 1 1000 62 10000 3.09 240 20:30 03.04.2022
4429 Clouds 2 1000 53 10000 4.12 250 18:46 03.04.2022
4430 Clouds 3 1000 53 10000 5.66 260 17:55 03.04.2022
4431 Clouds 4 1000 53 10000 3.6 280 17:35 03.04.2022
4432 Clear 4 992 51 10000 3.09 260 16:49 03.04.2022
4433 Clear 4 992 47 10000 3.6 270 15:46 03.04.2022
4434 Clear 4 993 45 10000 3.6 280 14:20 03.04.2022
4435 Clouds 4 994 48 10000 2.24 251 12:59 03.04.2022
4436 Clouds 3 994 58 10000 4.63 280 11:39 03.04.2022
4437 Clouds 1 995 74 10000 2.06 270 09:52 03.04.2022
4438 Clouds 0 1004 78 10000 3.09 280 08:57 03.04.2022
4439 Clouds -4 1005 82 10000 2.06 230 05:45 03.04.2022
4440 Clear -4 997 76 10000 3.6 240 02:55 03.04.2022
4441 Clear -3 1008 63 10000 2.57 240 23:35 02.04.2022
4442 Clear -2 1009 60 10000 1.79 264 22:44 02.04.2022
4443 Clear -2 1009 57 10000 2.24 265 21:56 02.04.2022
4444 Clear -1 1009 56 10000 2.57 270 21:20 02.04.2022
4445 Clear -1 1009 56 10000 2.57 270 20:36 02.04.2022
4446 Clear -3 982 50 10000 3.09 290 18:47 02.04.2022
4447 Clear 1 1010 50 10000 3.6 270 18:19 02.04.2022
4448 Clear 2 1010 51 10000 2.24 195 17:23 02.04.2022
4449 Clear 2 1011 49 10000 2.06 0 15:44 02.04.2022
4450 Clear 1 1003 49 10000 3.58 190 15:19 02.04.2022
4451 Clear 2 1003 48 10000 3.58 203 14:31 02.04.2022
4452 Clear 2 1002 45 10000 2.06 330 13:34 02.04.2022
4453 Clouds 2 1013 45 10000 3.09 340 12:21 02.04.2022
4454 Clouds 0 1006 51 10000 2.57 330 10:31 02.04.2022
4455 Clear -3 1014 65 10000 1.34 354 08:26 02.04.2022
4456 Clear -7 1015 77 10000 3.58 330 04:59 02.04.2022
4457 Clouds -5 1015 74 10000 2.24 322 02:37 02.04.2022
4458 Clear -4 1016 77 10000 2.24 331 23:54 01.04.2022
4459 Clear -3 1016 78 10000 2.06 0 22:51 01.04.2022
4460 Clear -2 1015 83 10000 1.03 0 21:24 01.04.2022
4461 Clouds -2 1014 77 10000 0.45 291 20:48 01.04.2022
4462 Clouds -1 1014 75 10000 1.54 230 19:46 01.04.2022
4463 Clouds -1 1014 72 10000 2.57 180 19:26 01.04.2022
4464 Clouds 0 1015 69 10000 2.57 180 18:38 01.04.2022
4465 Clouds 1 1015 67 10000 2.57 160 17:39 01.04.2022
4466 Clouds 2 1015 56 10000 3.09 320 16:24 01.04.2022
4467 Clouds 2 1015 53 10000 2.57 360 14:56 01.04.2022
4468 Clouds 2 1017 55 10000 2.57 330 13:56 01.04.2022
4469 Clouds 3 1016 51 10000 0.89 212 13:31 01.04.2022
4470 Snow 1 1008 56 10000 2.68 92 12:26 01.04.2022
4471 Clouds 1 1008 61 10000 2.06 40 10:52 01.04.2022
4472 Clouds 0 1016 66 10000 2.57 60 09:41 01.04.2022
4473 Clear -4 1015 81 10000 1.34 309 07:41 01.04.2022
4474 Clear -7 1014 87 10000 2.24 320 05:45 01.04.2022
4475 Clear -7 1014 87 10000 2.68 331 04:43 01.04.2022
4476 Clear -6 1014 87 10000 2.68 328 03:19 01.04.2022
4477 Clear -4 1013 84 10000 1.79 308 01:51 01.04.2022
4478 Clear -2 1012 84 10000 1.54 320 22:34 31.03.2022
4479 Clear -1 1011 78 10000 1.54 220 21:44 31.03.2022
4480 Clear -1 1011 83 10000 2.06 250 20:51 31.03.2022
4481 Clear -2 1010 80 10000 2.06 250 20:51 31.03.2022
4482 Clear -1 1011 83 10000 3.6 210 20:28 31.03.2022
4483 Snow -1 1011 80 10000 3.6 200 19:43 31.03.2022
4484 Clouds 1 1010 63 10000 3.09 340 18:34 31.03.2022
4485 Clouds 2 1010 61 10000 2.24 240 16:53 31.03.2022
4486 Clouds 2 1009 58 10000 3.6 360 15:58 31.03.2022
4487 Clouds 2 1009 57 10000 3.09 270 15:29 31.03.2022
4488 Clouds 2 1009 57 10000 2.06 250 14:49 31.03.2022
4489 Snow 2 1009 56 10000 1.34 350 13:53 31.03.2022
4490 Clouds 0 997 66 10000 3.6 270 11:31 31.03.2022
4491 Clouds -1 999 69 10000 2.57 270 10:27 31.03.2022
4492 Clear -2 997 73 10000 1.54 260 09:40 31.03.2022
4493 Clouds -6 995 84 10000 2.06 280 07:49 31.03.2022
4494 Clear -7 996 91 10000 2.06 300 03:48 31.03.2022
4495 Clear -5 992 85 10000 2.57 260 23:25 30.03.2022
4496 Clear -4 994 85 10000 2.57 270 22:19 30.03.2022
4497 Clouds -3 1002 83 10000 3.6 280 21:31 30.03.2022
4498 Clouds -2 1002 83 10000 2.57 280 20:44 30.03.2022
4499 Clouds -2 1002 77 10000 3.6 270 19:54 30.03.2022
4500 Clouds -1 1001 77 10000 4.12 280 18:44 30.03.2022
4501 Clouds 0 1001 72 10000 3.6 260 17:52 30.03.2022
4502 Clouds -1 992 71 7000 5.14 290 17:29 30.03.2022
4503 Clouds 0 1001 72 10000 4.12 280 16:41 30.03.2022
4504 Clouds 0 1000 72 10000 2.57 200 16:18 30.03.2022
4505 Clouds 0 1000 73 4500 4.12 270 14:42 30.03.2022
4506 Snow 0 991 68 10000 5.14 300 13:23 30.03.2022
4507 Clouds 1 1000 59 9000 5.14 330 12:32 30.03.2022
4508 Clouds 0 1000 68 10000 4.12 250 10:48 30.03.2022
4509 Clouds -1 1000 68 10000 5.14 270 09:58 30.03.2022
4510 Clouds -4 991 78 10000 4.12 280 08:27 30.03.2022
4511 Clear -5 991 80 10000 4.63 260 07:28 30.03.2022
4512 Clear -7 1000 72 10000 3.6 260 05:40 30.03.2022
4513 Clear -6 1001 74 10000 4.12 250 02:40 30.03.2022
4514 Clear -5 992 67 10000 3.6 270 22:43 29.03.2022
4515 Clear -5 992 65 10000 3.09 260 21:52 29.03.2022
4516 Clear -5 992 64 10000 3.09 260 21:34 29.03.2022
4517 Clouds -3 1001 53 10000 3.09 280 20:26 29.03.2022
4518 Clouds -3 1001 51 10000 3.09 280 19:34 29.03.2022
4519 Clear -2 1001 48 10000 4.63 300 18:53 29.03.2022
4520 Clouds -2 1001 47 10000 5.14 280 17:52 29.03.2022
4521 Clouds -1 1001 47 10000 5.66 310 17:18 29.03.2022
4522 Clouds -1 1001 46 10000 5.66 310 16:53 29.03.2022
4523 Clouds -1 1002 44 10000 3.6 290 15:40 29.03.2022
4524 Clouds -1 993 45 10000 4.02 326 14:43 29.03.2022
4525 Clear -2 993 48 10000 4.12 330 13:35 29.03.2022
4526 Clouds -2 993 51 10000 4.12 330 12:22 29.03.2022
4527 Clouds -3 993 55 10000 4.63 340 11:18 29.03.2022
4528 Clouds -3 1001 60 10000 4.12 330 09:58 29.03.2022
4529 Clouds -4 1001 68 10000 3.6 350 08:44 29.03.2022
4530 Clouds -5 1001 78 10000 2.24 340 06:48 29.03.2022
4531 Clouds -3 999 64 10000 4.12 20 02:27 29.03.2022
4532 Clouds -2 997 65 10000 6.17 10 23:26 28.03.2022
4533 Clouds -2 997 65 10000 6.69 350 22:57 28.03.2022
4534 Clouds -2 997 65 10000 6.17 350 22:31 28.03.2022
4535 Clouds -2 996 67 10000 7.2 360 21:38 28.03.2022
4536 Clouds -1 994 75 10000 6.69 10 20:35 28.03.2022
4537 Clouds 0 993 79 10000 6.69 10 19:48 28.03.2022
4538 Clouds 1 993 79 8000 6.17 350 19:30 28.03.2022
4539 Clouds 1 992 88 5000 5.36 343 18:50 28.03.2022
4540 Clouds 4 991 78 10000 6.17 300 17:41 28.03.2022
4541 Clouds 5 990 67 10000 6.69 280 16:48 28.03.2022
4542 Clouds 5 989 61 10000 9.26 280 14:56 28.03.2022
4543 Clouds 6 989 59 10000 8.23 280 14:23 28.03.2022
4544 Rain 6 989 59 10000 9.26 280 13:19 28.03.2022
4545 Clouds 6 989 58 10000 9.77 300 11:52 28.03.2022
4546 Clouds 5 989 67 10000 8.23 290 09:55 28.03.2022
4547 Clouds 5 989 71 10000 7.2 280 09:21 28.03.2022
4548 Clouds 4 990 75 10000 7.72 290 08:24 28.03.2022
4549 Clouds 4 990 79 10000 8.23 290 07:59 28.03.2022
4550 Clouds 4 991 86 10000 5.66 270 06:31 28.03.2022
4551 Clouds 1 1000 92 10000 6.17 210 00:30 28.03.2022
4552 Snow -1 1005 91 700 6.17 170 22:35 27.03.2022
4553 Snow -2 1008 89 1000 7.2 170 21:43 27.03.2022
4554 Snow -2 1009 88 4000 7.2 160 21:18 27.03.2022
4555 Snow -2 1011 86 2000 5.66 170 20:21 27.03.2022
4556 Snow -3 1004 77 2500 4.12 180 19:36 27.03.2022
4557 Snow -3 1003 69 4000 6.17 210 18:42 27.03.2022
4558 Snow -2 1005 59 10000 5.14 220 18:23 27.03.2022
4559 Snow -1 1005 50 10000 5.66 210 17:35 27.03.2022
4560 Clear 1 1019 41 10000 3.6 230 15:47 27.03.2022
4561 Clear 0 1012 42 10000 4.63 270 13:57 27.03.2022
4562 Clear 0 1022 44 10000 5.14 270 12:58 27.03.2022
4563 Clear -2 1013 47 10000 5.66 290 11:30 27.03.2022
4564 Clear -3 1014 53 10000 4.12 310 09:37 27.03.2022
4565 Clear -5 1023 54 10000 4.63 310 06:58 27.03.2022
4566 Clear -4 1022 57 10000 7.2 330 03:39 27.03.2022
4567 Clear -3 1020 59 10000 6.17 330 00:25 27.03.2022
4568 Clouds -2 1019 56 10000 7.2 340 22:45 26.03.2022
4569 Clouds -2 1019 57 10000 10.29 340 21:54 26.03.2022
4570 Clouds -2 1018 58 10000 9.26 340 21:29 26.03.2022
4571 Clouds -2 1016 63 10000 9.77 330 19:32 26.03.2022
4572 Clouds -1 1014 69 10000 10.29 330 18:40 26.03.2022
4573 Clouds 0 1013 61 10000 10.29 330 17:34 26.03.2022
4574 Clouds 0 1013 61 10000 10.29 330 17:34 26.03.2022
4575 Snow 0 1011 63 10000 10.8 330 16:33 26.03.2022
4576 Snow 0 1010 67 10000 11.32 330 15:37 26.03.2022
4577 Snow 1 1006 63 10000 14.4 330 13:55 26.03.2022
4578 Snow 1 1005 64 10000 10.8 330 13:19 26.03.2022
4579 Clouds 1 1002 62 10000 12.86 320 11:42 26.03.2022
4580 Rain 2 1000 61 10000 13.89 330 10:44 26.03.2022
4581 Clouds 3 997 72 10000 12.35 320 08:46 26.03.2022
4582 Snow 2 996 79 10000 9.77 300 06:37 26.03.2022
4583 Clouds 2 996 79 10000 8.23 280 05:29 26.03.2022
4584 Clear 4 998 61 10000 8.23 280 00:54 26.03.2022
4585 Clear 6 1000 71 10000 6.17 260 21:58 25.03.2022
4586 Clear 5 991 81 10000 5.14 220 20:47 25.03.2022
4587 Rain 5 991 82 10000 5.14 220 20:24 25.03.2022
4588 Rain 6 1004 79 10000 4.63 250 18:59 25.03.2022
4589 Clear 6 1005 75 10000 5.14 250 17:53 25.03.2022
4590 Clear 6 1005 75 10000 5.14 250 17:27 25.03.2022
4591 Clouds 7 1006 76 10000 6.17 220 16:21 25.03.2022
4592 Clouds 6 1006 78 10000 3.09 190 14:54 25.03.2022
4593 Clouds 6 1008 81 10000 3.09 200 13:26 25.03.2022
4594 Rain 4 1011 84 10000 3.6 180 10:35 25.03.2022
4595 Clear 4 1013 85 10000 4.63 200 09:28 25.03.2022
4596 Clear 4 1013 88 10000 3.09 180 08:36 25.03.2022
4597 Clear 4 1014 90 10000 3.09 180 07:30 25.03.2022
4598 Clear 3 1015 93 10000 1.54 140 06:29 25.03.2022
4599 Snow 0 1002 86 10000 1.54 240 01:57 25.03.2022
4600 Clouds 0 995 90 10000 1.54 200 22:56 24.03.2022
4601 Clouds 2 1003 87 10000 0.45 86 21:52 24.03.2022
4602 Clouds 5 1020 81 10000 1.03 290 20:45 24.03.2022
4603 Clear 2 994 90 10000 2.06 270 19:48 24.03.2022
4604 Clear 4 1005 81 10000 3.09 260 18:22 24.03.2022
4605 Clouds 7 1019 73 10000 3.09 270 17:29 24.03.2022
4606 Clouds 8 1004 66 10000 4.12 300 15:52 24.03.2022
4607 Clear 8 1004 66 10000 4.12 290 14:51 24.03.2022
4608 Clear 8 1003 64 10000 4.12 280 14:20 24.03.2022
4609 Clear 9 1003 61 10000 6.17 280 13:26 24.03.2022
4610 Clear 8 1002 63 10000 4.63 270 11:59 24.03.2022
4611 Clear 7 1002 69 10000 4.63 270 10:28 24.03.2022
4612 Clear 5 1006 69 10000 3.6 270 09:22 24.03.2022
4613 Clear 3 1007 81 10000 3.09 260 07:39 24.03.2022
4614 Clear -1 1009 87 10000 3.09 250 04:34 24.03.2022
4615 Clear -1 1009 82 10000 2.57 270 23:21 23.03.2022
4616 Clear 0 1009 82 10000 3.6 290 21:53 23.03.2022
4617 Clear 0 1012 80 10000 3.09 290 21:20 23.03.2022
4618 Clear 1 1010 77 10000 3.6 290 19:46 23.03.2022
4619 Clear 1 1010 77 10000 3.6 290 19:25 23.03.2022
4620 Clear 3 1007 73 10000 3.09 280 17:39 23.03.2022
4621 Clear 5 1022 66 10000 2.57 300 16:53 23.03.2022
4622 Clouds 6 1012 62 10000 3.6 270 14:57 23.03.2022
4623 Clouds 6 1012 62 10000 3.6 270 14:38 23.03.2022
4624 Clouds 6 1011 63 10000 3.09 300 13:22 23.03.2022
4625 Clouds 4 1012 74 10000 1.54 190 10:20 23.03.2022
4626 Mist 0 1013 86 4500 2.06 230 07:44 23.03.2022
4627 Mist -1 1022 91 2000 2.57 220 05:27 23.03.2022
4628 Clear 0 1025 85 10000 2.06 210 01:18 23.03.2022
4629 Clear 1 1026 81 10000 3.6 190 00:23 23.03.2022
4630 Clear 0 1017 74 10000 4.12 210 21:31 22.03.2022
4631 Clear 0 1011 73 10000 3.6 210 20:51 22.03.2022
4632 Clear 0 1011 71 10000 3.09 210 19:56 22.03.2022
4633 Clear 1 1016 70 10000 2.57 210 19:25 22.03.2022
4634 Clear 1 1002 67 10000 3.09 200 18:45 22.03.2022
4635 Clear 5 1031 48 10000 4.12 220 17:42 22.03.2022
4636 Clear 6 1032 49 10000 4.12 230 16:32 22.03.2022
4637 Clear 7 1032 52 10000 4.12 220 15:23 22.03.2022
4638 Clear 7 1033 49 10000 4.12 220 14:59 22.03.2022
4639 Clear 7 1033 51 10000 5.14 230 14:41 22.03.2022
4640 Clear 8 1032 51 10000 4.12 230 13:36 22.03.2022
4641 Clear 7 1024 55 10000 4.12 220 11:52 22.03.2022
4642 Clear 6 1025 62 10000 4.12 210 10:51 22.03.2022
4643 Clear 3 1023 73 10000 2.57 220 08:40 22.03.2022
4644 Clear -1 1023 81 10000 2.06 210 06:58 22.03.2022
4645 Clear -2 1026 86 10000 1.54 230 03:54 22.03.2022
4646 Clear 0 1020 79 10000 1.34 272 00:34 22.03.2022
4647 Clear 0 1036 79 10000 3.6 270 22:42 21.03.2022
4648 Clear 2 1003 68 10000 4.12 250 21:20 21.03.2022
4649 Clear 2 1036 77 10000 3.6 250 20:42 21.03.2022
4650 Clear 3 1037 76 10000 3.6 240 19:59 21.03.2022
4651 Clear 4 1036 73 10000 3.6 240 19:35 21.03.2022
4652 Clear 5 1036 52 10000 4.12 220 18:46 21.03.2022
4653 Clear 7 1036 45 10000 3.09 240 17:32 21.03.2022
4654 Clear 9 1037 40 10000 4.12 260 16:53 21.03.2022
4655 Clear 8 1037 42 10000 3.6 230 16:24 21.03.2022
4656 Clear 10 1037 29 10000 3.6 220 15:21 21.03.2022
4657 Clear 10 1038 25 10000 5.14 240 14:28 21.03.2022
4658 Clear 9 1038 31 10000 2.57 240 12:53 21.03.2022
4659 Clear 10 1039 29 10000 4.12 290 11:54 21.03.2022
4660 Clear 9 1039 43 10000 3.09 290 10:49 21.03.2022
4661 Clear 6 1039 59 10000 1.54 270 09:21 21.03.2022
4662 Clear 2 1015 80 10000 2.57 280 07:22 21.03.2022
4663 Clear -1 1029 84 10000 2.24 285 04:54 21.03.2022
4664 Clear 0 1024 79 10000 1.54 310 00:36 21.03.2022
4665 Clear 2 1025 77 10000 2.57 280 22:56 20.03.2022
4666 Clear 2 1025 75 10000 1.54 260 22:22 20.03.2022
4667 Clear 2 1025 77 10000 2.57 290 21:31 20.03.2022
4668 Clear 2 1025 75 10000 2.06 280 20:48 20.03.2022
4669 Clear 3 1025 72 10000 2.57 280 20:25 20.03.2022
4670 Clear 4 1017 75 10000 3.6 290 19:43 20.03.2022
4671 Clear 4 1017 71 10000 3.6 280 18:48 20.03.2022
4672 Clear 10 1040 43 10000 3.6 270 17:38 20.03.2022
4673 Clear 13 1040 35 10000 2.57 270 16:59 20.03.2022
4674 Clear 13 1041 38 10000 2.06 270 15:57 20.03.2022
4675 Clear 11 1041 54 10000 2.57 260 14:37 20.03.2022
4676 Clear 11 1042 51 10000 2.06 270 13:31 20.03.2022
4677 Clear 9 1042 56 10000 2.06 280 11:51 20.03.2022
4678 Clear 7 1042 60 10000 2.57 300 09:58 20.03.2022
4679 Clear 5 1029 69 10000 4.12 300 08:19 20.03.2022
4680 Clear -1 1031 88 10000 1.34 303 05:49 20.03.2022
4681 Clear -1 1031 87 10000 2.57 270 03:18 20.03.2022
4682 Clear 0 1032 81 10000 3.09 230 00:51 20.03.2022
4683 Clear 0 1032 81 10000 3.09 230 23:35 19.03.2022
4684 Clear 0 1042 80 10000 3.13 257 21:58 19.03.2022
4685 Clear 1 1032 77 10000 3.09 230 21:25 19.03.2022
4686 Clear 1 1043 79 10000 4.63 230 19:22 19.03.2022
4687 Clear 2 1043 80 10000 4.63 220 18:30 19.03.2022
4688 Clear 2 1043 79 10000 5.14 220 17:45 19.03.2022
4689 Clear 3 1043 75 10000 4.12 220 16:45 19.03.2022
4690 Clear 5 1043 71 10000 4.12 200 15:22 19.03.2022
4691 Clear 6 1035 64 10000 3.09 210 13:40 19.03.2022
4692 Clouds 6 1036 68 10000 3.09 210 12:42 19.03.2022
4693 Clouds 6 1036 70 10000 3.09 210 12:19 19.03.2022
4694 Clouds 5 1036 72 10000 2.57 200 11:42 19.03.2022
4695 Clouds 3 1036 84 10000 1.54 290 08:57 19.03.2022
4696 Clouds 2 1033 87 9000 4.63 350 04:42 19.03.2022
4697 Clouds 2 1032 87 7000 2.06 280 02:32 19.03.2022
4698 Mist 2 1028 86 3000 1.03 220 23:50 18.03.2022
4699 Mist 2 1029 86 3000 2.06 230 22:43 18.03.2022
4700 Mist 2 1029 85 3000 3.09 230 22:20 18.03.2022
4701 Clouds 3 1029 84 7000 5.14 220 20:25 18.03.2022
4702 Clouds 3 1029 83 7000 5.14 220 20:25 18.03.2022
4703 Clouds 3 1028 81 9000 5.14 210 19:24 18.03.2022
4704 Clouds 3 1028 77 10000 5.14 210 18:35 18.03.2022
4705 Clouds 4 1025 72 10000 5.14 210 16:53 18.03.2022
4706 Clouds 4 1027 71 10000 6.17 200 16:18 18.03.2022
4707 Clouds 5 1027 62 10000 4.63 180 14:26 18.03.2022
4708 Clear 5 1028 59 10000 7.72 180 13:36 18.03.2022
4709 Clear 4 1036 64 10000 6.69 170 11:29 18.03.2022
4710 Clear 3 1028 61 10000 5.66 180 09:52 18.03.2022
4711 Clear 2 1029 65 10000 4.63 160 08:45 18.03.2022
4712 Clear 0 1037 69 10000 4.12 160 06:45 18.03.2022
4713 Clear 0 1037 69 10000 4.12 160 06:45 18.03.2022
4714 Clear 0 1037 69 10000 5.14 180 04:39 18.03.2022
4715 Clear 0 1038 76 10000 4.12 150 00:55 18.03.2022
4716 Clear -1 1038 80 10000 3.09 160 23:52 17.03.2022
4717 Clear -1 1038 80 10000 3.09 160 23:52 17.03.2022
4718 Clear -1 1038 80 10000 3.09 160 23:52 17.03.2022
4719 Clear -1 1038 80 10000 3.09 160 23:52 17.03.2022
4720 Clear 0 1038 79 10000 2.06 120 22:44 17.03.2022
4721 Clear -1 1038 80 10000 2.06 110 22:18 17.03.2022
4722 Clear -1 1030 83 10000 1.03 0 21:27 17.03.2022
4723 Clear 0 1038 78 10000 1.54 110 20:52 17.03.2022
4724 Clear 0 1038 77 10000 1.54 120 20:18 17.03.2022
4725 Clear 0 1038 74 10000 1.54 120 19:37 17.03.2022
4726 Clear 1 1027 72 10000 3.6 130 18:51 17.03.2022
4727 Clear 2 1023 68 10000 3.6 140 17:28 17.03.2022
4728 Clear 5 1037 53 10000 3.09 150 16:19 17.03.2022
4729 Clear 5 1037 53 10000 3.09 150 16:19 17.03.2022
4730 Clear 5 1038 54 10000 3.09 160 15:42 17.03.2022
4731 Clear 5 1037 53 10000 2.57 160 14:58 17.03.2022
4732 Clear 6 1038 59 10000 4.12 150 13:28 17.03.2022
4733 Clear 6 1038 57 10000 3.6 150 12:38 17.03.2022
4734 Clear 5 1038 62 10000 2.57 140 11:31 17.03.2022
4735 Clear 5 1039 64 10000 1.54 140 10:41 17.03.2022
4736 Clear 2 1038 74 10000 1.03 90 08:46 17.03.2022
4737 Clear 1 1038 73 10000 0.51 0 08:18 17.03.2022
4738 Clear -4 1037 88 10000 1.54 50 05:49 17.03.2022
4739 Clear -5 1036 82 10000 1.03 0 04:24 17.03.2022
4740 Clear -4 1035 82 10000 1.54 40 00:24 17.03.2022
4741 Clear -3 1035 81 10000 1.54 40 22:52 16.03.2022
4742 Clear -3 1035 80 10000 1.54 40 22:33 16.03.2022
4743 Clear -3 1025 81 10000 1.54 60 21:55 16.03.2022
4744 Clear -3 1015 83 10000 1.54 80 20:40 16.03.2022
4745 Clear -1 1020 74 10000 1.54 110 19:23 16.03.2022
4746 Clear -1 1014 73 10000 1.03 100 18:42 16.03.2022
4747 Clear -1 1001 83 10000 3.09 130 17:45 16.03.2022
4748 Clear 1 1001 74 10000 2.57 140 17:27 16.03.2022
4749 Clear 5 1034 45 10000 3.6 140 15:56 16.03.2022
4750 Clear 5 1034 52 10000 2.06 140 14:38 16.03.2022
4751 Clear 5 1011 58 10000 3.09 150 13:35 16.03.2022
4752 Clear 5 1019 53 10000 3.6 140 12:18 16.03.2022
4753 Clear 4 1024 56 10000 3.09 150 11:23 16.03.2022
4754 Clear 4 1024 57 10000 3.13 124 10:28 16.03.2022
4755 Clear 3 1024 64 10000 2.24 124 09:55 16.03.2022
4756 Clear -3 1029 92 10000 2.57 60 06:47 16.03.2022
4757 Clear -4 1028 83 10000 1.54 40 02:29 16.03.2022
4758 Clear -2 1028 82 10000 1.54 50 22:54 15.03.2022
4759 Clear -3 1028 84 10000 1.54 40 22:33 15.03.2022
4760 Clear -3 1028 84 10000 1.54 40 22:33 15.03.2022
4761 Clear -2 1018 85 10000 1.03 0 20:42 15.03.2022
4762 Clear -1 1014 81 10000 1.03 120 19:27 15.03.2022
4763 Clear 0 1007 82 10000 2.06 160 17:35 15.03.2022
4764 Clear 3 1012 66 10000 2.06 140 16:34 15.03.2022
4765 Clear 5 1020 62 10000 1.54 170 15:26 15.03.2022
4766 Clear 4 1012 65 10000 2.06 160 14:46 15.03.2022
4767 Clear 6 1020 62 10000 0.89 125 13:55 15.03.2022
4768 Clear 6 1021 62 10000 1.03 190 12:46 15.03.2022
4769 Clear 5 1021 61 10000 1.03 210 11:32 15.03.2022
4770 Clear 2 1019 67 10000 1.03 260 09:54 15.03.2022
4771 Clear 2 1029 70 10000 0.89 335 08:49 15.03.2022
4772 Clear -1 1029 70 10000 2.06 250 07:52 15.03.2022
4773 Clear -2 1029 74 10000 2.06 250 07:34 15.03.2022
4774 Clear -6 1030 75 10000 1.03 230 04:20 15.03.2022
4775 Clear -5 1008 78 10000 1.03 250 23:57 14.03.2022
4776 Clear -5 1008 75 10000 1.03 240 23:24 14.03.2022
4777 Clear -4 1008 72 10000 1.03 240 22:30 14.03.2022
4778 Clouds -3 994 77 10000 2.29 288 21:35 14.03.2022
4779 Clear -3 1007 70 10000 2.57 280 20:54 14.03.2022
4780 Clear -2 1007 71 10000 2.57 250 20:20 14.03.2022
4781 Clear -1 1007 65 10000 2.06 250 18:55 14.03.2022
4782 Clear 2 1007 58 10000 2.06 260 17:55 14.03.2022
4783 Clear 1 993 67 10000 2.06 270 17:23 14.03.2022
4784 Clear 10 1030 17 10000 3.09 280 16:18 14.03.2022
4785 Clear 10 1030 18 10000 2.06 250 14:41 14.03.2022
4786 Clear 7 1030 48 10000 2.57 280 12:51 14.03.2022
4787 Clear 5 1014 45 10000 1.34 236 10:54 14.03.2022
4788 Clear 4 1018 50 10000 2.06 250 09:55 14.03.2022
4789 Clear 3 1018 54 10000 1.79 199 09:22 14.03.2022
4790 Clear 1 1015 61 10000 1.54 250 08:56 14.03.2022
4791 Clear 0 1028 60 10000 1.03 280 07:34 14.03.2022
4792 Clear -4 1028 74 10000 1.54 280 05:46 14.03.2022
4793 Clear -4 1014 77 10000 2.06 300 01:55 14.03.2022
4794 Clear -3 1029 70 10000 3.6 310 01:28 14.03.2022
4795 Clear -3 1014 77 10000 3.6 290 22:52 13.03.2022
4796 Clear -2 1013 75 10000 3.09 290 21:31 13.03.2022
4797 Clear -2 1013 75 10000 3.09 290 20:56 13.03.2022
4798 Clouds -1 1008 78 10000 2.52 303 20:31 13.03.2022
4799 Clear -1 1013 73 10000 3.6 270 19:59 13.03.2022
4800 Clear 0 1013 71 10000 3.09 270 19:37 13.03.2022
4801 Clear 0 1005 73 10000 3.09 270 19:18 13.03.2022
4802 Clouds 0 991 79 10000 0.45 235 18:35 13.03.2022
4803 Clear 0 991 83 10000 3.09 260 17:46 13.03.2022
4804 Clear 2 991 81 10000 3.09 260 17:19 13.03.2022
4805 Clear 5 1026 83 10000 2.57 260 16:30 13.03.2022
4806 Clear 3 1024 71 10000 3.09 260 15:47 13.03.2022
4807 Clear 4 1025 71 10000 3.09 280 14:56 13.03.2022
4808 Clear 5 1025 70 10000 2.06 210 13:45 13.03.2022
4809 Clear 4 1025 60 10000 2.06 200 12:55 13.03.2022
4810 Clear 4 1026 63 10000 1.03 200 11:52 13.03.2022
4811 Clear 4 1026 65 10000 1.03 200 11:32 13.03.2022
4812 Clear 3 1026 66 10000 2.06 210 10:47 13.03.2022
4813 Clear 2 1026 72 10000 1.03 240 10:22 13.03.2022
4814 Clear 0 1026 83 10000 2.06 220 09:40 13.03.2022
4815 Clouds 0 1016 80 10000 0.45 182 08:45 13.03.2022
4816 Clear -3 1017 85 10000 1.03 280 07:41 13.03.2022
4817 Fog -5 1017 88 10000 0.89 230 05:40 13.03.2022
4818 Fog -4 1015 89 10000 1.03 240 02:39 13.03.2022
4819 Clear -3 1015 89 10000 0.51 0 23:56 12.03.2022
4820 Clear -2 1015 88 10000 1.03 200 22:27 12.03.2022
4821 Clear -1 1015 84 10000 1.54 220 20:34 12.03.2022
4822 Clear 0 1015 81 10000 1.54 230 19:47 12.03.2022
4823 Clear 0 1004 83 10000 1.54 200 18:58 12.03.2022
4824 Clear 1 1004 79 10000 1.54 180 18:22 12.03.2022
4825 Clear 3 1004 85 10000 3.09 190 17:23 12.03.2022
4826 Clear 4 1025 75 10000 4.12 190 16:23 12.03.2022
4827 Clear 4 1025 75 10000 4.12 190 16:23 12.03.2022
4828 Clear 5 1017 70 10000 1.34 133 15:22 12.03.2022
4829 Clear 5 1026 66 10000 1.03 210 14:27 12.03.2022
4830 Clear 6 1026 65 10000 1.34 172 12:45 12.03.2022
4831 Clear 5 1018 71 10000 1.34 121 11:56 12.03.2022
4832 Clear 5 1018 70 10000 1.79 278 11:34 12.03.2022
4833 Clear 4 1018 72 10000 1.79 273 10:52 12.03.2022
4834 Clear 3 1018 76 10000 1.03 0 09:44 12.03.2022
4835 Clear 1 1018 79 10000 0.45 331 08:53 12.03.2022
4836 Fog -2 1018 89 10000 2.24 334 07:19 12.03.2022
4837 Clear -2 1015 90 10000 1.54 240 02:34 12.03.2022
4838 Clear -1 1011 87 10000 2.06 280 23:52 11.03.2022
4839 Clear -1 1018 87 10000 3.09 270 22:52 11.03.2022
4840 Clouds 0 1017 85 10000 2.57 240 21:35 11.03.2022
4841 Clouds 0 1018 84 10000 2.57 280 20:54 11.03.2022
4842 Clouds 0 1018 83 10000 2.57 290 20:28 11.03.2022
4843 Clouds 0 1017 82 10000 4.12 300 19:42 11.03.2022
4844 Clouds 1 1018 82 10000 4.63 290 18:51 11.03.2022
4845 Clouds 2 1027 78 10000 4.12 290 17:28 11.03.2022
4846 Clouds 2 1018 75 10000 4.63 290 16:27 11.03.2022
4847 Clouds 3 1018 76 10000 5.14 310 15:52 11.03.2022
4848 Clouds 4 1017 71 10000 5.66 290 14:19 11.03.2022
4849 Clouds 4 1019 73 10000 0.89 238 12:43 11.03.2022
4850 Clouds 4 1018 73 10000 4.12 290 12:20 11.03.2022
4851 Clouds 3 1018 75 10000 5.14 260 11:40 11.03.2022
4852 Clouds 2 1019 83 10000 5.66 250 09:37 11.03.2022
4853 Clouds 1 1019 84 10000 5.14 240 08:29 11.03.2022
4854 Clouds 0 1019 85 10000 4.63 250 07:48 11.03.2022
4855 Clouds 0 1019 85 10000 4.12 250 06:59 11.03.2022
4856 Clouds 0 1020 84 10000 4.12 240 05:20 11.03.2022
4857 Clouds 0 1030 81 10000 4.63 230 02:45 11.03.2022
4858 Clouds 0 1022 84 10000 6.17 230 22:51 10.03.2022
4859 Clouds 0 1023 83 10000 6.17 230 22:27 10.03.2022
4860 Clouds 0 1023 82 10000 6.17 230 21:26 10.03.2022
4861 Clouds 0 1023 81 10000 5.14 220 20:39 10.03.2022
4862 Clouds 0 1024 80 10000 6.17 220 19:22 10.03.2022
4863 Clouds 0 1024 79 10000 5.66 220 18:19 10.03.2022
4864 Clouds 0 1034 75 10000 6.17 220 16:53 10.03.2022
4865 Clouds 0 1025 75 10000 6.69 210 15:36 10.03.2022
4866 Clouds 1 1026 72 10000 5.14 220 14:19 10.03.2022
4867 Clouds 1 1035 70 10000 5.66 210 12:43 10.03.2022
4868 Clouds 1 1036 74 10000 5.66 210 11:33 10.03.2022
4869 Rain -1 1036 76 10000 5.66 210 09:54 10.03.2022
4870 Clear -3 1028 73 10000 4.63 210 08:39 10.03.2022
4871 Clear -5 1036 71 10000 4.63 200 05:48 10.03.2022
4872 Clear -7 1037 73 10000 1.34 213 03:22 10.03.2022
4873 Clear -7 1036 82 10000 1.54 100 00:22 10.03.2022
4874 Clear -6 1035 85 10000 1.54 90 22:32 09.03.2022
4875 Clear -6 1034 83 10000 2.06 70 21:47 09.03.2022
4876 Clear -6 1035 80 10000 1.03 100 20:50 09.03.2022
4877 Clear -6 1034 77 10000 2.24 125 18:58 09.03.2022
4878 Clear -3 1034 70 10000 2.68 104 17:28 09.03.2022
4879 Clear -3 1023 71 10000 3.6 110 16:45 09.03.2022
4880 Clear -2 1023 68 10000 0.45 226 15:41 09.03.2022
4881 Clear -2 1023 70 10000 4.47 110 14:24 09.03.2022
4882 Clouds -2 1022 68 10000 5.14 120 13:38 09.03.2022
4883 Clouds -2 1022 76 10000 5.66 120 12:20 09.03.2022
4884 Clouds -2 1021 79 10000 6.26 103 11:46 09.03.2022
4885 Clouds -3 1021 85 10000 4.47 74 10:54 09.03.2022
4886 Clouds -3 1029 91 10000 4.47 87 09:25 09.03.2022
4887 Clouds -3 1029 94 10000 4.12 50 08:43 09.03.2022
4888 Clouds -3 1025 89 4500 3.6 50 05:36 09.03.2022
4889 Clouds -3 1022 87 10000 3.6 50 00:58 09.03.2022
4890 Clouds -3 1021 89 10000 2.68 67 23:46 08.03.2022
4891 Clouds -3 1021 86 10000 2.06 50 22:45 08.03.2022
4892 Clouds -2 1021 87 10000 2.06 70 21:46 08.03.2022
4893 Clouds -2 1020 87 7000 2.57 80 21:19 08.03.2022
4894 Clouds -2 1020 87 10000 3.09 90 20:18 08.03.2022
4895 Snow -2 1019 87 10000 4.47 109 18:55 08.03.2022
4896 Snow -2 1019 87 10000 2.68 104 17:58 08.03.2022
4897 Clouds -2 1018 87 10000 4.47 119 16:37 08.03.2022
4898 Snow -1 1017 88 2500 5.66 130 14:24 08.03.2022
4899 Clouds -1 1017 87 2500 6.17 140 13:22 08.03.2022
4900 Snow -2 1018 88 1800 5.14 130 12:19 08.03.2022
4901 Snow -2 1018 87 1700 5.66 150 11:41 08.03.2022
4902 Snow -2 1018 86 1200 6.69 150 10:27 08.03.2022
4903 Snow -3 1018 87 1100 5.66 160 08:30 08.03.2022
4904 Snow -4 1019 84 4000 5.66 150 05:48 08.03.2022
4905 Snow -3 1020 76 10000 4.63 140 01:48 08.03.2022
4906 Clouds -3 1021 74 10000 2.68 112 22:24 07.03.2022
4907 Clouds -3 1020 74 10000 2.57 120 21:35 07.03.2022
4908 Clouds -3 1020 74 10000 3.09 80 20:54 07.03.2022
4909 Clouds -2 1020 74 10000 2.57 80 20:22 07.03.2022
4910 Clouds -2 1020 74 10000 4.63 60 19:41 07.03.2022
4911 Clouds -2 1020 75 10000 3.6 60 18:47 07.03.2022
4912 Clouds -1 1020 75 10000 3.6 60 17:58 07.03.2022
4913 Clouds -1 1019 74 10000 3.6 60 16:56 07.03.2022
4914 Clouds 0 1019 73 10000 3.6 60 16:30 07.03.2022
4915 Clouds 1 1017 71 10000 4.12 330 14:31 07.03.2022
4916 Clouds 1 1017 71 10000 4.63 310 12:33 07.03.2022
4917 Clouds 1 1017 73 10000 4.47 12 10:39 07.03.2022
4918 Clouds 1 1016 76 10000 4.12 10 09:47 07.03.2022
4919 Clouds 0 1014 80 10000 3.6 350 06:35 07.03.2022
4920 Clouds 0 1009 87 10000 2.57 320 00:23 07.03.2022
4921 Clouds 0 1009 85 10000 4.12 310 23:41 06.03.2022
4922 Clouds 0 1008 83 10000 4.02 296 22:58 06.03.2022
4923 Clouds 0 1001 84 10000 3.6 270 22:24 06.03.2022
4924 Clouds 0 1001 84 10000 3.6 270 22:24 06.03.2022
4925 Clouds 0 1008 79 10000 3.6 270 20:51 06.03.2022
4926 Clouds 0 1008 79 10000 3.6 270 20:26 06.03.2022
4927 Clouds 1 1009 77 10000 2.57 260 19:29 06.03.2022
4928 Clouds 1 1009 75 10000 4.12 270 18:25 06.03.2022
4929 Clouds 2 1009 70 10000 6.69 270 17:21 06.03.2022
4930 Clouds 2 1009 69 10000 6.69 280 16:44 06.03.2022
4931 Clouds 2 1009 69 10000 6.69 280 16:44 06.03.2022
4932 Clouds 3 1010 68 10000 6.17 280 16:18 06.03.2022
4933 Clouds 4 1010 66 10000 6.17 270 14:57 06.03.2022
4934 Clouds 4 1010 64 10000 6.17 270 14:38 06.03.2022
4935 Clouds 4 1001 65 10000 5.14 280 13:36 06.03.2022
4936 Clouds 3 1002 70 10000 6.17 280 12:35 06.03.2022
4937 Clouds 2 1002 76 10000 5.66 280 11:21 06.03.2022
4938 Clouds 1 1003 79 10000 3.6 270 10:28 06.03.2022
4939 Clear -2 1003 84 10000 4.12 290 08:32 06.03.2022
4940 Clear -3 1003 87 10000 3.6 280 07:45 06.03.2022
4941 Clear -3 1003 86 10000 4.63 290 06:19 06.03.2022
4942 Clear -3 1013 85 10000 3.6 230 00:55 06.03.2022
4943 Clear -3 1013 85 10000 3.6 230 00:33 06.03.2022
4944 Clear -3 1014 85 10000 2.57 230 23:26 05.03.2022
4945 Clear -3 1014 85 10000 2.68 250 22:57 05.03.2022
4946 Clear -3 1015 85 10000 2.68 239 22:23 05.03.2022
4947 Clear -2 1016 83 10000 5.14 220 21:23 05.03.2022
4948 Clear -2 1008 81 10000 4.12 220 19:49 05.03.2022
4949 Clear -1 1017 80 10000 4.12 230 18:56 05.03.2022
4950 Clear -1 1017 80 10000 3.6 230 18:27 05.03.2022
4951 Clear 0 1018 75 10000 6.17 210 16:52 05.03.2022
4952 Clouds 2 1019 74 10000 5.14 210 15:40 05.03.2022
4953 Clouds 2 1020 76 10000 5.66 210 14:52 05.03.2022
4954 Clouds 2 1020 77 10000 5.66 210 14:33 05.03.2022
4955 Clouds 2 1021 74 10000 4.47 203 13:22 05.03.2022
4956 Clouds 1 1023 74 10000 3.6 200 11:48 05.03.2022
4957 Clear 0 1015 74 10000 3.6 200 11:19 05.03.2022
4958 Clear -1 1023 75 10000 2.57 180 10:20 05.03.2022
4959 Clear -2 1024 74 10000 1.34 138 09:26 05.03.2022
4960 Clear -6 1024 81 10000 0.45 169 07:51 05.03.2022
4961 Clear -10 1024 86 10000 1.03 280 05:43 05.03.2022
4962 Clear -9 1024 87 10000 1.79 322 03:49 05.03.2022
4963 Clear -7 1025 84 10000 1.34 319 23:38 04.03.2022
4964 Clear -7 1025 81 10000 0.89 306 22:42 04.03.2022
4965 Clear -6 1025 82 10000 1.54 320 22:23 04.03.2022
4966 Clear -6 1026 79 10000 0.51 0 20:57 04.03.2022
4967 Clear -5 1026 79 10000 1.03 280 20:27 04.03.2022
4968 Clear -5 1026 79 10000 1.03 350 19:36 04.03.2022
4969 Clear -3 1025 75 10000 2.06 350 18:45 04.03.2022
4970 Clear -4 1004 66 10000 2.06 330 17:48 04.03.2022
4971 Clear -2 1011 63 10000 2.06 330 17:28 04.03.2022
4972 Clouds 2 1024 55 10000 3.13 325 15:30 04.03.2022
4973 Clouds 2 1024 56 10000 4.12 330 14:33 04.03.2022
4974 Clear 1 1016 56 10000 4.63 330 13:26 04.03.2022
4975 Clear 0 1016 58 10000 4.63 330 11:46 04.03.2022
4976 Clear -1 1016 62 10000 3.6 320 10:52 04.03.2022
4977 Clouds -3 1016 68 10000 3.6 330 09:52 04.03.2022
4978 Clouds -4 1015 73 10000 4.63 330 08:39 04.03.2022
4979 Clear -6 1015 77 10000 3.6 330 07:36 04.03.2022
4980 Clear -5 1014 76 10000 4.12 330 03:56 04.03.2022
4981 Clear -3 1013 70 10000 3.6 340 00:28 04.03.2022
4982 Clear -2 1012 66 10000 4.12 340 22:27 03.03.2022
4983 Clear -1 1012 66 10000 4.63 340 21:43 03.03.2022
4984 Clear -1 1011 66 10000 4.63 340 21:24 03.03.2022
4985 Clear 0 1010 66 10000 4.63 340 19:55 03.03.2022
4986 Clear 0 1010 67 10000 4.12 330 18:54 03.03.2022
4987 Clear 1 1009 64 10000 4.12 330 18:24 03.03.2022
4988 Clear 2 1009 63 10000 5.66 340 17:30 03.03.2022
4989 Clouds 3 1015 57 10000 6.17 340 16:24 03.03.2022
4990 Clouds 4 1015 58 10000 7.72 330 15:23 03.03.2022
4991 Clouds 4 1015 58 10000 7.72 330 14:43 03.03.2022
4992 Clouds 4 1016 59 10000 7.2 340 14:20 03.03.2022
4993 Clouds 4 1016 59 10000 7.2 340 14:20 03.03.2022
4994 Clear 3 1015 70 10000 5.14 320 12:22 03.03.2022
4995 Clear 2 1007 77 10000 4.63 330 10:47 03.03.2022
4996 Clouds 1 1006 80 10000 4.12 330 09:41 03.03.2022
4997 Clouds -2 1014 84 10000 4.02 329 07:50 03.03.2022
4998 Clear -2 1005 87 10000 2.24 314 06:37 03.03.2022
4999 Clear -3 1005 87 10000 2.06 280 02:42 03.03.2022
5000 Clouds -2 1006 89 10000 2.57 230 23:34 02.03.2022
5001 Clouds -2 1006 89 10000 3.09 220 22:52 02.03.2022
5002 Clouds -1 1007 92 10000 3.6 230 21:35 02.03.2022
5003 Clouds -1 1007 89 10000 3.6 230 20:55 02.03.2022
5004 Clouds 0 1004 88 10000 4.63 240 20:24 02.03.2022
5005 Clouds 0 1004 88 10000 4.63 240 20:24 02.03.2022
5006 Clouds 0 1007 88 10000 5.14 230 19:37 02.03.2022
5007 Clouds 0 1007 89 10000 4.63 220 18:54 02.03.2022
5008 Clear 0 1007 90 10000 4.12 210 18:19 02.03.2022
5009 Clear 0 1007 85 10000 4.63 200 17:34 02.03.2022
5010 Clear 1 1008 84 10000 3.6 230 16:51 02.03.2022
5011 Clouds 3 1008 80 10000 3.6 230 14:49 02.03.2022
5012 Clouds 3 1009 81 10000 4.12 240 13:30 02.03.2022
5013 Clouds 3 1009 82 10000 0.45 269 12:45 02.03.2022
5014 Clouds 3 1010 83 10000 4.63 230 11:59 02.03.2022
5015 Clouds 2 1010 83 10000 5.14 230 11:25 02.03.2022
5016 Clouds 2 1010 85 10000 3.6 230 10:25 02.03.2022
5017 Clouds 2 1011 84 10000 3.6 240 09:25 02.03.2022
5018 Clouds 1 1019 86 10000 3.6 230 07:52 02.03.2022
5019 Clouds 1 1019 86 8000 3.6 210 06:57 02.03.2022
5020 Clouds 1 1021 86 10000 4.12 220 03:46 02.03.2022
5021 Clouds 0 1014 85 10000 3.6 210 00:39 02.03.2022
5022 Clouds 0 1015 83 10000 5.66 220 22:50 01.03.2022
5023 Clouds 0 1015 83 10000 5.66 220 22:31 01.03.2022
5024 Clouds 1 1015 81 10000 5.66 210 21:25 01.03.2022
5025 Clear 1 1015 81 10000 5.66 220 20:33 01.03.2022
5026 Clear 1 1015 77 10000 4.63 230 19:50 01.03.2022
5027 Clear 1 1015 78 10000 5.14 220 18:51 01.03.2022
5028 Clear 1 1015 80 10000 5.14 210 18:21 01.03.2022
5029 Clear 2 1015 79 10000 5.14 210 17:37 01.03.2022
5030 Clear 3 1015 74 10000 6.69 200 16:35 01.03.2022
5031 Clear 3 1016 74 10000 6.69 200 16:35 01.03.2022
5032 Clear 4 1016 70 10000 6.69 200 15:45 01.03.2022
5033 Clear 4 1016 69 10000 5.66 210 14:41 01.03.2022
5034 Clear 4 1017 70 10000 5.66 210 14:23 01.03.2022
5035 Clear 4 1017 71 10000 5.66 210 13:26 01.03.2022
5036 Clear 4 1017 73 10000 6.17 210 12:35 01.03.2022
5037 Clear 3 1018 78 10000 5.66 210 10:38 01.03.2022
5038 Clear 2 1018 81 10000 5.14 210 09:25 01.03.2022
5039 Clouds 0 1027 86 10000 4.63 210 07:55 01.03.2022
5040 Clouds -2 1027 89 10000 4.12 210 06:27 01.03.2022
5041 Clear -2 1028 88 10000 4.63 200 02:45 01.03.2022
5042 Clear -1 1029 88 10000 3.6 220 00:39 01.03.2022
5043 Clear -1 1029 85 10000 3.6 230 23:35 28.02.2022
5044 Clear -1 1021 87 10000 3.6 220 22:28 28.02.2022
5045 Clear -1 1021 88 10000 3.6 220 21:41 28.02.2022
5046 Clear -1 1021 87 10000 4.63 210 20:32 28.02.2022
5047 Clear -1 1022 85 10000 4.12 210 19:42 28.02.2022
5048 Clear -1 1022 83 10000 4.12 200 18:49 28.02.2022
5049 Clear 0 1010 79 10000 4.12 230 17:33 28.02.2022
5050 Clear 1 1010 79 10000 4.12 230 16:53 28.02.2022
5051 Clear 2 1019 75 10000 3.09 220 15:58 28.02.2022
5052 Clear 4 1020 76 10000 3.6 230 14:32 28.02.2022
5053 Clear 4 1017 75 10000 3.6 230 13:48 28.02.2022
5054 Clear 4 1022 77 10000 3.6 220 12:53 28.02.2022
5055 Clear 3 1022 82 10000 3.6 210 11:59 28.02.2022
5056 Clear 2 1022 79 10000 3.6 240 11:18 28.02.2022
5057 Clear 1 1020 77 10000 2.57 260 10:22 28.02.2022
5058 Clear 0 1022 82 10000 3.09 250 09:41 28.02.2022
5059 Clear -2 1020 84 10000 2.57 220 08:51 28.02.2022
5060 Clear -3 1019 87 10000 3.09 230 07:57 28.02.2022
5061 Clear -3 1021 90 10000 2.68 263 05:52 28.02.2022
5062 Clear -2 1021 89 10000 3.09 220 04:30 28.02.2022
5063 Clear -2 1020 89 10000 3.09 230 04:30 28.02.2022
5064 Clear -2 1020 89 10000 3.09 230 04:30 28.02.2022
5065 Clouds -1 1021 88 10000 3.09 210 00:34 28.02.2022
5066 Clouds 0 1021 87 10000 3.6 210 22:38 27.02.2022
5067 Clouds 0 1021 87 10000 4.12 210 21:55 27.02.2022
5068 Clouds 0 1022 87 10000 4.12 210 21:35 27.02.2022
5069 Clouds 0 1022 87 10000 5.66 210 20:40 27.02.2022
5070 Clouds 0 1022 86 10000 5.66 210 20:18 27.02.2022
5071 Clouds 1 1030 86 10000 6.17 210 19:28 27.02.2022
5072 Clouds 1 1030 86 10000 6.17 210 18:56 27.02.2022
5073 Clouds 1 1031 86 10000 6.17 200 17:57 27.02.2022
5074 Clouds 1 1031 86 10000 6.17 210 17:26 27.02.2022
5075 Clouds 2 1031 84 10000 7.2 210 16:22 27.02.2022
5076 Clouds 3 1032 83 10000 8.75 210 13:49 27.02.2022
5077 Clouds 2 1032 81 10000 8.75 200 12:35 27.02.2022
5078 Clouds 2 1033 80 10000 5.66 190 11:28 27.02.2022
5079 Clear 1 1033 82 10000 7.2 190 10:24 27.02.2022
5080 Clear 0 1033 83 10000 7.2 180 09:51 27.02.2022
5081 Clouds 0 1033 86 10000 6.69 180 09:21 27.02.2022
5082 Clouds -1 1034 84 10000 6.69 180 08:38 27.02.2022
5083 Clear -3 1034 89 10000 3.6 180 05:41 27.02.2022
5084 Clouds -6 1034 89 10000 0.45 155 02:57 27.02.2022
5085 Fog -7 1034 89 10000 1.03 220 23:36 26.02.2022
5086 Fog -6 1033 89 10000 1.03 210 22:34 26.02.2022
5087 Clear -6 1033 89 10000 2.06 290 21:19 26.02.2022
5088 Clear -5 1032 87 10000 1.79 290 20:37 26.02.2022
5089 Clear -4 1032 86 10000 2.24 301 19:54 26.02.2022
5090 Clear -4 1032 86 10000 2.68 296 19:33 26.02.2022
5091 Clear -3 1022 81 10000 3.09 310 17:58 26.02.2022
5092 Clear -2 1030 79 10000 3.6 310 17:30 26.02.2022
5093 Clear -1 1029 75 10000 3.09 320 16:36 26.02.2022
5094 Clouds 0 1028 72 10000 5.36 331 15:27 26.02.2022
5095 Clouds 0 1027 72 10000 5.66 320 14:58 26.02.2022
5096 Clouds 1 1027 72 10000 5.14 320 14:39 26.02.2022
5097 Clouds 1 1026 73 10000 6.17 320 13:46 26.02.2022
5098 Clouds 1 1025 76 10000 5.14 330 12:53 26.02.2022
5099 Clouds 0 1023 80 10000 5.66 320 11:39 26.02.2022
5100 Clouds -1 1014 80 10000 5.66 320 10:59 26.02.2022
5101 Clear -2 1011 82 10000 5.14 310 09:22 26.02.2022
5102 Clear -3 1007 82 10000 5.66 310 07:57 26.02.2022
5103 Clear -2 1011 85 10000 4.12 310 04:22 26.02.2022
5104 Clouds 0 989 82 10000 2.68 298 23:35 25.02.2022
5105 Clouds 1 993 86 10000 5.14 280 22:18 25.02.2022
5106 Clouds 1 992 86 10000 5.14 290 21:29 25.02.2022
5107 Clouds 1 1000 85 10000 5.66 280 20:33 25.02.2022
5108 Clouds 1 998 86 10000 7.2 280 19:53 25.02.2022
5109 Snow 1 986 90 2000 5.66 280 17:48 25.02.2022
5110 Snow 1 984 90 2000 5.14 280 16:47 25.02.2022
5111 Snow 1 982 90 7000 2.57 310 15:49 25.02.2022
5112 Clouds 1 988 88 7000 3.09 10 15:23 25.02.2022
5113 Clouds 1 988 88 7000 3.09 10 15:23 25.02.2022
5114 Snow 1 988 88 5000 3.09 10 14:50 25.02.2022
5115 Snow 1 987 88 6000 2.57 20 14:18 25.02.2022
5116 Snow 1 988 88 10000 3.58 95 13:23 25.02.2022
5117 Snow 1 983 90 600 5.14 130 11:52 25.02.2022
5118 Snow 1 983 90 1200 4.63 120 11:18 25.02.2022
5119 Snow 1 984 90 1700 4.63 130 10:23 25.02.2022
5120 Snow 1 984 90 2500 5.66 160 09:42 25.02.2022
5121 Snow 1 984 90 2500 5.66 160 09:42 25.02.2022
5122 Snow 1 984 90 2500 5.66 160 09:42 25.02.2022
5123 Snow 1 985 90 5000 6.69 160 07:48 25.02.2022
5124 Snow 1 985 90 10000 1.79 170 06:54 25.02.2022
5125 Snow 1 986 89 10000 7.2 170 05:40 25.02.2022
5126 Clouds 2 989 87 10000 8.23 190 01:23 25.02.2022
5127 Rain 3 998 84 10000 10.29 190 22:31 24.02.2022
5128 Clouds 3 998 84 10000 9.77 190 21:43 24.02.2022
5129 Clouds 2 991 87 10000 9.77 200 21:21 24.02.2022
5130 Clouds 2 991 87 10000 9.26 190 20:44 24.02.2022
5131 Clouds 2 991 87 10000 8.75 200 19:31 24.02.2022
5132 Clouds 3 999 85 10000 9.26 210 18:20 24.02.2022
5133 Clouds 3 999 85 10000 9.26 210 17:52 24.02.2022
5134 Clouds 3 991 86 10000 10.8 210 17:19 24.02.2022
5135 Clouds 3 999 84 8000 10.29 210 16:28 24.02.2022
5136 Drizzle 3 1000 86 6000 11.32 210 15:42 24.02.2022
5137 Rain 3 1000 87 4500 10.29 210 14:45 24.02.2022
5138 Clouds 3 1000 86 6000 11.32 210 13:57 24.02.2022
5139 Clouds 3 1000 86 10000 11.83 210 13:35 24.02.2022
5140 Clouds 3 1000 85 10000 10.8 200 11:32 24.02.2022
5141 Clouds 2 1000 83 10000 11.83 190 10:31 24.02.2022
5142 Rain 2 1001 73 10000 10.8 190 08:43 24.02.2022
5143 Clouds 1 1003 75 10000 10.8 190 06:45 24.02.2022
5144 Clouds 1 1005 72 10000 11.32 190 05:40 24.02.2022
5145 Snow -1 1009 88 4000 7.72 180 00:30 24.02.2022
5146 Clouds -2 1009 82 8000 3.09 190 22:19 23.02.2022
5147 Clouds -5 1010 91 10000 3.6 170 20:44 23.02.2022
5148 Clouds -7 1010 89 10000 3.09 130 20:23 23.02.2022
5149 Clouds -8 1011 87 10000 2.57 120 19:35 23.02.2022
5150 Clouds -6 1011 89 10000 2.06 140 18:26 23.02.2022
5151 Clouds -6 1010 88 10000 1.03 0 16:28 23.02.2022
5152 Clear -6 1009 88 10000 1.54 210 13:58 23.02.2022
5153 Clouds -5 1008 87 10000 2.42 247 12:31 23.02.2022
5154 Clouds -7 1007 82 10000 2.07 253 10:58 23.02.2022
5155 Clouds -8 1007 69 10000 1.81 265 09:49 23.02.2022
5156 Clouds -10 1006 66 10000 1.32 281 08:54 23.02.2022
5157 Clouds -11 1005 89 10000 1.09 314 07:55 23.02.2022
5158 Clear -14 982 88 10000 0.51 0 02:58 23.02.2022
5159 Clear -11 1001 88 10000 3.09 300 00:18 23.02.2022
5160 Clear -10 1001 86 10000 3.09 300 23:33 22.02.2022
5161 Clear -9 990 89 10000 3.09 320 22:28 22.02.2022
5162 Clear -8 999 88 10000 3.09 310 21:45 22.02.2022
5163 Clear -8 999 93 10000 2.57 300 21:21 22.02.2022
5164 Clear -7 999 87 10000 4.12 320 20:43 22.02.2022
5165 Clear -7 999 91 10000 4.12 320 20:25 22.02.2022
5166 Clouds -6 998 86 10000 4.63 320 19:34 22.02.2022
5167 Clouds -5 997 86 10000 5.66 330 18:43 22.02.2022
5168 Clouds -4 995 87 10000 5.66 310 17:35 22.02.2022
5169 Clouds -4 995 87 10000 6.17 320 16:58 22.02.2022
5170 Clouds -4 993 88 8000 5.14 330 16:22 22.02.2022
5171 Snow -3 992 87 3000 6.17 330 15:36 22.02.2022
5172 Snow -3 992 87 2000 6.69 330 14:37 22.02.2022
5173 Clouds -3 988 86 10000 6.69 350 11:41 22.02.2022
5174 Clouds -3 987 86 10000 6.69 350 10:22 22.02.2022
5175 Clouds -2 984 86 5000 5.66 350 07:41 22.02.2022
5176 Clouds -2 984 86 6000 6.69 10 07:23 22.02.2022
5177 Snow 0 980 80 1800 5.14 40 02:51 22.02.2022
5178 Snow 0 978 85 1200 9.39 163 23:48 21.02.2022
5179 Snow 0 978 88 1500 6.17 60 22:38 21.02.2022
5180 Snow 0 978 74 1500 7.2 70 21:24 21.02.2022
5181 Snow 0 978 88 1000 9.83 90 19:36 21.02.2022
5182 Snow 0 978 89 600 10.73 89 18:39 21.02.2022
5183 Snow -1 979 88 1100 10.73 88 16:38 21.02.2022
5184 Snow -1 980 89 600 11.18 88 14:24 21.02.2022
5185 Snow -1 981 88 2500 11.18 94 13:55 21.02.2022
5186 Snow 0 982 84 10000 9.83 88 12:57 21.02.2022
5187 Snow 0 982 85 10000 10.28 82 12:21 21.02.2022
5188 Clouds -1 984 83 10000 8.49 92 10:32 21.02.2022
5189 Clouds -1 986 83 10000 4.92 109 07:52 21.02.2022
5190 Clouds -3 971 95 10000 1.54 190 00:36 21.02.2022
5191 Clouds -4 971 97 10000 1.54 170 22:37 20.02.2022
5192 Clouds -4 977 95 10000 0.51 0 21:51 20.02.2022
5193 Clouds -4 977 95 10000 0.45 139 21:25 20.02.2022
5194 Clouds -4 977 88 10000 1.03 210 20:45 20.02.2022
5195 Clouds -4 977 87 10000 1.03 0 19:59 20.02.2022
5196 Clouds -3 977 87 10000 1.03 0 18:57 20.02.2022
5197 Clouds -3 977 87 10000 1.54 320 18:37 20.02.2022
5198 Clouds -2 990 85 10000 1.54 310 17:56 20.02.2022
5199 Clouds -2 990 85 10000 1.54 310 17:24 20.02.2022
5200 Clouds 0 990 84 10000 2.24 282 15:29 20.02.2022
5201 Clouds 0 990 85 10000 2.57 280 14:20 20.02.2022
5202 Clouds 0 990 86 10000 0.89 278 12:49 20.02.2022
5203 Clouds 0 991 87 10000 2.68 277 11:56 20.02.2022
5204 Fog -1 990 85 900 1.79 311 10:21 20.02.2022
5205 Fog -2 990 87 700 1.54 280 09:51 20.02.2022
5206 Clouds -4 982 88 10000 3.09 210 06:30 20.02.2022
5207 Clear -2 989 85 10000 3.6 250 00:33 20.02.2022
5208 Clear -2 989 85 10000 3.6 250 00:33 20.02.2022
5209 Clear -3 989 87 10000 4.63 260 23:39 19.02.2022
5210 Clear -4 980 86 10000 4.12 270 22:24 19.02.2022
5211 Clear -3 988 84 10000 5.14 280 21:50 19.02.2022
5212 Clear -3 986 82 10000 4.63 290 20:41 19.02.2022
5213 Clear -3 977 83 10000 5.14 300 19:36 19.02.2022
5214 Clear -2 984 81 10000 5.66 320 18:41 19.02.2022
5215 Clouds -2 975 83 10000 6.17 310 17:58 19.02.2022
5216 Clouds -1 982 84 10000 7.2 330 17:23 19.02.2022
5217 Clouds 0 980 85 10000 6.69 330 15:59 19.02.2022
5218 Clouds 1 979 87 4500 4.63 340 14:55 19.02.2022
5219 Clouds 1 978 88 9000 5.14 350 13:58 19.02.2022
5220 Snow 1 976 87 10000 3.6 20 11:58 19.02.2022
5221 Snow 1 976 88 3500 3.09 30 11:24 19.02.2022
5222 Clouds 1 976 87 3000 3.58 88 09:00 19.02.2022
5223 Mist 0 977 88 2500 2.68 92 06:48 19.02.2022
5224 Clouds -3 981 86 10000 3.09 200 00:42 19.02.2022
5225 Clouds -3 982 88 10000 3.09 200 22:33 18.02.2022
5226 Clouds -1 982 88 10000 3.09 240 21:26 18.02.2022
5227 Clouds 0 982 86 10000 3.6 240 20:24 18.02.2022
5228 Clouds 0 982 84 10000 4.63 250 19:25 18.02.2022
5229 Clouds 0 982 84 10000 5.66 230 18:29 18.02.2022
5230 Clouds 0 982 85 10000 4.12 230 17:56 18.02.2022
5231 Clouds 0 982 85 10000 5.14 230 17:18 18.02.2022
5232 Clouds 0 981 85 10000 6.69 240 14:19 18.02.2022
5233 Clouds 0 981 85 10000 8.23 240 13:45 18.02.2022
5234 Clouds 0 980 83 10000 6.17 250 12:48 18.02.2022
5235 Clouds 0 980 87 10000 5.66 240 11:57 18.02.2022
5236 Clouds 0 979 90 2500 5.66 240 10:42 18.02.2022
5237 Clouds -1 966 87 10000 7.2 260 07:21 18.02.2022
5238 Clouds -1 964 86 10000 7.2 270 05:52 18.02.2022
5239 Clouds -1 964 85 10000 8.75 280 05:34 18.02.2022
5240 Snow 0 964 87 3500 7.2 290 21:59 17.02.2022
5241 Snow 0 963 88 2500 6.69 290 21:33 17.02.2022
5242 Snow 0 962 88 2500 5.66 290 20:42 17.02.2022
5243 Snow 1 961 88 3000 4.63 300 19:55 17.02.2022
5244 Snow 0 952 89 2000 3.6 320 18:57 17.02.2022
5245 Snow 0 952 89 2000 2.57 330 18:18 17.02.2022
5246 Snow 0 952 89 1800 2.06 340 17:30 17.02.2022
5247 Snow 1 952 89 3000 2.06 50 15:50 17.02.2022
5248 Snow 1 953 90 6000 3.58 116 14:29 17.02.2022
5249 Snow 2 961 87 10000 4.12 130 13:30 17.02.2022
5250 Rain 2 962 87 8000 5.81 117 11:48 17.02.2022
5251 Drizzle 1 955 89 1800 5.81 123 09:58 17.02.2022
5252 Snow 0 959 89 3500 5.14 110 06:44 17.02.2022
5253 Snow 1 981 87 7000 5.36 121 23:23 16.02.2022
5254 Snow 1 983 89 10000 5.14 140 22:28 16.02.2022
5255 Clouds 2 986 86 7000 6.17 190 20:22 16.02.2022
5256 Clouds 2 987 86 8000 7.72 190 18:56 16.02.2022
5257 Clouds 2 987 87 6000 7.72 180 17:56 16.02.2022
5258 Clouds 1 988 90 3500 7.72 170 16:44 16.02.2022
5259 Snow 2 983 89 4000 8.23 150 15:21 16.02.2022
5260 Rain 2 985 88 10000 6.17 140 13:38 16.02.2022
5261 Clouds 2 987 86 10000 6.17 160 12:24 16.02.2022
5262 Rain 2 988 87 10000 7.2 160 11:45 16.02.2022
5263 Rain 2 989 86 10000 4.63 160 10:34 16.02.2022
5264 Clouds 1 989 87 10000 6.17 180 09:34 16.02.2022
5265 Clouds 2 990 86 10000 6.17 200 06:43 16.02.2022
5266 Mist 2 997 88 4000 6.17 190 00:37 16.02.2022
5267 Clouds 2 997 87 4500 8.75 200 22:34 15.02.2022
5268 Snow 2 997 87 4500 8.23 190 21:50 15.02.2022
5269 Clouds 2 997 87 5000 8.75 190 21:29 15.02.2022
5270 Snow 2 998 88 6000 7.2 190 20:57 15.02.2022
5271 Mist 1 998 86 4500 7.72 190 20:19 15.02.2022
5272 Mist 1 998 88 5000 8.23 190 19:33 15.02.2022
5273 Clouds 1 992 88 6000 5.66 180 18:24 15.02.2022
5274 Snow 1 992 89 4000 4.63 170 17:52 15.02.2022
5275 Snow 1 992 89 3000 5.14 170 17:26 15.02.2022
5276 Snow 1 992 89 5000 4.63 160 15:34 15.02.2022
5277 Clouds 2 1001 86 7000 5.14 180 13:29 15.02.2022
5278 Rain 2 1001 87 7000 5.14 180 12:59 15.02.2022
5279 Mist 1 994 90 4500 5.14 170 11:40 15.02.2022
5280 Rain 2 1002 87 10000 6.17 180 09:54 15.02.2022
5281 Clouds 2 1001 86 8000 4.12 200 07:00 15.02.2022
5282 Clouds 2 1001 86 9000 4.63 180 06:19 15.02.2022
5283 Drizzle 2 1000 86 3500 5.66 210 23:34 14.02.2022
5284 Snow 1 999 87 10000 7.2 210 21:55 14.02.2022
5285 Drizzle 1 999 88 8000 5.66 210 20:50 14.02.2022
5286 Snow 1 998 88 8000 7.2 210 19:45 14.02.2022
5287 Snow 1 991 89 8000 7.2 210 19:45 14.02.2022
5288 Snow 1 991 89 5000 5.66 200 19:26 14.02.2022
5289 Snow 1 991 90 3500 5.66 190 18:23 14.02.2022
5290 Snow 0 991 89 2600 7.2 190 17:27 14.02.2022
5291 Snow 0 990 89 1400 6.69 190 16:25 14.02.2022
5292 Drizzle 1 991 88 4500 6.17 190 14:42 14.02.2022
5293 Snow 2 991 88 7000 6.17 200 13:34 14.02.2022
5294 Clouds 1 991 90 6000 5.66 190 12:56 14.02.2022
5295 Mist 2 991 89 3500 7.2 210 11:55 14.02.2022
5296 Mist 2 991 89 3000 6.69 210 11:18 14.02.2022
5297 Clouds 1 991 90 7000 5.66 190 09:19 14.02.2022
5298 Snow 1 991 88 4500 2.24 226 07:33 14.02.2022
5299 Snow 1 991 88 4500 6.17 210 07:33 14.02.2022
5300 Drizzle 1 991 89 5000 7.2 210 06:32 14.02.2022
5301 Clouds 2 999 87 9000 7.2 210 22:43 13.02.2022
5302 Clouds 2 999 87 10000 6.69 210 22:25 13.02.2022
5303 Clouds 2 999 87 6000 7.2 220 21:36 13.02.2022
5304 Clouds 1 991 90 6000 7.2 220 20:42 13.02.2022
5305 Clouds 2 999 89 9000 7.2 210 19:51 13.02.2022
5306 Clouds 1 999 86 7000 7.72 210 18:56 13.02.2022
5307 Snow 1 999 87 8000 7.72 200 18:38 13.02.2022
5308 Rain 1 1000 87 7000 8.75 210 16:39 13.02.2022
5309 Snow 1 1000 87 7000 11.32 210 15:42 13.02.2022
5310 Snow 1 1001 87 6000 10.29 210 14:37 13.02.2022
5311 Snow 1 1002 88 3000 10.29 200 12:52 13.02.2022
5312 Snow 1 1002 86 5000 11.32 210 12:33 13.02.2022
5313 Clouds 1 1003 85 10000 8.75 200 10:38 13.02.2022
5314 Clouds 1 1004 85 10000 9.26 200 09:49 13.02.2022
5315 Clouds 1 1005 83 8000 8.75 210 07:54 13.02.2022
5316 Clouds 2 1009 83 10000 4.63 220 00:49 13.02.2022
5317 Clouds 2 1009 84 10000 4.63 230 00:20 13.02.2022
5318 Clouds 2 1009 83 10000 5.14 240 22:34 12.02.2022
5319 Clouds 1 1009 84 10000 4.63 240 21:40 12.02.2022
5320 Clouds 1 1009 84 10000 4.12 230 20:52 12.02.2022
5321 Clear 0 1009 85 10000 4.63 230 19:48 12.02.2022
5322 Clear 0 1008 84 10000 5.66 230 18:53 12.02.2022
5323 Clear 0 1008 84 10000 5.66 240 18:35 12.02.2022
5324 Clear 0 1008 84 10000 5.66 230 17:37 12.02.2022
5325 Clear 0 1008 80 10000 5.14 240 16:43 12.02.2022
5326 Clear 0 1008 79 10000 5.14 240 15:52 12.02.2022
5327 Clear 1 1008 77 10000 6.69 250 14:55 12.02.2022
5328 Clear 1 1008 74 10000 7.2 250 14:25 12.02.2022
5329 Clear 1 1008 74 10000 7.2 250 14:25 12.02.2022
5330 Clear -1 1008 78 10000 5.66 240 11:20 12.02.2022
5331 Clear -2 1009 80 10000 4.63 250 10:28 12.02.2022
5332 Clear -3 1009 82 10000 3.6 240 09:33 12.02.2022
5333 Clear -3 1008 79 10000 4.63 230 08:46 12.02.2022
5334 Clear -3 1009 80 10000 5.14 220 06:46 12.02.2022
5335 Clear -6 1010 87 10000 4.12 210 04:38 12.02.2022
5336 Clear -6 1010 87 10000 3.09 230 02:19 12.02.2022
5337 Clouds -4 1010 84 10000 5.14 270 23:20 11.02.2022
5338 Clouds -4 1001 84 10000 4.63 260 22:20 11.02.2022
5339 Clouds -4 1000 84 10000 4.12 280 21:18 11.02.2022
5340 Clear -4 999 84 10000 5.66 280 20:26 11.02.2022
5341 Clear -3 999 83 10000 4.63 280 19:28 11.02.2022
5342 Clear -3 998 83 10000 5.14 280 18:29 11.02.2022
5343 Clouds -2 1006 80 10000 4.12 290 17:26 11.02.2022
5344 Clouds -1 1005 79 10000 4.63 280 16:37 11.02.2022
5345 Clouds 0 1006 78 10000 5.66 280 15:18 11.02.2022
5346 Clouds 0 1006 79 10000 4.12 290 14:37 11.02.2022
5347 Clouds 0 1006 79 10000 4.12 290 14:19 11.02.2022
5348 Clouds 0 1005 79 10000 5.14 280 13:40 11.02.2022
5349 Clouds 0 1005 81 10000 4.63 280 12:37 11.02.2022
5350 Clouds -2 1002 80 10000 4.12 280 10:49 11.02.2022
5351 Clouds -3 991 83 10000 3.13 278 09:31 11.02.2022
5352 Clear -5 992 85 10000 4.12 230 08:31 11.02.2022
5353 Clear -5 992 86 10000 3.09 230 07:40 11.02.2022
5354 Clear -3 992 86 10000 3.09 250 02:40 11.02.2022
5355 Clear -2 992 86 10000 3.13 260 02:20 11.02.2022
5356 Clear -2 992 86 10000 3.6 240 23:41 10.02.2022
5357 Clear -1 991 84 10000 3.6 240 21:55 10.02.2022
5358 Clear -1 991 85 10000 4.12 240 21:35 10.02.2022
5359 Clear -1 991 85 10000 3.6 240 20:48 10.02.2022
5360 Clear -1 991 84 10000 5.66 220 19:49 10.02.2022
5361 Clear -1 991 84 10000 5.14 220 19:20 10.02.2022
5362 Clear 0 991 83 10000 4.12 230 17:43 10.02.2022
5363 Clouds 0 998 81 10000 4.12 230 17:20 10.02.2022
5364 Clouds 1 997 80 10000 4.63 240 16:23 10.02.2022
5365 Clouds 2 997 80 10000 4.63 240 15:34 10.02.2022
5366 Clouds 2 997 80 10000 5.14 240 14:49 10.02.2022
5367 Clouds 2 997 79 10000 5.66 240 14:30 10.02.2022
5368 Clouds 2 997 80 10000 6.69 250 13:33 10.02.2022
5369 Clouds 2 997 80 10000 5.66 250 13:33 10.02.2022
5370 Clouds 2 997 81 10000 5.66 240 12:51 10.02.2022
5371 Clouds 1 997 84 10000 5.14 230 11:44 10.02.2022
5372 Clouds 1 997 83 10000 4.63 230 11:25 10.02.2022
5373 Clouds 1 997 83 10000 5.66 220 10:21 10.02.2022
5374 Clear -1 990 86 10000 4.63 210 09:27 10.02.2022
5375 Clear -2 988 87 10000 4.63 210 07:57 10.02.2022
5376 Clear -2 988 86 10000 3.6 210 05:53 10.02.2022
5377 Clouds 0 989 89 10000 5.14 260 01:58 10.02.2022
5378 Clouds 1 995 88 10000 3.6 270 00:51 10.02.2022
5379 Clouds 1 995 88 10000 4.63 270 00:29 10.02.2022
5380 Clouds 1 994 87 10000 4.63 270 23:28 09.02.2022
5381 Clouds 1 994 88 10000 4.12 250 22:38 09.02.2022
5382 Clouds 1 994 88 10000 4.12 250 21:56 09.02.2022
5383 Clouds 1 993 88 10000 4.63 230 21:32 09.02.2022
5384 Clouds 1 994 87 10000 2.68 262 20:53 09.02.2022
5385 Clouds 1 994 88 10000 5.14 210 20:31 09.02.2022
5386 Snow 1 994 89 10000 5.14 210 19:59 09.02.2022
5387 Snow 1 994 89 10000 5.14 210 19:38 09.02.2022
5388 Drizzle 1 996 90 10000 7.2 210 17:39 09.02.2022
5389 Snow 1 997 88 10000 6.69 210 16:53 09.02.2022
5390 Clouds 2 998 87 10000 5.81 259 15:52 09.02.2022
5391 Clouds 1 999 87 10000 6.17 220 14:42 09.02.2022
5392 Clouds 1 1000 86 10000 5.81 264 12:30 09.02.2022
5393 Rain 0 995 87 10000 3.6 190 10:55 09.02.2022
5394 Snow -1 995 87 10000 3.6 200 10:30 09.02.2022
5395 Clear -2 994 86 10000 2.06 200 09:40 09.02.2022
5396 Clear -3 995 88 10000 2.06 220 09:19 09.02.2022
5397 Fog -4 993 90 10000 3.6 220 07:55 09.02.2022
5398 Clear -4 990 90 10000 3.6 240 05:30 09.02.2022
5399 Clear -4 990 90 10000 3.6 240 05:30 09.02.2022
5400 Fog -3 992 90 10000 4.12 220 03:50 09.02.2022
5401 Clouds -1 999 87 10000 3.09 270 00:53 09.02.2022
5402 Clouds 0 998 87 10000 4.12 280 23:33 08.02.2022
5403 Clouds 1 997 87 10000 4.63 280 22:47 08.02.2022
5404 Clouds 1 997 86 10000 4.63 290 22:21 08.02.2022
5405 Clouds 0 996 89 10000 3.6 280 21:49 08.02.2022
5406 Clouds 0 996 89 8000 3.09 260 21:21 08.02.2022
5407 Mist 0 995 89 4500 2.57 230 20:44 08.02.2022
5408 Clouds 0 994 89 4500 4.12 190 19:46 08.02.2022
5409 Clouds 0 994 89 6000 4.12 170 18:48 08.02.2022
5410 Snow 0 994 89 3000 5.14 160 17:43 08.02.2022
5411 Snow 0 994 88 1300 5.14 150 16:30 08.02.2022
5412 Snow 0 995 90 1300 5.66 150 15:30 08.02.2022
5413 Snow 0 996 89 2500 4.63 150 14:38 08.02.2022
5414 Snow 0 990 89 10000 5.66 160 13:24 08.02.2022
5415 Clouds 0 990 88 10000 3.09 130 11:38 08.02.2022
5416 Clouds -1 992 87 10000 3.09 190 10:23 08.02.2022
5417 Clouds -2 992 88 10000 2.57 200 09:45 08.02.2022
5418 Clouds -3 1002 86 10000 3.09 260 07:53 08.02.2022
5419 Clouds -3 986 94 10000 5.14 260 05:41 08.02.2022
5420 Clouds -2 987 93 10000 4.12 270 04:39 08.02.2022
5421 Clouds -2 991 86 10000 5.14 270 04:21 08.02.2022
5422 Clouds -1 1001 85 10000 4.12 280 03:36 08.02.2022
5423 Clouds -1 992 89 10000 4.12 290 03:18 08.02.2022
5424 Clouds 0 1000 86 10000 4.12 290 02:58 08.02.2022
5425 Clouds -1 1000 87 10000 3.09 280 02:36 08.02.2022
5426 Clouds 0 1000 87 10000 3.6 280 02:18 08.02.2022
5427 Clouds 0 999 87 10000 3.09 300 01:44 08.02.2022
5428 Clouds 0 999 87 10000 3.09 300 01:24 08.02.2022
5429 Clouds 0 999 85 10000 1.79 307 00:54 08.02.2022
5430 Clouds 0 998 84 10000 4.12 300 23:54 07.02.2022
5431 Clouds 0 998 85 10000 3.6 300 23:36 07.02.2022
5432 Clouds 0 998 84 10000 3.6 300 23:18 07.02.2022
5433 Clouds 0 997 85 8000 3.6 290 22:19 07.02.2022
5434 Clouds 0 997 83 10000 4.63 320 21:55 07.02.2022
5435 Clouds 0 987 86 10000 3.09 310 21:29 07.02.2022
5436 Clouds 0 987 87 10000 2.68 330 20:56 07.02.2022
5437 Clouds 0 987 87 10000 2.57 310 20:38 07.02.2022
5438 Clouds 0 986 87 10000 2.57 310 19:49 07.02.2022
5439 Clouds 0 995 85 10000 3.13 293 19:31 07.02.2022
5440 Clouds 0 981 87 10000 2.06 300 17:52 07.02.2022
5441 Clouds 0 980 86 10000 2.06 310 16:52 07.02.2022
5442 Clouds 0 980 93 10000 2.06 310 15:49 07.02.2022
5443 Clouds 1 982 86 10000 2.06 330 14:48 07.02.2022
5444 Clouds 1 981 87 10000 1.03 0 13:28 07.02.2022
5445 Clouds 1 980 86 10000 0.45 1 12:38 07.02.2022
5446 Clouds 1 980 86 10000 0.89 2 11:55 07.02.2022
5447 Clouds 1 980 87 10000 1.34 348 11:33 07.02.2022
5448 Clouds 1 979 87 10000 1.34 338 10:47 07.02.2022
5449 Clouds 1 979 88 10000 0.89 316 10:28 07.02.2022
5450 Clouds 0 979 87 10000 0.89 333 09:52 07.02.2022
5451 Clouds 1 987 87 10000 0.89 340 09:18 07.02.2022
5452 Clouds 0 986 88 10000 1.54 200 08:20 07.02.2022
5453 Clouds 0 984 81 7000 0.89 161 06:35 07.02.2022
5454 Mist 0 984 76 2800 0.89 194 05:47 07.02.2022
5455 Clouds 1 982 83 10000 2.24 187 02:56 07.02.2022
5456 Clouds 1 984 88 10000 3.13 189 00:42 07.02.2022
5457 Clouds 1 984 88 10000 1.79 193 23:42 06.02.2022
5458 Clouds 1 983 88 10000 1.79 192 22:47 06.02.2022
5459 Clouds 1 983 88 10000 3.58 203 21:51 06.02.2022
5460 Clouds 1 983 88 10000 2.68 201 21:26 06.02.2022
5461 Clouds 1 983 88 10000 2.68 207 20:52 06.02.2022
5462 Clouds 1 983 89 10000 2.68 216 20:24 06.02.2022
5463 Clouds 1 983 90 10000 3.58 195 19:32 06.02.2022
5464 Clouds 1 983 90 10000 2.68 220 18:38 06.02.2022
5465 Clouds 1 983 88 10000 3.13 202 17:54 06.02.2022
5466 Clouds 1 982 90 9000 2.68 186 16:53 06.02.2022
5467 Clouds 1 983 90 9000 3.58 211 16:32 06.02.2022
5468 Clouds 1 982 90 10000 2.68 185 15:47 06.02.2022
5469 Clouds 1 983 88 8000 3.58 197 15:26 06.02.2022
5470 Clouds 1 983 87 4000 4.92 191 14:27 06.02.2022
5471 Clouds 1 983 88 2600 4.47 195 13:24 06.02.2022
5472 Snow 1 982 87 1500 4.47 182 12:45 06.02.2022
5473 Snow 1 983 88 1900 3.13 160 11:19 06.02.2022
5474 Snow 0 985 88 2200 1.79 164 09:48 06.02.2022
5475 Snow 1 986 87 10000 1.34 183 08:46 06.02.2022
5476 Clouds 1 987 86 10000 4.47 182 07:36 06.02.2022
5477 Clouds 0 989 86 8000 3.13 206 05:29 06.02.2022
5478 Clouds -6 979 85 10000 2.06 160 02:26 06.02.2022
5479 Clouds -5 973 87 10000 3.6 180 00:51 06.02.2022
5480 Clouds -5 973 83 10000 2.57 160 00:24 06.02.2022
5481 Clouds -5 973 95 10000 4.63 220 22:18 05.02.2022
5482 Clouds -4 973 94 10000 4.12 220 20:48 05.02.2022
5483 Clouds -4 973 94 10000 3.09 220 20:23 05.02.2022
5484 Clouds -4 973 94 10000 4.12 230 19:44 05.02.2022
5485 Clouds 0 991 84 10000 0.89 225 18:48 05.02.2022
5486 Clouds 0 990 84 10000 1.34 217 17:37 05.02.2022
5487 Clouds 0 990 87 10000 1.34 225 16:33 05.02.2022
5488 Drizzle 0 989 87 3500 0.89 216 15:31 05.02.2022
5489 Snow 0 989 87 1800 1.79 223 13:58 05.02.2022
5490 Clouds 0 989 88 1000 3.58 211 12:46 05.02.2022
5491 Snow 0 989 88 900 2.24 181 11:47 05.02.2022
5492 Clouds 0 989 87 1400 2.68 184 10:44 05.02.2022
5493 Snow 0 989 87 1200 1.79 171 09:51 05.02.2022
5494 Snow -1 990 87 900 2.24 171 09:23 05.02.2022
5495 Snow -1 990 89 1200 1.34 188 07:32 05.02.2022
5496 Snow -1 991 88 1500 2.24 169 06:55 05.02.2022
5497 Snow -2 994 88 2000 3.13 176 02:43 05.02.2022
5498 Snow -2 994 88 1500 2.24 176 01:18 05.02.2022
5499 Snow -2 995 86 4000 4.47 187 00:36 05.02.2022
5500 Clouds -2 997 87 10000 2.68 174 23:33 04.02.2022
5501 Clouds -2 997 87 8000 3.13 180 22:50 04.02.2022
5502 Clouds -3 998 87 6000 1.79 179 21:36 04.02.2022
5503 Clouds -3 998 87 10000 2.68 185 21:18 04.02.2022
5504 Clouds -3 999 87 5000 1.79 186 20:37 04.02.2022
5505 Snow -3 1000 89 1400 1.34 206 19:19 04.02.2022
5506 Snow -3 1002 88 2000 0.89 231 16:50 04.02.2022
5507 Clouds -3 1004 83 10000 1.79 163 15:33 04.02.2022
5508 Clouds -3 1004 84 10000 1.79 184 14:47 04.02.2022
5509 Clouds -3 1006 88 10000 1.79 199 12:43 04.02.2022
5510 Clouds -3 1008 85 10000 2.68 176 11:45 04.02.2022
5511 Clouds -3 1009 87 10000 2.68 175 10:56 04.02.2022
5512 Clouds -4 1009 87 10000 4.02 184 10:22 04.02.2022
5513 Clouds -4 1009 87 10000 3.13 185 08:30 04.02.2022
5514 Clouds -7 1011 86 10000 2.68 55 03:47 04.02.2022
5515 Clouds -8 1011 87 10000 2.68 58 02:36 04.02.2022
5516 Fog -10 1011 85 700 1.79 61 23:40 03.02.2022
5517 Mist -10 1011 85 1400 2.24 80 22:51 03.02.2022
5518 Mist -10 1011 86 3000 1.79 57 21:52 03.02.2022
5519 Mist -10 1011 86 4000 2.68 69 21:29 03.02.2022
5520 Clouds -11 1011 92 7000 2.68 74 20:22 03.02.2022
5521 Clouds -10 1011 92 7000 2.24 78 20:22 03.02.2022
5522 Clouds -11 1011 92 8000 2.68 82 19:42 03.02.2022
5523 Clouds -11 1012 87 10000 4.02 2 18:56 03.02.2022
5524 Clouds -10 1012 82 10000 4.47 5 17:59 03.02.2022
5525 Fog -10 1011 87 10000 4.47 3 16:55 03.02.2022
5526 Clouds -9 1011 87 10000 1.79 351 15:28 03.02.2022
5527 Clouds -7 1011 85 10000 3.13 7 13:50 03.02.2022
5528 Clouds -7 1010 87 10000 3.13 298 12:22 03.02.2022
5529 Clouds -10 1009 85 10000 0.89 331 08:56 03.02.2022
5530 Clouds -10 1001 87 8000 1.34 316 07:41 03.02.2022
5531 Clouds -10 1006 85 10000 1.34 327 00:47 03.02.2022
5532 Clouds -10 1006 85 10000 0.89 330 00:22 03.02.2022
5533 Clouds -10 1005 85 10000 1.34 335 22:38 02.02.2022
5534 Clouds -10 1005 84 10000 1.34 312 21:46 02.02.2022
5535 Clouds -10 1004 83 10000 0.89 306 21:28 02.02.2022
5536 Clouds -10 1004 85 10000 0.89 337 20:24 02.02.2022
5537 Clear -9 1004 86 10000 1.79 338 19:46 02.02.2022
5538 Clear -9 1003 86 10000 1.34 310 18:56 02.02.2022
5539 Clear -9 1003 85 10000 1.34 329 18:24 02.02.2022
5540 Clear -8 1003 87 10000 0.45 307 17:20 02.02.2022
5541 Clouds -8 1002 87 10000 0.89 308 16:56 02.02.2022
5542 Clouds -7 1001 87 10000 1.79 333 15:23 02.02.2022
5543 Clouds -7 992 87 10000 0.89 346 12:30 02.02.2022
5544 Clouds -8 992 87 10000 2.24 359 11:48 02.02.2022
5545 Clouds -8 992 87 10000 2.06 330 11:30 02.02.2022
5546 Clouds -8 992 87 10000 2.06 330 11:30 02.02.2022
5547 Clouds -9 997 86 10000 0.89 351 08:29 02.02.2022
5548 Clouds -9 987 87 10000 1.79 343 01:46 02.02.2022
5549 Clouds -9 986 86 10000 0.89 301 22:29 01.02.2022
5550 Clouds -9 986 88 10000 0.89 328 20:50 01.02.2022
5551 Clear -9 986 88 10000 0.89 307 18:55 01.02.2022
5552 Clouds -8 986 88 10000 0.89 339 16:56 01.02.2022
5553 Clouds -8 986 89 10000 1.34 338 16:19 01.02.2022
5554 Clouds -7 987 89 10000 1.79 334 12:57 01.02.2022
5555 Clouds -7 987 89 10000 1.34 346 11:57 01.02.2022
5556 Clouds -8 989 87 10000 1.34 342 08:51 01.02.2022
5557 Clouds -7 989 86 10000 2.68 331 02:20 01.02.2022
5558 Clouds -7 991 88 10000 2.24 348 23:37 31.01.2022
5559 Clouds -6 991 87 10000 1.79 321 22:33 31.01.2022
5560 Snow -6 992 87 10000 1.79 326 21:34 31.01.2022
5561 Clouds -6 991 88 10000 2.24 325 20:34 31.01.2022
5562 Clouds -6 997 87 10000 2.68 327 19:52 31.01.2022
5563 Clouds -6 997 88 5000 3.13 329 18:31 31.01.2022
5564 Clouds -6 997 88 4000 2.24 323 17:55 31.01.2022
5565 Snow -5 991 88 4000 2.24 331 16:58 31.01.2022
5566 Snow -5 997 87 3000 3.13 333 16:20 31.01.2022
5567 Snow -5 990 87 3000 2.68 333 14:50 31.01.2022
5568 Snow -5 989 88 2500 3.13 333 13:29 31.01.2022
5569 Snow -5 989 89 5000 3.58 335 12:37 31.01.2022
5570 Snow -5 989 92 4000 2.68 336 10:59 31.01.2022
5571 Clouds -6 989 92 7000 2.68 338 10:38 31.01.2022
5572 Clouds -6 988 87 7000 3.13 332 09:36 31.01.2022
5573 Clouds -6 987 86 6000 3.13 332 08:54 31.01.2022
5574 Clouds -6 987 87 6000 3.13 334 08:20 31.01.2022
5575 Snow -6 993 84 10000 3.58 340 07:29 31.01.2022
5576 Snow -6 986 88 2700 4.47 343 05:24 31.01.2022
5577 Snow -4 992 87 2600 3.58 335 23:37 30.01.2022
5578 Snow -4 992 86 4500 3.58 345 22:31 30.01.2022
5579 Snow -4 991 86 6000 3.13 341 21:44 30.01.2022
5580 Snow -4 991 87 4500 4.47 342 21:24 30.01.2022
5581 Clouds -4 990 87 4500 3.13 336 20:51 30.01.2022
5582 Clouds -4 990 87 7000 4.02 345 20:30 30.01.2022
5583 Snow -4 990 87 4500 3.58 346 19:54 30.01.2022
5584 Snow -3 989 87 1400 3.58 338 18:51 30.01.2022
5585 Snow -3 988 94 1400 4.47 338 18:21 30.01.2022
5586 Snow -3 987 94 4000 3.13 341 17:30 30.01.2022
5587 Clouds -3 986 95 2000 2.68 344 16:42 30.01.2022
5588 Clouds -3 986 94 2000 3.13 339 16:22 30.01.2022
5589 Clouds -3 986 94 2000 3.13 339 16:22 30.01.2022
5590 Clouds -3 985 94 2500 1.34 345 15:54 30.01.2022
5591 Snow -3 985 94 2500 1.34 345 15:54 30.01.2022
5592 Clouds -3 985 94 2800 2.24 348 15:32 30.01.2022
5593 Clouds -3 984 94 3500 2.68 354 14:47 30.01.2022
5594 Snow -2 982 94 1800 1.79 343 13:37 30.01.2022
5595 Clouds -2 980 96 1800 2.24 349 12:41 30.01.2022
5596 Clouds -1 977 88 10000 1.34 2 10:38 30.01.2022
5597 Clouds -1 976 88 10000 1.79 82 09:57 30.01.2022
5598 Clouds -1 974 89 9000 1.79 64 09:21 30.01.2022
5599 Snow -1 971 87 4000 1.79 355 07:57 30.01.2022
5600 Clouds 0 967 88 1500 1.79 128 02:44 30.01.2022
5601 Clouds 0 968 91 1500 2.68 134 01:52 30.01.2022
5602 Snow -1 970 89 800 1.79 154 23:45 29.01.2022
5603 Snow -1 973 89 400 1.79 179 22:37 29.01.2022
5604 Snow -1 975 89 600 1.34 191 21:27 29.01.2022
5605 Snow -1 976 89 1100 1.79 231 20:50 29.01.2022
5606 Snow -1 978 90 800 1.79 213 19:47 29.01.2022
5607 Snow -1 980 89 1000 1.79 214 19:29 29.01.2022
5608 Snow 0 982 90 800 2.24 195 18:39 29.01.2022
5609 Snow 0 985 90 1100 1.79 204 17:42 29.01.2022
5610 Snow 0 987 89 1200 2.68 196 16:42 29.01.2022
5611 Snow 0 990 89 1600 4.47 185 14:52 29.01.2022
5612 Clouds 0 993 86 4500 5.36 194 13:46 29.01.2022
5613 Clouds 0 993 86 4500 3.13 190 13:26 29.01.2022
5614 Clouds 0 996 85 10000 4.02 199 12:42 29.01.2022
5615 Clouds 0 998 82 10000 4.47 202 11:38 29.01.2022
5616 Clear -1 1000 81 10000 4.92 207 10:25 29.01.2022
5617 Clear -6 1005 85 10000 1.79 216 07:24 29.01.2022
5618 Clear -6 1000 87 10000 0.89 324 01:35 29.01.2022
5619 Clouds -5 998 87 10000 0.45 324 00:31 29.01.2022
5620 Clouds -5 998 87 10000 0.45 324 00:31 29.01.2022
5621 Clouds -4 993 83 10000 0.89 324 23:22 28.01.2022
5622 Clouds -3 993 82 10000 0.45 324 22:42 28.01.2022
5623 Clouds -2 1006 79 10000 3.58 317 22:18 28.01.2022
5624 Clouds -2 1007 87 10000 2.24 304 20:40 28.01.2022
5625 Clouds -2 1006 86 10000 2.24 315 19:51 28.01.2022
5626 Clouds -2 1006 86 10000 3.13 318 18:49 28.01.2022
5627 Clouds -2 1005 85 10000 3.13 316 17:45 28.01.2022
5628 Clouds -1 1003 85 10000 5.81 316 15:45 28.01.2022
5629 Clouds -1 1002 86 8000 6.26 333 14:18 28.01.2022
5630 Clouds 0 1000 86 8000 6.26 353 12:33 28.01.2022
5631 Clouds 0 999 86 2000 7.6 345 11:38 28.01.2022
5632 Clouds 0 998 86 10000 8.49 310 10:21 28.01.2022
5633 Clouds 0 997 87 10000 10.28 328 09:44 28.01.2022
5634 Clouds 0 994 88 3000 10.73 325 07:39 28.01.2022
5635 Snow 0 992 88 5000 2.24 350 05:24 28.01.2022
5636 Snow 0 991 88 6000 8.49 75 03:47 28.01.2022
5637 Snow 0 990 88 3000 1.34 311 02:23 28.01.2022
5638 Snow 0 989 88 6000 0.89 18 01:34 28.01.2022
5639 Clouds 0 988 88 4000 0.89 25 23:33 27.01.2022
5640 Clouds 0 988 88 4000 0.45 63 21:50 27.01.2022
5641 Clouds 0 988 88 4000 0.45 116 21:30 27.01.2022
5642 Clouds 0 988 88 4000 0.45 116 21:30 27.01.2022
5643 Snow 0 988 88 3500 0.89 137 20:53 27.01.2022
5644 Snow 0 988 88 2500 1.79 143 19:30 27.01.2022
5645 Mist 0 988 87 2500 1.79 133 17:56 27.01.2022
5646 Snow 1 990 88 4000 1.34 147 15:30 27.01.2022
5647 Mist 1 991 89 4000 0.89 187 13:37 27.01.2022
5648 Rain 1 992 89 4000 0.45 199 12:46 27.01.2022
5649 Clouds 1 994 89 10000 1.79 189 10:46 27.01.2022
5650 Clouds 1 995 88 10000 1.79 196 08:57 27.01.2022
5651 Clouds 1 994 88 10000 3.13 188 08:34 27.01.2022
5652 Clouds 0 997 88 7000 1.34 183 05:59 27.01.2022
5653 Mist 1 999 89 4500 0.89 294 02:43 27.01.2022
5654 Mist 1 1000 89 4500 1.79 202 23:32 26.01.2022
5655 Clouds 1 1000 87 2500 2.24 199 21:59 26.01.2022
5656 Clouds 1 1001 87 2800 2.24 196 21:35 26.01.2022
5657 Clouds 1 1001 87 3500 3.13 217 20:36 26.01.2022
5658 Clouds 1 1001 87 3500 3.13 217 20:36 26.01.2022
5659 Clouds 1 1001 88 2800 1.79 203 19:59 26.01.2022
5660 Clouds 1 1001 87 2800 4.02 214 19:20 26.01.2022
5661 Drizzle 0 1002 88 2700 3.58 202 18:45 26.01.2022
5662 Clouds 0 1002 88 3000 3.13 191 17:50 26.01.2022
5663 Clouds 0 1003 88 2700 4.02 194 17:22 26.01.2022
5664 Snow 0 1003 87 1600 4.47 192 16:31 26.01.2022
5665 Snow 0 1004 89 1400 3.13 192 15:49 26.01.2022
5666 Snow 0 1006 85 10000 4.47 186 13:58 26.01.2022
5667 Clouds 0 1009 84 10000 2.68 191 11:48 26.01.2022
5668 Clouds -1 1010 86 10000 3.58 212 10:27 26.01.2022
5669 Clouds -1 1011 85 10000 3.13 199 09:45 26.01.2022
5670 Clouds -4 1012 88 10000 0.89 202 07:37 26.01.2022
5671 Clear -7 1017 94 10000 0.45 255 01:53 26.01.2022
5672 Clear -6 1017 87 10000 0.89 294 23:56 25.01.2022
5673 Clear -6 1018 86 10000 0.45 294 22:56 25.01.2022
5674 Clear -5 1018 86 10000 0.45 307 22:21 25.01.2022
5675 Clear -5 1018 86 10000 0.89 310 21:52 25.01.2022
5676 Clear -5 1018 86 10000 1.34 300 20:46 25.01.2022
5677 Clear -4 1018 86 10000 0.89 274 20:22 25.01.2022
5678 Clear -4 1018 91 10000 1.34 264 19:46 25.01.2022
5679 Clear -4 1019 86 10000 0.89 285 18:24 25.01.2022
5680 Clear -4 1018 86 10000 1.34 258 17:42 25.01.2022
5681 Clear -2 1018 87 10000 0.45 317 16:35 25.01.2022
5682 Clear -2 1017 84 10000 0.89 313 15:47 25.01.2022
5683 Clear -1 1017 83 10000 0.89 325 15:28 25.01.2022
5684 Clear -1 1017 78 10000 2.24 329 14:57 25.01.2022
5685 Clouds 0 1016 76 10000 2.68 323 13:28 25.01.2022
5686 Clear 0 1015 79 10000 3.58 322 10:39 25.01.2022
5687 Clear -1 1014 83 10000 3.13 307 08:34 25.01.2022
5688 Clear -1 1014 84 10000 2.24 303 07:28 25.01.2022
5689 Clear 0 1004 86 10000 2.24 309 06:29 25.01.2022
5690 Clear 0 1004 86 10000 0.45 325 04:22 25.01.2022
5691 Clouds 1 1004 88 10000 0.89 273 23:37 24.01.2022
5692 Clouds 1 1004 88 10000 0.45 320 23:18 24.01.2022
5693 Clouds 2 1004 87 10000 0.45 320 22:59 24.01.2022
5694 Clouds 2 1004 87 10000 1.34 319 22:41 24.01.2022
5695 Clouds 2 1012 85 10000 1.79 302 21:49 24.01.2022
5696 Clouds 2 1012 86 10000 2.68 301 21:27 24.01.2022
5697 Clouds 2 1012 86 10000 2.24 309 20:29 24.01.2022
5698 Clouds 2 1012 86 10000 1.79 254 19:39 24.01.2022
5699 Clouds 2 1012 86 10000 1.34 290 19:19 24.01.2022
5700 Drizzle 2 1013 87 9000 1.79 236 17:45 24.01.2022
5701 Drizzle 2 1013 87 10000 1.79 242 17:23 24.01.2022
5702 Clouds 2 1013 87 10000 2.68 244 16:33 24.01.2022
5703 Clouds 2 1013 87 10000 2.24 230 15:52 24.01.2022
5704 Drizzle 2 1013 89 4800 3.58 233 14:27 24.01.2022
5705 Drizzle 2 1015 87 10000 2.68 235 12:36 24.01.2022
5706 Drizzle 2 1015 87 6000 3.13 242 11:53 24.01.2022
5707 Drizzle 2 1015 87 4800 4.02 229 10:25 24.01.2022
5708 Drizzle 2 1016 88 5000 4.02 228 09:47 24.01.2022
5709 Drizzle 2 1017 88 5000 4.92 207 08:19 24.01.2022
5710 Mist 1 1020 89 3000 3.13 223 02:33 24.01.2022
5711 Mist 1 1021 89 1500 2.24 219 01:28 24.01.2022
5712 Mist 1 1021 89 1100 3.58 215 00:34 24.01.2022
5713 Mist 1 1021 89 2500 3.58 215 23:47 23.01.2022
5714 Mist 1 1021 89 2500 2.24 211 23:47 23.01.2022
5715 Mist 1 1022 89 3000 2.68 237 22:21 23.01.2022
5716 Mist 1 1022 89 2000 1.34 230 21:42 23.01.2022
5717 Mist 1 1022 89 1300 2.24 229 21:24 23.01.2022
5718 Mist 1 1022 89 1500 2.68 228 20:29 23.01.2022
5719 Mist 1 1022 89 2500 2.24 256 19:21 23.01.2022
5720 Mist 1 1022 89 2500 1.79 224 18:44 23.01.2022
5721 Mist 1 1022 89 2500 1.79 231 17:27 23.01.2022
5722 Mist 1 1022 87 3500 1.34 239 16:27 23.01.2022
5723 Mist 1 1021 88 4000 1.79 226 14:54 23.01.2022
5724 Mist 0 1021 88 1800 2.24 234 14:19 23.01.2022
5725 Clouds 0 1021 90 7000 3.13 227 12:47 23.01.2022
5726 Clouds 0 1021 90 8000 2.68 211 12:21 23.01.2022
5727 Clouds -1 1022 90 3500 3.13 217 11:27 23.01.2022
5728 Clouds -1 1022 88 2500 1.79 201 10:59 23.01.2022
5729 Clouds -1 1022 88 2000 3.13 188 10:25 23.01.2022
5730 Snow -2 1021 88 2500 3.13 196 09:33 23.01.2022
5731 Snow -2 1021 89 2500 2.68 189 08:50 23.01.2022
5732 Clear -7 1013 87 10000 1.34 90 04:41 23.01.2022
5733 Clear -8 1013 88 10000 0 0 01:43 23.01.2022
5734 Clear -8 1013 88 10000 0.45 308 00:56 23.01.2022
5735 Clear -8 1021 86 10000 0.45 304 00:22 23.01.2022
5736 Clear -9 1021 86 10000 0.45 313 23:19 22.01.2022
5737 Clear -9 1021 86 10000 0.89 319 22:34 22.01.2022
5738 Clear -9 1021 86 10000 0.89 319 22:34 22.01.2022
5739 Clear -9 1020 85 10000 0.89 308 21:18 22.01.2022
5740 Clouds -9 1020 90 10000 1.34 332 19:46 22.01.2022
5741 Clouds -9 1020 90 10000 2.24 331 18:43 22.01.2022
5742 Clouds -8 1020 86 10000 1.79 338 17:56 22.01.2022
5743 Clouds -8 1019 89 10000 1.79 335 17:35 22.01.2022
5744 Clouds -8 1019 89 10000 1.79 336 16:55 22.01.2022
5745 Clear -7 1018 89 10000 2.68 320 15:49 22.01.2022
5746 Clouds -7 1018 88 10000 3.13 333 14:57 22.01.2022
5747 Clouds -6 1017 87 10000 3.58 332 13:36 22.01.2022
5748 Clouds -6 1017 87 10000 4.02 336 12:47 22.01.2022
5749 Clouds -5 1017 85 10000 3.13 327 12:24 22.01.2022
5750 Clouds -5 1009 85 10000 4.47 333 10:55 22.01.2022
5751 Clouds -5 1006 89 10000 3.58 335 10:28 22.01.2022
5752 Clouds -5 1006 89 10000 3.13 332 09:46 22.01.2022
5753 Clouds -5 1006 90 10000 2.68 336 08:51 22.01.2022
5754 Clouds -5 1008 88 10000 2.68 332 07:28 22.01.2022
5755 Clouds -4 1006 88 10000 2.68 330 04:50 22.01.2022
5756 Clouds -4 1002 86 10000 4.47 338 00:57 22.01.2022
5757 Clouds -4 999 89 10000 4.02 339 23:21 21.01.2022
5758 Clouds -4 998 89 10000 5.36 339 22:19 21.01.2022
5759 Clouds -4 998 89 10000 5.36 339 22:19 21.01.2022
5760 Clouds -2 1004 84 10000 5.81 335 19:55 21.01.2022
5761 Clouds -2 1002 84 10000 4.92 335 18:23 21.01.2022
5762 Clouds -2 1001 87 5000 6.71 335 17:18 21.01.2022
5763 Snow -2 1000 85 10000 5.81 332 15:27 21.01.2022
5764 Clouds -2 998 79 10000 5.81 329 13:18 21.01.2022
5765 Clouds -2 997 81 10000 6.26 334 12:26 21.01.2022
5766 Clouds -2 996 79 10000 6.26 335 11:26 21.01.2022
5767 Clouds -2 995 82 10000 6.26 328 09:34 21.01.2022
5768 Clouds -2 995 83 10000 5.81 334 08:22 21.01.2022
5769 Clouds -2 992 89 10000 6.71 322 04:37 21.01.2022
5770 Snow -3 979 95 2700 3.58 345 23:19 20.01.2022
5771 Snow -2 975 95 10000 4.92 345 21:50 20.01.2022
5772 Snow -2 974 97 5000 4.92 330 21:31 20.01.2022
5773 Snow -2 977 94 4500 4.47 359 20:21 20.01.2022
5774 Snow -1 976 95 7000 4.47 355 19:19 20.01.2022
5775 Snow 0 974 97 4000 3.58 359 17:46 20.01.2022
5776 Snow 0 973 97 3000 2.06 360 16:35 20.01.2022
5777 Snow 0 973 97 3000 2.06 360 16:35 20.01.2022
5778 Snow 0 974 97 2000 4.92 291 15:40 20.01.2022
5779 Snow 0 973 97 5000 3.58 300 14:40 20.01.2022
5780 Snow 1 973 97 1200 3.13 233 13:21 20.01.2022
5781 Snow 1 973 97 3000 0.45 209 12:31 20.01.2022
5782 Snow 1 972 97 2000 1.34 155 11:20 20.01.2022
5783 Snow 1 972 96 4000 1.79 151 10:19 20.01.2022
5784 Clouds 1 979 95 6000 3.13 186 09:19 20.01.2022
5785 Snow 1 972 95 4500 0.45 253 07:24 20.01.2022
5786 Rain 1 978 95 7000 1.34 167 00:41 20.01.2022
5787 Rain 3 987 96 9000 4.47 219 22:50 19.01.2022
5788 Rain 3 988 94 10000 3.13 220 21:44 19.01.2022
5789 Rain 3 989 96 10000 3.58 222 21:22 19.01.2022
5790 Drizzle 3 989 95 9000 2.68 223 20:45 19.01.2022
5791 Clouds 3 991 91 10000 2.24 239 19:26 19.01.2022
5792 Drizzle 3 992 93 10000 4.47 234 17:51 19.01.2022
5793 Clouds 3 992 93 10000 3.13 225 17:28 19.01.2022
5794 Clouds 3 993 91 10000 2.24 232 15:36 19.01.2022
5795 Clouds 3 996 92 10000 2.68 250 13:38 19.01.2022
5796 Clouds 2 997 93 10000 3.58 239 12:24 19.01.2022
5797 Clouds 2 997 94 10000 3.58 231 11:38 19.01.2022
5798 Clouds 2 1000 94 10000 1.79 224 09:52 19.01.2022
5799 Clouds 1 1000 94 10000 4.02 215 09:33 19.01.2022
5800 Clear -2 995 94 10000 0.45 245 06:34 19.01.2022
5801 Clouds -1 1010 86 10000 1.34 254 00:33 19.01.2022
5802 Clouds 0 1011 86 10000 1.34 262 23:18 18.01.2022
5803 Clouds 0 1012 85 10000 0.89 235 21:55 18.01.2022
5804 Clouds -1 1013 87 10000 1.79 236 20:44 18.01.2022
5805 Snow -1 1013 86 10000 1.34 220 19:52 18.01.2022
5806 Clouds -1 1013 84 10000 2.24 229 19:33 18.01.2022
5807 Clouds -1 1014 84 10000 0.89 259 18:25 18.01.2022
5808 Clouds -1 1015 88 10000 1.79 245 17:33 18.01.2022
5809 Clouds -3 1017 85 10000 1.79 232 16:22 18.01.2022
5810 Clouds -4 1017 84 10000 1.79 239 15:25 18.01.2022
5811 Clear -4 1018 84 10000 1.79 219 14:34 18.01.2022
5812 Clear -5 1018 82 10000 1.79 307 11:52 18.01.2022
5813 Clear -6 1009 84 10000 2.24 298 10:30 18.01.2022
5814 Clear -7 1008 85 10000 0.89 264 08:36 18.01.2022
5815 Clear -7 1016 83 10000 2.24 298 07:45 18.01.2022
5816 Clear -7 1007 83 10000 3.13 291 07:45 18.01.2022
5817 Clear -4 1012 76 10000 4.92 318 01:34 18.01.2022
5818 Clear -3 1008 78 10000 5.81 325 22:47 17.01.2022
5819 Clear -3 1006 77 10000 5.81 322 21:50 17.01.2022
5820 Clear -3 1006 76 10000 4.92 319 21:29 17.01.2022
5821 Clear -3 1004 77 10000 4.47 309 19:42 17.01.2022
5822 Clear -3 1003 73 10000 4.47 308 18:27 17.01.2022
5823 Clear -3 1001 74 10000 5.36 321 17:22 17.01.2022
5824 Clear -3 999 72 10000 6.71 312 16:22 17.01.2022
5825 Clear -3 997 72 10000 6.71 322 14:58 17.01.2022
5826 Clear -3 996 71 10000 7.6 331 14:32 17.01.2022
5827 Clouds -2 993 77 10000 7.15 328 13:19 17.01.2022
5828 Clouds -2 989 84 10000 7.6 332 12:27 17.01.2022
5829 Clouds -2 987 88 10000 10.28 324 11:33 17.01.2022
5830 Clouds -2 984 92 10000 6.71 340 10:21 17.01.2022
5831 Snow -1 979 95 600 4.92 1 08:44 17.01.2022
5832 Snow 0 974 96 600 3.58 344 07:21 17.01.2022
5833 Clear -1 980 96 10000 1.79 177 01:52 17.01.2022
5834 Clouds 0 983 93 10000 1.34 244 23:44 16.01.2022
5835 Clouds 1 985 91 10000 2.24 267 21:21 16.01.2022
5836 Clouds 1 985 94 10000 2.68 267 20:18 16.01.2022
5837 Rain 2 986 94 8000 2.24 264 18:46 16.01.2022
5838 Clouds 2 987 94 10000 1.79 242 17:47 16.01.2022
5839 Rain 2 988 94 7000 3.58 247 16:53 16.01.2022
5840 Drizzle 2 989 94 7000 3.58 237 15:40 16.01.2022
5841 Mist 2 992 96 3000 4.47 235 14:29 16.01.2022
5842 Rain 2 993 94 10000 5.36 222 13:23 16.01.2022
5843 Clouds 1 996 92 10000 3.13 247 11:58 16.01.2022
5844 Clouds 1 997 90 10000 3.58 231 11:27 16.01.2022
5845 Clouds 0 999 90 10000 2.68 244 10:27 16.01.2022
5846 Clouds 0 999 90 10000 3.58 226 09:57 16.01.2022
5847 Clouds -1 1000 91 10000 3.13 232 09:23 16.01.2022
5848 Clouds -1 1000 91 10000 3.58 234 08:53 16.01.2022
5849 Clear -1 1004 87 10000 1.79 245 05:52 16.01.2022
5850 Clear -3 1010 90 10000 1.34 274 00:19 16.01.2022
5851 Clear -3 1012 89 10000 1.34 280 22:49 15.01.2022
5852 Clear -3 1012 85 10000 0.89 292 21:21 15.01.2022
5853 Clear -3 1012 83 10000 0.89 300 20:44 15.01.2022
5854 Clear -2 1012 81 10000 0.89 286 20:18 15.01.2022
5855 Clear -2 1013 78 10000 1.34 309 19:25 15.01.2022
5856 Clear -2 1011 75 10000 1.79 306 17:52 15.01.2022
5857 Clear -2 1011 72 10000 1.79 309 16:43 15.01.2022
5858 Clear 0 1010 69 10000 2.68 300 14:32 15.01.2022
5859 Clear 0 1009 68 10000 3.58 316 12:38 15.01.2022
5860 Clear 0 1008 70 10000 4.02 309 11:20 15.01.2022
5861 Clear 0 1007 73 10000 5.36 322 09:35 15.01.2022
5862 Clouds 2 999 74 10000 5.36 322 01:25 15.01.2022
5863 Clear 2 996 75 10000 4.47 312 21:57 14.01.2022
5864 Clear 1 995 75 10000 4.92 314 20:54 14.01.2022
5865 Clear 1 995 75 10000 4.92 319 20:23 14.01.2022
5866 Clear 1 995 75 10000 6.26 319 19:49 14.01.2022
5867 Clouds 1 994 74 10000 5.81 319 18:33 14.01.2022
5868 Clouds 2 993 70 10000 4.92 316 16:51 14.01.2022
5869 Clouds 2 993 69 10000 5.81 313 16:33 14.01.2022
5870 Clouds 2 990 76 10000 4.92 315 14:49 14.01.2022
5871 Clouds 2 989 74 10000 5.36 322 13:48 14.01.2022
5872 Clouds 2 988 72 10000 6.26 322 12:34 14.01.2022
5873 Clouds 2 987 69 10000 7.6 321 11:29 14.01.2022
5874 Clouds 2 987 72 10000 4.92 313 10:22 14.01.2022
5875 Clouds 2 986 72 10000 4.47 324 08:52 14.01.2022
5876 Clouds 2 985 73 10000 4.47 306 07:27 14.01.2022
5877 Clouds 4 988 81 10000 2.68 291 01:43 14.01.2022
5878 Clouds 4 990 84 10000 2.68 302 23:36 13.01.2022
5879 Clouds 4 991 89 10000 1.34 258 21:42 13.01.2022
5880 Rain 5 992 86 10000 1.34 284 21:23 13.01.2022
5881 Clouds 6 993 81 10000 2.24 263 19:44 13.01.2022
5882 Clouds 6 993 83 10000 2.24 291 19:22 13.01.2022
5883 Clouds 6 994 81 10000 3.13 294 17:56 13.01.2022
5884 Clouds 5 996 82 10000 3.58 300 16:22 13.01.2022
5885 Clouds 5 996 84 10000 2.24 286 15:38 13.01.2022
5886 Clouds 5 997 85 10000 0.89 276 14:50 13.01.2022
5887 Clouds 6 998 84 10000 1.79 269 12:54 13.01.2022
5888 Clouds 5 1000 82 10000 1.79 256 10:25 13.01.2022
5889 Clouds 4 1000 86 10000 1.79 283 09:20 13.01.2022
5890 Clouds 3 998 89 10000 1.34 271 08:27 13.01.2022
5891 Clouds 4 999 89 10000 1.34 300 07:24 13.01.2022
5892 Clouds 3 999 92 10000 1.79 291 06:38 13.01.2022
5893 Clouds 3 999 93 10000 2.68 249 05:20 13.01.2022
5894 Clouds 3 1003 97 10000 2.68 248 02:33 13.01.2022
5895 Clouds 2 1005 94 10000 2.24 236 00:56 13.01.2022
5896 Clouds 2 1006 94 10000 2.68 243 23:50 12.01.2022
5897 Drizzle 2 1007 94 6000 4.02 229 23:29 12.01.2022
5898 Clouds 2 1009 95 8000 4.02 234 21:58 12.01.2022
5899 Clouds 1 1010 96 10000 3.13 235 21:23 12.01.2022
5900 Clouds 1 1010 94 10000 3.13 227 20:57 12.01.2022
5901 Clouds 1 1012 94 10000 2.68 237 19:57 12.01.2022
5902 Clouds 1 1014 96 10000 3.58 249 18:43 12.01.2022
5903 Clouds 1 1015 96 10000 3.58 232 17:50 12.01.2022
5904 Drizzle 1 1016 97 4500 2.68 220 16:38 12.01.2022
5905 Mist 1 1018 95 2500 3.58 216 14:49 12.01.2022
5906 Clouds 0 1021 97 6000 2.68 213 13:32 12.01.2022
5907 Clouds 0 1022 97 6000 2.68 246 12:34 12.01.2022
5908 Clouds -1 1024 95 10000 3.13 212 08:45 12.01.2022
5909 Clouds -1 1024 97 10000 3.13 203 07:52 12.01.2022
5910 Clouds -1 1025 97 8000 3.13 221 07:32 12.01.2022
5911 Clouds -4 1030 94 10000 1.79 265 23:53 11.01.2022
5912 Clouds -4 1030 93 10000 2.24 213 22:57 11.01.2022
5913 Clouds -5 1031 93 10000 1.79 208 22:23 11.01.2022
5914 Clouds -5 1033 93 10000 1.34 225 21:25 11.01.2022
5915 Clouds -6 1033 93 10000 2.24 206 20:21 11.01.2022
5916 Clouds -6 1034 91 10000 2.24 207 18:43 11.01.2022
5917 Clouds -7 1035 92 10000 1.34 204 17:35 11.01.2022
5918 Clouds -7 1035 90 10000 1.34 228 16:38 11.01.2022
5919 Clouds -8 1036 92 10000 1.34 248 15:56 11.01.2022
5920 Clouds -8 1036 91 6000 3.13 245 14:43 11.01.2022
5921 Clouds -9 1036 90 6000 0.45 111 13:56 11.01.2022
5922 Clouds -9 1036 90 6000 1.34 131 13:36 11.01.2022
5923 Clouds -10 1036 94 6000 1.03 70 12:51 11.01.2022
5924 Mist -10 1034 95 5000 0.51 0 12:20 11.01.2022
5925 Fog -14 1037 89 200 1.03 0 09:58 11.01.2022
5926 Fog -17 1036 86 800 1.79 316 07:35 11.01.2022
5927 Clear -17 1035 84 10000 2.24 316 00:43 11.01.2022
5928 Clear -17 1035 85 10000 2.68 326 00:21 11.01.2022
5929 Clear -16 1035 85 10000 3.13 329 23:28 10.01.2022
5930 Clouds -16 1034 86 10000 3.13 335 22:19 10.01.2022
5931 Clear -16 1034 85 10000 2.24 343 21:54 10.01.2022
5932 Clear -16 1034 85 10000 1.79 328 21:31 10.01.2022
5933 Clear -16 1034 85 10000 1.79 348 20:58 10.01.2022
5934 Clear -15 1033 85 10000 2.68 335 20:29 10.01.2022
5935 Clear -15 1034 87 10000 2.24 333 19:45 10.01.2022
5936 Clear -15 1034 87 10000 2.24 351 19:21 10.01.2022
5937 Clear -14 1034 87 10000 2.24 342 18:50 10.01.2022
5938 Clear -14 1033 87 10000 2.24 343 18:31 10.01.2022
5939 Clear -13 1032 87 10000 2.68 337 16:42 10.01.2022
5940 Clear -12 1031 87 10000 2.24 2 15:50 10.01.2022
5941 Clear -11 1030 88 10000 2.24 343 14:34 10.01.2022
5942 Clear -11 1029 86 10000 2.68 338 12:22 10.01.2022
5943 Clear -11 1029 87 10000 3.58 335 11:25 10.01.2022
5944 Clear -12 1028 89 10000 3.13 336 10:21 10.01.2022
5945 Clouds -10 1024 94 10000 2.68 343 08:22 10.01.2022
5946 Clouds -8 1022 86 10000 4.63 30 05:50 10.01.2022
5947 Clouds -7 1018 95 10000 3.13 92 01:33 10.01.2022
5948 Clouds -7 1017 95 10000 3.58 20 00:33 10.01.2022
5949 Clouds -6 1017 95 10000 4.12 50 23:43 09.01.2022
5950 Clouds -6 1015 95 10000 3.58 15 22:42 09.01.2022
5951 Clouds -6 1014 95 10000 2.24 30 21:47 09.01.2022
5952 Clouds -6 1014 95 10000 3.58 16 21:24 09.01.2022
5953 Clouds -6 1014 95 10000 3.13 28 20:54 09.01.2022
5954 Clouds -6 1013 95 10000 1.79 31 20:36 09.01.2022
5955 Clouds -6 1013 95 10000 2.24 40 20:18 09.01.2022
5956 Clouds -6 1012 95 10000 3.58 47 19:36 09.01.2022
5957 Clouds -6 1012 95 10000 3.13 26 19:18 09.01.2022
5958 Clouds -6 1011 95 10000 2.68 25 18:37 09.01.2022
5959 Clouds -5 1010 95 10000 3.13 15 17:48 09.01.2022
5960 Clouds -5 1010 98 10000 2.24 21 17:25 09.01.2022
5961 Clouds -5 1009 95 10000 2.68 28 16:34 09.01.2022
5962 Clouds -5 1009 95 10000 3.13 21 15:37 09.01.2022
5963 Clouds -5 1008 95 10000 3.13 15 14:41 09.01.2022
5964 Clouds -5 1008 96 10000 1.79 0 14:21 09.01.2022
5965 Clouds -5 1008 93 10000 2.68 11 13:41 09.01.2022
5966 Clouds -5 1006 91 8000 3.09 30 11:56 09.01.2022
5967 Clouds -5 1006 93 8000 3.58 17 11:24 09.01.2022
5968 Clouds -5 1005 93 9000 2.68 19 09:53 09.01.2022
5969 Clouds -5 1004 96 9000 2.68 6 08:54 09.01.2022
5970 Clouds -4 1002 94 6000 2.68 12 05:54 09.01.2022
5971 Clouds -4 1002 92 7000 3.6 50 01:26 09.01.2022
5972 Clouds -4 1002 93 9000 3.6 50 00:37 09.01.2022
5973 Clouds -4 1002 94 9000 2.24 102 23:27 08.01.2022
5974 Clouds -4 1003 95 8000 2.24 123 22:35 08.01.2022
5975 Clouds -4 1003 94 4000 2.68 107 21:27 08.01.2022
5976 Clouds -5 1004 93 3400 1.79 96 20:43 08.01.2022
5977 Clouds -5 1004 94 3200 3.13 121 20:21 08.01.2022
5978 Snow -5 1005 94 2800 3.58 108 18:46 08.01.2022
5979 Snow -5 1005 94 2900 4.47 100 17:24 08.01.2022
5980 Snow -6 1006 93 2800 3.6 70 16:40 08.01.2022
5981 Clouds -7 1007 93 3500 4.02 73 14:50 08.01.2022
5982 Clouds -7 1008 91 3500 4.02 91 13:41 08.01.2022
5983 Clouds -9 1010 90 10000 3.58 92 11:30 08.01.2022
5984 Clear -10 1010 94 10000 2.68 82 10:31 08.01.2022
5985 Clear -11 1011 86 10000 2.06 50 09:57 08.01.2022
5986 Clear -11 1011 88 10000 1.79 96 09:30 08.01.2022
5987 Clear -13 1011 88 10000 0.89 294 04:25 08.01.2022
5988 Clouds -11 1013 89 10000 0.89 326 00:58 08.01.2022
5989 Clouds -8 1013 91 10000 0.89 296 22:54 07.01.2022
5990 Clear -8 1012 87 10000 0.89 284 21:46 07.01.2022
5991 Clouds -8 1011 90 10000 1.79 301 20:23 07.01.2022
5992 Snow -8 1010 90 10000 1.34 307 19:26 07.01.2022
5993 Clouds -8 1009 91 10000 2.24 275 18:45 07.01.2022
5994 Clouds -8 1008 89 10000 3.13 293 17:58 07.01.2022
5995 Clouds -8 1008 87 10000 3.58 282 17:22 07.01.2022
5996 Clouds -9 1007 86 10000 2.68 297 14:50 07.01.2022
5997 Clouds -8 1006 88 10000 3.58 296 13:50 07.01.2022
5998 Clouds -8 1006 85 10000 4.02 284 12:50 07.01.2022
5999 Clouds -9 1004 86 10000 4.02 289 10:18 07.01.2022
6000 Clouds -8 998 86 10000 4.02 290 02:59 07.01.2022
6001 Clear -7 998 86 10000 3.13 282 02:21 07.01.2022
6002 Clouds -7 999 88 10000 3.13 291 01:45 07.01.2022
6003 Clouds -7 999 86 10000 4.47 284 01:23 07.01.2022
6004 Snow -6 999 89 10000 3.58 289 00:29 07.01.2022
6005 Clouds -8 999 89 10000 4.02 271 21:57 06.01.2022
6006 Clouds -8 999 90 10000 3.58 271 20:37 06.01.2022
6007 Clear -8 999 88 10000 4.02 285 19:54 06.01.2022
6008 Clear -8 999 89 10000 4.02 282 19:29 06.01.2022
6009 Clear -9 999 89 10000 3.13 286 17:51 06.01.2022
6010 Clear -8 999 89 10000 3.58 289 17:21 06.01.2022
6011 Clear -8 999 89 10000 4.47 287 16:31 06.01.2022
6012 Clear -9 999 90 10000 3.13 280 15:43 06.01.2022
6013 Clear -9 999 89 10000 2.68 293 15:20 06.01.2022
6014 Clear -8 998 90 10000 2.68 307 14:19 06.01.2022
6015 Clear -8 998 88 10000 3.13 304 13:30 06.01.2022
6016 Clouds -8 997 87 10000 4.02 298 12:20 06.01.2022
6017 Clouds -7 995 88 10000 3.58 314 11:29 06.01.2022
6018 Clouds -7 993 88 10000 3.58 319 09:50 06.01.2022
6019 Snow -5 990 96 10000 1.34 315 05:55 06.01.2022
6020 Snow -1 986 96 6000 3.09 20 23:56 05.01.2022
6021 Snow -1 986 96 8000 3.09 20 23:21 05.01.2022
6022 Snow -1 985 95 4000 3.6 30 22:41 05.01.2022
6023 Snow -1 985 97 1500 3.6 20 22:18 05.01.2022
6024 Snow -1 985 97 5000 2.57 40 21:23 05.01.2022
6025 Mist 0 984 96 4000 8.05 16 20:30 05.01.2022
6026 Mist 0 984 96 4000 8.05 16 20:30 05.01.2022
6027 Snow 0 984 96 3000 4.47 64 19:28 05.01.2022
6028 Snow 0 984 96 3500 4.92 124 17:56 05.01.2022
6029 Snow 0 984 97 3500 4.92 105 16:56 05.01.2022
6030 Fog -1 985 96 600 2.68 131 15:46 05.01.2022
6031 Fog -1 985 97 600 1.79 195 14:50 05.01.2022
6032 Fog -1 985 96 800 1.79 160 13:33 05.01.2022
6033 Clouds 0 984 97 7000 1.79 112 11:59 05.01.2022
6034 Snow 0 983 96 3000 1.34 183 08:21 05.01.2022
6035 Mist 0 983 96 1500 0.89 120 06:37 05.01.2022
6036 Mist 0 983 96 1500 0.89 120 06:37 05.01.2022
6037 Clouds 0 986 94 7000 1.79 188 01:20 05.01.2022
6038 Clouds -1 986 95 10000 1.79 195 23:41 04.01.2022
6039 Clouds -1 986 96 10000 1.34 207 23:19 04.01.2022
6040 Clouds 0 986 96 10000 0.89 186 21:32 04.01.2022
6041 Clouds 0 986 96 10000 1.34 195 20:27 04.01.2022
6042 Clouds -1 986 96 10000 1.34 220 18:35 04.01.2022
6043 Clouds -1 987 97 10000 1.79 193 17:19 04.01.2022
6044 Clouds 0 986 94 10000 1.79 243 16:31 04.01.2022
6045 Clouds 1 986 94 10000 1.79 217 14:58 04.01.2022
6046 Clouds 2 986 96 10000 1.79 230 14:37 04.01.2022
6047 Clouds 2 986 96 10000 1.34 199 13:55 04.01.2022
6048 Rain 1 986 97 1100 2.68 185 11:44 04.01.2022
6049 Snow 1 985 96 4000 2.68 180 10:18 04.01.2022
6050 Snow 0 986 96 3000 1.79 131 08:49 04.01.2022
6051 Snow -1 987 94 1500 9.39 347 06:28 04.01.2022
6052 Clouds -1 990 96 5000 3.58 256 00:42 04.01.2022
6053 Clouds -1 990 94 9000 4.47 306 23:49 03.01.2022
6054 Mist -2 991 96 2500 6.71 358 22:21 03.01.2022
6055 Clouds -2 991 95 6000 6.26 348 21:38 03.01.2022
6056 Mist -2 992 96 3500 5.36 234 20:40 03.01.2022
6057 Clouds -2 992 95 4000 7.6 117 18:55 03.01.2022
6058 Snow -2 992 95 4000 5.36 205 18:30 03.01.2022
6059 Snow -2 992 94 5000 6.71 147 17:20 03.01.2022
6060 Snow -2 992 96 7000 5.36 194 16:28 03.01.2022
6061 Snow -2 992 96 4000 2.68 220 14:31 03.01.2022
6062 Clouds -2 992 96 4000 1.79 187 12:52 03.01.2022
6063 Clouds -2 993 96 3000 1.79 129 11:50 03.01.2022
6064 Snow -2 993 96 3000 0.89 133 10:37 03.01.2022
6065 Snow -2 991 95 3000 0.89 143 09:27 03.01.2022
6066 Clouds -2 991 94 3500 0.89 137 07:52 03.01.2022
6067 Snow -3 993 94 4500 0.45 187 02:28 03.01.2022
6068 Snow -3 995 93 2600 0.45 202 23:22 02.01.2022
6069 Snow -3 995 93 2600 0.45 209 22:56 02.01.2022
6070 Snow -3 996 93 2200 1.79 149 21:52 02.01.2022
6071 Snow -3 998 93 2700 0.89 214 20:50 02.01.2022
6072 Snow -3 998 93 3500 0.89 201 20:29 02.01.2022
6073 Snow -3 999 93 4500 1.34 177 19:31 02.01.2022
6074 Clouds -3 1000 95 4000 0.89 234 18:55 02.01.2022
6075 Snow -3 1001 93 2800 0.89 240 17:56 02.01.2022
6076 Snow -3 1001 92 4500 0.89 214 17:38 02.01.2022
6077 Clouds -3 1002 91 10000 0.89 195 17:19 02.01.2022
6078 Snow -3 1003 92 3500 0.89 231 16:27 02.01.2022
6079 Mist -3 1005 92 2100 0.89 213 14:38 02.01.2022
6080 Drizzle -3 1007 91 2800 1.34 188 12:57 02.01.2022
6081 Snow -3 1008 91 4000 1.79 192 12:31 02.01.2022
6082 Snow -3 1009 90 9000 1.34 242 11:36 02.01.2022
6083 Snow -3 1010 91 10000 1.79 168 10:50 02.01.2022
6084 Snow -5 1010 91 6000 0.89 224 09:52 02.01.2022
6085 Snow -8 1012 87 10000 1.34 73 07:26 02.01.2022
6086 Clear -11 1017 85 10000 0.45 294 02:19 02.01.2022
6087 Clear -10 1019 88 10000 2.24 310 23:40 01.01.2022
6088 Clear -10 1019 88 10000 1.79 305 22:58 01.01.2022
6089 Clear -10 1020 89 10000 1.79 306 22:23 01.01.2022
6090 Clear -10 1020 90 10000 1.34 310 21:44 01.01.2022
6091 Clear -9 1019 93 10000 1.79 322 20:55 01.01.2022
6092 Clear -9 1019 90 10000 2.24 305 19:58 01.01.2022
6093 Clear -9 1019 89 10000 2.24 306 19:26 01.01.2022
6094 Clear -8 1018 89 10000 1.79 324 17:59 01.01.2022
6095 Clouds -7 1017 87 10000 3.58 329 16:41 01.01.2022
6096 Clouds -7 1017 87 10000 2.68 320 16:19 01.01.2022
6097 Clouds -6 1016 85 10000 2.24 315 15:27 01.01.2022
6098 Clear -5 1015 81 10000 2.68 314 13:59 01.01.2022
6099 Clear -5 1014 80 10000 4.92 319 12:50 01.01.2022
6100 Clear -5 1013 78 10000 4.02 328 11:56 01.01.2022
6101 Clear -5 1012 78 10000 4.02 336 11:23 01.01.2022
6102 Clear -5 1011 81 10000 3.13 317 10:40 01.01.2022
6103 Clear -5 1010 83 10000 3.58 338 09:46 01.01.2022
6104 Clouds -4 1007 87 10000 4.47 325 08:26 01.01.2022
6105 Clouds -4 1005 82 10000 5.36 334 07:54 01.01.2022
6106 Clouds -4 1005 83 10000 4.47 334 07:34 01.01.2022
6107 Clouds -4 1004 83 10000 4.92 326 06:41 01.01.2022
6108 Clouds -3 1004 86 10000 6.69 330 04:38 01.01.2022
6109 Clouds -1 1000 97 10000 1.79 311 02:44 01.01.2022
6110 Snow -1 1001 95 7000 0.89 329 23:39 31.12.2021
6111 Snow -1 1000 96 10000 0.45 288 21:53 31.12.2021
6112 Clouds -1 1000 92 10000 0.89 301 20:39 31.12.2021
6113 Clouds -1 999 90 10000 0.45 262 19:31 31.12.2021
6114 Clouds -2 999 93 10000 2.06 280 18:41 31.12.2021
6115 Clouds -2 999 93 10000 1.34 299 17:43 31.12.2021
6116 Clouds -1 999 93 10000 1.34 299 17:19 31.12.2021
6117 Clouds -1 998 92 10000 1.34 319 16:40 31.12.2021
6118 Clouds -1 998 92 10000 1.79 334 15:57 31.12.2021
6119 Clouds -1 998 90 10000 0.89 292 15:29 31.12.2021
6120 Clouds -1 998 90 10000 0.89 292 15:29 31.12.2021
6121 Clouds -1 998 90 10000 0.89 292 15:29 31.12.2021
6122 Clouds -1 998 90 10000 1.79 310 14:57 31.12.2021
6123 Clouds 0 998 90 10000 1.34 287 14:30 31.12.2021
6124 Snow 0 997 90 10000 0.89 270 13:37 31.12.2021
6125 Clouds 0 998 90 10000 2.68 308 12:49 31.12.2021
6126 Clouds 0 998 89 10000 1.34 299 11:52 31.12.2021
6127 Clouds 0 998 88 10000 1.34 297 11:33 31.12.2021
6128 Clouds 0 998 89 10000 0.89 267 10:38 31.12.2021
6129 Clouds 0 998 89 10000 2.24 296 10:38 31.12.2021
6130 Clouds 0 997 89 10000 0.89 302 10:20 31.12.2021
6131 Clouds 0 994 89 10000 2.24 301 09:33 31.12.2021
6132 Clouds 0 994 89 10000 2.24 304 08:43 31.12.2021
6133 Snow 1 994 92 8000 1.79 319 07:31 31.12.2021
6134 Clouds 0 994 97 2500 12.07 279 23:32 30.12.2021
6135 Snow -1 995 96 2500 10.28 196 22:34 30.12.2021
6136 Clouds -1 996 94 2500 4.47 169 21:59 30.12.2021
6137 Snow -1 996 94 3000 3.58 169 21:37 30.12.2021
6138 Snow -1 996 94 2500 3.58 169 21:37 30.12.2021
6139 Snow -1 996 94 3500 2.24 198 20:47 30.12.2021
6140 Snow -1 998 95 3000 4.02 185 20:28 30.12.2021
6141 Snow -1 999 94 3000 4.02 190 19:48 30.12.2021
6142 Snow -2 1000 93 3000 2.68 186 18:51 30.12.2021
6143 Snow -2 1000 93 3000 2.68 186 18:51 30.12.2021
6144 Snow -2 1000 95 3000 3.58 184 18:20 30.12.2021
6145 Snow -2 1002 93 4000 1.79 174 16:34 30.12.2021
6146 Drizzle -2 1002 93 3000 1.79 176 15:52 30.12.2021
6147 Clouds -2 1003 92 6000 1.79 179 14:41 30.12.2021
6148 Clouds -2 1003 92 6000 1.79 184 14:19 30.12.2021
6149 Snow -2 1004 92 5000 3.58 187 13:23 30.12.2021
6150 Clouds -3 1005 92 6000 3.13 199 11:34 30.12.2021
6151 Clouds -3 1005 89 8000 1.79 176 10:27 30.12.2021
6152 Clouds -3 1006 93 8000 1.79 212 09:27 30.12.2021
6153 Clouds -3 1007 89 10000 1.79 203 06:55 30.12.2021
6154 Clouds -3 1007 91 10000 3.58 190 04:25 30.12.2021
6155 Snow -3 1007 91 10000 3.58 188 03:40 30.12.2021
6156 Snow -3 1009 91 9000 0.45 185 00:42 30.12.2021
6157 Snow -3 1009 91 9000 1.79 203 23:35 29.12.2021
6158 Snow -3 1009 92 4000 1.79 186 22:30 29.12.2021
6159 Snow -3 1009 93 5000 2.68 188 21:53 29.12.2021
6160 Snow -3 1009 91 6000 1.79 170 20:56 29.12.2021
6161 Snow -3 1009 91 6000 1.34 186 20:18 29.12.2021
6162 Snow -3 1009 91 10000 1.79 178 19:30 29.12.2021
6163 Snow -4 1009 91 10000 0.89 174 18:26 29.12.2021
6164 Snow -4 1009 91 6000 2.68 194 17:29 29.12.2021
6165 Snow -3 1009 91 2500 2.24 193 16:58 29.12.2021
6166 Snow -4 1009 90 6000 2.68 183 16:19 29.12.2021
6167 Snow -4 1009 88 10000 1.79 187 14:46 29.12.2021
6168 Snow -4 1009 90 9000 2.68 197 12:49 29.12.2021
6169 Snow -4 1009 91 4500 3.13 197 12:27 29.12.2021
6170 Snow -4 1008 91 1400 4.47 190 10:38 29.12.2021
6171 Snow -4 1008 93 4500 2.68 206 08:37 29.12.2021
6172 Snow -5 1007 87 8000 3.58 186 06:48 29.12.2021
6173 Snow -5 1007 86 10000 4.02 191 06:27 29.12.2021
6174 Clouds -5 1007 83 10000 3.13 188 05:44 29.12.2021
6175 Clouds -4 1008 83 10000 2.24 192 03:46 29.12.2021
6176 Clear -4 1010 80 10000 1.34 236 00:25 29.12.2021
6177 Clear -4 1010 80 10000 1.79 211 23:49 28.12.2021
6178 Clear -3 1011 79 10000 1.79 216 22:50 28.12.2021
6179 Clear -3 1011 79 10000 1.34 210 22:24 28.12.2021
6180 Clear -3 1011 82 10000 1.34 241 21:53 28.12.2021
6181 Clear -3 1012 84 10000 2.24 179 20:54 28.12.2021
6182 Clear -4 1012 85 10000 1.79 176 19:50 28.12.2021
6183 Clear -4 1013 85 10000 1.79 167 18:50 28.12.2021
6184 Clear -4 1013 86 10000 1.34 187 18:23 28.12.2021
6185 Clouds -3 1014 86 10000 1.34 186 16:35 28.12.2021
6186 Clouds -3 1014 85 10000 1.79 174 15:52 28.12.2021
6187 Clouds -3 1015 90 10000 2.24 177 15:27 28.12.2021
6188 Clouds -3 1014 90 10000 2.24 170 14:53 28.12.2021
6189 Clouds -2 1015 87 10000 3.58 184 14:21 28.12.2021
6190 Clouds -2 1015 91 10000 3.13 185 13:54 28.12.2021
6191 Clouds -2 1015 90 10000 4.47 185 13:33 28.12.2021
6192 Clouds -2 1015 91 10000 1.79 191 12:55 28.12.2021
6193 Clouds -2 1015 93 10000 2.68 205 12:18 28.12.2021
6194 Clouds -6 1014 93 10000 2.06 100 09:30 28.12.2021
6195 Clouds -8 1014 93 10000 1.34 109 07:33 28.12.2021
6196 Clouds -16 1016 85 10000 1.54 80 03:28 28.12.2021
6197 Snow -19 1016 84 8000 0.51 300 23:26 27.12.2021
6198 Snow -18 1016 85 9000 0.51 0 22:20 27.12.2021
6199 Fog -16 1015 85 600 1.03 0 21:29 27.12.2021
6200 Fog -14 1015 85 1200 1.03 0 20:24 27.12.2021
6201 Snow -14 1015 85 1200 1.03 0 20:24 27.12.2021
6202 Snow -14 1015 92 800 0.51 0 19:45 27.12.2021
6203 Fog -14 1014 85 800 1.03 0 18:54 27.12.2021
6204 Fog -14 1013 92 500 0.89 358 17:50 27.12.2021
6205 Fog -14 1012 89 700 0.89 327 17:27 27.12.2021
6206 Clear -13 1012 87 10000 1.34 332 15:53 27.12.2021
6207 Clear -12 1011 85 10000 0.89 333 14:35 27.12.2021
6208 Clear -12 1012 85 10000 0.45 350 13:59 27.12.2021
6209 Clear -11 1012 84 10000 0.89 308 12:49 27.12.2021
6210 Clouds -12 1011 89 10000 0.89 326 10:37 27.12.2021
6211 Clear -13 1009 90 10000 1.79 315 10:18 27.12.2021
6212 Clouds -12 1008 92 10000 0.89 318 08:41 27.12.2021
6213 Clouds -13 1008 92 10000 0.45 326 07:33 27.12.2021
6214 Snow -12 1007 83 10000 0.45 275 02:29 27.12.2021
6215 Snow -13 1005 92 10000 0.89 307 00:29 27.12.2021
6216 Clear -14 1005 90 10000 0.89 315 23:42 26.12.2021
6217 Clouds -13 1006 90 10000 0.89 314 22:49 26.12.2021
6218 Clouds -13 1006 89 10000 0.89 326 21:30 26.12.2021
6219 Snow -13 1005 85 10000 2.24 293 19:54 26.12.2021
6220 Clear -13 1005 83 10000 3.13 281 18:29 26.12.2021
6221 Clear -13 1005 83 10000 3.13 268 17:51 26.12.2021
6222 Clear -12 1002 83 10000 1.79 300 15:35 26.12.2021
6223 Clear -13 1003 85 10000 3.6 290 13:43 26.12.2021
6224 Clear -13 1002 92 10000 3.6 290 13:21 26.12.2021
6225 Clear -13 1002 85 10000 3.6 270 12:35 26.12.2021
6226 Clear -15 1001 85 10000 3.6 280 11:18 26.12.2021
6227 Clear -16 1000 89 10000 3.58 295 09:30 26.12.2021
6228 Clear -16 1000 75 10000 4.12 290 08:45 26.12.2021
6229 Clouds -16 1000 72 10000 5.14 300 08:23 26.12.2021
6230 Snow -12 992 83 10000 4.02 337 01:45 26.12.2021
6231 Snow -10 992 84 10000 2.24 0 00:28 26.12.2021
6232 Snow -9 991 85 8000 3.13 329 23:35 25.12.2021
6233 Snow -9 990 87 8000 3.58 326 22:29 25.12.2021
6234 Clouds -8 990 88 10000 2.68 307 21:30 25.12.2021
6235 Snow -8 989 87 5000 2.68 303 20:18 25.12.2021
6236 Snow -8 989 86 6000 2.24 301 19:18 25.12.2021
6237 Snow -9 989 88 10000 1.34 297 18:29 25.12.2021
6238 Clear -9 991 89 10000 3.58 279 16:49 25.12.2021
6239 Snow -8 990 89 10000 2.68 307 15:34 25.12.2021
6240 Clouds -9 990 88 10000 0.89 296 14:23 25.12.2021
6241 Clouds -10 989 86 10000 1.79 292 12:21 25.12.2021
6242 Clouds -14 990 92 10000 4.63 250 10:46 25.12.2021
6243 Clouds -16 991 92 10000 2.06 230 09:49 25.12.2021
6244 Clear -16 990 85 10000 2.57 280 07:27 25.12.2021
6245 Clear -14 989 69 10000 3.09 290 01:40 25.12.2021
6246 Clear -15 989 76 10000 4.12 310 00:21 25.12.2021
6247 Snow -14 988 83 10000 1.79 310 21:57 24.12.2021
6248 Snow -13 988 86 10000 2.68 330 19:27 24.12.2021
6249 Clouds -13 987 84 10000 1.79 324 18:56 24.12.2021
6250 Snow -12 986 86 6000 1.79 335 16:44 24.12.2021
6251 Clouds -12 987 77 10000 3.09 280 15:50 24.12.2021
6252 Clouds -12 987 77 10000 3.09 280 15:50 24.12.2021
6253 Clouds -12 987 84 10000 1.34 313 15:25 24.12.2021
6254 Clouds -12 985 85 10000 1.79 307 14:35 24.12.2021
6255 Clouds -11 987 83 10000 2.68 309 13:57 24.12.2021
6256 Clouds -11 987 83 10000 1.34 301 13:32 24.12.2021
6257 Clouds -10 987 82 10000 1.79 301 12:45 24.12.2021
6258 Clouds -10 989 83 10000 3.58 278 11:45 24.12.2021
6259 Clouds -11 987 81 10000 2.68 309 11:24 24.12.2021
6260 Clouds -11 988 81 10000 1.79 300 10:35 24.12.2021
6261 Clear -11 987 85 10000 1.34 306 08:58 24.12.2021
6262 Clear -10 987 86 10000 1.79 308 07:58 24.12.2021
6263 Clear -10 987 86 10000 1.79 308 07:58 24.12.2021
6264 Clear -10 988 85 10000 1.34 305 07:31 24.12.2021
6265 Snow -4 987 93 1500 4.47 330 00:47 24.12.2021
6266 Snow -2 987 95 1500 0.89 254 23:50 23.12.2021
6267 Snow -1 987 92 1200 1.34 239 22:53 23.12.2021
6268 Snow -1 988 90 3000 1.34 232 22:24 23.12.2021
6269 Snow -1 988 87 4000 1.79 245 21:47 23.12.2021
6270 Clouds -1 989 87 10000 2.68 250 20:31 23.12.2021
6271 Snow -1 989 87 10000 2.68 269 19:30 23.12.2021
6272 Snow -1 990 87 10000 1.34 249 18:27 23.12.2021
6273 Clouds -1 991 87 10000 2.24 273 17:46 23.12.2021
6274 Clouds -1 992 87 10000 3.58 243 16:27 23.12.2021
6275 Snow -1 993 87 10000 3.58 259 15:54 23.12.2021
6276 Snow -1 993 89 10000 3.58 245 15:30 23.12.2021
6277 Snow -1 994 88 10000 1.79 259 14:42 23.12.2021
6278 Clouds -1 995 87 10000 3.58 254 13:49 23.12.2021
6279 Snow -1 998 89 10000 2.68 250 11:59 23.12.2021
6280 Clouds -1 999 85 10000 2.24 272 10:36 23.12.2021
6281 Clouds -1 1000 87 10000 3.13 258 09:34 23.12.2021
6282 Clouds -1 1001 88 10000 2.24 272 08:41 23.12.2021
6283 Clouds -2 1003 87 10000 3.13 246 06:20 23.12.2021
6284 Snow -4 1008 91 5000 3.58 244 03:28 23.12.2021
6285 Clear -10 1015 90 10000 0.89 218 22:54 22.12.2021
6286 Clouds -11 1018 86 10000 2.24 241 22:22 22.12.2021
6287 Clouds -11 1018 86 10000 1.79 256 21:48 22.12.2021
6288 Clouds -11 1019 84 10000 1.34 242 21:25 22.12.2021
6289 Clouds -11 1019 84 10000 1.34 259 20:41 22.12.2021
6290 Clouds -11 1019 87 10000 0.89 293 19:57 22.12.2021
6291 Clouds -12 1021 85 10000 0.89 295 18:57 22.12.2021
6292 Clear -12 1022 89 10000 0.89 312 17:39 22.12.2021
6293 Clear -11 1023 89 10000 0.89 288 16:34 22.12.2021
6294 Clear -11 1023 88 10000 0.45 284 15:24 22.12.2021
6295 Clear -9 1023 85 10000 0.89 312 12:59 22.12.2021
6296 Clear -9 1023 84 10000 1.34 278 11:58 22.12.2021
6297 Clear -10 1024 84 10000 1.34 324 09:53 22.12.2021
6298 Clear -11 1022 86 10000 1.79 311 08:58 22.12.2021
6299 Clear -12 1022 82 10000 1.79 314 07:21 22.12.2021
6300 Clear -13 1023 76 10000 3.6 330 05:39 22.12.2021
6301 Clear -13 1023 73 10000 3.6 330 05:20 22.12.2021
6302 Clear -13 1023 73 10000 3.6 320 04:43 22.12.2021
6303 Clear -13 1023 73 10000 4.63 320 03:56 22.12.2021
6304 Clear -13 1023 73 10000 4.63 320 03:31 22.12.2021
6305 Clear -13 1021 81 10000 1.79 318 23:57 21.12.2021
6306 Clear -12 1021 81 10000 2.68 323 22:44 21.12.2021
6307 Clear -12 1021 81 10000 2.68 331 22:24 21.12.2021
6308 Clear -12 1020 81 10000 2.68 323 21:42 21.12.2021
6309 Clear -12 1021 82 10000 3.13 312 20:44 21.12.2021
6310 Clear -13 1021 81 10000 4.47 324 20:20 21.12.2021
6311 Clear -13 1021 81 10000 4.47 324 20:20 21.12.2021
6312 Clouds -12 1021 79 10000 3.58 333 19:40 21.12.2021
6313 Clear -13 1020 80 10000 4.47 338 18:33 21.12.2021
6314 Clear -13 1020 79 10000 1.79 320 17:59 21.12.2021
6315 Clear -13 1020 82 10000 2.68 322 17:40 21.12.2021
6316 Clear -13 1021 80 10000 3.13 327 15:46 21.12.2021
6317 Clear -12 1021 82 10000 1.79 317 14:24 21.12.2021
6318 Clear -12 1021 78 10000 2.68 337 13:42 21.12.2021
6319 Clear -12 1021 78 10000 2.68 332 12:39 21.12.2021
6320 Clear -12 1021 82 10000 3.58 329 10:52 21.12.2021
6321 Clear -12 1021 83 10000 2.68 333 09:56 21.12.2021
6322 Clear -12 1019 82 10000 2.68 347 08:57 21.12.2021
6323 Clouds -12 1018 82 10000 2.68 346 07:45 21.12.2021
6324 Clouds -12 1018 80 10000 3.58 345 07:23 21.12.2021
6325 Clouds -10 1017 83 10000 2.68 343 04:37 21.12.2021
6326 Clouds -10 1016 87 10000 4.02 339 02:31 21.12.2021
6327 Clouds -8 1017 81 10000 3.13 324 23:55 20.12.2021
6328 Snow -8 1017 82 9000 4.47 339 22:44 20.12.2021
6329 Snow -8 1017 83 10000 4.92 335 22:25 20.12.2021
6330 Clouds -8 1017 83 10000 4.02 329 21:27 20.12.2021
6331 Snow -8 1017 81 10000 5.36 334 20:55 20.12.2021
6332 Snow -8 1017 83 10000 4.02 327 20:24 20.12.2021
6333 Snow -9 1017 81 7000 4.02 328 19:38 20.12.2021
6334 Snow -9 1018 80 7000 4.47 335 19:19 20.12.2021
6335 Snow -9 1018 79 10000 4.47 328 18:33 20.12.2021
6336 Snow -9 1018 73 10000 3.13 335 17:51 20.12.2021
6337 Snow -10 1018 71 10000 5.81 332 16:47 20.12.2021
6338 Clouds -10 1019 71 10000 4.92 337 16:18 20.12.2021
6339 Clouds -10 1018 73 10000 4.02 336 15:40 20.12.2021
6340 Clouds -10 1019 72 10000 3.58 331 13:49 20.12.2021
6341 Clouds -10 1019 72 10000 4.47 337 12:40 20.12.2021
6342 Clouds -10 1019 75 10000 2.24 345 10:50 20.12.2021
6343 Clouds -10 1018 75 10000 3.58 346 09:40 20.12.2021
6344 Snow -9 1016 75 9000 1.79 8 08:50 20.12.2021
6345 Snow -9 1015 75 10000 3.13 358 08:32 20.12.2021
6346 Snow -8 1014 74 10000 2.68 354 07:35 20.12.2021
6347 Clouds -8 1013 77 10000 2.68 338 06:39 20.12.2021
6348 Snow -4 1010 70 10000 4.02 349 00:26 20.12.2021
6349 Snow -4 1009 72 10000 4.02 348 22:58 19.12.2021
6350 Clouds -4 1009 72 10000 2.68 352 22:40 19.12.2021
6351 Clouds -4 1008 73 10000 2.68 18 21:32 19.12.2021
6352 Clouds -3 1007 74 10000 2.68 4 20:42 19.12.2021
6353 Clouds -3 1006 72 10000 3.13 355 20:23 19.12.2021
6354 Clouds -2 1005 74 10000 3.58 29 19:41 19.12.2021
6355 Snow -1 1003 81 10000 3.58 23 18:42 19.12.2021
6356 Snow 0 1002 84 10000 4.47 356 17:53 19.12.2021
6357 Snow 0 1001 84 10000 1.79 337 17:31 19.12.2021
6358 Snow 1 1000 80 10000 3.58 331 16:41 19.12.2021
6359 Clouds 1 1000 80 10000 3.13 331 15:56 19.12.2021
6360 Clouds 1 1000 81 10000 4.47 333 15:24 19.12.2021
6361 Clouds 1 999 82 10000 4.92 332 14:45 19.12.2021
6362 Clouds 1 999 83 10000 4.92 332 13:32 19.12.2021
6363 Clouds 1 999 84 10000 4.02 319 12:59 19.12.2021
6364 Clouds 1 999 82 10000 3.58 331 12:29 19.12.2021
6365 Clouds 1 998 84 10000 3.58 324 11:37 19.12.2021
6366 Clouds 1 998 84 10000 4.02 321 10:50 19.12.2021
6367 Clouds 1 998 85 10000 4.02 333 10:22 19.12.2021
6368 Clouds 1 996 85 10000 4.02 321 08:50 19.12.2021
6369 Clouds 1 996 85 10000 4.92 326 06:45 19.12.2021
6370 Clouds 2 998 89 10000 3.58 312 01:52 19.12.2021
6371 Rain 2 999 91 10000 3.58 322 00:54 19.12.2021
6372 Clouds 3 999 89 10000 4.47 314 23:18 18.12.2021
6373 Clouds 3 999 91 10000 4.47 321 22:24 18.12.2021
6374 Clouds 3 1000 93 10000 4.02 321 21:44 18.12.2021
6375 Clouds 3 1000 94 10000 3.13 329 21:22 18.12.2021
6376 Clouds 4 1001 94 10000 2.68 319 20:26 18.12.2021
6377 Rain 4 1003 96 10000 0.89 5 19:35 18.12.2021
6378 Clouds 4 1004 94 10000 1.79 285 18:24 18.12.2021
6379 Clouds 4 1005 94 10000 1.79 280 17:49 18.12.2021
6380 Clouds 4 1007 96 10000 1.34 289 16:36 18.12.2021
6381 Clouds 4 1007 94 10000 1.79 303 16:18 18.12.2021
6382 Clouds 4 1009 94 10000 2.24 303 14:54 18.12.2021
6383 Clouds 3 1010 94 10000 1.79 301 13:45 18.12.2021
6384 Clouds 3 1012 96 10000 3.13 306 11:55 18.12.2021
6385 Clouds 3 1012 96 10000 2.68 307 09:54 18.12.2021
6386 Mist 3 1013 97 5000 2.68 311 09:31 18.12.2021
6387 Drizzle 2 1013 97 6000 1.79 310 08:36 18.12.2021
6388 Drizzle 1 1014 97 2500 0.89 301 06:28 18.12.2021
6389 Snow 0 1021 92 10000 0.45 301 01:45 18.12.2021
6390 Clear 0 1022 91 10000 0.89 301 23:49 17.12.2021
6391 Clouds 0 1022 91 10000 1.34 326 22:39 17.12.2021
6392 Clouds 0 1023 91 10000 1.79 327 21:31 17.12.2021
6393 Clouds 0 1023 89 10000 2.68 319 20:43 17.12.2021
6394 Clouds 0 1023 90 10000 2.68 332 19:56 17.12.2021
6395 Clouds 1 1023 88 10000 3.13 328 18:39 17.12.2021
6396 Clouds 1 1023 88 10000 3.58 333 17:50 17.12.2021
6397 Clouds 0 1023 88 10000 1.79 320 16:51 17.12.2021
6398 Clear 0 1022 88 10000 1.34 324 16:27 17.12.2021
6399 Clear 0 1022 88 10000 1.79 313 15:38 17.12.2021
6400 Clear 1 1021 88 10000 1.79 309 14:42 17.12.2021
6401 Clear 1 1021 87 10000 2.68 333 13:45 17.12.2021
6402 Clear 2 1020 85 10000 4.02 333 12:36 17.12.2021
6403 Clear 1 1019 86 10000 3.13 324 10:42 17.12.2021
6404 Clear 1 1018 87 10000 4.92 333 09:47 17.12.2021
6405 Clouds 1 1015 87 10000 4.47 323 08:32 17.12.2021
6406 Clouds 1 1014 88 10000 3.13 327 07:30 17.12.2021
6407 Clouds 1 1012 89 10000 3.13 327 04:40 17.12.2021
6408 Clouds 2 1012 89 10000 3.13 322 00:22 17.12.2021
6409 Clouds 2 1012 88 10000 3.13 316 22:24 16.12.2021
6410 Clouds 3 1011 89 10000 2.68 313 21:51 16.12.2021
6411 Clouds 3 1011 88 10000 3.58 312 21:33 16.12.2021
6412 Clouds 3 1011 87 10000 3.13 317 20:31 16.12.2021
6413 Clouds 3 1011 87 10000 3.13 315 19:51 16.12.2021
6414 Clouds 3 1011 88 10000 3.13 309 18:42 16.12.2021
6415 Clouds 3 1010 88 10000 3.58 311 18:22 16.12.2021
6416 Clouds 3 1009 89 10000 2.24 315 17:32 16.12.2021
6417 Clouds 3 1009 89 10000 3.13 313 16:23 16.12.2021
6418 Clouds 3 1008 91 10000 3.13 315 15:20 16.12.2021
6419 Clouds 3 1007 90 10000 2.68 310 13:43 16.12.2021
6420 Clouds 3 1006 90 10000 2.24 292 11:48 16.12.2021
6421 Clouds 3 1006 92 10000 2.68 286 11:18 16.12.2021
6422 Clouds 3 1005 93 10000 2.24 301 10:32 16.12.2021
6423 Clouds 3 1003 94 10000 1.34 299 08:56 16.12.2021
6424 Fog 3 1002 97 900 1.34 277 06:23 16.12.2021
6425 Clouds 2 1003 97 10000 1.34 251 02:59 16.12.2021
6426 Clouds 3 1005 94 10000 1.79 289 23:35 15.12.2021
6427 Clouds 3 1005 94 10000 2.24 282 22:48 15.12.2021
6428 Clouds 4 1005 94 10000 0.89 293 21:58 15.12.2021
6429 Clouds 4 1005 94 10000 0.89 285 21:28 15.12.2021
6430 Clouds 4 1005 95 10000 1.34 280 20:31 15.12.2021
6431 Clouds 4 1005 97 10000 1.34 296 19:52 15.12.2021
6432 Clouds 4 1005 97 8000 0.89 259 18:40 15.12.2021
6433 Drizzle 5 1005 95 5000 1.79 266 17:57 15.12.2021
6434 Drizzle 5 1005 95 7000 0.89 245 17:39 15.12.2021
6435 Drizzle 4 1005 98 3000 2.68 233 16:35 15.12.2021
6436 Drizzle 4 1005 98 3000 3.13 229 15:47 15.12.2021
6437 Mist 4 1005 98 3000 3.13 229 15:47 15.12.2021
6438 Mist 4 1006 98 3000 3.13 222 15:29 15.12.2021
6439 Drizzle 4 1006 98 2500 2.68 231 14:43 15.12.2021
6440 Drizzle 4 1007 98 4000 3.58 225 12:52 15.12.2021
6441 Drizzle 4 1009 95 4000 2.68 212 10:49 15.12.2021
6442 Clouds 3 1009 95 6000 2.24 234 09:28 15.12.2021
6443 Clouds 1 1010 97 8000 0.89 189 07:44 15.12.2021
6444 Drizzle 1 1011 94 10000 1.34 262 01:39 15.12.2021
6445 Drizzle 1 1011 97 10000 1.34 248 23:42 14.12.2021
6446 Clouds 1 1011 97 10000 1.34 254 22:49 14.12.2021
6447 Drizzle 2 1011 95 10000 0.89 271 22:25 14.12.2021
6448 Clouds 2 1010 95 10000 1.79 277 20:55 14.12.2021
6449 Drizzle 2 1010 95 10000 0.45 268 19:44 14.12.2021
6450 Drizzle 2 1010 97 8000 0.89 307 19:20 14.12.2021
6451 Drizzle 3 1009 97 6000 0.89 277 18:28 14.12.2021
6452 Mist 3 1009 98 4500 0.89 252 17:33 14.12.2021
6453 Mist 3 1009 97 4000 1.34 236 16:42 14.12.2021
6454 Mist 3 1009 98 1400 1.34 245 15:36 14.12.2021
6455 Drizzle 2 1011 96 10000 4.02 213 13:31 14.12.2021
6456 Snow 2 1011 95 7000 4.47 203 12:21 14.12.2021
6457 Snow 2 1011 95 7000 2.68 194 11:24 14.12.2021
6458 Drizzle 2 1012 97 7000 3.13 187 10:24 14.12.2021
6459 Drizzle 2 1013 97 6000 4.02 191 09:51 14.12.2021
6460 Drizzle 2 1013 97 4500 3.58 192 08:28 14.12.2021
6461 Drizzle 2 1014 97 2500 4.47 191 07:43 14.12.2021
6462 Clouds 2 1015 97 10000 4.92 194 05:35 14.12.2021
6463 Clouds 2 1019 94 10000 1.34 200 22:56 13.12.2021
6464 Clouds 2 1019 95 10000 0.89 239 21:53 13.12.2021
6465 Clouds 2 1019 95 10000 0.89 246 21:33 13.12.2021
6466 Clouds 2 1019 95 10000 3.13 206 20:43 13.12.2021
6467 Rain 2 1019 95 10000 1.79 195 19:53 13.12.2021
6468 Clouds 2 1019 95 10000 2.68 194 18:33 13.12.2021
6469 Clouds 2 1020 95 10000 1.79 212 17:26 13.12.2021
6470 Rain 2 1020 97 9000 1.34 198 15:54 13.12.2021
6471 Rain 2 1021 97 10000 1.79 217 15:32 13.12.2021
6472 Rain 1 1021 97 6000 2.24 196 13:45 13.12.2021
6473 Mist 1 1021 97 4500 1.79 218 12:59 13.12.2021
6474 Fog 1 1021 97 800 1.79 227 11:59 13.12.2021
6475 Mist 1 1020 97 5000 2.24 213 11:35 13.12.2021
6476 Mist 1 1020 97 4000 0.89 220 10:47 13.12.2021
6477 Fog 1 1020 97 500 1.79 234 09:32 13.12.2021
6478 Mist 1 1019 97 1100 0.89 223 07:53 13.12.2021
6479 Clouds 0 1019 97 6000 1.03 0 05:36 13.12.2021
6480 Mist 0 1019 96 2000 0.89 211 03:28 13.12.2021
6481 Fog 1 1018 97 800 0.45 295 23:22 12.12.2021
6482 Fog 1 1018 97 800 0 0 21:41 12.12.2021
6483 Mist 1 1018 97 1500 0.51 0 20:18 12.12.2021
6484 Drizzle 1 1018 97 3000 0.45 304 18:43 12.12.2021
6485 Drizzle 1 1018 95 2500 0.45 27 17:38 12.12.2021
6486 Drizzle 1 1018 96 2500 0.45 302 16:28 12.12.2021
6487 Mist 1 1018 96 1400 0.45 319 15:50 12.12.2021
6488 Mist 1 1018 97 1400 0.45 305 15:25 12.12.2021
6489 Fog 1 1018 97 500 0.51 0 14:36 12.12.2021
6490 Fog 1 1018 96 500 1.03 40 13:26 12.12.2021
6491 Fog 1 1018 96 400 0 0 12:30 12.12.2021
6492 Fog 1 1018 96 400 0 0 11:44 12.12.2021
6493 Fog 1 1018 96 300 0.45 201 11:22 12.12.2021
6494 Fog 1 1018 96 200 0.45 303 10:22 12.12.2021
6495 Fog 1 1018 96 200 0 0 09:38 12.12.2021
6496 Fog 1 1018 96 400 1.03 0 08:33 12.12.2021
6497 Rain 1 1018 96 1500 1.54 60 06:19 12.12.2021
6498 Drizzle 1 1018 96 1000 0.45 207 04:56 12.12.2021
6499 Rain 1 1017 96 7000 0.89 177 03:31 12.12.2021
6500 Snow 1 1017 96 6000 0.45 166 23:47 11.12.2021
6501 Snow 1 1017 96 4000 0.45 171 22:23 11.12.2021
6502 Snow 1 1017 96 7000 0.45 146 21:52 11.12.2021
6503 Snow 1 1016 96 6000 0.89 140 20:51 11.12.2021
6504 Snow 1 1016 96 6000 0.89 138 19:27 11.12.2021
6505 Snow 1 1016 96 6000 0.89 147 18:52 11.12.2021
6506 Snow 0 1016 96 4000 1.34 129 18:25 11.12.2021
6507 Snow 1 1016 96 4000 0.89 147 17:21 11.12.2021
6508 Snow 0 1016 96 6000 0.89 159 15:54 11.12.2021
6509 Snow 0 1016 96 4000 1.34 146 15:28 11.12.2021
6510 Rain 0 1015 95 4500 18.78 353 12:57 11.12.2021
6511 Snow 0 1015 94 3000 1.79 164 11:25 11.12.2021
6512 Snow 0 1015 93 10000 1.34 141 09:46 11.12.2021
6513 Snow 0 1015 92 10000 1.79 136 08:28 11.12.2021
6514 Clouds 0 1015 95 10000 4.02 329 02:29 11.12.2021
6515 Snow -1 1015 95 10000 4.02 351 00:36 11.12.2021
6516 Snow -1 1015 92 10000 2.68 136 23:21 10.12.2021
6517 Snow -1 1015 93 10000 4.47 351 21:57 10.12.2021
6518 Snow -1 1015 93 10000 4.47 359 21:31 10.12.2021
6519 Snow -1 1015 94 10000 2.68 133 19:22 10.12.2021
6520 Snow -1 1015 93 10000 2.68 130 18:21 10.12.2021
6521 Snow -2 1015 92 10000 2.68 129 16:56 10.12.2021
6522 Snow -2 1015 92 10000 2.68 135 16:28 10.12.2021
6523 Snow -2 1015 92 10000 3.58 130 15:41 10.12.2021
6524 Snow -2 1015 92 10000 3.13 137 15:21 10.12.2021
6525 Snow -2 1015 92 5000 3.13 123 13:52 10.12.2021
6526 Snow -2 1015 92 10000 3.58 129 13:26 10.12.2021
6527 Snow -2 1016 92 10000 3.58 142 12:39 10.12.2021
6528 Snow -2 1016 92 10000 3.58 139 11:29 10.12.2021
6529 Snow -2 1016 93 10000 3.13 129 10:37 10.12.2021
6530 Clouds -2 1017 93 10000 2.68 135 08:57 10.12.2021
6531 Clouds -3 1018 92 10000 2.68 132 06:50 10.12.2021
6532 Clear -4 1019 77 10000 1.79 143 02:48 10.12.2021
6533 Clear -4 1019 76 10000 1.79 143 02:48 10.12.2021
6534 Clear -4 1021 78 10000 2.68 135 00:38 10.12.2021
6535 Clouds -4 1022 82 10000 3.58 130 23:22 09.12.2021
6536 Clouds -5 1022 82 10000 2.24 132 22:26 09.12.2021
6537 Clouds -5 1022 82 10000 2.68 131 21:59 09.12.2021
6538 Clouds -5 1022 84 10000 3.13 136 21:18 09.12.2021
6539 Clouds -5 1023 81 10000 2.68 137 20:22 09.12.2021
6540 Clouds -5 1024 84 10000 2.68 130 19:21 09.12.2021
6541 Clouds -5 1024 85 10000 2.68 138 18:48 09.12.2021
6542 Clouds -5 1024 88 10000 3.13 125 17:56 09.12.2021
6543 Clouds -5 1024 88 10000 2.68 134 17:26 09.12.2021
6544 Clouds -5 1024 87 10000 0.45 160 16:55 09.12.2021
6545 Snow -5 1025 89 10000 1.79 143 15:46 09.12.2021
6546 Clouds -5 1025 89 10000 1.34 168 14:48 09.12.2021
6547 Clouds -5 1024 89 10000 0.45 216 13:25 09.12.2021
6548 Clouds -6 1025 90 10000 0.89 204 12:42 09.12.2021
6549 Clouds -7 1025 90 10000 0.89 112 11:24 09.12.2021
6550 Clouds -8 1025 88 10000 0.89 62 09:44 09.12.2021
6551 Clouds -10 1024 85 10000 0.89 45 06:50 09.12.2021
6552 Clouds -12 1024 82 10000 0.89 342 03:41 09.12.2021
6553 Clouds -13 1023 83 10000 0.89 32 23:44 08.12.2021
6554 Clouds -13 1023 85 10000 1.34 349 23:21 08.12.2021
6555 Clouds -13 1023 85 10000 0.89 348 22:48 08.12.2021
6556 Clouds -14 1022 85 10000 0.89 347 21:42 08.12.2021
6557 Clouds -14 1022 85 10000 0.89 344 21:24 08.12.2021
6558 Snow -15 1023 84 10000 0.89 8 19:58 08.12.2021
6559 Snow -15 1023 77 10000 2.06 40 19:34 08.12.2021
6560 Snow -15 1022 84 10000 0.89 27 18:46 08.12.2021
6561 Clouds -15 1021 84 10000 0.89 348 17:37 08.12.2021
6562 Clouds -15 1022 90 10000 0.45 22 15:51 08.12.2021
6563 Fog -15 1022 81 10000 0.45 354 15:28 08.12.2021
6564 Fog -15 1022 73 10000 1.54 30 14:31 08.12.2021
6565 Fog -17 1021 92 10000 1.03 320 11:36 08.12.2021
6566 Clouds -18 1021 85 10000 1.03 330 10:31 08.12.2021
6567 Fog -20 1021 84 10000 1.54 310 08:56 08.12.2021
6568 Clouds -18 1021 73 10000 1.03 340 07:25 08.12.2021
6569 Clear -18 1019 73 10000 1.03 20 04:57 08.12.2021
6570 Snow -16 1017 82 10000 1.34 335 23:34 07.12.2021
6571 Clear -16 1016 82 10000 1.79 337 21:51 07.12.2021
6572 Clear -16 1016 82 10000 1.79 341 21:23 07.12.2021
6573 Clouds -15 1016 81 10000 0.89 332 20:20 07.12.2021
6574 Clouds -15 1017 85 10000 0.89 343 18:43 07.12.2021
6575 Clouds -15 1017 85 10000 0.89 328 17:52 07.12.2021
6576 Clouds -15 1017 88 10000 0.89 335 17:19 07.12.2021
6577 Clouds -15 1017 85 10000 0.89 332 16:31 07.12.2021
6578 Clouds -14 1016 84 10000 1.34 308 15:33 07.12.2021
6579 Clouds -14 1016 87 10000 0.89 313 14:18 07.12.2021
6580 Clouds -13 1016 83 10000 1.34 331 12:55 07.12.2021
6581 Clear -14 1016 83 10000 0.89 324 11:29 07.12.2021
6582 Clear -15 1015 83 10000 1.34 27 10:33 07.12.2021
6583 Clouds -16 1015 77 10000 1.34 331 08:26 07.12.2021
6584 Clear -16 1016 81 10000 2.68 328 06:19 07.12.2021
6585 Clear -16 1016 83 10000 2.24 320 05:34 07.12.2021
6586 Snow -14 1017 82 10000 3.13 328 23:47 06.12.2021
6587 Clouds -15 1018 82 10000 2.24 332 22:57 06.12.2021
6588 Snow -15 1018 82 10000 3.58 335 22:35 06.12.2021
6589 Snow -15 1018 85 10000 3.13 337 21:51 06.12.2021
6590 Clouds -15 1018 77 10000 2.06 10 20:33 06.12.2021
6591 Clouds -15 1018 82 10000 2.68 344 19:55 06.12.2021
6592 Clouds -15 1019 82 10000 3.13 337 19:20 06.12.2021
6593 Snow -15 1019 89 10000 2.68 343 18:23 06.12.2021
6594 Clouds -14 1018 82 10000 0.89 356 17:40 06.12.2021
6595 Clouds -15 1019 82 10000 2.24 337 17:40 06.12.2021
6596 Snow -14 1019 84 10000 4.12 40 16:32 06.12.2021
6597 Clouds -14 1019 83 10000 0.89 348 15:38 06.12.2021
6598 Snow -12 1020 82 10000 1.79 42 13:46 06.12.2021
6599 Snow -11 1021 81 10000 1.34 53 12:39 06.12.2021
6600 Clouds -11 1021 79 10000 0.89 2 11:36 06.12.2021
6601 Clouds -12 1021 83 10000 2.68 22 08:46 06.12.2021
6602 Snow -13 1021 86 10000 0.89 13 06:39 06.12.2021
6603 Snow -16 1022 81 10000 1.34 328 22:54 05.12.2021
6604 Clouds -17 1024 81 10000 4.02 356 21:51 05.12.2021
6605 Clouds -17 1023 81 10000 3.13 352 21:19 05.12.2021
6606 Clouds -17 1023 81 10000 4.47 354 20:19 05.12.2021
6607 Clouds -17 1024 73 10000 4.12 10 19:33 05.12.2021
6608 Clouds -17 1024 73 10000 3.6 20 18:47 05.12.2021
6609 Clouds -17 1023 73 10000 3.6 20 18:19 05.12.2021
6610 Clear -17 1023 73 10000 4.12 20 17:48 05.12.2021
6611 Clear -16 1023 73 10000 4.12 10 16:47 05.12.2021
6612 Clear -16 1023 70 10000 4.12 20 16:26 05.12.2021
6613 Clear -15 1021 79 10000 1.34 31 15:34 05.12.2021
6614 Clear -15 1021 79 10000 1.34 348 14:37 05.12.2021
6615 Clear -15 1022 82 10000 4.02 9 14:19 05.12.2021
6616 Clear -14 1021 79 10000 2.24 1 13:22 05.12.2021
6617 Clear -14 1021 79 10000 1.34 14 12:40 05.12.2021
6618 Clear -14 1020 76 10000 2.68 24 12:18 05.12.2021
6619 Clear -14 1020 77 10000 2.24 18 11:29 05.12.2021
6620 Clear -15 1020 81 10000 4.92 10 09:59 05.12.2021
6621 Clear -16 1018 81 10000 4.92 16 07:55 05.12.2021
6622 Clear -14 1015 82 10000 0.89 331 03:27 05.12.2021
6623 Snow -12 1014 80 10000 2.68 41 23:34 04.12.2021
6624 Snow -12 1013 80 10000 2.68 27 21:55 04.12.2021
6625 Snow -12 1012 81 10000 1.34 16 20:57 04.12.2021
6626 Clouds -12 1011 81 10000 2.24 38 19:55 04.12.2021
6627 Clouds -12 1011 81 10000 2.24 27 19:32 04.12.2021
6628 Clouds -12 1009 83 10000 1.34 7 18:20 04.12.2021
6629 Snow -12 1009 82 10000 1.34 352 17:38 04.12.2021
6630 Snow -12 1010 83 10000 1.34 354 16:49 04.12.2021
6631 Snow -12 1009 83 10000 0.89 9 16:30 04.12.2021
6632 Clear -11 1009 82 10000 1.79 34 15:22 04.12.2021
6633 Snow -8 1007 81 10000 2.24 43 11:50 04.12.2021
6634 Snow -8 1007 81 10000 2.24 24 11:32 04.12.2021
6635 Snow -7 1006 83 10000 1.79 54 10:44 04.12.2021
6636 Clouds -6 1003 86 10000 1.34 49 08:47 04.12.2021
6637 Clouds -5 1001 88 10000 1.34 17 06:26 04.12.2021
6638 Snow -5 1000 91 10000 0.89 348 04:42 04.12.2021
6639 Snow -6 1001 90 10000 1.34 332 00:18 04.12.2021
6640 Snow -6 1000 90 10000 0.89 336 23:20 03.12.2021
6641 Snow -6 1000 89 10000 1.34 327 22:41 03.12.2021
6642 Snow -6 1000 90 6000 1.34 339 21:26 03.12.2021
6643 Snow -7 999 89 8000 2.24 327 20:52 03.12.2021
6644 Snow -7 999 87 8000 1.79 321 19:50 03.12.2021
6645 Snow -8 999 88 7000 2.68 333 18:34 03.12.2021
6646 Snow -8 998 87 7000 2.24 326 17:59 03.12.2021
6647 Snow -8 998 86 10000 4.02 348 15:36 03.12.2021
6648 Clouds -9 997 68 10000 4.93 26 12:54 03.12.2021
6649 Snow -11 997 92 10000 4.12 360 11:39 03.12.2021
6650 Snow -12 997 92 9000 3.6 360 10:51 03.12.2021
6651 Snow -11 996 85 7000 4.12 10 08:26 03.12.2021
6652 Snow -11 996 85 10000 4.63 20 07:42 03.12.2021
6653 Clear -10 996 89 10000 3.09 20 04:26 03.12.2021
6654 Clear -10 995 84 10000 4.12 20 00:48 03.12.2021
6655 Clear -10 995 80 10000 3.09 30 23:47 02.12.2021
6656 Clouds -9 995 79 10000 4.12 30 21:57 02.12.2021
6657 Clouds -9 995 79 10000 4.63 40 21:30 02.12.2021
6658 Clouds -9 995 82 10000 4.63 30 20:40 02.12.2021
6659 Clouds -9 994 81 10000 5.14 30 19:43 02.12.2021
6660 Clear -8 994 82 10000 4.47 31 18:33 02.12.2021
6661 Clouds -7 993 80 10000 1.79 8 15:52 02.12.2021
6662 Clouds -7 992 80 10000 2.24 44 15:28 02.12.2021
6663 Clouds -7 992 82 10000 0.89 64 14:48 02.12.2021
6664 Clouds -7 991